<?xml version='1.0' encoding='UTF-8'?><gpx version="1.1" creator="JPX - https://github.com/jenetics/jpx" xmlns="http://www.topografix.com/GPX/1/1"><trk><trkseg><trkpt lat="45.9534294750805" lon="12.70659471388861"><ele>21.8</ele><time>2026-04-18T07:40:33.999Z</time></trkpt><trkpt lat="45.95337009651934" lon="12.706742694573341"><ele>21.6</ele><time>2026-04-18T07:40:36Z</time></trkpt><trkpt lat="45.953331728102945" lon="12.706829736358111"><ele>21.400000000000002</ele><time>2026-04-18T07:40:37Z</time></trkpt><trkpt lat="45.95326343716517" lon="12.706919495211528"><ele>21.200000000000003</ele><time>2026-04-18T07:40:39Z</time></trkpt><trkpt lat="45.95336172962087" lon="12.706983692380748"><ele>21.0</ele><time>2026-04-18T07:40:42Z</time></trkpt><trkpt lat="45.95343954034125" lon="12.707003571572969"><ele>21.0</ele><time>2026-04-18T07:40:43Z</time></trkpt><trkpt lat="45.95350446622893" lon="12.706905857048127"><ele>21.0</ele><time>2026-04-18T07:40:45Z</time></trkpt><trkpt lat="45.95356548229341" lon="12.706875697199443"><ele>21.0</ele><time>2026-04-18T07:40:47Z</time></trkpt><trkpt lat="45.95359833492364" lon="12.706993834164264"><ele>21.0</ele><time>2026-04-18T07:40:49Z</time></trkpt><trkpt lat="45.95360860700785" lon="12.707084878632573"><ele>21.0</ele><time>2026-04-18T07:40:50Z</time></trkpt><trkpt lat="45.95361740228205" lon="12.70717644831803"><ele>21.0</ele><time>2026-04-18T07:40:52Z</time></trkpt><trkpt lat="45.95372101588949" lon="12.707132390801974"><ele>21.0</ele><time>2026-04-18T07:40:55Z</time></trkpt><trkpt lat="45.95378845073838" lon="12.707069355647894"><ele>21.0</ele><time>2026-04-18T07:40:57Z</time></trkpt><trkpt lat="45.953880412633" lon="12.707030847155059"><ele>21.0</ele><time>2026-04-18T07:40:59Z</time></trkpt><trkpt lat="45.953901436921456" lon="12.707125333065605"><ele>21.0</ele><time>2026-04-18T07:41:01Z</time></trkpt><trkpt lat="45.95393064953762" lon="12.707240533598078"><ele>21.0</ele><time>2026-04-18T07:41:03.999Z</time></trkpt><trkpt lat="45.953995048571926" lon="12.707293783328229"><ele>21.0</ele><time>2026-04-18T07:41:06.999Z</time></trkpt><trkpt lat="45.954075395734556" lon="12.707291272915796"><ele>21.0</ele><time>2026-04-18T07:41:09.999Z</time></trkpt><trkpt lat="45.95414418522061" lon="12.707230502195111"><ele>21.0</ele><time>2026-04-18T07:41:12.999Z</time></trkpt><trkpt lat="45.954244771010494" lon="12.707241488657552"><ele>21.0</ele><time>2026-04-18T07:41:14.999Z</time></trkpt><trkpt lat="45.954318767727" lon="12.707237469965472"><ele>21.0</ele><time>2026-04-18T07:41:16.999Z</time></trkpt><trkpt lat="45.9544042616836" lon="12.707359290702074"><ele>21.0</ele><time>2026-04-18T07:41:20.999Z</time></trkpt><trkpt lat="45.954468492110145" lon="12.707389389913322"><ele>21.0</ele><time>2026-04-18T07:41:22.999Z</time></trkpt><trkpt lat="45.954530886612964" lon="12.707413350107236"><ele>21.0</ele><time>2026-04-18T07:41:23.999Z</time></trkpt><trkpt lat="45.954661327460904" lon="12.707486479129683"><ele>21.0</ele><time>2026-04-18T07:41:25.999Z</time></trkpt><trkpt lat="45.95474216929249" lon="12.707493740367417"><ele>21.0</ele><time>2026-04-18T07:41:26.999Z</time></trkpt><trkpt lat="45.95482555683525" lon="12.70748022684161"><ele>21.0</ele><time>2026-04-18T07:41:27.999Z</time></trkpt><trkpt lat="45.954919878670204" lon="12.707468202456948"><ele>21.0</ele><time>2026-04-18T07:41:30.999Z</time></trkpt><trkpt lat="45.9550223430345" lon="12.707539765439458"><ele>20.666666666666668</ele><time>2026-04-18T07:41:33.999Z</time></trkpt><trkpt lat="45.9551033149554" lon="12.707552179170973"><ele>20.333333333333332</ele><time>2026-04-18T07:41:35.999Z</time></trkpt><trkpt lat="45.95518403902384" lon="12.707529703401814"><ele>20.0</ele><time>2026-04-18T07:41:37.999Z</time></trkpt><trkpt lat="45.955282209401744" lon="12.707462114708747"><ele>19.666666666666664</ele><time>2026-04-18T07:41:39.999Z</time></trkpt><trkpt lat="45.95534873181489" lon="12.707441291221514"><ele>19.333333333333332</ele><time>2026-04-18T07:41:41.999Z</time></trkpt><trkpt lat="45.95539363958283" lon="12.707506503000051"><ele>19.0</ele><time>2026-04-18T07:41:43.999Z</time></trkpt><trkpt lat="45.9554084668164" lon="12.707625113424651"><ele>19.0</ele><time>2026-04-18T07:41:45.999Z</time></trkpt><trkpt lat="45.95536790919282" lon="12.707736954802098"><ele>19.0</ele><time>2026-04-18T07:41:47.999Z</time></trkpt><trkpt lat="45.95532396962981" lon="12.70780202968131"><ele>19.0</ele><time>2026-04-18T07:41:49.999Z</time></trkpt><trkpt lat="45.95531424447285" lon="12.70791350168959"><ele>19.0</ele><time>2026-04-18T07:41:51.999Z</time></trkpt><trkpt lat="45.95532186243135" lon="12.708019366306841"><ele>19.0</ele><time>2026-04-18T07:41:54.999Z</time></trkpt><trkpt lat="45.955340792398815" lon="12.708118104312842"><ele>19.0</ele><time>2026-04-18T07:41:57.999Z</time></trkpt><trkpt lat="45.9554135230267" lon="12.708192755426602"><ele>19.2</ele><time>2026-04-18T07:42:00.999Z</time></trkpt><trkpt lat="45.955436148275666" lon="12.708285759197501"><ele>19.4</ele><time>2026-04-18T07:42:02.999Z</time></trkpt><trkpt lat="45.95546953851127" lon="12.708364780782073"><ele>19.6</ele><time>2026-04-18T07:42:04.999Z</time></trkpt><trkpt lat="45.95562378762851" lon="12.708543134461372"><ele>19.8</ele><time>2026-04-18T07:42:07.999Z</time></trkpt><trkpt lat="45.955684840151775" lon="12.708572449852419"><ele>20.0</ele><time>2026-04-18T07:42:08.999Z</time></trkpt><trkpt lat="45.95574774061445" lon="12.708626728251755"><ele>20.166666666666668</ele><time>2026-04-18T07:42:09.999Z</time></trkpt><trkpt lat="45.955810148733235" lon="12.708697242309361"><ele>20.333333333333336</ele><time>2026-04-18T07:42:10.999Z</time></trkpt><trkpt lat="45.95585240322612" lon="12.708769410925534"><ele>20.5</ele><time>2026-04-18T07:42:11.999Z</time></trkpt><trkpt lat="45.95590334582974" lon="12.708851836507083"><ele>20.666666666666668</ele><time>2026-04-18T07:42:12.999Z</time></trkpt><trkpt lat="45.95595613316876" lon="12.708940290415383"><ele>20.833333333333332</ele><time>2026-04-18T07:42:13.999Z</time></trkpt><trkpt lat="45.956011643604214" lon="12.709028413106104"><ele>21.0</ele><time>2026-04-18T07:42:14.999Z</time></trkpt><trkpt lat="45.95606597126956" lon="12.709117311922963"><ele>20.666666666666668</ele><time>2026-04-18T07:42:15.999Z</time></trkpt><trkpt lat="45.956119601611704" lon="12.709202508906397"><ele>20.333333333333332</ele><time>2026-04-18T07:42:16.999Z</time></trkpt><trkpt lat="45.95617672207781" lon="12.709295006500708"><ele>20.0</ele><time>2026-04-18T07:42:17.999Z</time></trkpt><trkpt lat="45.95623595259282" lon="12.709393814901729"><ele>19.666666666666664</ele><time>2026-04-18T07:42:18.999Z</time></trkpt><trkpt lat="45.95628822410895" lon="12.70948163295193"><ele>19.333333333333332</ele><time>2026-04-18T07:42:19.999Z</time></trkpt><trkpt lat="45.95633332058282" lon="12.709553629615108"><ele>19.0</ele><time>2026-04-18T07:42:20.999Z</time></trkpt><trkpt lat="45.95640154741552" lon="12.709655451459318"><ele>19.0</ele><time>2026-04-18T07:42:22.999Z</time></trkpt><trkpt lat="45.9564673702515" lon="12.709792465780733"><ele>19.0</ele><time>2026-04-18T07:42:24.999Z</time></trkpt><trkpt lat="45.95649141191437" lon="12.709975327402663"><ele>19.0</ele><time>2026-04-18T07:42:26.999Z</time></trkpt><trkpt lat="45.95651421720862" lon="12.710062316504578"><ele>19.0</ele><time>2026-04-18T07:42:27.999Z</time></trkpt><trkpt lat="45.956568653319756" lon="12.710202648554667"><ele>19.0</ele><time>2026-04-18T07:42:29.999Z</time></trkpt><trkpt lat="45.95664077915356" lon="12.710343057190903"><ele>19.0</ele><time>2026-04-18T07:42:32Z</time></trkpt><trkpt lat="45.95673952865748" lon="12.71046125305526"><ele>19.0</ele><time>2026-04-18T07:42:34Z</time></trkpt><trkpt lat="45.95679801683417" lon="12.710507188236472"><ele>19.0</ele><time>2026-04-18T07:42:35Z</time></trkpt><trkpt lat="45.95687297860036" lon="12.71053364593442"><ele>19.0</ele><time>2026-04-18T07:42:36Z</time></trkpt><trkpt lat="45.9569370854565" lon="12.710574022963733"><ele>19.0</ele><time>2026-04-18T07:42:37Z</time></trkpt><trkpt lat="45.957036615537895" lon="12.710620662591555"><ele>19.0</ele><time>2026-04-18T07:42:39Z</time></trkpt><trkpt lat="45.95710488398955" lon="12.710725234841668"><ele>19.0</ele><time>2026-04-18T07:42:41Z</time></trkpt><trkpt lat="45.957212093397224" lon="12.71076837969574"><ele>19.0</ele><time>2026-04-18T07:42:43Z</time></trkpt><trkpt lat="45.957280222391425" lon="12.710815238204537"><ele>19.0</ele><time>2026-04-18T07:42:44Z</time></trkpt><trkpt lat="45.9573357894965" lon="12.71086503502783"><ele>19.0</ele><time>2026-04-18T07:42:45Z</time></trkpt><trkpt lat="45.957414945482654" lon="12.710993728287399"><ele>19.0</ele><time>2026-04-18T07:42:46Z</time></trkpt><trkpt lat="45.957517010601485" lon="12.711207436320642"><ele>19.2</ele><time>2026-04-18T07:42:47Z</time></trkpt><trkpt lat="45.95760741769408" lon="12.711347085080808"><ele>19.4</ele><time>2026-04-18T07:42:48Z</time></trkpt><trkpt lat="45.95767561037535" lon="12.711447475627919"><ele>19.6</ele><time>2026-04-18T07:42:49Z</time></trkpt><trkpt lat="45.957722962687036" lon="12.711537908193227"><ele>19.8</ele><time>2026-04-18T07:42:50Z</time></trkpt><trkpt lat="45.957756383986" lon="12.711628052739723"><ele>20.0</ele><time>2026-04-18T07:42:51Z</time></trkpt><trkpt lat="45.95777983571061" lon="12.711793070022612"><ele>20.0</ele><time>2026-04-18T07:42:53Z</time></trkpt><trkpt lat="45.957775456903576" lon="12.71188345424621"><ele>20.0</ele><time>2026-04-18T07:42:54Z</time></trkpt><trkpt lat="45.95781649653338" lon="12.712001746132472"><ele>20.0</ele><time>2026-04-18T07:42:56Z</time></trkpt><trkpt lat="45.95788975156688" lon="12.71208225924945"><ele>20.0</ele><time>2026-04-18T07:42:58Z</time></trkpt><trkpt lat="45.95794982329961" lon="12.71216520706208"><ele>20.0</ele><time>2026-04-18T07:43:00Z</time></trkpt><trkpt lat="45.9579817417173" lon="12.712247161145863"><ele>20.0</ele><time>2026-04-18T07:43:19Z</time></trkpt><trkpt lat="45.95798811494422" lon="12.712372603041567"><ele>20.166666666666668</ele><time>2026-04-18T07:43:23Z</time></trkpt><trkpt lat="45.95803680339399" lon="12.712470666614676"><ele>20.333333333333336</ele><time>2026-04-18T07:43:25Z</time></trkpt><trkpt lat="45.958098282333786" lon="12.712547026200468"><ele>20.5</ele><time>2026-04-18T07:43:26.999Z</time></trkpt><trkpt lat="45.95817414117573" lon="12.712566494191565"><ele>20.666666666666668</ele><time>2026-04-18T07:43:28.999Z</time></trkpt><trkpt lat="45.958241131148526" lon="12.712532831373979"><ele>20.833333333333332</ele><time>2026-04-18T07:43:30.999Z</time></trkpt><trkpt lat="45.95832513886968" lon="12.71257924290948"><ele>21.0</ele><time>2026-04-18T07:43:32.999Z</time></trkpt><trkpt lat="45.95839973861783" lon="12.712577651703251"><ele>20.6</ele><time>2026-04-18T07:43:34.999Z</time></trkpt><trkpt lat="45.958485974724915" lon="12.712561547579615"><ele>20.200000000000003</ele><time>2026-04-18T07:43:36.999Z</time></trkpt><trkpt lat="45.95849102349538" lon="12.712429046849982"><ele>19.799999999999997</ele><time>2026-04-18T07:43:38.999Z</time></trkpt><trkpt lat="45.95850234404622" lon="12.712332226293096"><ele>19.4</ele><time>2026-04-18T07:43:40.999Z</time></trkpt><trkpt lat="45.95863359020163" lon="12.71231316731489"><ele>19.0</ele><time>2026-04-18T07:43:42.999Z</time></trkpt><trkpt lat="45.958709080056806" lon="12.712247205577732"><ele>19.0</ele><time>2026-04-18T07:43:45.999Z</time></trkpt><trkpt lat="45.95875447855001" lon="12.712340996119686"><ele>19.0</ele><time>2026-04-18T07:43:46.999Z</time></trkpt><trkpt lat="45.958791075848865" lon="12.71242618817948"><ele>19.0</ele><time>2026-04-18T07:43:48.999Z</time></trkpt><trkpt lat="45.95889135319474" lon="12.712485744089527"><ele>19.0</ele><time>2026-04-18T07:43:50.999Z</time></trkpt><trkpt lat="45.95891553215894" lon="12.712588282683202"><ele>19.0</ele><time>2026-04-18T07:43:52.999Z</time></trkpt><trkpt lat="45.95898811728587" lon="12.71268466261541"><ele>19.0</ele><time>2026-04-18T07:43:54.999Z</time></trkpt><trkpt lat="45.95909525133695" lon="12.712719225874208"><ele>19.4</ele><time>2026-04-18T07:43:56.999Z</time></trkpt><trkpt lat="45.95919470820654" lon="12.712841941977898"><ele>19.799999999999997</ele><time>2026-04-18T07:43:58.999Z</time></trkpt><trkpt lat="45.95925055986431" lon="12.71300794300205"><ele>20.200000000000003</ele><time>2026-04-18T07:44:00.999Z</time></trkpt><trkpt lat="45.959285602895605" lon="12.713098208837076"><ele>20.6</ele><time>2026-04-18T07:44:01.999Z</time></trkpt><trkpt lat="45.95932964681936" lon="12.71320778926603"><ele>21.0</ele><time>2026-04-18T07:44:02.999Z</time></trkpt><trkpt lat="45.9593759952948" lon="12.713321094496337"><ele>21.0</ele><time>2026-04-18T07:44:03.999Z</time></trkpt><trkpt lat="45.9593797885252" lon="12.71343474790596"><ele>21.0</ele><time>2026-04-18T07:44:04.999Z</time></trkpt><trkpt lat="45.959398120890526" lon="12.713543488573334"><ele>21.0</ele><time>2026-04-18T07:44:05.999Z</time></trkpt><trkpt lat="45.95941726801473" lon="12.713645026144167"><ele>21.0</ele><time>2026-04-18T07:44:06.999Z</time></trkpt><trkpt lat="45.95945668356143" lon="12.713774305429775"><ele>21.0</ele><time>2026-04-18T07:44:08.999Z</time></trkpt><trkpt lat="45.95950239773322" lon="12.713916131130421"><ele>21.0</ele><time>2026-04-18T07:44:10.999Z</time></trkpt><trkpt lat="45.95952050713015" lon="12.714066845137665"><ele>21.0</ele><time>2026-04-18T07:44:12.999Z</time></trkpt><trkpt lat="45.95949282572516" lon="12.71416499041997"><ele>21.0</ele><time>2026-04-18T07:44:14.999Z</time></trkpt><trkpt lat="45.959409066544296" lon="12.714212564700961"><ele>21.0</ele><time>2026-04-18T07:44:43Z</time></trkpt><trkpt lat="45.95933076628057" lon="12.714267561468619"><ele>21.0</ele><time>2026-04-18T07:44:45Z</time></trkpt><trkpt lat="45.959241958860034" lon="12.714256173126135"><ele>21.0</ele><time>2026-04-18T07:44:47Z</time></trkpt><trkpt lat="45.959165172332554" lon="12.714228857212898"><ele>21.0</ele><time>2026-04-18T07:44:49Z</time></trkpt><trkpt lat="45.95910449362951" lon="12.714189215940797"><ele>21.0</ele><time>2026-04-18T07:44:51Z</time></trkpt><trkpt lat="45.95903878919718" lon="12.71412090321192"><ele>21.0</ele><time>2026-04-18T07:44:53Z</time></trkpt><trkpt lat="45.958992859250465" lon="12.714056610840638"><ele>21.0</ele><time>2026-04-18T07:44:54Z</time></trkpt><trkpt lat="45.95898737310753" lon="12.713884178646241"><ele>21.0</ele><time>2026-04-18T07:44:56Z</time></trkpt><trkpt lat="45.95899460763996" lon="12.71378388918947"><ele>21.0</ele><time>2026-04-18T07:44:57Z</time></trkpt><trkpt lat="45.959015016963136" lon="12.713655960259711"><ele>21.0</ele><time>2026-04-18T07:44:59Z</time></trkpt><trkpt lat="45.95908354710552" lon="12.71358848872288"><ele>21.0</ele><time>2026-04-18T07:45:01Z</time></trkpt><trkpt lat="45.9591715866921" lon="12.713601205382602"><ele>21.0</ele><time>2026-04-18T07:45:03Z</time></trkpt><trkpt lat="45.959276912961435" lon="12.713607122792842"><ele>21.0</ele><time>2026-04-18T07:45:06Z</time></trkpt><trkpt lat="45.9593716066738" lon="12.713632404943132"><ele>21.0</ele><time>2026-04-18T07:45:08Z</time></trkpt><trkpt lat="45.95941040951649" lon="12.71374133367005"><ele>21.0</ele><time>2026-04-18T07:45:10Z</time></trkpt><trkpt lat="45.95941379233182" lon="12.71392944367388"><ele>21.0</ele><time>2026-04-18T07:45:12Z</time></trkpt><trkpt lat="45.95941795011976" lon="12.714046225410478"><ele>21.0</ele><time>2026-04-18T07:45:13Z</time></trkpt><trkpt lat="45.959392841241296" lon="12.71419382844147"><ele>21.0</ele><time>2026-04-18T07:45:15Z</time></trkpt><trkpt lat="45.95930047721431" lon="12.714257761849977"><ele>21.0</ele><time>2026-04-18T07:45:17Z</time></trkpt><trkpt lat="45.95922517697449" lon="12.71423126818896"><ele>21.0</ele><time>2026-04-18T07:45:19Z</time></trkpt><trkpt lat="45.95915169749859" lon="12.714219005484741"><ele>21.0</ele><time>2026-04-18T07:45:21Z</time></trkpt><trkpt lat="45.95909433228191" lon="12.714168114831486"><ele>21.0</ele><time>2026-04-18T07:45:23Z</time></trkpt><trkpt lat="45.959043719174396" lon="12.714108626274513"><ele>21.0</ele><time>2026-04-18T07:45:24Z</time></trkpt><trkpt lat="45.95899364682833" lon="12.713988476594126"><ele>21.0</ele><time>2026-04-18T07:45:25Z</time></trkpt><trkpt lat="45.95901446506251" lon="12.713825873608203"><ele>21.0</ele><time>2026-04-18T07:45:27Z</time></trkpt><trkpt lat="45.959025823431986" lon="12.713733257792825"><ele>21.0</ele><time>2026-04-18T07:45:28Z</time></trkpt><trkpt lat="45.959074093751006" lon="12.713628329532488"><ele>21.0</ele><time>2026-04-18T07:45:30Z</time></trkpt><trkpt lat="45.95917907565012" lon="12.71360334888"><ele>20.400000000000002</ele><time>2026-04-18T07:45:32Z</time></trkpt><trkpt lat="45.95929462972813" lon="12.713622808436032"><ele>19.8</ele><time>2026-04-18T07:45:34Z</time></trkpt><trkpt lat="45.95937925206489" lon="12.713663984230989"><ele>19.200000000000003</ele><time>2026-04-18T07:45:36Z</time></trkpt><trkpt lat="45.95940543019283" lon="12.713747640327687"><ele>18.6</ele><time>2026-04-18T07:45:37Z</time></trkpt><trkpt lat="45.95943740819215" lon="12.713902620446044"><ele>18.0</ele><time>2026-04-18T07:45:39Z</time></trkpt><trkpt lat="45.95944290024999" lon="12.714033978515133"><ele>18.0</ele><time>2026-04-18T07:45:41Z</time></trkpt><trkpt lat="45.959400008750016" lon="12.714183829784417"><ele>18.0</ele><time>2026-04-18T07:45:43Z</time></trkpt><trkpt lat="45.959365528469135" lon="12.71428321075288"><ele>18.0</ele><time>2026-04-18T07:45:45Z</time></trkpt><trkpt lat="45.95931390444054" lon="12.71438963530921"><ele>18.0</ele><time>2026-04-18T07:45:47Z</time></trkpt><trkpt lat="45.95928275017439" lon="12.714546900000824"><ele>18.0</ele><time>2026-04-18T07:45:49Z</time></trkpt><trkpt lat="45.95928564365357" lon="12.714655051583314"><ele>17.8</ele><time>2026-04-18T07:45:51Z</time></trkpt><trkpt lat="45.95935259928181" lon="12.714692249239079"><ele>17.6</ele><time>2026-04-18T07:45:53Z</time></trkpt><trkpt lat="45.95944598818304" lon="12.714675236707743"><ele>17.4</ele><time>2026-04-18T07:45:55Z</time></trkpt><trkpt lat="45.95947800928561" lon="12.714762217399635"><ele>17.2</ele><time>2026-04-18T07:45:56.999Z</time></trkpt><trkpt lat="45.95947263317551" lon="12.714971789229788"><ele>17.0</ele><time>2026-04-18T07:45:58.999Z</time></trkpt><trkpt lat="45.959452835309925" lon="12.715145044008484"><ele>17.5</ele><time>2026-04-18T07:45:59.999Z</time></trkpt><trkpt lat="45.959435083231185" lon="12.71539067090358"><ele>18.0</ele><time>2026-04-18T07:46:00.999Z</time></trkpt><trkpt lat="45.959424988931076" lon="12.715614190137453"><ele>18.5</ele><time>2026-04-18T07:46:01.999Z</time></trkpt><trkpt lat="45.95941407016224" lon="12.715775835955082"><ele>19.0</ele><time>2026-04-18T07:46:02.999Z</time></trkpt><trkpt lat="45.959398222955876" lon="12.71589190784539"><ele>19.0</ele><time>2026-04-18T07:46:03.999Z</time></trkpt><trkpt lat="45.9593761310768" lon="12.716001335442744"><ele>19.0</ele><time>2026-04-18T07:46:04.999Z</time></trkpt><trkpt lat="45.95934540654393" lon="12.716082929720974"><ele>19.0</ele><time>2026-04-18T07:46:05.999Z</time></trkpt><trkpt lat="45.95930455401322" lon="12.716167068164143"><ele>19.0</ele><time>2026-04-18T07:46:06.999Z</time></trkpt><trkpt lat="45.95925955281972" lon="12.716261472523792"><ele>19.0</ele><time>2026-04-18T07:46:07.999Z</time></trkpt><trkpt lat="45.95922061115734" lon="12.71635120435554"><ele>19.0</ele><time>2026-04-18T07:46:08.999Z</time></trkpt><trkpt lat="45.959193254651744" lon="12.716453381619218"><ele>19.0</ele><time>2026-04-18T07:46:09.999Z</time></trkpt><trkpt lat="45.95917074550929" lon="12.716570925553418"><ele>18.833333333333332</ele><time>2026-04-18T07:46:10.999Z</time></trkpt><trkpt lat="45.95916145133054" lon="12.716696219450617"><ele>18.666666666666664</ele><time>2026-04-18T07:46:11.999Z</time></trkpt><trkpt lat="45.95914619546191" lon="12.716822158722971"><ele>18.5</ele><time>2026-04-18T07:46:12.999Z</time></trkpt><trkpt lat="45.959138218573166" lon="12.716939866876396"><ele>18.333333333333332</ele><time>2026-04-18T07:46:13.999Z</time></trkpt><trkpt lat="45.95913441845393" lon="12.717066200844839"><ele>18.166666666666668</ele><time>2026-04-18T07:46:14.999Z</time></trkpt><trkpt lat="45.959128267727955" lon="12.717196753810358"><ele>18.0</ele><time>2026-04-18T07:46:15.999Z</time></trkpt><trkpt lat="45.95912486556003" lon="12.717301050112424"><ele>18.0</ele><time>2026-04-18T07:46:16.999Z</time></trkpt><trkpt lat="45.95911695170593" lon="12.717454544591396"><ele>18.0</ele><time>2026-04-18T07:46:18.999Z</time></trkpt><trkpt lat="45.95912471371684" lon="12.717580579131564"><ele>18.0</ele><time>2026-04-18T07:46:20.999Z</time></trkpt><trkpt lat="45.95910499323926" lon="12.717731238556437"><ele>18.0</ele><time>2026-04-18T07:46:22.999Z</time></trkpt><trkpt lat="45.95911367053357" lon="12.717837379615753"><ele>18.0</ele><time>2026-04-18T07:46:24.999Z</time></trkpt><trkpt lat="45.95903818941722" lon="12.717855532882774"><ele>18.0</ele><time>2026-04-18T07:46:29.999Z</time></trkpt><trkpt lat="45.95894677569539" lon="12.717857002145749"><ele>18.0</ele><time>2026-04-18T07:46:33.999Z</time></trkpt><trkpt lat="45.958858028139105" lon="12.71792046209065"><ele>18.0</ele><time>2026-04-18T07:46:35.999Z</time></trkpt><trkpt lat="45.95876307767593" lon="12.71787762772876"><ele>18.0</ele><time>2026-04-18T07:46:36.999Z</time></trkpt><trkpt lat="45.958698778007076" lon="12.717925911751319"><ele>18.0</ele><time>2026-04-18T07:46:37.999Z</time></trkpt><trkpt lat="45.9585815771348" lon="12.717970455002503"><ele>18.0</ele><time>2026-04-18T07:46:39.999Z</time></trkpt><trkpt lat="45.95851888069656" lon="12.718018160910407"><ele>18.0</ele><time>2026-04-18T07:46:41.999Z</time></trkpt><trkpt lat="45.95847996329327" lon="12.718161706381213"><ele>18.0</ele><time>2026-04-18T07:46:45Z</time></trkpt><trkpt lat="45.9584372869073" lon="12.718292773104766"><ele>18.0</ele><time>2026-04-18T07:46:47Z</time></trkpt><trkpt lat="45.95838598248889" lon="12.718453741533128"><ele>18.0</ele><time>2026-04-18T07:46:49Z</time></trkpt><trkpt lat="45.95837562943226" lon="12.718573538406368"><ele>18.2</ele><time>2026-04-18T07:46:51Z</time></trkpt><trkpt lat="45.95843156914617" lon="12.718712297773495"><ele>18.4</ele><time>2026-04-18T07:46:54Z</time></trkpt><trkpt lat="45.9585105777898" lon="12.718904288627089"><ele>18.599999999999998</ele><time>2026-04-18T07:46:56Z</time></trkpt><trkpt lat="45.95853593412892" lon="12.71898798159555"><ele>18.8</ele><time>2026-04-18T07:46:57Z</time></trkpt><trkpt lat="45.95856149777373" lon="12.719078261762029"><ele>19.0</ele><time>2026-04-18T07:46:58Z</time></trkpt><trkpt lat="45.95855512641632" lon="12.719209023587734"><ele>19.0</ele><time>2026-04-18T07:46:59Z</time></trkpt><trkpt lat="45.958553688663606" lon="12.719312351766265"><ele>19.0</ele><time>2026-04-18T07:47:00Z</time></trkpt><trkpt lat="45.95852481370081" lon="12.71940327190612"><ele>19.0</ele><time>2026-04-18T07:47:01Z</time></trkpt><trkpt lat="45.95847421315545" lon="12.719543135256536"><ele>19.0</ele><time>2026-04-18T07:47:03Z</time></trkpt><trkpt lat="45.95849511491485" lon="12.719665895339483"><ele>19.0</ele><time>2026-04-18T07:47:07Z</time></trkpt><trkpt lat="45.958447675220825" lon="12.719928333062903"><ele>19.166666666666664</ele><time>2026-04-18T07:47:23Z</time></trkpt><trkpt lat="45.95840518556351" lon="12.720035244349514"><ele>19.333333333333332</ele><time>2026-04-18T07:47:25Z</time></trkpt><trkpt lat="45.958422009692335" lon="12.720213653645754"><ele>19.5</ele><time>2026-04-18T07:47:27Z</time></trkpt><trkpt lat="45.95843906840566" lon="12.720337547073816"><ele>19.666666666666668</ele><time>2026-04-18T07:47:29Z</time></trkpt><trkpt lat="45.95846534154822" lon="12.720444198257098"><ele>19.833333333333336</ele><time>2026-04-18T07:47:32Z</time></trkpt><trkpt lat="45.958454342085545" lon="12.720536969076262"><ele>20.0</ele><time>2026-04-18T07:47:35Z</time></trkpt><trkpt lat="45.958429782445656" lon="12.720632380565315"><ele>20.0</ele><time>2026-04-18T07:47:37Z</time></trkpt><trkpt lat="45.958486453575105" lon="12.72073233979979"><ele>20.0</ele><time>2026-04-18T07:47:40Z</time></trkpt><trkpt lat="45.958514907742746" lon="12.720906299654876"><ele>20.0</ele><time>2026-04-18T07:47:45Z</time></trkpt><trkpt lat="45.95845833912698" lon="12.721027579713208"><ele>20.0</ele><time>2026-04-18T07:47:46Z</time></trkpt><trkpt lat="45.958447622943424" lon="12.721149624612941"><ele>20.0</ele><time>2026-04-18T07:47:48Z</time></trkpt><trkpt lat="45.95848040686546" lon="12.721272445042818"><ele>20.2</ele><time>2026-04-18T07:47:50Z</time></trkpt><trkpt lat="45.95846267913029" lon="12.721418136568827"><ele>20.4</ele><time>2026-04-18T07:47:52Z</time></trkpt><trkpt lat="45.95841012055243" lon="12.721575350778165"><ele>20.6</ele><time>2026-04-18T07:47:54Z</time></trkpt><trkpt lat="45.9583690545248" lon="12.721681635926966"><ele>20.8</ele><time>2026-04-18T07:47:56Z</time></trkpt><trkpt lat="45.95840327641905" lon="12.721791068250745"><ele>21.0</ele><time>2026-04-18T07:47:58Z</time></trkpt><trkpt lat="45.958354743981985" lon="12.72191917326988"><ele>21.0</ele><time>2026-04-18T07:48:00Z</time></trkpt><trkpt lat="45.95834798040389" lon="12.722031348832312"><ele>21.0</ele><time>2026-04-18T07:48:02Z</time></trkpt><trkpt lat="45.958377375844975" lon="12.722119548149118"><ele>21.0</ele><time>2026-04-18T07:48:03Z</time></trkpt><trkpt lat="45.95841274077073" lon="12.72219907237136"><ele>21.0</ele><time>2026-04-18T07:48:05Z</time></trkpt><trkpt lat="45.95841250666596" lon="12.722303638426625"><ele>21.0</ele><time>2026-04-18T07:48:10Z</time></trkpt><trkpt lat="45.95838095138667" lon="12.72245619011702"><ele>21.0</ele><time>2026-04-18T07:48:12Z</time></trkpt><trkpt lat="45.9583667138777" lon="12.72256542847837"><ele>21.166666666666668</ele><time>2026-04-18T07:48:14Z</time></trkpt><trkpt lat="45.95832322886009" lon="12.72269536819592"><ele>21.333333333333332</ele><time>2026-04-18T07:48:16Z</time></trkpt><trkpt lat="45.95830186856322" lon="12.722804559908854"><ele>21.5</ele><time>2026-04-18T07:48:17Z</time></trkpt><trkpt lat="45.95830457590727" lon="12.722903300800445"><ele>21.666666666666664</ele><time>2026-04-18T07:48:18Z</time></trkpt><trkpt lat="45.958291204102466" lon="12.723007523111576"><ele>21.833333333333332</ele><time>2026-04-18T07:48:19Z</time></trkpt><trkpt lat="45.958264333048234" lon="12.723102564453535"><ele>22.0</ele><time>2026-04-18T07:48:19.999Z</time></trkpt><trkpt lat="45.95824217980051" lon="12.723190818880882"><ele>22.0</ele><time>2026-04-18T07:48:20.999Z</time></trkpt><trkpt lat="45.95823340770341" lon="12.72337717988526"><ele>22.0</ele><time>2026-04-18T07:48:22.999Z</time></trkpt><trkpt lat="45.95822303655143" lon="12.723480395000141"><ele>22.0</ele><time>2026-04-18T07:48:23.998Z</time></trkpt><trkpt lat="45.95820833286409" lon="12.723574099657432"><ele>22.0</ele><time>2026-04-18T07:48:24.998Z</time></trkpt><trkpt lat="45.958199035345345" lon="12.723672685047067"><ele>22.0</ele><time>2026-04-18T07:48:25.998Z</time></trkpt><trkpt lat="45.95819223796046" lon="12.72377413485368"><ele>22.0</ele><time>2026-04-18T07:48:26.998Z</time></trkpt><trkpt lat="45.95817962970928" lon="12.72386812494008"><ele>22.0</ele><time>2026-04-18T07:48:29.998Z</time></trkpt><trkpt lat="45.9581111942141" lon="12.723920379919207"><ele>22.0</ele><time>2026-04-18T07:48:31.998Z</time></trkpt><trkpt lat="45.95804490225537" lon="12.724007000551625"><ele>22.0</ele><time>2026-04-18T07:48:33.998Z</time></trkpt><trkpt lat="45.958028818024175" lon="12.72411415287576"><ele>22.0</ele><time>2026-04-18T07:48:35.998Z</time></trkpt><trkpt lat="45.95804347003038" lon="12.724216462777118"><ele>22.0</ele><time>2026-04-18T07:48:36.998Z</time></trkpt><trkpt lat="45.95808155634037" lon="12.724301626676553"><ele>22.0</ele><time>2026-04-18T07:48:38.998Z</time></trkpt><trkpt lat="45.95818027222038" lon="12.724469123454442"><ele>22.200000000000003</ele><time>2026-04-18T07:48:40.998Z</time></trkpt><trkpt lat="45.95821234838223" lon="12.724617545098923"><ele>22.4</ele><time>2026-04-18T07:48:42.998Z</time></trkpt><trkpt lat="45.95818404521658" lon="12.72479386773274"><ele>22.6</ele><time>2026-04-18T07:48:44.998Z</time></trkpt><trkpt lat="45.9581601316276" lon="12.724954800892684"><ele>22.799999999999997</ele><time>2026-04-18T07:48:46.998Z</time></trkpt><trkpt lat="45.95816599407103" lon="12.72508413175654"><ele>23.0</ele><time>2026-04-18T07:48:48.998Z</time></trkpt><trkpt lat="45.95825002714983" lon="12.725157791309536"><ele>23.0</ele><time>2026-04-18T07:48:51Z</time></trkpt><trkpt lat="45.95830720218295" lon="12.72520217797443"><ele>23.0</ele><time>2026-04-18T07:48:52Z</time></trkpt><trkpt lat="45.958363729721476" lon="12.725354392476955"><ele>23.0</ele><time>2026-04-18T07:48:54Z</time></trkpt><trkpt lat="45.95843327168572" lon="12.72539811176126"><ele>23.0</ele><time>2026-04-18T07:48:56Z</time></trkpt><trkpt lat="45.958509812622616" lon="12.725445470288674"><ele>23.0</ele><time>2026-04-18T07:48:58Z</time></trkpt><trkpt lat="45.95848435336742" lon="12.72555169982985"><ele>23.0</ele><time>2026-04-18T07:49:00Z</time></trkpt><trkpt lat="45.95852549690981" lon="12.725683155068912"><ele>23.0</ele><time>2026-04-18T07:49:02Z</time></trkpt><trkpt lat="45.958613547409" lon="12.725761244312928"><ele>23.0</ele><time>2026-04-18T07:49:04Z</time></trkpt><trkpt lat="45.95867431658213" lon="12.725916860618561"><ele>23.0</ele><time>2026-04-18T07:49:06Z</time></trkpt><trkpt lat="45.95874458574965" lon="12.726016470310263"><ele>23.0</ele><time>2026-04-18T07:49:08Z</time></trkpt><trkpt lat="45.95884198704967" lon="12.726068838555669"><ele>23.0</ele><time>2026-04-18T07:49:10Z</time></trkpt><trkpt lat="45.958909204351876" lon="12.726076156503854"><ele>23.0</ele><time>2026-04-18T07:49:11Z</time></trkpt><trkpt lat="45.95899750111652" lon="12.726125851677942"><ele>23.0</ele><time>2026-04-18T07:49:12.999Z</time></trkpt><trkpt lat="45.95905032859676" lon="12.726291180617206"><ele>23.0</ele><time>2026-04-18T07:49:14.999Z</time></trkpt><trkpt lat="45.959104468677914" lon="12.72641558841215"><ele>23.0</ele><time>2026-04-18T07:49:16.999Z</time></trkpt><trkpt lat="45.95917771787346" lon="12.726445126241197"><ele>23.0</ele><time>2026-04-18T07:49:19.999Z</time></trkpt><trkpt lat="45.95926273853019" lon="12.726482328857383"><ele>22.799999999999997</ele><time>2026-04-18T07:49:22.999Z</time></trkpt><trkpt lat="45.959297104086126" lon="12.726571360980316"><ele>22.6</ele><time>2026-04-18T07:49:23.999Z</time></trkpt><trkpt lat="45.959351608013144" lon="12.726653239445419"><ele>22.4</ele><time>2026-04-18T07:49:25.999Z</time></trkpt><trkpt lat="45.959401100419356" lon="12.726753346875874"><ele>22.200000000000003</ele><time>2026-04-18T07:49:28.999Z</time></trkpt><trkpt lat="45.959450077543266" lon="12.726822806046023"><ele>22.0</ele><time>2026-04-18T07:49:30.999Z</time></trkpt><trkpt lat="45.959599802177415" lon="12.726933300726579"><ele>22.0</ele><time>2026-04-18T07:49:31.999Z</time></trkpt><trkpt lat="45.959714260296046" lon="12.726967152939512"><ele>22.0</ele><time>2026-04-18T07:49:33.999Z</time></trkpt><trkpt lat="45.95980983391017" lon="12.727022022004341"><ele>22.0</ele><time>2026-04-18T07:49:34.999Z</time></trkpt><trkpt lat="45.959890392523775" lon="12.727060367464325"><ele>22.0</ele><time>2026-04-18T07:49:35.999Z</time></trkpt><trkpt lat="45.95995326322901" lon="12.727087267941178"><ele>22.0</ele><time>2026-04-18T07:49:36.999Z</time></trkpt><trkpt lat="45.960027759989245" lon="12.727117501127465"><ele>22.0</ele><time>2026-04-18T07:49:38.999Z</time></trkpt><trkpt lat="45.96008011781373" lon="12.727193322874983"><ele>22.0</ele><time>2026-04-18T07:49:41.999Z</time></trkpt><trkpt lat="45.96007487637428" lon="12.727316283687706"><ele>22.0</ele><time>2026-04-18T07:49:44.999Z</time></trkpt><trkpt lat="45.96007252470083" lon="12.72741228961488"><ele>22.0</ele><time>2026-04-18T07:49:46.999Z</time></trkpt><trkpt lat="45.9600447632584" lon="12.727540476446036"><ele>22.0</ele><time>2026-04-18T07:49:48.999Z</time></trkpt><trkpt lat="45.9600211676634" lon="12.727647289187981"><ele>22.0</ele><time>2026-04-18T07:49:50.999Z</time></trkpt><trkpt lat="45.96002530085773" lon="12.727747086246685"><ele>22.0</ele><time>2026-04-18T07:49:51.999Z</time></trkpt><trkpt lat="45.96003530970664" lon="12.727907994738912"><ele>22.200000000000003</ele><time>2026-04-18T07:49:53.999Z</time></trkpt><trkpt lat="45.96010081736662" lon="12.728055549672677"><ele>22.4</ele><time>2026-04-18T07:49:55.999Z</time></trkpt><trkpt lat="45.960151926302316" lon="12.728143159671763"><ele>22.6</ele><time>2026-04-18T07:49:56.999Z</time></trkpt><trkpt lat="45.96021722407889" lon="12.72823915819651"><ele>22.799999999999997</ele><time>2026-04-18T07:49:57.999Z</time></trkpt><trkpt lat="45.96027809618976" lon="12.72832658346611"><ele>23.0</ele><time>2026-04-18T07:49:58.999Z</time></trkpt><trkpt lat="45.96033437278385" lon="12.728425688191981"><ele>23.0</ele><time>2026-04-18T07:49:59.999Z</time></trkpt><trkpt lat="45.96040346568405" lon="12.728534870535363"><ele>23.0</ele><time>2026-04-18T07:50:00.999Z</time></trkpt><trkpt lat="45.96049842802959" lon="12.728607928369344"><ele>23.0</ele><time>2026-04-18T07:50:02.999Z</time></trkpt><trkpt lat="45.960569277809824" lon="12.728655251458079"><ele>23.0</ele><time>2026-04-18T07:50:03.999Z</time></trkpt><trkpt lat="45.9606577820317" lon="12.728672474558957"><ele>23.0</ele><time>2026-04-18T07:50:04.999Z</time></trkpt><trkpt lat="45.96073925231657" lon="12.728679612335364"><ele>23.0</ele><time>2026-04-18T07:50:05.999Z</time></trkpt><trkpt lat="45.96084867031219" lon="12.728684386645877"><ele>23.0</ele><time>2026-04-18T07:50:06.999Z</time></trkpt><trkpt lat="45.96096633319169" lon="12.728678564082719"><ele>23.0</ele><time>2026-04-18T07:50:07.999Z</time></trkpt><trkpt lat="45.961054073675115" lon="12.728671040523142"><ele>23.0</ele><time>2026-04-18T07:50:08.999Z</time></trkpt><trkpt lat="45.9611262407683" lon="12.72868751561927"><ele>23.0</ele><time>2026-04-18T07:50:09.999Z</time></trkpt><trkpt lat="45.961201148565976" lon="12.728728414394656"><ele>23.166666666666668</ele><time>2026-04-18T07:50:10.999Z</time></trkpt><trkpt lat="45.961282607379445" lon="12.7287464262255"><ele>23.333333333333336</ele><time>2026-04-18T07:50:11.999Z</time></trkpt><trkpt lat="45.961366968254126" lon="12.728750472397975"><ele>23.5</ele><time>2026-04-18T07:50:12.999Z</time></trkpt><trkpt lat="45.961439281567564" lon="12.72876246101383"><ele>23.666666666666668</ele><time>2026-04-18T07:50:13.999Z</time></trkpt><trkpt lat="45.96151579338182" lon="12.728785381486444"><ele>23.833333333333332</ele><time>2026-04-18T07:50:14.999Z</time></trkpt><trkpt lat="45.961582840980455" lon="12.728791335726177"><ele>24.0</ele><time>2026-04-18T07:50:15.999Z</time></trkpt><trkpt lat="45.96166233764862" lon="12.728773255171882"><ele>23.833333333333332</ele><time>2026-04-18T07:50:16.999Z</time></trkpt><trkpt lat="45.96174721970645" lon="12.72875107186555"><ele>23.666666666666668</ele><time>2026-04-18T07:50:17.999Z</time></trkpt><trkpt lat="45.961831784454375" lon="12.728707955559397"><ele>23.5</ele><time>2026-04-18T07:50:18.999Z</time></trkpt><trkpt lat="45.96190579363013" lon="12.728680478951516"><ele>23.333333333333336</ele><time>2026-04-18T07:50:19.999Z</time></trkpt><trkpt lat="45.96199655617161" lon="12.728618787325185"><ele>23.166666666666668</ele><time>2026-04-18T07:50:21.999Z</time></trkpt><trkpt lat="45.96201109010012" lon="12.728494128685286"><ele>23.0</ele><time>2026-04-18T07:50:23.999Z</time></trkpt><trkpt lat="45.9620521861905" lon="12.728369855383944"><ele>22.833333333333336</ele><time>2026-04-18T07:50:25.999Z</time></trkpt><trkpt lat="45.96212536858073" lon="12.728327913176319"><ele>22.666666666666668</ele><time>2026-04-18T07:50:27.999Z</time></trkpt><trkpt lat="45.962162126521186" lon="12.728251303712932"><ele>22.5</ele><time>2026-04-18T07:50:30.999Z</time></trkpt><trkpt lat="45.96218381677473" lon="12.728125490734806"><ele>22.333333333333332</ele><time>2026-04-18T07:50:49.999Z</time></trkpt><trkpt lat="45.96219973455678" lon="12.728000122460747"><ele>22.166666666666664</ele><time>2026-04-18T07:50:51.998Z</time></trkpt><trkpt lat="45.96216091080413" lon="12.727868685630757"><ele>22.0</ele><time>2026-04-18T07:50:53.998Z</time></trkpt><trkpt lat="45.96208839173591" lon="12.727791034287002"><ele>22.0</ele><time>2026-04-18T07:50:56Z</time></trkpt><trkpt lat="45.962044671322104" lon="12.727679484107629"><ele>22.0</ele><time>2026-04-18T07:50:58Z</time></trkpt><trkpt lat="45.96202067268828" lon="12.727581035558035"><ele>22.0</ele><time>2026-04-18T07:51:00Z</time></trkpt><trkpt lat="45.96206789809801" lon="12.727516120475633"><ele>22.0</ele><time>2026-04-18T07:51:02Z</time></trkpt><trkpt lat="45.962131397935444" lon="12.727519610043046"><ele>22.0</ele><time>2026-04-18T07:51:03Z</time></trkpt><trkpt lat="45.9622159526816" lon="12.727540926750768"><ele>22.0</ele><time>2026-04-18T07:51:04Z</time></trkpt><trkpt lat="45.962342456394545" lon="12.72757380941913"><ele>22.0</ele><time>2026-04-18T07:51:05Z</time></trkpt><trkpt lat="45.96248298905752" lon="12.727597813771618"><ele>22.0</ele><time>2026-04-18T07:51:06Z</time></trkpt><trkpt lat="45.962632206944946" lon="12.72758476176641"><ele>22.0</ele><time>2026-04-18T07:51:07Z</time></trkpt><trkpt lat="45.96277415757591" lon="12.727539488963624"><ele>22.0</ele><time>2026-04-18T07:51:08Z</time></trkpt><trkpt lat="45.96286959234967" lon="12.727490923974317"><ele>22.200000000000003</ele><time>2026-04-18T07:51:09Z</time></trkpt><trkpt lat="45.96294351374425" lon="12.72745552440743"><ele>22.4</ele><time>2026-04-18T07:51:10Z</time></trkpt><trkpt lat="45.96303582383412" lon="12.72740931697321"><ele>22.6</ele><time>2026-04-18T07:51:12Z</time></trkpt><trkpt lat="45.96308860066003" lon="12.72729681053366"><ele>22.799999999999997</ele><time>2026-04-18T07:51:15Z</time></trkpt><trkpt lat="45.963040916268696" lon="12.727170496890281"><ele>23.0</ele><time>2026-04-18T07:51:18Z</time></trkpt><trkpt lat="45.963085521068166" lon="12.727057466944538"><ele>23.0</ele><time>2026-04-18T07:51:21Z</time></trkpt><trkpt lat="45.96319145287808" lon="12.727033331170421"><ele>23.0</ele><time>2026-04-18T07:51:23Z</time></trkpt><trkpt lat="45.9633127099033" lon="12.727024822238722"><ele>23.0</ele><time>2026-04-18T07:51:25Z</time></trkpt><trkpt lat="45.96341398568141" lon="12.727003294333846"><ele>23.0</ele><time>2026-04-18T07:51:27Z</time></trkpt><trkpt lat="45.96349098677651" lon="12.726988781834239"><ele>23.0</ele><time>2026-04-18T07:51:29Z</time></trkpt><trkpt lat="45.96360933800189" lon="12.726925586690085"><ele>22.857142857142858</ele><time>2026-04-18T07:51:31Z</time></trkpt><trkpt lat="45.963677581064786" lon="12.726901133071905"><ele>22.71428571428571</ele><time>2026-04-18T07:51:32Z</time></trkpt><trkpt lat="45.96374455420258" lon="12.726888658918691"><ele>22.57142857142857</ele><time>2026-04-18T07:51:33Z</time></trkpt><trkpt lat="45.9638075303525" lon="12.72689235745782"><ele>22.42857142857143</ele><time>2026-04-18T07:51:33.999Z</time></trkpt><trkpt lat="45.96387024987797" lon="12.726904043495066"><ele>22.285714285714285</ele><time>2026-04-18T07:51:34.999Z</time></trkpt><trkpt lat="45.96394697543245" lon="12.726905007665017"><ele>22.142857142857142</ele><time>2026-04-18T07:51:35.999Z</time></trkpt><trkpt lat="45.964029625758705" lon="12.72689909284157"><ele>22.0</ele><time>2026-04-18T07:51:36.999Z</time></trkpt><trkpt lat="45.96410448784346" lon="12.726890561358287"><ele>22.5</ele><time>2026-04-18T07:51:37.999Z</time></trkpt><trkpt lat="45.96422674063055" lon="12.726846780286051"><ele>23.0</ele><time>2026-04-18T07:51:39.999Z</time></trkpt><trkpt lat="45.96429465406467" lon="12.726821512443907"><ele>23.5</ele><time>2026-04-18T07:51:40.999Z</time></trkpt><trkpt lat="45.96436982928273" lon="12.726807058179887"><ele>24.0</ele><time>2026-04-18T07:51:41.999Z</time></trkpt><trkpt lat="45.96444976148807" lon="12.726793769743896"><ele>24.500000000000004</ele><time>2026-04-18T07:51:42.999Z</time></trkpt><trkpt lat="45.96452001054039" lon="12.726776415788535"><ele>25.0</ele><time>2026-04-18T07:51:43.999Z</time></trkpt><trkpt lat="45.96458612783342" lon="12.726762179384645"><ele>25.0</ele><time>2026-04-18T07:51:44.999Z</time></trkpt><trkpt lat="45.964662259528225" lon="12.726607604808743"><ele>25.0</ele><time>2026-04-18T07:51:45.999Z</time></trkpt><trkpt lat="45.96477804176291" lon="12.72663121791462"><ele>25.0</ele><time>2026-04-18T07:51:47.999Z</time></trkpt><trkpt lat="45.96488290916922" lon="12.726651233016371"><ele>25.0</ele><time>2026-04-18T07:51:49.999Z</time></trkpt><trkpt lat="45.96494743278161" lon="12.726663788140407"><ele>25.0</ele><time>2026-04-18T07:51:52.999Z</time></trkpt><trkpt lat="45.96501791125276" lon="12.726601411310543"><ele>24.8</ele><time>2026-04-18T07:51:54.999Z</time></trkpt><trkpt lat="45.965139831163036" lon="12.726594183280463"><ele>24.6</ele><time>2026-04-18T07:51:56.999Z</time></trkpt><trkpt lat="45.96520250057395" lon="12.72658160251332"><ele>24.4</ele><time>2026-04-18T07:51:57.999Z</time></trkpt><trkpt lat="45.96527114236085" lon="12.726567148594054"><ele>24.2</ele><time>2026-04-18T07:51:58.999Z</time></trkpt><trkpt lat="45.96539372415846" lon="12.726518459538394"><ele>24.0</ele><time>2026-04-18T07:52:00.999Z</time></trkpt><trkpt lat="45.96546674861822" lon="12.726511126526091"><ele>24.0</ele><time>2026-04-18T07:52:01.999Z</time></trkpt><trkpt lat="45.96554586094244" lon="12.72648724197173"><ele>24.0</ele><time>2026-04-18T07:52:02.999Z</time></trkpt><trkpt lat="45.96562398755799" lon="12.726475257943727"><ele>24.0</ele><time>2026-04-18T07:52:03.999Z</time></trkpt><trkpt lat="45.96570344610493" lon="12.726459359882405"><ele>24.0</ele><time>2026-04-18T07:52:04.999Z</time></trkpt><trkpt lat="45.96578749622205" lon="12.72644197673806"><ele>24.0</ele><time>2026-04-18T07:52:05.999Z</time></trkpt><trkpt lat="45.965872737804574" lon="12.72642545591655"><ele>24.0</ele><time>2026-04-18T07:52:06.999Z</time></trkpt><trkpt lat="45.96596017176705" lon="12.726413581367787"><ele>23.5</ele><time>2026-04-18T07:52:07.999Z</time></trkpt><trkpt lat="45.96605113529133" lon="12.726397935133944"><ele>23.0</ele><time>2026-04-18T07:52:08.999Z</time></trkpt><trkpt lat="45.96614246208248" lon="12.726380192086284"><ele>22.5</ele><time>2026-04-18T07:52:09.999Z</time></trkpt><trkpt lat="45.96623354864555" lon="12.726365974060569"><ele>22.0</ele><time>2026-04-18T07:52:10.999Z</time></trkpt><trkpt lat="45.96632102547665" lon="12.726351739548614"><ele>21.5</ele><time>2026-04-18T07:52:11.999Z</time></trkpt><trkpt lat="45.96640390839009" lon="12.726329968996366"><ele>21.0</ele><time>2026-04-18T07:52:12.999Z</time></trkpt><trkpt lat="45.96648916787729" lon="12.726304576786731"><ele>21.0</ele><time>2026-04-18T07:52:13.999Z</time></trkpt><trkpt lat="45.96657721722026" lon="12.726286471442277"><ele>21.0</ele><time>2026-04-18T07:52:14.999Z</time></trkpt><trkpt lat="45.966666667508484" lon="12.7262658498998"><ele>21.0</ele><time>2026-04-18T07:52:15.999Z</time></trkpt><trkpt lat="45.966757191966394" lon="12.726243430339318"><ele>21.0</ele><time>2026-04-18T07:52:16.999Z</time></trkpt><trkpt lat="45.96684844563458" lon="12.726219541449131"><ele>21.0</ele><time>2026-04-18T07:52:17.999Z</time></trkpt><trkpt lat="45.966944229342865" lon="12.726191506398063"><ele>21.200000000000003</ele><time>2026-04-18T07:52:18.999Z</time></trkpt><trkpt lat="45.9670453600341" lon="12.726169335880344"><ele>21.400000000000002</ele><time>2026-04-18T07:52:19.999Z</time></trkpt><trkpt lat="45.96714800597348" lon="12.726139957105362"><ele>21.6</ele><time>2026-04-18T07:52:20.999Z</time></trkpt><trkpt lat="45.96725167243715" lon="12.72609973493072"><ele>21.8</ele><time>2026-04-18T07:52:21.999Z</time></trkpt><trkpt lat="45.96735297518893" lon="12.726063084587338"><ele>22.0</ele><time>2026-04-18T07:52:22.999Z</time></trkpt><trkpt lat="45.96745210842225" lon="12.726025541657085"><ele>22.400000000000002</ele><time>2026-04-18T07:52:23.999Z</time></trkpt><trkpt lat="45.967544165261394" lon="12.725985395272176"><ele>22.8</ele><time>2026-04-18T07:52:24.999Z</time></trkpt><trkpt lat="45.96762939774818" lon="12.72593917857116"><ele>23.2</ele><time>2026-04-18T07:52:25.999Z</time></trkpt><trkpt lat="45.96771325751145" lon="12.72588192487988"><ele>23.6</ele><time>2026-04-18T07:52:26.999Z</time></trkpt><trkpt lat="45.967796803466776" lon="12.72582391397765"><ele>24.0</ele><time>2026-04-18T07:52:27.999Z</time></trkpt><trkpt lat="45.96788398477992" lon="12.725757564452612"><ele>24.0</ele><time>2026-04-18T07:52:28.999Z</time></trkpt><trkpt lat="45.9679759258256" lon="12.725671169123208"><ele>24.0</ele><time>2026-04-18T07:52:29.999Z</time></trkpt><trkpt lat="45.968072683892146" lon="12.725573266230613"><ele>24.0</ele><time>2026-04-18T07:52:30.999Z</time></trkpt><trkpt lat="45.96817315619615" lon="12.725478926421376"><ele>24.0</ele><time>2026-04-18T07:52:31.999Z</time></trkpt><trkpt lat="45.96827049455271" lon="12.725367551485203"><ele>23.75</ele><time>2026-04-18T07:52:32.999Z</time></trkpt><trkpt lat="45.968374905896916" lon="12.725254355231522"><ele>23.5</ele><time>2026-04-18T07:52:33.999Z</time></trkpt><trkpt lat="45.9684802185066" lon="12.725144063570841"><ele>23.25</ele><time>2026-04-18T07:52:34.999Z</time></trkpt><trkpt lat="45.96856898148904" lon="12.72506016430365"><ele>23.0</ele><time>2026-04-18T07:52:35.999Z</time></trkpt><trkpt lat="45.96864853797646" lon="12.724985692685928"><ele>22.833333333333336</ele><time>2026-04-18T07:52:36.999Z</time></trkpt><trkpt lat="45.96871465671636" lon="12.724901185167862"><ele>22.666666666666668</ele><time>2026-04-18T07:52:37.999Z</time></trkpt><trkpt lat="45.9687836478867" lon="12.724847365658494"><ele>22.5</ele><time>2026-04-18T07:52:38.999Z</time></trkpt><trkpt lat="45.96882876194525" lon="12.724779788314894"><ele>22.333333333333332</ele><time>2026-04-18T07:52:39.999Z</time></trkpt><trkpt lat="45.9688702317073" lon="12.724699749203056"><ele>22.166666666666664</ele><time>2026-04-18T07:52:40.999Z</time></trkpt><trkpt lat="45.96890373742759" lon="12.724616479548793"><ele>22.0</ele><time>2026-04-18T07:52:41.999Z</time></trkpt><trkpt lat="45.96898943195051" lon="12.724484309763536"><ele>22.0</ele><time>2026-04-18T07:52:43.999Z</time></trkpt><trkpt lat="45.969058849133525" lon="12.724451528583314"><ele>22.0</ele><time>2026-04-18T07:52:44.999Z</time></trkpt><trkpt lat="45.969139087344224" lon="12.724437473113248"><ele>22.0</ele><time>2026-04-18T07:52:45.999Z</time></trkpt><trkpt lat="45.96922327753455" lon="12.724445298326946"><ele>22.0</ele><time>2026-04-18T07:52:46.999Z</time></trkpt><trkpt lat="45.96931137772639" lon="12.72446607535579"><ele>22.0</ele><time>2026-04-18T07:52:47.999Z</time></trkpt><trkpt lat="45.969403978581006" lon="12.724493558470385"><ele>22.0</ele><time>2026-04-18T07:52:48.999Z</time></trkpt><trkpt lat="45.969501862450045" lon="12.724519173185056"><ele>22.200000000000003</ele><time>2026-04-18T07:52:49.999Z</time></trkpt><trkpt lat="45.9695984806475" lon="12.724547516590423"><ele>22.4</ele><time>2026-04-18T07:52:50.999Z</time></trkpt><trkpt lat="45.96970251790382" lon="12.724572835714637"><ele>22.6</ele><time>2026-04-18T07:52:51.999Z</time></trkpt><trkpt lat="45.96980630578214" lon="12.724607063635524"><ele>22.799999999999997</ele><time>2026-04-18T07:52:52.999Z</time></trkpt><trkpt lat="45.96991512016887" lon="12.724655688457588"><ele>23.0</ele><time>2026-04-18T07:52:53.999Z</time></trkpt><trkpt lat="45.97002380129807" lon="12.724701038662229"><ele>23.2</ele><time>2026-04-18T07:52:54.999Z</time></trkpt><trkpt lat="45.97013905653427" lon="12.724750971322967"><ele>23.4</ele><time>2026-04-18T07:52:55.999Z</time></trkpt><trkpt lat="45.970249218666" lon="12.72482329030839"><ele>23.599999999999998</ele><time>2026-04-18T07:52:56.999Z</time></trkpt><trkpt lat="45.970333488275365" lon="12.724864336884888"><ele>23.799999999999997</ele><time>2026-04-18T07:52:57.999Z</time></trkpt><trkpt lat="45.970419489063204" lon="12.72489241843544"><ele>24.0</ele><time>2026-04-18T07:52:58.999Z</time></trkpt><trkpt lat="45.97051620447396" lon="12.724950471566675"><ele>24.0</ele><time>2026-04-18T07:53:00Z</time></trkpt><trkpt lat="45.97062642159585" lon="12.724967232629142"><ele>24.0</ele><time>2026-04-18T07:53:01Z</time></trkpt><trkpt lat="45.97073900129421" lon="12.724989143083278"><ele>24.0</ele><time>2026-04-18T07:53:02Z</time></trkpt><trkpt lat="45.97085802275903" lon="12.724967341070931"><ele>24.0</ele><time>2026-04-18T07:53:03Z</time></trkpt><trkpt lat="45.97097972191374" lon="12.72492341326492"><ele>24.25</ele><time>2026-04-18T07:53:04Z</time></trkpt><trkpt lat="45.97109931869951" lon="12.724885263672444"><ele>24.5</ele><time>2026-04-18T07:53:05Z</time></trkpt><trkpt lat="45.97122105673588" lon="12.724850128241824"><ele>24.75</ele><time>2026-04-18T07:53:06Z</time></trkpt><trkpt lat="45.97134515548132" lon="12.724813874341445"><ele>25.0</ele><time>2026-04-18T07:53:07Z</time></trkpt><trkpt lat="45.97146552732079" lon="12.724777542886335"><ele>25.0</ele><time>2026-04-18T07:53:08Z</time></trkpt><trkpt lat="45.97157153495716" lon="12.724751304230276"><ele>25.0</ele><time>2026-04-18T07:53:09Z</time></trkpt><trkpt lat="45.9716648545248" lon="12.72472357686004"><ele>25.0</ele><time>2026-04-18T07:53:10Z</time></trkpt><trkpt lat="45.971745467601636" lon="12.724702810136916"><ele>25.0</ele><time>2026-04-18T07:53:11Z</time></trkpt><trkpt lat="45.97181417246745" lon="12.724697869472225"><ele>25.0</ele><time>2026-04-18T07:53:12Z</time></trkpt><trkpt lat="45.97192104622262" lon="12.724718733393779"><ele>24.8</ele><time>2026-04-18T07:53:14Z</time></trkpt><trkpt lat="45.97203587052581" lon="12.724737725168394"><ele>24.6</ele><time>2026-04-18T07:53:16Z</time></trkpt><trkpt lat="45.972098556600734" lon="12.724727192280435"><ele>24.4</ele><time>2026-04-18T07:53:17Z</time></trkpt><trkpt lat="45.9721940645578" lon="12.724728167640723"><ele>24.2</ele><time>2026-04-18T07:53:19Z</time></trkpt><trkpt lat="45.97222917670578" lon="12.724943582616737"><ele>24.0</ele><time>2026-04-18T07:53:24Z</time></trkpt><trkpt lat="45.97219924561835" lon="12.72503506041159"><ele>24.0</ele><time>2026-04-18T07:53:25Z</time></trkpt><trkpt lat="45.972168377459276" lon="12.7251342381885"><ele>24.0</ele><time>2026-04-18T07:53:26Z</time></trkpt><trkpt lat="45.97212264802421" lon="12.725240471978132"><ele>24.0</ele><time>2026-04-18T07:53:27Z</time></trkpt><trkpt lat="45.97207405780266" lon="12.725324318399252"><ele>24.0</ele><time>2026-04-18T07:53:28Z</time></trkpt><trkpt lat="45.97199860237582" lon="12.725460266003253"><ele>24.0</ele><time>2026-04-18T07:53:30Z</time></trkpt><trkpt lat="45.97196682766037" lon="12.725590699589251"><ele>23.799999999999997</ele><time>2026-04-18T07:53:32Z</time></trkpt><trkpt lat="45.97184490198467" lon="12.725660207423296"><ele>23.599999999999998</ele><time>2026-04-18T07:53:34Z</time></trkpt><trkpt lat="45.971758139316776" lon="12.725621131061866"><ele>23.4</ele><time>2026-04-18T07:53:35Z</time></trkpt><trkpt lat="45.97167328051827" lon="12.725604906069178"><ele>23.2</ele><time>2026-04-18T07:53:36Z</time></trkpt><trkpt lat="45.97159979051068" lon="12.725608158946656"><ele>23.0</ele><time>2026-04-18T07:53:37Z</time></trkpt><trkpt lat="45.97151709214989" lon="12.725687205401158"><ele>23.333333333333336</ele><time>2026-04-18T07:53:39Z</time></trkpt><trkpt lat="45.971491530259314" lon="12.725808935361245"><ele>23.666666666666668</ele><time>2026-04-18T07:53:41Z</time></trkpt><trkpt lat="45.97146541701293" lon="12.72592736340063"><ele>24.0</ele><time>2026-04-18T07:53:43Z</time></trkpt><trkpt lat="45.971387578247814" lon="12.726053011922701"><ele>24.333333333333336</ele><time>2026-04-18T07:53:45Z</time></trkpt><trkpt lat="45.971335912586326" lon="12.726124097555802"><ele>24.666666666666668</ele><time>2026-04-18T07:53:46Z</time></trkpt><trkpt lat="45.9712564348083" lon="12.726142679176165"><ele>25.0</ele><time>2026-04-18T07:53:47Z</time></trkpt><trkpt lat="45.97119238874507" lon="12.726137401681525"><ele>25.000000000000004</ele><time>2026-04-18T07:53:48Z</time></trkpt><trkpt lat="45.97112499078046" lon="12.72614124565633"><ele>25.0</ele><time>2026-04-18T07:53:49Z</time></trkpt><trkpt lat="45.971054982549745" lon="12.726124008390043"><ele>25.0</ele><time>2026-04-18T07:53:50Z</time></trkpt><trkpt lat="45.97098378185692" lon="12.726117844376194"><ele>25.0</ele><time>2026-04-18T07:53:50.999Z</time></trkpt><trkpt lat="45.970907889418775" lon="12.726126881999233"><ele>25.000000000000004</ele><time>2026-04-18T07:53:51.999Z</time></trkpt><trkpt lat="45.970828382935906" lon="12.726154644647831"><ele>25.0</ele><time>2026-04-18T07:53:52.999Z</time></trkpt><trkpt lat="45.97074845289083" lon="12.726189173438154"><ele>24.8</ele><time>2026-04-18T07:53:53.999Z</time></trkpt><trkpt lat="45.970665060342064" lon="12.726236201821736"><ele>24.6</ele><time>2026-04-18T07:53:54.999Z</time></trkpt><trkpt lat="45.97057777042005" lon="12.726298320789903"><ele>24.4</ele><time>2026-04-18T07:53:55.999Z</time></trkpt><trkpt lat="45.970483471343" lon="12.72637539478784"><ele>24.2</ele><time>2026-04-18T07:53:56.999Z</time></trkpt><trkpt lat="45.970361388270035" lon="12.726462452635678"><ele>24.0</ele><time>2026-04-18T07:53:57.999Z</time></trkpt><trkpt lat="45.9702203934759" lon="12.72656623267643"><ele>24.0</ele><time>2026-04-18T07:53:58.999Z</time></trkpt><trkpt lat="45.97008972335787" lon="12.726684241714661"><ele>24.0</ele><time>2026-04-18T07:53:59.999Z</time></trkpt><trkpt lat="45.96996658409011" lon="12.726757594828761"><ele>24.0</ele><time>2026-04-18T07:54:00.999Z</time></trkpt><trkpt lat="45.96986692330192" lon="12.726826952379144"><ele>24.0</ele><time>2026-04-18T07:54:01.999Z</time></trkpt><trkpt lat="45.96977307790962" lon="12.726889009587037"><ele>24.0</ele><time>2026-04-18T07:54:02.999Z</time></trkpt><trkpt lat="45.969684928385426" lon="12.726919567594315"><ele>24.0</ele><time>2026-04-18T07:54:03.999Z</time></trkpt><trkpt lat="45.969607434768946" lon="12.72695861791982"><ele>24.0</ele><time>2026-04-18T07:54:04.999Z</time></trkpt><trkpt lat="45.96952736189226" lon="12.726960488829443"><ele>24.0</ele><time>2026-04-18T07:54:05.999Z</time></trkpt><trkpt lat="45.969451023668306" lon="12.726934857894786"><ele>24.0</ele><time>2026-04-18T07:54:06.999Z</time></trkpt><trkpt lat="45.96938317594413" lon="12.726886032493328"><ele>24.0</ele><time>2026-04-18T07:54:07.999Z</time></trkpt><trkpt lat="45.969324700533726" lon="12.726806161428325"><ele>24.0</ele><time>2026-04-18T07:54:08.999Z</time></trkpt><trkpt lat="45.969273765487834" lon="12.726704618138623"><ele>24.0</ele><time>2026-04-18T07:54:09.999Z</time></trkpt><trkpt lat="45.969229058933486" lon="12.726585087765065"><ele>24.0</ele><time>2026-04-18T07:54:10.999Z</time></trkpt><trkpt lat="45.96918946278761" lon="12.726454756246193"><ele>24.0</ele><time>2026-04-18T07:54:11.999Z</time></trkpt><trkpt lat="45.96912478414159" lon="12.726341069060863"><ele>24.0</ele><time>2026-04-18T07:54:12.999Z</time></trkpt><trkpt lat="45.96907341096942" lon="12.726239708119383"><ele>24.0</ele><time>2026-04-18T07:54:13.999Z</time></trkpt><trkpt lat="45.96902569765732" lon="12.726147168373943"><ele>24.0</ele><time>2026-04-18T07:54:14.999Z</time></trkpt><trkpt lat="45.96896774178504" lon="12.726076975401837"><ele>24.0</ele><time>2026-04-18T07:54:15.999Z</time></trkpt><trkpt lat="45.96891608525173" lon="12.725994013907343"><ele>24.0</ele><time>2026-04-18T07:54:16.999Z</time></trkpt><trkpt lat="45.96882808309474" lon="12.725901697685412"><ele>24.0</ele><time>2026-04-18T07:54:18.999Z</time></trkpt><trkpt lat="45.96875158814076" lon="12.725873798044603"><ele>24.0</ele><time>2026-04-18T07:54:20.999Z</time></trkpt><trkpt lat="45.968687257073604" lon="12.725861879661371"><ele>24.0</ele><time>2026-04-18T07:54:21.999Z</time></trkpt><trkpt lat="45.96859479396095" lon="12.725863051238447"><ele>24.0</ele><time>2026-04-18T07:54:22.999Z</time></trkpt><trkpt lat="45.96850422207808" lon="12.725856842374276"><ele>24.0</ele><time>2026-04-18T07:54:23.999Z</time></trkpt><trkpt lat="45.96840304837527" lon="12.725851925686621"><ele>24.0</ele><time>2026-04-18T07:54:25.999Z</time></trkpt><trkpt lat="45.968339823377114" lon="12.725880742206598"><ele>24.0</ele><time>2026-04-18T07:54:35.999Z</time></trkpt><trkpt lat="45.96829641800368" lon="12.72597197871024"><ele>24.0</ele><time>2026-04-18T07:54:38.999Z</time></trkpt><trkpt lat="45.968274967513004" lon="12.72611900528979"><ele>24.0</ele><time>2026-04-18T07:54:41.999Z</time></trkpt><trkpt lat="45.96824896590734" lon="12.726274828993441"><ele>24.0</ele><time>2026-04-18T07:54:43.999Z</time></trkpt><trkpt lat="45.968231981191224" lon="12.726380154746648"><ele>24.0</ele><time>2026-04-18T07:54:45.999Z</time></trkpt><trkpt lat="45.96821702668634" lon="12.72647289218757"><ele>24.0</ele><time>2026-04-18T07:54:48.999Z</time></trkpt><trkpt lat="45.968382493542485" lon="12.72655941624496"><ele>24.0</ele><time>2026-04-18T07:55:11Z</time></trkpt><trkpt lat="45.96846124826687" lon="12.726627724277078"><ele>24.0</ele><time>2026-04-18T07:55:12Z</time></trkpt><trkpt lat="45.96851663544775" lon="12.726693468223125"><ele>24.0</ele><time>2026-04-18T07:55:13Z</time></trkpt><trkpt lat="45.96858865652104" lon="12.72680055981702"><ele>24.0</ele><time>2026-04-18T07:55:15Z</time></trkpt><trkpt lat="45.96863007481067" lon="12.726878776292715"><ele>24.0</ele><time>2026-04-18T07:55:18Z</time></trkpt><trkpt lat="45.96870228932403" lon="12.726842146037056"><ele>24.0</ele><time>2026-04-18T07:55:25Z</time></trkpt><trkpt lat="45.96862925211984" lon="12.726751473034335"><ele>24.0</ele><time>2026-04-18T07:55:27Z</time></trkpt><trkpt lat="45.96853115604247" lon="12.72672303953603"><ele>24.0</ele><time>2026-04-18T07:55:29Z</time></trkpt><trkpt lat="45.96846666977786" lon="12.72664737885629"><ele>24.0</ele><time>2026-04-18T07:55:30Z</time></trkpt><trkpt lat="45.96840566545144" lon="12.72656960111393"><ele>24.0</ele><time>2026-04-18T07:55:31Z</time></trkpt><trkpt lat="45.968354066008345" lon="12.726512651785608"><ele>24.0</ele><time>2026-04-18T07:55:32Z</time></trkpt><trkpt lat="45.96829345190149" lon="12.726474153357595"><ele>24.0</ele><time>2026-04-18T07:55:33Z</time></trkpt><trkpt lat="45.968226892726605" lon="12.726457459876691"><ele>24.0</ele><time>2026-04-18T07:55:34Z</time></trkpt><trkpt lat="45.96813120172531" lon="12.726450612705621"><ele>24.0</ele><time>2026-04-18T07:55:36Z</time></trkpt><trkpt lat="45.968106304836965" lon="12.726353453117236"><ele>24.0</ele><time>2026-04-18T07:55:39Z</time></trkpt><trkpt lat="45.96817220591894" lon="12.726227006687408"><ele>24.0</ele><time>2026-04-18T07:55:41Z</time></trkpt><trkpt lat="45.96820795281111" lon="12.726121296494874"><ele>24.0</ele><time>2026-04-18T07:55:42Z</time></trkpt><trkpt lat="45.968222683771415" lon="12.726004914973265"><ele>24.0</ele><time>2026-04-18T07:55:43Z</time></trkpt><trkpt lat="45.96823544018108" lon="12.725867643115569"><ele>24.0</ele><time>2026-04-18T07:55:45Z</time></trkpt><trkpt lat="45.96828640819717" lon="12.72579937599204"><ele>23.75</ele><time>2026-04-18T07:55:48Z</time></trkpt><trkpt lat="45.96837616094603" lon="12.725709833895756"><ele>23.5</ele><time>2026-04-18T07:55:55Z</time></trkpt><trkpt lat="45.968495197993946" lon="12.725693901096955"><ele>23.25</ele><time>2026-04-18T07:55:57Z</time></trkpt><trkpt lat="45.96853479154907" lon="12.725907996077565"><ele>23.0</ele><time>2026-04-18T07:55:58Z</time></trkpt><trkpt lat="45.96863979258205" lon="12.725910223587587"><ele>23.0</ele><time>2026-04-18T07:56:00Z</time></trkpt><trkpt lat="45.96877164833167" lon="12.725700895031489"><ele>23.0</ele><time>2026-04-18T07:56:02Z</time></trkpt><trkpt lat="45.96885345467167" lon="12.725687087974896"><ele>23.0</ele><time>2026-04-18T07:56:03Z</time></trkpt><trkpt lat="45.968938322364004" lon="12.725730117895763"><ele>23.0</ele><time>2026-04-18T07:56:04Z</time></trkpt><trkpt lat="45.96900529509529" lon="12.725807756058868"><ele>23.0</ele><time>2026-04-18T07:56:05Z</time></trkpt><trkpt lat="45.969069884078934" lon="12.725929869066023"><ele>23.0</ele><time>2026-04-18T07:56:06Z</time></trkpt><trkpt lat="45.96912080734568" lon="12.726100389447138"><ele>23.0</ele><time>2026-04-18T07:56:07Z</time></trkpt><trkpt lat="45.96915621489404" lon="12.726315688103274"><ele>23.0</ele><time>2026-04-18T07:56:08Z</time></trkpt><trkpt lat="45.96917021665798" lon="12.726521036403712"><ele>23.166666666666668</ele><time>2026-04-18T07:56:09Z</time></trkpt><trkpt lat="45.96922952629278" lon="12.72663205744499"><ele>23.333333333333336</ele><time>2026-04-18T07:56:10Z</time></trkpt><trkpt lat="45.96926963142139" lon="12.726732737489549"><ele>23.5</ele><time>2026-04-18T07:56:11Z</time></trkpt><trkpt lat="45.969321554743736" lon="12.726846931402866"><ele>23.666666666666668</ele><time>2026-04-18T07:56:13Z</time></trkpt><trkpt lat="45.969380786815066" lon="12.726918695316295"><ele>23.833333333333332</ele><time>2026-04-18T07:56:15Z</time></trkpt><trkpt lat="45.969458630905066" lon="12.72697979711944"><ele>24.0</ele><time>2026-04-18T07:56:16.999Z</time></trkpt><trkpt lat="45.96957111066193" lon="12.72698962304949"><ele>24.0</ele><time>2026-04-18T07:56:18.999Z</time></trkpt><trkpt lat="45.969684583939696" lon="12.726950923737071"><ele>24.0</ele><time>2026-04-18T07:56:20.999Z</time></trkpt><trkpt lat="45.969784535221095" lon="12.726919379803947"><ele>24.0</ele><time>2026-04-18T07:56:22.999Z</time></trkpt><trkpt lat="45.969901775286075" lon="12.726858808542225"><ele>24.0</ele><time>2026-04-18T07:56:24.999Z</time></trkpt><trkpt lat="45.969974839127225" lon="12.726812122242599"><ele>24.0</ele><time>2026-04-18T07:56:25.999Z</time></trkpt><trkpt lat="45.970037423655185" lon="12.72676855129666"><ele>24.0</ele><time>2026-04-18T07:56:26.999Z</time></trkpt><trkpt lat="45.97010404445167" lon="12.7267221703623"><ele>24.0</ele><time>2026-04-18T07:56:27.999Z</time></trkpt><trkpt lat="45.97017658467315" lon="12.726668232585165"><ele>24.0</ele><time>2026-04-18T07:56:28.999Z</time></trkpt><trkpt lat="45.97024322398389" lon="12.726594143027135"><ele>24.0</ele><time>2026-04-18T07:56:29.999Z</time></trkpt><trkpt lat="45.970319293816495" lon="12.726538398683223"><ele>24.0</ele><time>2026-04-18T07:56:30.999Z</time></trkpt><trkpt lat="45.97039969618191" lon="12.726477592782818"><ele>24.0</ele><time>2026-04-18T07:56:31.999Z</time></trkpt><trkpt lat="45.97047962445342" lon="12.726417953260874"><ele>23.999999999999996</ele><time>2026-04-18T07:56:32.999Z</time></trkpt><trkpt lat="45.97055708404667" lon="12.726360363417204"><ele>24.0</ele><time>2026-04-18T07:56:33.999Z</time></trkpt><trkpt lat="45.970619778346126" lon="12.726307385508951"><ele>24.0</ele><time>2026-04-18T07:56:34.999Z</time></trkpt><trkpt lat="45.97067935284362" lon="12.726271156561854"><ele>24.0</ele><time>2026-04-18T07:56:35.999Z</time></trkpt><trkpt lat="45.97074656706842" lon="12.726244044438088"><ele>24.0</ele><time>2026-04-18T07:56:36.999Z</time></trkpt><trkpt lat="45.97081097016586" lon="12.726192810725236"><ele>23.999999999999996</ele><time>2026-04-18T07:56:37.999Z</time></trkpt><trkpt lat="45.97087990498748" lon="12.726169365600073"><ele>24.0</ele><time>2026-04-18T07:56:38.999Z</time></trkpt><trkpt lat="45.97095243786528" lon="12.726179491380416"><ele>24.166666666666668</ele><time>2026-04-18T07:56:39.999Z</time></trkpt><trkpt lat="45.971021540992226" lon="12.726187821017424"><ele>24.333333333333336</ele><time>2026-04-18T07:56:40.999Z</time></trkpt><trkpt lat="45.97109792689872" lon="12.726191302579812"><ele>24.5</ele><time>2026-04-18T07:56:41.999Z</time></trkpt><trkpt lat="45.97117083801677" lon="12.726189765066383"><ele>24.666666666666668</ele><time>2026-04-18T07:56:42.999Z</time></trkpt><trkpt lat="45.97123632184468" lon="12.726188879297569"><ele>24.833333333333336</ele><time>2026-04-18T07:56:43.999Z</time></trkpt><trkpt lat="45.97136657666067" lon="12.726158752794813"><ele>25.0</ele><time>2026-04-18T07:56:45.999Z</time></trkpt><trkpt lat="45.971437244804136" lon="12.726041900838938"><ele>25.000000000000004</ele><time>2026-04-18T07:56:47.999Z</time></trkpt><trkpt lat="45.97147431136995" lon="12.725958647841379"><ele>25.0</ele><time>2026-04-18T07:56:49.999Z</time></trkpt><trkpt lat="45.971497091244736" lon="12.725871358842328"><ele>25.0</ele><time>2026-04-18T07:56:50.999Z</time></trkpt><trkpt lat="45.97152840477458" lon="12.725719160983568"><ele>25.0</ele><time>2026-04-18T07:56:52.999Z</time></trkpt><trkpt lat="45.971619724498304" lon="12.725628584261251"><ele>25.000000000000004</ele><time>2026-04-18T07:56:54.999Z</time></trkpt><trkpt lat="45.97168190268298" lon="12.725660370312509"><ele>25.0</ele><time>2026-04-18T07:56:55.999Z</time></trkpt><trkpt lat="45.97175817145855" lon="12.72566616247815"><ele>24.6</ele><time>2026-04-18T07:56:56.999Z</time></trkpt><trkpt lat="45.97183637898683" lon="12.725684118572397"><ele>24.2</ele><time>2026-04-18T07:56:57.999Z</time></trkpt><trkpt lat="45.971931647737655" lon="12.72570356697647"><ele>23.799999999999997</ele><time>2026-04-18T07:56:58.999Z</time></trkpt><trkpt lat="45.97202644422173" lon="12.725716842431794"><ele>23.4</ele><time>2026-04-18T07:56:59.999Z</time></trkpt><trkpt lat="45.97213005408847" lon="12.725731912488554"><ele>23.0</ele><time>2026-04-18T07:57:00.999Z</time></trkpt><trkpt lat="45.972227495960716" lon="12.725649580385598"><ele>23.0</ele><time>2026-04-18T07:57:01.999Z</time></trkpt><trkpt lat="45.97238351184688" lon="12.725859925444254"><ele>23.0</ele><time>2026-04-18T07:57:03.999Z</time></trkpt><trkpt lat="45.972479429033065" lon="12.725889561158821"><ele>23.0</ele><time>2026-04-18T07:57:04.999Z</time></trkpt><trkpt lat="45.97256678899155" lon="12.725918641919595"><ele>23.0</ele><time>2026-04-18T07:57:05.999Z</time></trkpt><trkpt lat="45.97265187791904" lon="12.725977515027411"><ele>23.166666666666668</ele><time>2026-04-18T07:57:06.999Z</time></trkpt><trkpt lat="45.97273430519741" lon="12.726068914833306"><ele>23.333333333333336</ele><time>2026-04-18T07:57:07.999Z</time></trkpt><trkpt lat="45.97280363729014" lon="12.726166194979967"><ele>23.5</ele><time>2026-04-18T07:57:08.999Z</time></trkpt><trkpt lat="45.97285621150357" lon="12.726245963223207"><ele>23.666666666666668</ele><time>2026-04-18T07:57:09.999Z</time></trkpt><trkpt lat="45.97289869935342" lon="12.726315580126496"><ele>23.833333333333332</ele><time>2026-04-18T07:57:10.999Z</time></trkpt><trkpt lat="45.972970400311134" lon="12.726410645087302"><ele>24.0</ele><time>2026-04-18T07:57:13Z</time></trkpt><trkpt lat="45.97303939841941" lon="12.72649345865289"><ele>24.0</ele><time>2026-04-18T07:57:15Z</time></trkpt><trkpt lat="45.97309072900845" lon="12.726571599032383"><ele>24.0</ele><time>2026-04-18T07:57:17Z</time></trkpt><trkpt lat="45.97308229712787" lon="12.726693541088503"><ele>24.0</ele><time>2026-04-18T07:57:19Z</time></trkpt><trkpt lat="45.97301635446901" lon="12.726796443276013"><ele>24.0</ele><time>2026-04-18T07:57:21Z</time></trkpt><trkpt lat="45.972938541459634" lon="12.72688623554682"><ele>24.0</ele><time>2026-04-18T07:57:23Z</time></trkpt><trkpt lat="45.97286468295612" lon="12.726975606145588"><ele>24.2</ele><time>2026-04-18T07:57:25Z</time></trkpt><trkpt lat="45.9727942663874" lon="12.727071004285726"><ele>24.4</ele><time>2026-04-18T07:57:27Z</time></trkpt><trkpt lat="45.972716855943965" lon="12.727154568144584"><ele>24.6</ele><time>2026-04-18T07:57:29Z</time></trkpt><trkpt lat="45.97263802163169" lon="12.727241150628485"><ele>24.8</ele><time>2026-04-18T07:57:32Z</time></trkpt><trkpt lat="45.972580294415195" lon="12.727310542407807"><ele>25.0</ele><time>2026-04-18T07:57:34Z</time></trkpt><trkpt lat="45.97249756036917" lon="12.72735769303935"><ele>25.0</ele><time>2026-04-18T07:57:36Z</time></trkpt><trkpt lat="45.97241584035841" lon="12.727402218480467"><ele>25.0</ele><time>2026-04-18T07:57:39Z</time></trkpt><trkpt lat="45.9723168049921" lon="12.727490539153736"><ele>25.0</ele><time>2026-04-18T07:57:41Z</time></trkpt><trkpt lat="45.972248905249124" lon="12.727530005406928"><ele>25.0</ele><time>2026-04-18T07:57:42Z</time></trkpt><trkpt lat="45.97215686236376" lon="12.72755359470233"><ele>25.0</ele><time>2026-04-18T07:57:44Z</time></trkpt><trkpt lat="45.97207675846349" lon="12.72757286506963"><ele>25.0</ele><time>2026-04-18T07:57:49Z</time></trkpt><trkpt lat="45.972153941589596" lon="12.72753525005954"><ele>25.0</ele><time>2026-04-18T07:57:53Z</time></trkpt><trkpt lat="45.972262502051585" lon="12.727477575244174"><ele>25.0</ele><time>2026-04-18T07:57:55Z</time></trkpt><trkpt lat="45.97235909511811" lon="12.727417592496836"><ele>25.0</ele><time>2026-04-18T07:57:57Z</time></trkpt><trkpt lat="45.97244585279975" lon="12.72735738233735"><ele>25.0</ele><time>2026-04-18T07:57:59Z</time></trkpt><trkpt lat="45.97255421797096" lon="12.727322568319272"><ele>25.2</ele><time>2026-04-18T07:58:01Z</time></trkpt><trkpt lat="45.972644225480046" lon="12.727212870065813"><ele>25.4</ele><time>2026-04-18T07:58:03Z</time></trkpt><trkpt lat="45.972695027019626" lon="12.727145179979944"><ele>25.6</ele><time>2026-04-18T07:58:04Z</time></trkpt><trkpt lat="45.97279738405164" lon="12.72702932963006"><ele>25.8</ele><time>2026-04-18T07:58:06Z</time></trkpt><trkpt lat="45.97285641594839" lon="12.726964605990453"><ele>26.0</ele><time>2026-04-18T07:58:07Z</time></trkpt><trkpt lat="45.97291018108696" lon="12.726895586420417"><ele>25.666666666666664</ele><time>2026-04-18T07:58:08Z</time></trkpt><trkpt lat="45.97295985208514" lon="12.72683762173807"><ele>25.333333333333332</ele><time>2026-04-18T07:58:09Z</time></trkpt><trkpt lat="45.97302211789325" lon="12.726763694607872"><ele>25.0</ele><time>2026-04-18T07:58:11Z</time></trkpt><trkpt lat="45.97307771985577" lon="12.726660054804409"><ele>24.666666666666664</ele><time>2026-04-18T07:58:13Z</time></trkpt><trkpt lat="45.97306109616528" lon="12.726500807944008"><ele>24.333333333333332</ele><time>2026-04-18T07:58:15Z</time></trkpt><trkpt lat="45.973004841258344" lon="12.726439856180427"><ele>24.0</ele><time>2026-04-18T07:58:16Z</time></trkpt><trkpt lat="45.97294328479622" lon="12.726382157133541"><ele>24.0</ele><time>2026-04-18T07:58:17Z</time></trkpt><trkpt lat="45.97287770704893" lon="12.726309903742546"><ele>24.0</ele><time>2026-04-18T07:58:18Z</time></trkpt><trkpt lat="45.97281934833461" lon="12.726234917569473"><ele>24.0</ele><time>2026-04-18T07:58:19Z</time></trkpt><trkpt lat="45.972756567101975" lon="12.726143828693397"><ele>24.0</ele><time>2026-04-18T07:58:20Z</time></trkpt><trkpt lat="45.97267619850995" lon="12.72605060631518"><ele>24.0</ele><time>2026-04-18T07:58:21Z</time></trkpt><trkpt lat="45.97258031737337" lon="12.72595186581878"><ele>23.799999999999997</ele><time>2026-04-18T07:58:22Z</time></trkpt><trkpt lat="45.97247524451844" lon="12.7258747851885"><ele>23.599999999999998</ele><time>2026-04-18T07:58:23Z</time></trkpt><trkpt lat="45.97236080835468" lon="12.725824451869025"><ele>23.4</ele><time>2026-04-18T07:58:24Z</time></trkpt><trkpt lat="45.972253428918606" lon="12.725810011233797"><ele>23.2</ele><time>2026-04-18T07:58:25Z</time></trkpt><trkpt lat="45.97217485035842" lon="12.725787128231742"><ele>23.0</ele><time>2026-04-18T07:58:26Z</time></trkpt><trkpt lat="45.97209970869515" lon="12.725760760977797"><ele>23.0</ele><time>2026-04-18T07:58:27Z</time></trkpt><trkpt lat="45.97200078544669" lon="12.725692566302637"><ele>23.0</ele><time>2026-04-18T07:58:29Z</time></trkpt><trkpt lat="45.97203430687609" lon="12.725355499339717"><ele>23.0</ele><time>2026-04-18T07:58:33Z</time></trkpt><trkpt lat="45.972121011629234" lon="12.725225810259623"><ele>23.166666666666668</ele><time>2026-04-18T07:58:34Z</time></trkpt><trkpt lat="45.97219084894362" lon="12.725075209138685"><ele>23.333333333333336</ele><time>2026-04-18T07:58:35Z</time></trkpt><trkpt lat="45.97222291781592" lon="12.724947972134036"><ele>23.5</ele><time>2026-04-18T07:58:36Z</time></trkpt><trkpt lat="45.972251232057516" lon="12.72485493646895"><ele>23.666666666666668</ele><time>2026-04-18T07:58:37Z</time></trkpt><trkpt lat="45.972293646047135" lon="12.724776734988323"><ele>23.833333333333332</ele><time>2026-04-18T07:58:38Z</time></trkpt><trkpt lat="45.97235300026361" lon="12.724706430777578"><ele>24.0</ele><time>2026-04-18T07:58:39Z</time></trkpt><trkpt lat="45.972433420945364" lon="12.724647012516742"><ele>24.0</ele><time>2026-04-18T07:58:40Z</time></trkpt><trkpt lat="45.97254355906071" lon="12.724587648496737"><ele>24.0</ele><time>2026-04-18T07:58:41Z</time></trkpt><trkpt lat="45.97266266977615" lon="12.72455544293867"><ele>24.0</ele><time>2026-04-18T07:58:41.999Z</time></trkpt><trkpt lat="45.97279274396947" lon="12.724475914169098"><ele>24.0</ele><time>2026-04-18T07:58:42.999Z</time></trkpt><trkpt lat="45.97294136002493" lon="12.724377610586554"><ele>24.25</ele><time>2026-04-18T07:58:43.999Z</time></trkpt><trkpt lat="45.97309747311947" lon="12.724270310060165"><ele>24.5</ele><time>2026-04-18T07:58:44.999Z</time></trkpt><trkpt lat="45.97323721400686" lon="12.724171424260785"><ele>24.75</ele><time>2026-04-18T07:58:45.999Z</time></trkpt><trkpt lat="45.97333583895942" lon="12.724072740943889"><ele>25.0</ele><time>2026-04-18T07:58:46.999Z</time></trkpt><trkpt lat="45.97343392563128" lon="12.724026603881658"><ele>25.000000000000004</ele><time>2026-04-18T07:58:47.999Z</time></trkpt><trkpt lat="45.97349398898845" lon="12.723965186426783"><ele>25.0</ele><time>2026-04-18T07:58:48.999Z</time></trkpt><trkpt lat="45.97360166815311" lon="12.723967574059728"><ele>25.0</ele><time>2026-04-18T07:58:50.999Z</time></trkpt><trkpt lat="45.97366294909566" lon="12.724000899640187"><ele>25.0</ele><time>2026-04-18T07:58:51.999Z</time></trkpt><trkpt lat="45.97373851190221" lon="12.724051844409512"><ele>25.000000000000004</ele><time>2026-04-18T07:58:52.999Z</time></trkpt><trkpt lat="45.97382818010174" lon="12.72411477774823"><ele>25.0</ele><time>2026-04-18T07:58:53.999Z</time></trkpt><trkpt lat="45.973928879480894" lon="12.724186341771805"><ele>25.0</ele><time>2026-04-18T07:58:54.999Z</time></trkpt><trkpt lat="45.97403903410749" lon="12.72426865089655"><ele>25.0</ele><time>2026-04-18T07:58:55.999Z</time></trkpt><trkpt lat="45.9741451175306" lon="12.724347555507991"><ele>25.0</ele><time>2026-04-18T07:58:56.999Z</time></trkpt><trkpt lat="45.97425837364751" lon="12.724411409525594"><ele>25.0</ele><time>2026-04-18T07:58:57.999Z</time></trkpt><trkpt lat="45.974369837504675" lon="12.724486250269033"><ele>25.25</ele><time>2026-04-18T07:58:58.999Z</time></trkpt><trkpt lat="45.974488254658915" lon="12.724573658057762"><ele>25.5</ele><time>2026-04-18T07:58:59.999Z</time></trkpt><trkpt lat="45.97461168702669" lon="12.724657125543985"><ele>25.75</ele><time>2026-04-18T07:59:00.999Z</time></trkpt><trkpt lat="45.97473366459805" lon="12.724742447741585"><ele>26.0</ele><time>2026-04-18T07:59:01.999Z</time></trkpt><trkpt lat="45.97483920480814" lon="12.724817586704292"><ele>26.0</ele><time>2026-04-18T07:59:02.999Z</time></trkpt><trkpt lat="45.9749227525896" lon="12.724904468075215"><ele>26.0</ele><time>2026-04-18T07:59:03.999Z</time></trkpt><trkpt lat="45.97501275327429" lon="12.72497276456903"><ele>26.0</ele><time>2026-04-18T07:59:04.999Z</time></trkpt><trkpt lat="45.97510448878197" lon="12.725035600981874"><ele>26.0</ele><time>2026-04-18T07:59:05.999Z</time></trkpt><trkpt lat="45.97516970476385" lon="12.725128361752077"><ele>26.0</ele><time>2026-04-18T07:59:06.999Z</time></trkpt><trkpt lat="45.97523069743924" lon="12.725248997286597"><ele>26.0</ele><time>2026-04-18T07:59:07.999Z</time></trkpt><trkpt lat="45.97529058356447" lon="12.72538288744993"><ele>26.0</ele><time>2026-04-18T07:59:08.999Z</time></trkpt><trkpt lat="45.975355598924864" lon="12.72551905047688"><ele>26.0</ele><time>2026-04-18T07:59:09.999Z</time></trkpt><trkpt lat="45.975430327671894" lon="12.725661092995223"><ele>26.0</ele><time>2026-04-18T07:59:10.999Z</time></trkpt><trkpt lat="45.97550298068064" lon="12.725810343347538"><ele>26.0</ele><time>2026-04-18T07:59:11.999Z</time></trkpt><trkpt lat="45.97558404326959" lon="12.72596577164709"><ele>26.0</ele><time>2026-04-18T07:59:12.999Z</time></trkpt><trkpt lat="45.975663242091834" lon="12.726119923067687"><ele>26.0</ele><time>2026-04-18T07:59:13.999Z</time></trkpt><trkpt lat="45.97574983614258" lon="12.726282037309268"><ele>26.0</ele><time>2026-04-18T07:59:14.999Z</time></trkpt><trkpt lat="45.97583326858249" lon="12.726444225418465"><ele>26.25</ele><time>2026-04-18T07:59:15.999Z</time></trkpt><trkpt lat="45.97592453229318" lon="12.726608783211493"><ele>26.5</ele><time>2026-04-18T07:59:16.999Z</time></trkpt><trkpt lat="45.97601435035403" lon="12.726768587889769"><ele>26.75</ele><time>2026-04-18T07:59:18Z</time></trkpt><trkpt lat="45.97609737351443" lon="12.726915172864766"><ele>27.0</ele><time>2026-04-18T07:59:19Z</time></trkpt><trkpt lat="45.97616470273434" lon="12.727063982988268"><ele>27.0</ele><time>2026-04-18T07:59:20Z</time></trkpt><trkpt lat="45.9762441887147" lon="12.727208568882366"><ele>27.0</ele><time>2026-04-18T07:59:21Z</time></trkpt><trkpt lat="45.97632962766272" lon="12.727332209564482"><ele>27.0</ele><time>2026-04-18T07:59:22Z</time></trkpt><trkpt lat="45.976387989645985" lon="12.727462372215571"><ele>27.0</ele><time>2026-04-18T07:59:23Z</time></trkpt><trkpt lat="45.97645841840431" lon="12.727594206354228"><ele>26.5</ele><time>2026-04-18T07:59:24Z</time></trkpt><trkpt lat="45.976501720679224" lon="12.727766047017424"><ele>26.0</ele><time>2026-04-18T07:59:25Z</time></trkpt><trkpt lat="45.976550887625834" lon="12.727944883776"><ele>25.5</ele><time>2026-04-18T07:59:26Z</time></trkpt><trkpt lat="45.97661385141033" lon="12.728140473799034"><ele>25.0</ele><time>2026-04-18T07:59:27Z</time></trkpt><trkpt lat="45.97664494898999" lon="12.728334985982539"><ele>25.5</ele><time>2026-04-18T07:59:28Z</time></trkpt><trkpt lat="45.97668772529915" lon="12.728524176003297"><ele>26.0</ele><time>2026-04-18T07:59:29Z</time></trkpt><trkpt lat="45.97674490804912" lon="12.72870757562683"><ele>26.5</ele><time>2026-04-18T07:59:30Z</time></trkpt><trkpt lat="45.9767852916639" lon="12.728876150303881"><ele>27.0</ele><time>2026-04-18T07:59:31Z</time></trkpt><trkpt lat="45.976804708731294" lon="12.729032908690552"><ele>27.0</ele><time>2026-04-18T07:59:32Z</time></trkpt><trkpt lat="45.97683715644968" lon="12.729171358411287"><ele>27.0</ele><time>2026-04-18T07:59:33Z</time></trkpt><trkpt lat="45.976875254231146" lon="12.729278667905083"><ele>27.0</ele><time>2026-04-18T07:59:34Z</time></trkpt><trkpt lat="45.97687220322341" lon="12.729393231942103"><ele>27.0</ele><time>2026-04-18T07:59:35Z</time></trkpt><trkpt lat="45.976884542904905" lon="12.72949866659879"><ele>27.0</ele><time>2026-04-18T07:59:36Z</time></trkpt><trkpt lat="45.97691564957746" lon="12.729599520008628"><ele>27.0</ele><time>2026-04-18T07:59:37Z</time></trkpt><trkpt lat="45.976981570831896" lon="12.729678778904212"><ele>26.6</ele><time>2026-04-18T07:59:38Z</time></trkpt><trkpt lat="45.97704425147169" lon="12.729762500986762"><ele>26.200000000000003</ele><time>2026-04-18T07:59:39Z</time></trkpt><trkpt lat="45.97709840793819" lon="12.729851822845209"><ele>25.8</ele><time>2026-04-18T07:59:40Z</time></trkpt><trkpt lat="45.977132476060945" lon="12.729981994798484"><ele>25.4</ele><time>2026-04-18T07:59:41Z</time></trkpt><trkpt lat="45.97717985801844" lon="12.730121189674097"><ele>25.0</ele><time>2026-04-18T07:59:42Z</time></trkpt><trkpt lat="45.97724649976089" lon="12.730269258423245"><ele>25.0</ele><time>2026-04-18T07:59:43Z</time></trkpt><trkpt lat="45.977326605268836" lon="12.730413331621646"><ele>25.0</ele><time>2026-04-18T07:59:44Z</time></trkpt><trkpt lat="45.97739391917464" lon="12.730579394019204"><ele>25.0</ele><time>2026-04-18T07:59:45Z</time></trkpt><trkpt lat="45.97745660691221" lon="12.730741096548984"><ele>25.0</ele><time>2026-04-18T07:59:46Z</time></trkpt><trkpt lat="45.97752052260843" lon="12.730908072234305"><ele>26.25</ele><time>2026-04-18T07:59:47Z</time></trkpt><trkpt lat="45.97759193900757" lon="12.73108919207041"><ele>27.5</ele><time>2026-04-18T07:59:48Z</time></trkpt><trkpt lat="45.9776677913106" lon="12.731269078728435"><ele>28.75</ele><time>2026-04-18T07:59:49Z</time></trkpt><trkpt lat="45.97773446761398" lon="12.731468371096378"><ele>30.0</ele><time>2026-04-18T07:59:50Z</time></trkpt><trkpt lat="45.977809083534" lon="12.731652306852492"><ele>30.0</ele><time>2026-04-18T07:59:51Z</time></trkpt><trkpt lat="45.977888019663546" lon="12.731803540428022"><ele>30.0</ele><time>2026-04-18T07:59:52Z</time></trkpt><trkpt lat="45.97795876239912" lon="12.731980912046861"><ele>30.0</ele><time>2026-04-18T07:59:53Z</time></trkpt><trkpt lat="45.97801802165089" lon="12.732163921510743"><ele>30.0</ele><time>2026-04-18T07:59:54Z</time></trkpt><trkpt lat="45.97809864868278" lon="12.732341329562008"><ele>29.75</ele><time>2026-04-18T07:59:55Z</time></trkpt><trkpt lat="45.97817586411796" lon="12.732482553326411"><ele>29.5</ele><time>2026-04-18T07:59:56Z</time></trkpt><trkpt lat="45.97822950241784" lon="12.73262719151298"><ele>29.25</ele><time>2026-04-18T07:59:57Z</time></trkpt><trkpt lat="45.97826537357611" lon="12.732776380976313"><ele>29.0</ele><time>2026-04-18T07:59:58Z</time></trkpt><trkpt lat="45.97824126108717" lon="12.732926459144299"><ele>29.0</ele><time>2026-04-18T07:59:59Z</time></trkpt><trkpt lat="45.978221300107364" lon="12.733075318704953"><ele>29.0</ele><time>2026-04-18T08:00:00Z</time></trkpt><trkpt lat="45.97819020105917" lon="12.733251561339378"><ele>29.0</ele><time>2026-04-18T08:00:01Z</time></trkpt><trkpt lat="45.9781557936205" lon="12.73346074453879"><ele>29.0</ele><time>2026-04-18T08:00:02Z</time></trkpt><trkpt lat="45.97811864779487" lon="12.733685852433608"><ele>29.25</ele><time>2026-04-18T08:00:03Z</time></trkpt><trkpt lat="45.97808553245856" lon="12.733873751916995"><ele>29.5</ele><time>2026-04-18T08:00:04Z</time></trkpt><trkpt lat="45.97805436889963" lon="12.734065103714316"><ele>29.75</ele><time>2026-04-18T08:00:05Z</time></trkpt><trkpt lat="45.97803194010354" lon="12.734262501014003"><ele>30.0</ele><time>2026-04-18T08:00:06Z</time></trkpt><trkpt lat="45.97801684026204" lon="12.734438350019431"><ele>30.0</ele><time>2026-04-18T08:00:07Z</time></trkpt><trkpt lat="45.97800357125876" lon="12.734602316819355"><ele>30.0</ele><time>2026-04-18T08:00:07.999Z</time></trkpt><trkpt lat="45.97798886486874" lon="12.734750364120044"><ele>30.0</ele><time>2026-04-18T08:00:08.999Z</time></trkpt><trkpt lat="45.97797318255823" lon="12.734891557382541"><ele>30.0</ele><time>2026-04-18T08:00:09.999Z</time></trkpt><trkpt lat="45.9779588073331" lon="12.735041330849953"><ele>30.0</ele><time>2026-04-18T08:00:10.999Z</time></trkpt><trkpt lat="45.97794851025071" lon="12.735206958778816"><ele>30.0</ele><time>2026-04-18T08:00:11.999Z</time></trkpt><trkpt lat="45.977942884938976" lon="12.735370962922241"><ele>30.0</ele><time>2026-04-18T08:00:12.999Z</time></trkpt><trkpt lat="45.97793735602934" lon="12.735536736136412"><ele>30.0</ele><time>2026-04-18T08:00:13.999Z</time></trkpt><trkpt lat="45.977931739223976" lon="12.73571169279711"><ele>30.0</ele><time>2026-04-18T08:00:14.999Z</time></trkpt><trkpt lat="45.977935444923276" lon="12.735873691990069"><ele>30.0</ele><time>2026-04-18T08:00:15.999Z</time></trkpt><trkpt lat="45.97792999658123" lon="12.736018277996148"><ele>30.0</ele><time>2026-04-18T08:00:16.999Z</time></trkpt><trkpt lat="45.97792547733365" lon="12.736141292357521"><ele>30.0</ele><time>2026-04-18T08:00:17.999Z</time></trkpt><trkpt lat="45.9779165846083" lon="12.736278048257049"><ele>30.0</ele><time>2026-04-18T08:00:18.999Z</time></trkpt><trkpt lat="45.9779130855048" lon="12.736387141158005"><ele>30.0</ele><time>2026-04-18T08:00:19.999Z</time></trkpt><trkpt lat="45.977897611095905" lon="12.736504591224417"><ele>30.0</ele><time>2026-04-18T08:00:20.999Z</time></trkpt><trkpt lat="45.97789276747378" lon="12.736615073468604"><ele>29.857142857142858</ele><time>2026-04-18T08:00:21.999Z</time></trkpt><trkpt lat="45.9778899287843" lon="12.736717586680099"><ele>29.714285714285715</ele><time>2026-04-18T08:00:22.999Z</time></trkpt><trkpt lat="45.97788985665526" lon="12.736814974683984"><ele>29.571428571428573</ele><time>2026-04-18T08:00:23.999Z</time></trkpt><trkpt lat="45.977891814145366" lon="12.736915068396616"><ele>29.42857142857143</ele><time>2026-04-18T08:00:24.999Z</time></trkpt><trkpt lat="45.97789525215472" lon="12.737009497087634"><ele>29.285714285714285</ele><time>2026-04-18T08:00:25.999Z</time></trkpt><trkpt lat="45.977899550797744" lon="12.737110396403391"><ele>29.142857142857146</ele><time>2026-04-18T08:00:26.999Z</time></trkpt><trkpt lat="45.97788609648947" lon="12.73722279570418"><ele>29.000000000000004</ele><time>2026-04-18T08:00:27.999Z</time></trkpt><trkpt lat="45.977888706929946" lon="12.737332611579658"><ele>28.833333333333332</ele><time>2026-04-18T08:00:28.999Z</time></trkpt><trkpt lat="45.977891691215014" lon="12.73744054445592"><ele>28.666666666666664</ele><time>2026-04-18T08:00:29.999Z</time></trkpt><trkpt lat="45.97789704655357" lon="12.737566333488116"><ele>28.5</ele><time>2026-04-18T08:00:30.999Z</time></trkpt><trkpt lat="45.97790452496098" lon="12.737695378019176"><ele>28.333333333333336</ele><time>2026-04-18T08:00:31.999Z</time></trkpt><trkpt lat="45.97791294119622" lon="12.737808251302399"><ele>28.166666666666668</ele><time>2026-04-18T08:00:32.999Z</time></trkpt><trkpt lat="45.97792138856747" lon="12.737921542494206"><ele>28.0</ele><time>2026-04-18T08:00:33.999Z</time></trkpt><trkpt lat="45.97793083056976" lon="12.73804817242233"><ele>27.833333333333336</ele><time>2026-04-18T08:00:34.999Z</time></trkpt><trkpt lat="45.97793972190686" lon="12.7381764141813"><ele>27.666666666666668</ele><time>2026-04-18T08:00:35.999Z</time></trkpt><trkpt lat="45.977948120797514" lon="12.738297565746633"><ele>27.5</ele><time>2026-04-18T08:00:36.999Z</time></trkpt><trkpt lat="45.97795533570424" lon="12.738420540133667"><ele>27.333333333333336</ele><time>2026-04-18T08:00:37.999Z</time></trkpt><trkpt lat="45.977962413853405" lon="12.738545267454713"><ele>27.166666666666668</ele><time>2026-04-18T08:00:38.999Z</time></trkpt><trkpt lat="45.977969225060804" lon="12.73866529061793"><ele>27.0</ele><time>2026-04-18T08:00:39.999Z</time></trkpt><trkpt lat="45.97797596269142" lon="12.73878401779743"><ele>27.285714285714285</ele><time>2026-04-18T08:00:40.999Z</time></trkpt><trkpt lat="45.977981618006226" lon="12.738883672717684"><ele>27.57142857142857</ele><time>2026-04-18T08:00:41.999Z</time></trkpt><trkpt lat="45.97798720025776" lon="12.738982039855738"><ele>27.85714285714286</ele><time>2026-04-18T08:00:42.999Z</time></trkpt><trkpt lat="45.97799387364142" lon="12.739099634597656"><ele>28.142857142857146</ele><time>2026-04-18T08:00:43.999Z</time></trkpt><trkpt lat="45.97800002036551" lon="12.739207948895206"><ele>28.42857142857143</ele><time>2026-04-18T08:00:44.999Z</time></trkpt><trkpt lat="45.978005529163184" lon="12.739305021537072"><ele>28.71428571428572</ele><time>2026-04-18T08:00:45.999Z</time></trkpt><trkpt lat="45.978011427644745" lon="12.739408961685584"><ele>29.000000000000004</ele><time>2026-04-18T08:00:46.999Z</time></trkpt><trkpt lat="45.97801751107695" lon="12.739504201231187"><ele>29.142857142857146</ele><time>2026-04-18T08:00:47.999Z</time></trkpt><trkpt lat="45.97803855588738" lon="12.7396018792813"><ele>29.285714285714285</ele><time>2026-04-18T08:00:48.999Z</time></trkpt><trkpt lat="45.97804393001986" lon="12.739701985917879"><ele>29.42857142857143</ele><time>2026-04-18T08:00:49.999Z</time></trkpt><trkpt lat="45.97805064925783" lon="12.739800307846695"><ele>29.571428571428573</ele><time>2026-04-18T08:00:50.999Z</time></trkpt><trkpt lat="45.97805801858319" lon="12.739909131947728"><ele>29.714285714285715</ele><time>2026-04-18T08:00:51.999Z</time></trkpt><trkpt lat="45.978064354437905" lon="12.740017947781729"><ele>29.857142857142858</ele><time>2026-04-18T08:00:52.999Z</time></trkpt><trkpt lat="45.97807356477198" lon="12.740139946780806"><ele>30.0</ele><time>2026-04-18T08:00:53.999Z</time></trkpt><trkpt lat="45.97806826391551" lon="12.740269148557388"><ele>30.0</ele><time>2026-04-18T08:00:54.999Z</time></trkpt><trkpt lat="45.978077333168486" lon="12.740405840310281"><ele>30.0</ele><time>2026-04-18T08:00:55.999Z</time></trkpt><trkpt lat="45.97808661348028" lon="12.740545713818179"><ele>30.0</ele><time>2026-04-18T08:00:56.999Z</time></trkpt><trkpt lat="45.97810938400667" lon="12.740692416376849"><ele>30.0</ele><time>2026-04-18T08:00:57.999Z</time></trkpt><trkpt lat="45.97810390663782" lon="12.740843238537954"><ele>30.0</ele><time>2026-04-18T08:00:58.999Z</time></trkpt><trkpt lat="45.97808218379739" lon="12.741000608677533"><ele>30.5</ele><time>2026-04-18T08:00:59.999Z</time></trkpt><trkpt lat="45.97803761518119" lon="12.741162455187006"><ele>31.0</ele><time>2026-04-18T08:01:00.999Z</time></trkpt><trkpt lat="45.977972882200206" lon="12.74133915070347"><ele>31.5</ele><time>2026-04-18T08:01:01.999Z</time></trkpt><trkpt lat="45.97790456574556" lon="12.741499258209384"><ele>32.0</ele><time>2026-04-18T08:01:02.999Z</time></trkpt><trkpt lat="45.97784297429993" lon="12.741627833203554"><ele>31.999999999999996</ele><time>2026-04-18T08:01:03.999Z</time></trkpt><trkpt lat="45.97779201975314" lon="12.741744202701076"><ele>32.0</ele><time>2026-04-18T08:01:04.999Z</time></trkpt><trkpt lat="45.97774836571065" lon="12.741848221513278"><ele>32.0</ele><time>2026-04-18T08:01:05.999Z</time></trkpt><trkpt lat="45.977708306971444" lon="12.741948464072983"><ele>32.0</ele><time>2026-04-18T08:01:06.999Z</time></trkpt><trkpt lat="45.97766584375056" lon="12.74204658579234"><ele>31.999999999999996</ele><time>2026-04-18T08:01:07.998Z</time></trkpt><trkpt lat="45.97763097965678" lon="12.742129217524901"><ele>32.0</ele><time>2026-04-18T08:01:08.998Z</time></trkpt><trkpt lat="45.97759748486968" lon="12.742211208840049"><ele>31.999999999999996</ele><time>2026-04-18T08:01:09.998Z</time></trkpt><trkpt lat="45.97756513114466" lon="12.742366978107484"><ele>32.0</ele><time>2026-04-18T08:01:11.998Z</time></trkpt><trkpt lat="45.977575450338314" lon="12.742461785976369"><ele>32.0</ele><time>2026-04-18T08:01:12.998Z</time></trkpt><trkpt lat="45.97760459894043" lon="12.742558280539336"><ele>32.0</ele><time>2026-04-18T08:01:13.998Z</time></trkpt><trkpt lat="45.97765577002809" lon="12.74266711155253"><ele>31.999999999999996</ele><time>2026-04-18T08:01:14.998Z</time></trkpt><trkpt lat="45.97770124253417" lon="12.742742952459594"><ele>32.0</ele><time>2026-04-18T08:01:15.998Z</time></trkpt><trkpt lat="45.977775321433754" lon="12.742879360108478"><ele>31.6</ele><time>2026-04-18T08:01:17.998Z</time></trkpt><trkpt lat="45.9778344361216" lon="12.742996998095059"><ele>31.200000000000003</ele><time>2026-04-18T08:01:19.998Z</time></trkpt><trkpt lat="45.97785855397193" lon="12.743099274102947"><ele>30.8</ele><time>2026-04-18T08:01:39Z</time></trkpt><trkpt lat="45.97793239733633" lon="12.743208401841008"><ele>30.4</ele><time>2026-04-18T08:01:46.999Z</time></trkpt><trkpt lat="45.97798578153793" lon="12.743315711497283"><ele>30.0</ele><time>2026-04-18T08:01:47.999Z</time></trkpt><trkpt lat="45.9780376063082" lon="12.743402569293398"><ele>30.0</ele><time>2026-04-18T08:01:48.999Z</time></trkpt><trkpt lat="45.978109116572064" lon="12.743506325354428"><ele>30.0</ele><time>2026-04-18T08:01:50.999Z</time></trkpt><trkpt lat="45.97817504557739" lon="12.743547004437755"><ele>30.0</ele><time>2026-04-18T08:01:52.999Z</time></trkpt><trkpt lat="45.9782261232517" lon="12.743625153164832"><ele>30.0</ele><time>2026-04-18T08:01:55.999Z</time></trkpt><trkpt lat="45.97831642646541" lon="12.743633309767368"><ele>30.0</ele><time>2026-04-18T08:01:58.999Z</time></trkpt><trkpt lat="45.97837879438991" lon="12.743666813882088"><ele>30.0</ele><time>2026-04-18T08:02:00.999Z</time></trkpt><trkpt lat="45.978442425958306" lon="12.74369564425548"><ele>30.4</ele><time>2026-04-18T08:02:02.999Z</time></trkpt><trkpt lat="45.978510296176935" lon="12.743718149239733"><ele>30.8</ele><time>2026-04-18T08:02:04.999Z</time></trkpt><trkpt lat="45.978607637924824" lon="12.743737487134696"><ele>31.200000000000003</ele><time>2026-04-18T08:02:07.999Z</time></trkpt><trkpt lat="45.978688682531725" lon="12.743757590273956"><ele>31.6</ele><time>2026-04-18T08:02:08.999Z</time></trkpt><trkpt lat="45.97877615796644" lon="12.743788991742777"><ele>32.0</ele><time>2026-04-18T08:02:10.999Z</time></trkpt><trkpt lat="45.978624388674184" lon="12.744572728675"><ele>32.0</ele><time>2026-04-18T08:02:15.999Z</time></trkpt><trkpt lat="45.97856377266504" lon="12.744597503849612"><ele>31.999999999999996</ele><time>2026-04-18T08:02:18.999Z</time></trkpt><trkpt lat="45.978543813182384" lon="12.744741211339582"><ele>32.0</ele><time>2026-04-18T08:02:21.999Z</time></trkpt><trkpt lat="45.97856580880987" lon="12.74483514905455"><ele>32.0</ele><time>2026-04-18T08:02:24.999Z</time></trkpt><trkpt lat="45.978618663487566" lon="12.744896505511226"><ele>31.999999999999996</ele><time>2026-04-18T08:02:26.999Z</time></trkpt><trkpt lat="45.978692938829624" lon="12.744925307682514"><ele>32.0</ele><time>2026-04-18T08:02:28.999Z</time></trkpt><trkpt lat="45.97872994910199" lon="12.745009625156014"><ele>32.0</ele><time>2026-04-18T08:02:31.999Z</time></trkpt><trkpt lat="45.97881546621018" lon="12.744977520090183"><ele>32.0</ele><time>2026-04-18T08:02:36.999Z</time></trkpt><trkpt lat="45.97886563814666" lon="12.744875582374714"><ele>32.0</ele><time>2026-04-18T08:02:37.999Z</time></trkpt><trkpt lat="45.978890212013745" lon="12.74474326606949"><ele>32.0</ele><time>2026-04-18T08:02:39.999Z</time></trkpt><trkpt lat="45.9789208288968" lon="12.744613970663583"><ele>32.0</ele><time>2026-04-18T08:02:41.999Z</time></trkpt><trkpt lat="45.97900840597254" lon="12.744493306171094"><ele>32.0</ele><time>2026-04-18T08:02:43.999Z</time></trkpt><trkpt lat="45.97910139606898" lon="12.744399120278242"><ele>32.0</ele><time>2026-04-18T08:02:45.999Z</time></trkpt><trkpt lat="45.979201989231946" lon="12.744429485417754"><ele>32.0</ele><time>2026-04-18T08:02:47.999Z</time></trkpt><trkpt lat="45.979252405629175" lon="12.744491547534212"><ele>32.0</ele><time>2026-04-18T08:02:48.999Z</time></trkpt><trkpt lat="45.979265170483046" lon="12.744635869307038"><ele>32.0</ele><time>2026-04-18T08:02:50.999Z</time></trkpt><trkpt lat="45.9792035586737" lon="12.744681744932032"><ele>32.0</ele><time>2026-04-18T08:02:52.999Z</time></trkpt><trkpt lat="45.97908375124875" lon="12.74465053447353"><ele>31.999999999999996</ele><time>2026-04-18T08:02:54.999Z</time></trkpt><trkpt lat="45.97902901197707" lon="12.744743807368144"><ele>32.0</ele><time>2026-04-18T08:02:56.999Z</time></trkpt><trkpt lat="45.979056248486145" lon="12.74488728776934"><ele>32.0</ele><time>2026-04-18T08:02:58.999Z</time></trkpt><trkpt lat="45.97905600064463" lon="12.744988301920396"><ele>32.0</ele><time>2026-04-18T08:03:00.999Z</time></trkpt><trkpt lat="45.97897177073498" lon="12.745090556705309"><ele>31.999999999999996</ele><time>2026-04-18T08:03:02.999Z</time></trkpt><trkpt lat="45.97890529427164" lon="12.745135518895726"><ele>32.0</ele><time>2026-04-18T08:03:03.999Z</time></trkpt><trkpt lat="45.978813684421375" lon="12.745183606989244"><ele>31.400000000000002</ele><time>2026-04-18T08:03:05.999Z</time></trkpt><trkpt lat="45.97870188625582" lon="12.745242155754655"><ele>30.800000000000004</ele><time>2026-04-18T08:03:07.999Z</time></trkpt><trkpt lat="45.97856757895953" lon="12.745273888702638"><ele>30.2</ele><time>2026-04-18T08:03:09.999Z</time></trkpt><trkpt lat="45.97846513121685" lon="12.745311205019465"><ele>29.6</ele><time>2026-04-18T08:03:11.999Z</time></trkpt><trkpt lat="45.9784316239189" lon="12.745400338660634"><ele>29.0</ele><time>2026-04-18T08:03:13.999Z</time></trkpt><trkpt lat="45.97850050898523" lon="12.74542760432007"><ele>29.0</ele><time>2026-04-18T08:03:15.999Z</time></trkpt><trkpt lat="45.978641573839404" lon="12.745571307699619"><ele>29.0</ele><time>2026-04-18T08:03:17.999Z</time></trkpt><trkpt lat="45.978749825355315" lon="12.745597254162842"><ele>29.0</ele><time>2026-04-18T08:03:19.999Z</time></trkpt><trkpt lat="45.97884968772196" lon="12.745555276689773"><ele>29.0</ele><time>2026-04-18T08:03:21.999Z</time></trkpt><trkpt lat="45.9789024251486" lon="12.745448198116188"><ele>28.999999999999996</ele><time>2026-04-18T08:03:23.999Z</time></trkpt><trkpt lat="45.978981327202185" lon="12.745366388320713"><ele>29.0</ele><time>2026-04-18T08:03:25.999Z</time></trkpt><trkpt lat="45.97899549642061" lon="12.745482200391994"><ele>29.0</ele><time>2026-04-18T08:03:27.998Z</time></trkpt><trkpt lat="45.97894244253574" lon="12.745542008236693"><ele>29.0</ele><time>2026-04-18T08:03:28.998Z</time></trkpt><trkpt lat="45.978879572823615" lon="12.745623912800033"><ele>28.999999999999996</ele><time>2026-04-18T08:03:30Z</time></trkpt><trkpt lat="45.978833015833914" lon="12.745774863127902"><ele>29.0</ele><time>2026-04-18T08:03:32Z</time></trkpt><trkpt lat="45.97881479295747" lon="12.745961810696889"><ele>28.999999999999996</ele><time>2026-04-18T08:03:34Z</time></trkpt><trkpt lat="45.97881067579683" lon="12.74606694894003"><ele>29.0</ele><time>2026-04-18T08:03:36Z</time></trkpt><trkpt lat="45.97889377782337" lon="12.746028941945573"><ele>29.0</ele><time>2026-04-18T08:03:38Z</time></trkpt><trkpt lat="45.978918155759786" lon="12.74594416338971"><ele>29.0</ele><time>2026-04-18T08:03:39Z</time></trkpt><trkpt lat="45.978949035138676" lon="12.745794501095029"><ele>28.999999999999996</ele><time>2026-04-18T08:03:39.999Z</time></trkpt><trkpt lat="45.9790025801891" lon="12.745676636598798"><ele>29.0</ele><time>2026-04-18T08:03:41.999Z</time></trkpt><trkpt lat="45.97907768891368" lon="12.745650270768923"><ele>28.999999999999996</ele><time>2026-04-18T08:03:42.999Z</time></trkpt><trkpt lat="45.979143597914835" lon="12.74561321793209"><ele>29.0</ele><time>2026-04-18T08:03:43.999Z</time></trkpt><trkpt lat="45.979174533522965" lon="12.745533754685956"><ele>29.0</ele><time>2026-04-18T08:03:45.999Z</time></trkpt><trkpt lat="45.9791669775395" lon="12.745441487311355"><ele>29.0</ele><time>2026-04-18T08:03:46.999Z</time></trkpt><trkpt lat="45.97915785792881" lon="12.745304751798143"><ele>28.999999999999996</ele><time>2026-04-18T08:03:47.999Z</time></trkpt><trkpt lat="45.97915022832771" lon="12.745187217864904"><ele>29.0</ele><time>2026-04-18T08:03:48.999Z</time></trkpt><trkpt lat="45.97916330290185" lon="12.745053370437224"><ele>29.0</ele><time>2026-04-18T08:03:50.999Z</time></trkpt><trkpt lat="45.979244425838544" lon="12.745054155343249"><ele>29.0</ele><time>2026-04-18T08:03:52.999Z</time></trkpt><trkpt lat="45.97932296280996" lon="12.745238378379373"><ele>29.0</ele><time>2026-04-18T08:03:54.999Z</time></trkpt><trkpt lat="45.97934650210265" lon="12.74541873687251"><ele>29.0</ele><time>2026-04-18T08:03:55.999Z</time></trkpt><trkpt lat="45.97937386659873" lon="12.745621601092592"><ele>29.0</ele><time>2026-04-18T08:03:56.999Z</time></trkpt><trkpt lat="45.97936580393859" lon="12.745842168035006"><ele>29.0</ele><time>2026-04-18T08:03:57.999Z</time></trkpt><trkpt lat="45.97936682761929" lon="12.74609031230575"><ele>29.0</ele><time>2026-04-18T08:03:58.999Z</time></trkpt><trkpt lat="45.97938395471926" lon="12.746288122952182"><ele>29.2</ele><time>2026-04-18T08:03:59.999Z</time></trkpt><trkpt lat="45.97940609439813" lon="12.74646055533729"><ele>29.4</ele><time>2026-04-18T08:04:00.999Z</time></trkpt><trkpt lat="45.97941661078247" lon="12.746607337166983"><ele>29.6</ele><time>2026-04-18T08:04:01.999Z</time></trkpt><trkpt lat="45.97939184426471" lon="12.746728656863974"><ele>29.8</ele><time>2026-04-18T08:04:02.999Z</time></trkpt><trkpt lat="45.97937503417452" lon="12.746827346092479"><ele>30.0</ele><time>2026-04-18T08:04:03.999Z</time></trkpt><trkpt lat="45.979353787994974" lon="12.746979431855182"><ele>30.4</ele><time>2026-04-18T08:04:05.999Z</time></trkpt><trkpt lat="45.97933167006244" lon="12.747126518128864"><ele>30.8</ele><time>2026-04-18T08:04:07.999Z</time></trkpt><trkpt lat="45.97932393575589" lon="12.747302192708906"><ele>31.200000000000003</ele><time>2026-04-18T08:04:09.999Z</time></trkpt><trkpt lat="45.97938308647606" lon="12.747388267969669"><ele>31.6</ele><time>2026-04-18T08:04:11.999Z</time></trkpt><trkpt lat="45.979419042396145" lon="12.747504890090056"><ele>32.0</ele><time>2026-04-18T08:04:13.999Z</time></trkpt><trkpt lat="45.97939430575073" lon="12.74759107553456"><ele>32.0</ele><time>2026-04-18T08:04:14.999Z</time></trkpt><trkpt lat="45.979304384403825" lon="12.74758017291841"><ele>32.0</ele><time>2026-04-18T08:04:16.999Z</time></trkpt><trkpt lat="45.979238173427866" lon="12.747533840678987"><ele>32.0</ele><time>2026-04-18T08:04:19.999Z</time></trkpt><trkpt lat="45.979175547615895" lon="12.747417388494311"><ele>32.0</ele><time>2026-04-18T08:04:21.999Z</time></trkpt><trkpt lat="45.97914550333395" lon="12.74733485385964"><ele>32.0</ele><time>2026-04-18T08:04:24.999Z</time></trkpt><trkpt lat="45.97908177236815" lon="12.747076524552286"><ele>31.400000000000002</ele><time>2026-04-18T08:04:25.999Z</time></trkpt><trkpt lat="45.97897943281507" lon="12.747070860196507"><ele>30.800000000000004</ele><time>2026-04-18T08:04:27.999Z</time></trkpt><trkpt lat="45.97888075094204" lon="12.747158101057401"><ele>30.2</ele><time>2026-04-18T08:04:29.999Z</time></trkpt><trkpt lat="45.978776101303886" lon="12.747111282977206"><ele>29.6</ele><time>2026-04-18T08:04:31.999Z</time></trkpt><trkpt lat="45.97870190406058" lon="12.747042044006006"><ele>29.0</ele><time>2026-04-18T08:04:32.999Z</time></trkpt><trkpt lat="45.97863677625379" lon="12.746965220638103"><ele>28.999999999999996</ele><time>2026-04-18T08:04:33.999Z</time></trkpt><trkpt lat="45.97858457127936" lon="12.746873426017538"><ele>29.0</ele><time>2026-04-18T08:04:34.999Z</time></trkpt><trkpt lat="45.97852776624612" lon="12.74677216020636"><ele>29.0</ele><time>2026-04-18T08:04:35.999Z</time></trkpt><trkpt lat="45.978477734471106" lon="12.746686357394005"><ele>29.0</ele><time>2026-04-18T08:04:36.999Z</time></trkpt><trkpt lat="45.97842304318464" lon="12.74663423983163"><ele>28.999999999999996</ele><time>2026-04-18T08:04:37.999Z</time></trkpt><trkpt lat="45.97837191418096" lon="12.746562783105865"><ele>29.0</ele><time>2026-04-18T08:04:38.999Z</time></trkpt><trkpt lat="45.97833106815325" lon="12.746486308837085"><ele>29.333333333333332</ele><time>2026-04-18T08:04:39.999Z</time></trkpt><trkpt lat="45.97829280753848" lon="12.746339699103082"><ele>29.666666666666664</ele><time>2026-04-18T08:04:41.999Z</time></trkpt><trkpt lat="45.97828267349781" lon="12.746230229686718"><ele>30.0</ele><time>2026-04-18T08:04:42.999Z</time></trkpt><trkpt lat="45.97828631345291" lon="12.746099504115044"><ele>30.333333333333336</ele><time>2026-04-18T08:04:43.999Z</time></trkpt><trkpt lat="45.97827673074688" lon="12.745991473766484"><ele>30.666666666666668</ele><time>2026-04-18T08:04:44.999Z</time></trkpt><trkpt lat="45.97826450677969" lon="12.745890002169071"><ele>31.0</ele><time>2026-04-18T08:04:45.999Z</time></trkpt><trkpt lat="45.97825924096972" lon="12.745782157456803"><ele>31.4</ele><time>2026-04-18T08:04:47.999Z</time></trkpt><trkpt lat="45.978242646945986" lon="12.745605455779135"><ele>31.8</ele><time>2026-04-18T08:04:49.999Z</time></trkpt><trkpt lat="45.97824501620399" lon="12.745508267412758"><ele>32.199999999999996</ele><time>2026-04-18T08:04:50.999Z</time></trkpt><trkpt lat="45.97825541674613" lon="12.745417761901766"><ele>32.6</ele><time>2026-04-18T08:04:51.999Z</time></trkpt><trkpt lat="45.97834174875273" lon="12.745272825621694"><ele>33.0</ele><time>2026-04-18T08:04:53.999Z</time></trkpt><trkpt lat="45.97844504111515" lon="12.745227142164977"><ele>32.833333333333336</ele><time>2026-04-18T08:04:54.999Z</time></trkpt><trkpt lat="45.978545335431676" lon="12.74519466018356"><ele>32.666666666666664</ele><time>2026-04-18T08:04:56.999Z</time></trkpt><trkpt lat="45.9786378736912" lon="12.745140777534939"><ele>32.5</ele><time>2026-04-18T08:04:58.999Z</time></trkpt><trkpt lat="45.97869615498753" lon="12.745104186292815"><ele>32.33333333333333</ele><time>2026-04-18T08:04:59.999Z</time></trkpt><trkpt lat="45.9787879185862" lon="12.74503950418994"><ele>32.166666666666664</ele><time>2026-04-18T08:05:00.999Z</time></trkpt><trkpt lat="45.978839956358414" lon="12.744980142800738"><ele>32.0</ele><time>2026-04-18T08:05:01.999Z</time></trkpt><trkpt lat="45.978901619234804" lon="12.744855095529658"><ele>32.0</ele><time>2026-04-18T08:05:03.999Z</time></trkpt><trkpt lat="45.97893466447342" lon="12.74471888787792"><ele>32.0</ele><time>2026-04-18T08:05:06.999Z</time></trkpt><trkpt lat="45.97899075096678" lon="12.744636530513512"><ele>32.0</ele><time>2026-04-18T08:05:07.999Z</time></trkpt><trkpt lat="45.979082781711824" lon="12.744513902581412"><ele>32.0</ele><time>2026-04-18T08:05:09.999Z</time></trkpt><trkpt lat="45.979190952066645" lon="12.744494890837405"><ele>32.0</ele><time>2026-04-18T08:05:11.999Z</time></trkpt><trkpt lat="45.97926725102958" lon="12.744603615227662"><ele>32.0</ele><time>2026-04-18T08:05:13.999Z</time></trkpt><trkpt lat="45.97923528471179" lon="12.744733324984052"><ele>32.0</ele><time>2026-04-18T08:05:15.999Z</time></trkpt><trkpt lat="45.97912601056295" lon="12.744714192525432"><ele>32.0</ele><time>2026-04-18T08:05:17.999Z</time></trkpt><trkpt lat="45.979045346666304" lon="12.74470537804268"><ele>32.0</ele><time>2026-04-18T08:05:19.999Z</time></trkpt><trkpt lat="45.979033910719224" lon="12.744834575820063"><ele>32.0</ele><time>2026-04-18T08:05:22.999Z</time></trkpt><trkpt lat="45.97903624103892" lon="12.744961512728276"><ele>32.0</ele><time>2026-04-18T08:05:25.999Z</time></trkpt><trkpt lat="45.97897377327135" lon="12.74503246858767"><ele>32.0</ele><time>2026-04-18T08:05:28.999Z</time></trkpt><trkpt lat="45.978808722478476" lon="12.745280781094776"><ele>32.0</ele><time>2026-04-18T08:05:29.999Z</time></trkpt><trkpt lat="45.978694290943594" lon="12.745320315286566"><ele>32.0</ele><time>2026-04-18T08:05:31.999Z</time></trkpt><trkpt lat="45.978614912966925" lon="12.745334943802861"><ele>31.499999999999996</ele><time>2026-04-18T08:05:32.999Z</time></trkpt><trkpt lat="45.97854360385883" lon="12.745335736063238"><ele>31.0</ele><time>2026-04-18T08:05:33.999Z</time></trkpt><trkpt lat="45.978434423609045" lon="12.745354073227185"><ele>30.5</ele><time>2026-04-18T08:05:36Z</time></trkpt><trkpt lat="45.978425409846515" lon="12.745458895976826"><ele>30.0</ele><time>2026-04-18T08:05:38Z</time></trkpt><trkpt lat="45.97849025254858" lon="12.745519781157041"><ele>29.499999999999996</ele><time>2026-04-18T08:05:39Z</time></trkpt><trkpt lat="45.97857587269617" lon="12.745577185204024"><ele>29.0</ele><time>2026-04-18T08:05:40Z</time></trkpt><trkpt lat="45.97864047630885" lon="12.745582584771347"><ele>28.999999999999996</ele><time>2026-04-18T08:05:41Z</time></trkpt><trkpt lat="45.978728374169435" lon="12.745591511135828"><ele>29.0</ele><time>2026-04-18T08:05:43Z</time></trkpt><trkpt lat="45.97883384778793" lon="12.745571674749984"><ele>29.0</ele><time>2026-04-18T08:05:45Z</time></trkpt><trkpt lat="45.978900756694394" lon="12.745484719031415"><ele>29.0</ele><time>2026-04-18T08:05:47Z</time></trkpt><trkpt lat="45.97894635924751" lon="12.745378499921056"><ele>28.999999999999996</ele><time>2026-04-18T08:05:49Z</time></trkpt><trkpt lat="45.97900381658328" lon="12.745423198482218"><ele>29.0</ele><time>2026-04-18T08:05:50Z</time></trkpt><trkpt lat="45.97898353292177" lon="12.745518579724596"><ele>29.000000000000004</ele><time>2026-04-18T08:05:51Z</time></trkpt><trkpt lat="45.97893156696155" lon="12.745574033823768"><ele>29.0</ele><time>2026-04-18T08:05:52Z</time></trkpt><trkpt lat="45.978911079293354" lon="12.745710090344666"><ele>29.000000000000004</ele><time>2026-04-18T08:05:54Z</time></trkpt><trkpt lat="45.97886628951805" lon="12.745784696611018"><ele>29.000000000000004</ele><time>2026-04-18T08:05:55Z</time></trkpt><trkpt lat="45.97883698099339" lon="12.745865260134606"><ele>29.0</ele><time>2026-04-18T08:05:56Z</time></trkpt><trkpt lat="45.978819603444556" lon="12.745953939277756"><ele>29.000000000000004</ele><time>2026-04-18T08:05:57Z</time></trkpt><trkpt lat="45.97880194903527" lon="12.746043382253253"><ele>29.000000000000004</ele><time>2026-04-18T08:05:58Z</time></trkpt><trkpt lat="45.97880301597863" lon="12.746181331260619"><ele>29.0</ele><time>2026-04-18T08:06:00Z</time></trkpt><trkpt lat="45.97878925718774" lon="12.746305128582744"><ele>29.0</ele><time>2026-04-18T08:06:02Z</time></trkpt><trkpt lat="45.978903650900776" lon="12.74602752277217"><ele>29.0</ele><time>2026-04-18T08:06:05Z</time></trkpt><trkpt lat="45.97898191888045" lon="12.745861616308327"><ele>29.0</ele><time>2026-04-18T08:06:06Z</time></trkpt><trkpt lat="45.97907952011503" lon="12.745789583457183"><ele>29.0</ele><time>2026-04-18T08:06:07Z</time></trkpt><trkpt lat="45.97914163671877" lon="12.745738392373164"><ele>29.0</ele><time>2026-04-18T08:06:08Z</time></trkpt><trkpt lat="45.97922571359761" lon="12.745616175151392"><ele>29.0</ele><time>2026-04-18T08:06:10Z</time></trkpt><trkpt lat="45.97916918560729" lon="12.74531533830433"><ele>28.799999999999997</ele><time>2026-04-18T08:06:12Z</time></trkpt><trkpt lat="45.97917395652619" lon="12.745195031928704"><ele>28.599999999999998</ele><time>2026-04-18T08:06:13Z</time></trkpt><trkpt lat="45.97918037106712" lon="12.74507873013249"><ele>28.4</ele><time>2026-04-18T08:06:15Z</time></trkpt><trkpt lat="45.97928394631912" lon="12.745060497299052"><ele>28.2</ele><time>2026-04-18T08:06:17Z</time></trkpt><trkpt lat="45.979317806072366" lon="12.7451673778964"><ele>28.0</ele><time>2026-04-18T08:06:18Z</time></trkpt><trkpt lat="45.979366278775174" lon="12.745037964481327"><ele>28.0</ele><time>2026-04-18T08:06:19Z</time></trkpt><trkpt lat="45.979394548776696" lon="12.745151435117693"><ele>28.0</ele><time>2026-04-18T08:06:22Z</time></trkpt><trkpt lat="45.979358848857224" lon="12.74552775220059"><ele>28.0</ele><time>2026-04-18T08:06:24Z</time></trkpt><trkpt lat="45.97936744476896" lon="12.745746618217924"><ele>28.333333333333336</ele><time>2026-04-18T08:06:25Z</time></trkpt><trkpt lat="45.97938063397878" lon="12.746021718621597"><ele>28.666666666666664</ele><time>2026-04-18T08:06:26Z</time></trkpt><trkpt lat="45.97939396348461" lon="12.746325638802801"><ele>29.0</ele><time>2026-04-18T08:06:27Z</time></trkpt><trkpt lat="45.97938513434763" lon="12.74649537802766"><ele>29.25</ele><time>2026-04-18T08:06:28Z</time></trkpt><trkpt lat="45.97936648270189" lon="12.746787115484405"><ele>29.5</ele><time>2026-04-18T08:06:29Z</time></trkpt><trkpt lat="45.97934447001201" lon="12.746935769114897"><ele>29.75</ele><time>2026-04-18T08:06:30Z</time></trkpt><trkpt lat="45.97933497388933" lon="12.747092792002196"><ele>30.0</ele><time>2026-04-18T08:06:31Z</time></trkpt><trkpt lat="45.97933205290801" lon="12.74721400851845"><ele>30.4</ele><time>2026-04-18T08:06:32Z</time></trkpt><trkpt lat="45.979319266166854" lon="12.747328898156303"><ele>30.8</ele><time>2026-04-18T08:06:33Z</time></trkpt><trkpt lat="45.97933247491574" lon="12.747491035636111"><ele>31.200000000000003</ele><time>2026-04-18T08:06:35Z</time></trkpt><trkpt lat="45.97939604942787" lon="12.74757513368061"><ele>31.6</ele><time>2026-04-18T08:06:37Z</time></trkpt><trkpt lat="45.97941299697308" lon="12.747695848073004"><ele>32.0</ele><time>2026-04-18T08:06:38.999Z</time></trkpt><trkpt lat="45.97943585789162" lon="12.747839052078415"><ele>32.14285714285714</ele><time>2026-04-18T08:06:40.999Z</time></trkpt><trkpt lat="45.97943622579397" lon="12.747934566732301"><ele>32.285714285714285</ele><time>2026-04-18T08:07:31.999Z</time></trkpt><trkpt lat="45.97937005042558" lon="12.747932456412707"><ele>32.42857142857143</ele><time>2026-04-18T08:11:02.999Z</time></trkpt><trkpt lat="45.97943460842196" lon="12.747907028072737"><ele>32.57142857142857</ele><time>2026-04-18T08:15:24.999Z</time></trkpt><trkpt lat="45.9793639358129" lon="12.747928641583783"><ele>32.714285714285715</ele><time>2026-04-18T08:18:05.999Z</time></trkpt><trkpt lat="45.979409362990665" lon="12.747853307307384"><ele>32.857142857142854</ele><time>2026-04-18T08:18:08.999Z</time></trkpt><trkpt lat="45.97947943708767" lon="12.747881655999757"><ele>33.0</ele><time>2026-04-18T08:18:12.999Z</time></trkpt><trkpt lat="45.97952834114927" lon="12.747951947212336"><ele>33.0</ele><time>2026-04-18T08:18:16Z</time></trkpt><trkpt lat="45.97950303946378" lon="12.74806840648677"><ele>33.0</ele><time>2026-04-18T08:18:20Z</time></trkpt><trkpt lat="45.97949548520674" lon="12.748176863676738"><ele>33.0</ele><time>2026-04-18T08:18:22Z</time></trkpt><trkpt lat="45.97951429663717" lon="12.748263626135884"><ele>33.0</ele><time>2026-04-18T08:18:24Z</time></trkpt><trkpt lat="45.97955049242004" lon="12.748360844655318"><ele>33.0</ele><time>2026-04-18T08:18:26Z</time></trkpt><trkpt lat="45.97960841847577" lon="12.748449771123264"><ele>33.0</ele><time>2026-04-18T08:18:28Z</time></trkpt><trkpt lat="45.97970976457257" lon="12.748532197412372"><ele>32.833333333333336</ele><time>2026-04-18T08:18:30Z</time></trkpt><trkpt lat="45.97976366358469" lon="12.74858810078146"><ele>32.666666666666664</ele><time>2026-04-18T08:18:31Z</time></trkpt><trkpt lat="45.97982274376426" lon="12.748648469494894"><ele>32.5</ele><time>2026-04-18T08:18:32Z</time></trkpt><trkpt lat="45.979884757244065" lon="12.748713571426663"><ele>32.33333333333333</ele><time>2026-04-18T08:18:33Z</time></trkpt><trkpt lat="45.9799481019362" lon="12.748783901956342"><ele>32.166666666666664</ele><time>2026-04-18T08:18:34Z</time></trkpt><trkpt lat="45.98000666988868" lon="12.748867148780818"><ele>32.0</ele><time>2026-04-18T08:18:35Z</time></trkpt><trkpt lat="45.9800501420537" lon="12.748955935858858"><ele>32.0</ele><time>2026-04-18T08:18:36Z</time></trkpt><trkpt lat="45.980100392235656" lon="12.749034832890914"><ele>32.0</ele><time>2026-04-18T08:18:37Z</time></trkpt><trkpt lat="45.98018905317006" lon="12.74913537020403"><ele>32.0</ele><time>2026-04-18T08:18:39Z</time></trkpt><trkpt lat="45.98031122842683" lon="12.749182817028693"><ele>32.0</ele><time>2026-04-18T08:18:41Z</time></trkpt><trkpt lat="45.980381273292" lon="12.749190501909206"><ele>32.0</ele><time>2026-04-18T08:18:42Z</time></trkpt><trkpt lat="45.98051549917539" lon="12.749166571565173"><ele>31.999999999999996</ele><time>2026-04-18T08:18:44Z</time></trkpt><trkpt lat="45.9805851209906" lon="12.749133085741082"><ele>32.0</ele><time>2026-04-18T08:18:45Z</time></trkpt><trkpt lat="45.98065196872451" lon="12.749107409580219"><ele>32.0</ele><time>2026-04-18T08:18:46Z</time></trkpt><trkpt lat="45.980729251028365" lon="12.749097579622912"><ele>32.0</ele><time>2026-04-18T08:18:47Z</time></trkpt><trkpt lat="45.98081081079556" lon="12.749110188351846"><ele>31.999999999999996</ele><time>2026-04-18T08:18:48Z</time></trkpt><trkpt lat="45.980896078323916" lon="12.749135686483712"><ele>32.0</ele><time>2026-04-18T08:18:49Z</time></trkpt><trkpt lat="45.98098772190381" lon="12.7491663506242"><ele>32.33333333333333</ele><time>2026-04-18T08:18:50Z</time></trkpt><trkpt lat="45.98107340042456" lon="12.749193289537612"><ele>32.666666666666664</ele><time>2026-04-18T08:18:51Z</time></trkpt><trkpt lat="45.98115713448908" lon="12.749205669394408"><ele>33.0</ele><time>2026-04-18T08:18:52Z</time></trkpt><trkpt lat="45.98124092186338" lon="12.749216246576848"><ele>33.333333333333336</ele><time>2026-04-18T08:18:53Z</time></trkpt><trkpt lat="45.981328150191274" lon="12.749233343662329"><ele>33.66666666666667</ele><time>2026-04-18T08:18:54Z</time></trkpt><trkpt lat="45.981415445805716" lon="12.749271804153143"><ele>34.0</ele><time>2026-04-18T08:18:55Z</time></trkpt><trkpt lat="45.98150580407584" lon="12.749334829499244"><ele>33.833333333333336</ele><time>2026-04-18T08:18:56Z</time></trkpt><trkpt lat="45.98158577404133" lon="12.749423377210297"><ele>33.66666666666667</ele><time>2026-04-18T08:18:57Z</time></trkpt><trkpt lat="45.981653411143945" lon="12.749516467568494"><ele>33.5</ele><time>2026-04-18T08:18:58Z</time></trkpt><trkpt lat="45.9817109012992" lon="12.749591673427007"><ele>33.333333333333336</ele><time>2026-04-18T08:18:59Z</time></trkpt><trkpt lat="45.98176655419865" lon="12.749639083940412"><ele>33.166666666666664</ele><time>2026-04-18T08:19:00Z</time></trkpt><trkpt lat="45.98185393105564" lon="12.749724730197856"><ele>33.0</ele><time>2026-04-18T08:19:02Z</time></trkpt><trkpt lat="45.98188736862128" lon="12.749810878125533"><ele>33.5</ele><time>2026-04-18T08:19:04Z</time></trkpt><trkpt lat="45.98184005040929" lon="12.749877012599656"><ele>34.0</ele><time>2026-04-18T08:19:08Z</time></trkpt><trkpt lat="45.98179243304033" lon="12.749813730099737"><ele>34.5</ele><time>2026-04-18T08:19:10Z</time></trkpt><trkpt lat="45.98179869855032" lon="12.749707000346136"><ele>35.0</ele><time>2026-04-18T08:19:13Z</time></trkpt><trkpt lat="45.981886909808075" lon="12.749746886801386"><ele>35.5</ele><time>2026-04-18T08:19:16Z</time></trkpt><trkpt lat="45.981944427747635" lon="12.749857739306325"><ele>36.0</ele><time>2026-04-18T08:19:18Z</time></trkpt><trkpt lat="45.98199707922084" lon="12.74991335758803"><ele>36.0</ele><time>2026-04-18T08:19:19Z</time></trkpt><trkpt lat="45.98205398266301" lon="12.749968446908769"><ele>36.0</ele><time>2026-04-18T08:19:20Z</time></trkpt><trkpt lat="45.982108932906954" lon="12.75003164668765"><ele>36.0</ele><time>2026-04-18T08:19:21Z</time></trkpt><trkpt lat="45.982159650731745" lon="12.750092460960685"><ele>36.0</ele><time>2026-04-18T08:19:22Z</time></trkpt><trkpt lat="45.98221429577173" lon="12.750139002614041"><ele>36.0</ele><time>2026-04-18T08:19:23Z</time></trkpt><trkpt lat="45.98232570556484" lon="12.750227762921222"><ele>36.0</ele><time>2026-04-18T08:19:25Z</time></trkpt><trkpt lat="45.982380264958536" lon="12.750274809948813"><ele>36.166666666666664</ele><time>2026-04-18T08:19:26Z</time></trkpt><trkpt lat="45.98243454421712" lon="12.750329916886582"><ele>36.333333333333336</ele><time>2026-04-18T08:19:27Z</time></trkpt><trkpt lat="45.98252651723591" lon="12.75043912328475"><ele>36.5</ele><time>2026-04-18T08:19:29Z</time></trkpt><trkpt lat="45.9825859118028" lon="12.75048579564861"><ele>36.66666666666667</ele><time>2026-04-18T08:19:30Z</time></trkpt><trkpt lat="45.98270075804887" lon="12.75052943414347"><ele>36.833333333333336</ele><time>2026-04-18T08:19:32Z</time></trkpt><trkpt lat="45.982761550856104" lon="12.750567437907035"><ele>37.0</ele><time>2026-04-18T08:19:33Z</time></trkpt><trkpt lat="45.98280833034795" lon="12.75063038259945"><ele>37.0</ele><time>2026-04-18T08:19:34Z</time></trkpt><trkpt lat="45.98286443265833" lon="12.750700240077538"><ele>37.0</ele><time>2026-04-18T08:19:35Z</time></trkpt><trkpt lat="45.98298574923407" lon="12.75075170190431"><ele>37.0</ele><time>2026-04-18T08:19:37Z</time></trkpt><trkpt lat="45.98307566251844" lon="12.75074864940555"><ele>37.0</ele><time>2026-04-18T08:19:38Z</time></trkpt><trkpt lat="45.9831673741125" lon="12.750735931306808"><ele>37.0</ele><time>2026-04-18T08:19:39Z</time></trkpt><trkpt lat="45.983261598870264" lon="12.750736829289545"><ele>36.5</ele><time>2026-04-18T08:19:40Z</time></trkpt><trkpt lat="45.9833551164008" lon="12.750733171168346"><ele>36.0</ele><time>2026-04-18T08:19:41Z</time></trkpt><trkpt lat="45.98343644494617" lon="12.750740994930839"><ele>35.5</ele><time>2026-04-18T08:19:42Z</time></trkpt><trkpt lat="45.983513459029474" lon="12.75075558521265"><ele>35.0</ele><time>2026-04-18T08:19:43Z</time></trkpt><trkpt lat="45.983576849329566" lon="12.750776698637056"><ele>34.5</ele><time>2026-04-18T08:19:44Z</time></trkpt><trkpt lat="45.983652300617386" lon="12.750832992319427"><ele>34.0</ele><time>2026-04-18T08:19:46Z</time></trkpt><trkpt lat="45.983638625912704" lon="12.750930206345407"><ele>34.0</ele><time>2026-04-18T08:19:53Z</time></trkpt><trkpt lat="45.98368093738419" lon="12.750817209356521"><ele>34.0</ele><time>2026-04-18T08:19:56Z</time></trkpt><trkpt lat="45.98375637340299" lon="12.750821371378205"><ele>34.0</ele><time>2026-04-18T08:19:57Z</time></trkpt><trkpt lat="45.98383923162905" lon="12.750860533423577"><ele>34.0</ele><time>2026-04-18T08:19:58Z</time></trkpt><trkpt lat="45.98392028487454" lon="12.750935338888576"><ele>34.0</ele><time>2026-04-18T08:19:59Z</time></trkpt><trkpt lat="45.98402471471144" lon="12.75103440547064"><ele>34.0</ele><time>2026-04-18T08:20:00Z</time></trkpt><trkpt lat="45.98413698894411" lon="12.751160348488684"><ele>34.0</ele><time>2026-04-18T08:20:01Z</time></trkpt><trkpt lat="45.98425359611835" lon="12.75130096861123"><ele>34.0</ele><time>2026-04-18T08:20:02Z</time></trkpt><trkpt lat="45.984368136821004" lon="12.751433379333724"><ele>34.0</ele><time>2026-04-18T08:20:03Z</time></trkpt><trkpt lat="45.9844649064357" lon="12.751533569137875"><ele>34.0</ele><time>2026-04-18T08:20:04Z</time></trkpt><trkpt lat="45.984566117957925" lon="12.751628928683942"><ele>34.0</ele><time>2026-04-18T08:20:05Z</time></trkpt><trkpt lat="45.984658175707665" lon="12.751714064155193"><ele>34.0</ele><time>2026-04-18T08:20:06Z</time></trkpt><trkpt lat="45.984737355192436" lon="12.751803412747954"><ele>34.0</ele><time>2026-04-18T08:20:07Z</time></trkpt><trkpt lat="45.98480733058922" lon="12.75192185828919"><ele>34.0</ele><time>2026-04-18T08:20:08Z</time></trkpt><trkpt lat="45.984867853984" lon="12.752051997487316"><ele>34.0</ele><time>2026-04-18T08:20:09Z</time></trkpt><trkpt lat="45.984920712494585" lon="12.752176070093078"><ele>34.0</ele><time>2026-04-18T08:20:10Z</time></trkpt><trkpt lat="45.984977910000765" lon="12.752298126425828"><ele>34.0</ele><time>2026-04-18T08:20:11Z</time></trkpt><trkpt lat="45.98503118105473" lon="12.752406123199503"><ele>34.0</ele><time>2026-04-18T08:20:12Z</time></trkpt><trkpt lat="45.985087698737566" lon="12.752510370986565"><ele>34.0</ele><time>2026-04-18T08:20:13Z</time></trkpt><trkpt lat="45.98514644423493" lon="12.752605457918222"><ele>33.8</ele><time>2026-04-18T08:20:14Z</time></trkpt><trkpt lat="45.985207237171224" lon="12.752714269759919"><ele>33.599999999999994</ele><time>2026-04-18T08:20:15Z</time></trkpt><trkpt lat="45.98526605791745" lon="12.752825841257746"><ele>33.4</ele><time>2026-04-18T08:20:16Z</time></trkpt><trkpt lat="45.98534023354369" lon="12.75294574133745"><ele>33.199999999999996</ele><time>2026-04-18T08:20:17Z</time></trkpt><trkpt lat="45.985420415675335" lon="12.75305072958123"><ele>33.0</ele><time>2026-04-18T08:20:18Z</time></trkpt><trkpt lat="45.985505336384655" lon="12.753152465303977"><ele>33.0</ele><time>2026-04-18T08:20:19Z</time></trkpt><trkpt lat="45.98558081066205" lon="12.753257161777656"><ele>33.0</ele><time>2026-04-18T08:20:20Z</time></trkpt><trkpt lat="45.98565437745052" lon="12.753361829413693"><ele>33.0</ele><time>2026-04-18T08:20:21Z</time></trkpt><trkpt lat="45.985716616731786" lon="12.753452947572141"><ele>33.0</ele><time>2026-04-18T08:20:22Z</time></trkpt><trkpt lat="45.985757390708066" lon="12.753528361240493"><ele>33.0</ele><time>2026-04-18T08:20:23Z</time></trkpt><trkpt lat="45.98584235874972" lon="12.753667542085495"><ele>33.833333333333336</ele><time>2026-04-18T08:20:25Z</time></trkpt><trkpt lat="45.98589199718319" lon="12.75374124890672"><ele>34.666666666666664</ele><time>2026-04-18T08:20:26Z</time></trkpt><trkpt lat="45.98594248071182" lon="12.753827198149288"><ele>35.5</ele><time>2026-04-18T08:20:27Z</time></trkpt><trkpt lat="45.98599505072572" lon="12.753929575309968"><ele>36.33333333333333</ele><time>2026-04-18T08:20:28Z</time></trkpt><trkpt lat="45.9860321339084" lon="12.754023593239616"><ele>37.166666666666664</ele><time>2026-04-18T08:20:29Z</time></trkpt><trkpt lat="45.98607865001137" lon="12.754108986669381"><ele>38.0</ele><time>2026-04-18T08:20:30Z</time></trkpt><trkpt lat="45.986137775850935" lon="12.754190855062603"><ele>38.0</ele><time>2026-04-18T08:20:31Z</time></trkpt><trkpt lat="45.98619231517558" lon="12.754283834082765"><ele>38.0</ele><time>2026-04-18T08:20:32Z</time></trkpt><trkpt lat="45.9862631097645" lon="12.75440354578258"><ele>38.0</ele><time>2026-04-18T08:20:33Z</time></trkpt><trkpt lat="45.98633563682079" lon="12.754507789746098"><ele>38.0</ele><time>2026-04-18T08:20:34Z</time></trkpt><trkpt lat="45.98639530882361" lon="12.75458905120022"><ele>38.0</ele><time>2026-04-18T08:20:35Z</time></trkpt><trkpt lat="45.98645148174507" lon="12.754683495648626"><ele>37.83333333333333</ele><time>2026-04-18T08:20:36Z</time></trkpt><trkpt lat="45.98650244507977" lon="12.75476797704985"><ele>37.666666666666664</ele><time>2026-04-18T08:20:37Z</time></trkpt><trkpt lat="45.98658204780666" lon="12.754900338862893"><ele>37.5</ele><time>2026-04-18T08:20:39Z</time></trkpt><trkpt lat="45.986629693159145" lon="12.755011473906686"><ele>37.333333333333336</ele><time>2026-04-18T08:20:41Z</time></trkpt><trkpt lat="45.98665303127102" lon="12.755097433348347"><ele>37.16666666666667</ele><time>2026-04-18T08:20:48Z</time></trkpt><trkpt lat="45.986709030850335" lon="12.755189475127475"><ele>37.0</ele><time>2026-04-18T08:21:04Z</time></trkpt><trkpt lat="45.986789562546754" lon="12.75528080679434"><ele>36.800000000000004</ele><time>2026-04-18T08:21:06Z</time></trkpt><trkpt lat="45.98689854744912" lon="12.75536292128616"><ele>36.6</ele><time>2026-04-18T08:21:08Z</time></trkpt><trkpt lat="45.9869622266571" lon="12.755397491470037"><ele>36.400000000000006</ele><time>2026-04-18T08:21:09Z</time></trkpt><trkpt lat="45.987022567649845" lon="12.755435192280718"><ele>36.2</ele><time>2026-04-18T08:21:10Z</time></trkpt><trkpt lat="45.98711647743395" lon="12.755496321789055"><ele>36.0</ele><time>2026-04-18T08:21:12Z</time></trkpt><trkpt lat="45.98718240042901" lon="12.7555887970224"><ele>36.0</ele><time>2026-04-18T08:21:14Z</time></trkpt><trkpt lat="45.98723921915892" lon="12.755737845009655"><ele>36.0</ele><time>2026-04-18T08:21:16Z</time></trkpt><trkpt lat="45.98733797710761" lon="12.755832199436668"><ele>36.0</ele><time>2026-04-18T08:21:18Z</time></trkpt><trkpt lat="45.98744573769246" lon="12.755924229942911"><ele>36.0</ele><time>2026-04-18T08:21:20Z</time></trkpt><trkpt lat="45.98751968866332" lon="12.756060116818055"><ele>36.5</ele><time>2026-04-18T08:21:22Z</time></trkpt><trkpt lat="45.987599623296454" lon="12.756176103605926"><ele>37.0</ele><time>2026-04-18T08:21:24Z</time></trkpt><trkpt lat="45.98767896912872" lon="12.756238539027468"><ele>37.5</ele><time>2026-04-18T08:21:26Z</time></trkpt><trkpt lat="45.98774718957674" lon="12.756265387614945"><ele>38.0</ele><time>2026-04-18T08:21:28Z</time></trkpt><trkpt lat="45.987792330567004" lon="12.756356790894362"><ele>38.5</ele><time>2026-04-18T08:21:31Z</time></trkpt><trkpt lat="45.98776885949672" lon="12.756455932706027"><ele>39.0</ele><time>2026-04-18T08:21:34Z</time></trkpt><trkpt lat="45.98776433027136" lon="12.756573299369066"><ele>39.0</ele><time>2026-04-18T08:21:36Z</time></trkpt><trkpt lat="45.98777252287689" lon="12.756697578805701"><ele>39.0</ele><time>2026-04-18T08:21:38Z</time></trkpt><trkpt lat="45.987786172551" lon="12.756808517733965"><ele>39.0</ele><time>2026-04-18T08:21:40Z</time></trkpt><trkpt lat="45.98782513129442" lon="12.756948309032696"><ele>39.0</ele><time>2026-04-18T08:21:42Z</time></trkpt><trkpt lat="45.98785288987085" lon="12.757083786264813"><ele>39.0</ele><time>2026-04-18T08:21:44Z</time></trkpt><trkpt lat="45.98789149508863" lon="12.7572168707356"><ele>38.75</ele><time>2026-04-18T08:21:46Z</time></trkpt><trkpt lat="45.98793082518591" lon="12.757372428913374"><ele>38.5</ele><time>2026-04-18T08:21:48Z</time></trkpt><trkpt lat="45.98790633793293" lon="12.757536949780585"><ele>38.25</ele><time>2026-04-18T08:21:50Z</time></trkpt><trkpt lat="45.98792871126415" lon="12.75770894895582"><ele>38.0</ele><time>2026-04-18T08:21:52Z</time></trkpt><trkpt lat="45.98800394938285" lon="12.757851974748606"><ele>37.83333333333333</ele><time>2026-04-18T08:21:54Z</time></trkpt><trkpt lat="45.9880544235709" lon="12.757925118153182"><ele>37.666666666666664</ele><time>2026-04-18T08:21:55Z</time></trkpt><trkpt lat="45.98810810330109" lon="12.75800317996298"><ele>37.5</ele><time>2026-04-18T08:21:56Z</time></trkpt><trkpt lat="45.988154423418564" lon="12.758091992182162"><ele>37.333333333333336</ele><time>2026-04-18T08:21:57Z</time></trkpt><trkpt lat="45.98819969814232" lon="12.7582008000994"><ele>37.16666666666667</ele><time>2026-04-18T08:21:58Z</time></trkpt><trkpt lat="45.98823125199387" lon="12.758312127783396"><ele>37.0</ele><time>2026-04-18T08:21:59Z</time></trkpt><trkpt lat="45.98826653173091" lon="12.758425730944724"><ele>37.0</ele><time>2026-04-18T08:22:00Z</time></trkpt><trkpt lat="45.988320262412614" lon="12.758543736268784"><ele>37.0</ele><time>2026-04-18T08:22:01Z</time></trkpt><trkpt lat="45.988388988433094" lon="12.758657411810175"><ele>37.0</ele><time>2026-04-18T08:22:02Z</time></trkpt><trkpt lat="45.988466036478" lon="12.758778666549365"><ele>37.0</ele><time>2026-04-18T08:22:03Z</time></trkpt><trkpt lat="45.98853462842223" lon="12.7589072954802"><ele>37.0</ele><time>2026-04-18T08:22:04Z</time></trkpt><trkpt lat="45.98860039010945" lon="12.759025507839596"><ele>37.0</ele><time>2026-04-18T08:22:05Z</time></trkpt><trkpt lat="45.988672121291394" lon="12.759126444880488"><ele>37.0</ele><time>2026-04-18T08:22:06Z</time></trkpt><trkpt lat="45.988763582787215" lon="12.759228704905093"><ele>37.0</ele><time>2026-04-18T08:22:07Z</time></trkpt><trkpt lat="45.98886625935982" lon="12.759303178594761"><ele>37.0</ele><time>2026-04-18T08:22:08Z</time></trkpt><trkpt lat="45.98899021910668" lon="12.759372682833346"><ele>37.0</ele><time>2026-04-18T08:22:09Z</time></trkpt><trkpt lat="45.98909069585753" lon="12.759427001229763"><ele>37.0</ele><time>2026-04-18T08:22:10Z</time></trkpt><trkpt lat="45.98918079741308" lon="12.759525096095688"><ele>37.0</ele><time>2026-04-18T08:22:11Z</time></trkpt><trkpt lat="45.9892590266169" lon="12.759667478191224"><ele>37.0</ele><time>2026-04-18T08:22:12Z</time></trkpt><trkpt lat="45.9893430248054" lon="12.759827520265157"><ele>37.25</ele><time>2026-04-18T08:22:13Z</time></trkpt><trkpt lat="45.989437383293016" lon="12.759988191987217"><ele>37.5</ele><time>2026-04-18T08:22:14Z</time></trkpt><trkpt lat="45.98954035242885" lon="12.760143283647158"><ele>37.75</ele><time>2026-04-18T08:22:15Z</time></trkpt><trkpt lat="45.989637914210974" lon="12.760309338135968"><ele>38.0</ele><time>2026-04-18T08:22:16Z</time></trkpt><trkpt lat="45.98972110716827" lon="12.760506875440088"><ele>38.0</ele><time>2026-04-18T08:22:17Z</time></trkpt><trkpt lat="45.98979921618456" lon="12.76071328666027"><ele>38.0</ele><time>2026-04-18T08:22:18Z</time></trkpt><trkpt lat="45.98987455845996" lon="12.760878547533853"><ele>38.0</ele><time>2026-04-18T08:22:19Z</time></trkpt><trkpt lat="45.98996116906435" lon="12.761006142106412"><ele>38.0</ele><time>2026-04-18T08:22:20Z</time></trkpt><trkpt lat="45.99005189623616" lon="12.76110236821531"><ele>38.0</ele><time>2026-04-18T08:22:21Z</time></trkpt><trkpt lat="45.99014328154748" lon="12.76116880751888"><ele>38.0</ele><time>2026-04-18T08:22:22Z</time></trkpt><trkpt lat="45.990225647890654" lon="12.761239546344475"><ele>38.0</ele><time>2026-04-18T08:22:23.001Z</time></trkpt><trkpt lat="45.990287605855634" lon="12.761318103549012"><ele>38.0</ele><time>2026-04-18T08:22:24.001Z</time></trkpt><trkpt lat="45.99032690328195" lon="12.76139438073959"><ele>38.0</ele><time>2026-04-18T08:22:25.001Z</time></trkpt><trkpt lat="45.990352386849416" lon="12.761506510692353"><ele>38.0</ele><time>2026-04-18T08:22:26.001Z</time></trkpt><trkpt lat="45.99039294148075" lon="12.761637187973964"><ele>38.0</ele><time>2026-04-18T08:22:27.001Z</time></trkpt><trkpt lat="45.99044867828253" lon="12.761781498593852"><ele>38.0</ele><time>2026-04-18T08:22:28.001Z</time></trkpt><trkpt lat="45.990491714767444" lon="12.761914989753414"><ele>38.0</ele><time>2026-04-18T08:22:29.001Z</time></trkpt><trkpt lat="45.99052536005723" lon="12.762015875701312"><ele>38.0</ele><time>2026-04-18T08:22:30.001Z</time></trkpt><trkpt lat="45.99057731125097" lon="12.762092614749717"><ele>38.0</ele><time>2026-04-18T08:22:31.001Z</time></trkpt><trkpt lat="45.99065462014302" lon="12.762151235299799"><ele>38.0</ele><time>2026-04-18T08:22:32.001Z</time></trkpt><trkpt lat="45.990757509759185" lon="12.76222837790984"><ele>38.0</ele><time>2026-04-18T08:22:33.001Z</time></trkpt><trkpt lat="45.990866224810766" lon="12.762318610664126"><ele>38.0</ele><time>2026-04-18T08:22:34.001Z</time></trkpt><trkpt lat="45.99097833127902" lon="12.762421061265947"><ele>38.0</ele><time>2026-04-18T08:22:35.001Z</time></trkpt><trkpt lat="45.991082918063306" lon="12.762523042831736"><ele>38.0</ele><time>2026-04-18T08:22:36.001Z</time></trkpt><trkpt lat="45.99117775935199" lon="12.762646869691498"><ele>38.0</ele><time>2026-04-18T08:22:37.001Z</time></trkpt><trkpt lat="45.99126408243816" lon="12.762792268646026"><ele>38.0</ele><time>2026-04-18T08:22:38.001Z</time></trkpt><trkpt lat="45.99134724169676" lon="12.76294414310564"><ele>38.0</ele><time>2026-04-18T08:22:39.001Z</time></trkpt><trkpt lat="45.99143664942339" lon="12.763084612540151"><ele>38.75</ele><time>2026-04-18T08:22:40.001Z</time></trkpt><trkpt lat="45.99153291164358" lon="12.763225000059203"><ele>39.5</ele><time>2026-04-18T08:22:41.001Z</time></trkpt><trkpt lat="45.991650112682315" lon="12.76336315181617"><ele>40.25</ele><time>2026-04-18T08:22:42.001Z</time></trkpt><trkpt lat="45.99177752949652" lon="12.76348268040486"><ele>41.0</ele><time>2026-04-18T08:22:43.001Z</time></trkpt><trkpt lat="45.99191078656637" lon="12.763601686177127"><ele>41.5</ele><time>2026-04-18T08:22:44.001Z</time></trkpt><trkpt lat="45.992041050558164" lon="12.763706228594453"><ele>42.0</ele><time>2026-04-18T08:22:45.001Z</time></trkpt><trkpt lat="45.99216617675493" lon="12.763802060270223"><ele>42.5</ele><time>2026-04-18T08:22:46.001Z</time></trkpt><trkpt lat="45.992290145662295" lon="12.763895796553113"><ele>43.0</ele><time>2026-04-18T08:22:47.001Z</time></trkpt><trkpt lat="45.99241250653113" lon="12.764012772282523"><ele>43.25</ele><time>2026-04-18T08:22:48.001Z</time></trkpt><trkpt lat="45.99252341189343" lon="12.76412542937485"><ele>43.5</ele><time>2026-04-18T08:22:49.001Z</time></trkpt><trkpt lat="45.99262158376617" lon="12.764239913714619"><ele>43.75</ele><time>2026-04-18T08:22:50.001Z</time></trkpt><trkpt lat="45.992711689395726" lon="12.76436702582553"><ele>44.0</ele><time>2026-04-18T08:22:51.001Z</time></trkpt><trkpt lat="45.99280855662743" lon="12.764490970915665"><ele>44.0</ele><time>2026-04-18T08:22:52.001Z</time></trkpt><trkpt lat="45.99291145494724" lon="12.764598336595547"><ele>44.0</ele><time>2026-04-18T08:22:53.001Z</time></trkpt><trkpt lat="45.993015110828416" lon="12.764690457735282"><ele>44.0</ele><time>2026-04-18T08:22:54.001Z</time></trkpt><trkpt lat="45.99308489228872" lon="12.76479286674101"><ele>44.0</ele><time>2026-04-18T08:22:55.001Z</time></trkpt><trkpt lat="45.99313156677053" lon="12.764939900898078"><ele>44.0</ele><time>2026-04-18T08:22:56.001Z</time></trkpt><trkpt lat="45.99317809940431" lon="12.765108051828324"><ele>44.0</ele><time>2026-04-18T08:22:57.001Z</time></trkpt><trkpt lat="45.993239050766284" lon="12.76528243253827"><ele>44.0</ele><time>2026-04-18T08:22:58.001Z</time></trkpt><trkpt lat="45.99331157483049" lon="12.765448911992305"><ele>44.0</ele><time>2026-04-18T08:22:59.001Z</time></trkpt><trkpt lat="45.99338895859923" lon="12.765609453555824"><ele>43.5</ele><time>2026-04-18T08:23:00.001Z</time></trkpt><trkpt lat="45.993482620142764" lon="12.76576565825104"><ele>43.0</ele><time>2026-04-18T08:23:01.001Z</time></trkpt><trkpt lat="45.99358177668897" lon="12.765923504194689"><ele>42.5</ele><time>2026-04-18T08:23:02.001Z</time></trkpt><trkpt lat="45.99366943576899" lon="12.76608056067744"><ele>42.0</ele><time>2026-04-18T08:23:03.001Z</time></trkpt><trkpt lat="45.99375609123144" lon="12.766236924679236"><ele>42.0</ele><time>2026-04-18T08:23:04.001Z</time></trkpt><trkpt lat="45.993832973975046" lon="12.766381645498154"><ele>42.0</ele><time>2026-04-18T08:23:05.001Z</time></trkpt><trkpt lat="45.99389988189673" lon="12.7665193908808"><ele>42.0</ele><time>2026-04-18T08:23:06.001Z</time></trkpt><trkpt lat="45.99396774705969" lon="12.766669448434076"><ele>42.0</ele><time>2026-04-18T08:23:07.001Z</time></trkpt><trkpt lat="45.99404726154944" lon="12.76681990622671"><ele>42.25</ele><time>2026-04-18T08:23:08.001Z</time></trkpt><trkpt lat="45.99413134640346" lon="12.766969190878521"><ele>42.5</ele><time>2026-04-18T08:23:09.001Z</time></trkpt><trkpt lat="45.994211236465944" lon="12.767124175220799"><ele>42.75</ele><time>2026-04-18T08:23:10.001Z</time></trkpt><trkpt lat="45.99429357608648" lon="12.767253147972438"><ele>43.0</ele><time>2026-04-18T08:23:11.001Z</time></trkpt><trkpt lat="45.99438896476715" lon="12.767366831616764"><ele>43.5</ele><time>2026-04-18T08:23:12.001Z</time></trkpt><trkpt lat="45.99449848510433" lon="12.767479480360604"><ele>44.0</ele><time>2026-04-18T08:23:13.001Z</time></trkpt><trkpt lat="45.99460159075974" lon="12.767574535118104"><ele>44.5</ele><time>2026-04-18T08:23:14.001Z</time></trkpt><trkpt lat="45.99469353888134" lon="12.767688097445859"><ele>45.0</ele><time>2026-04-18T08:23:15.001Z</time></trkpt><trkpt lat="45.99477034318382" lon="12.767827810607217"><ele>45.0</ele><time>2026-04-18T08:23:16.001Z</time></trkpt><trkpt lat="45.994846587442524" lon="12.767997158504219"><ele>45.0</ele><time>2026-04-18T08:23:17Z</time></trkpt><trkpt lat="45.99491470875963" lon="12.76818058632228"><ele>45.0</ele><time>2026-04-18T08:23:18Z</time></trkpt><trkpt lat="45.99498716253241" lon="12.76836114489374"><ele>45.0</ele><time>2026-04-18T08:23:19Z</time></trkpt><trkpt lat="45.99506861531072" lon="12.768530440074228"><ele>45.75</ele><time>2026-04-18T08:23:20Z</time></trkpt><trkpt lat="45.99515773076561" lon="12.768684301986449"><ele>46.5</ele><time>2026-04-18T08:23:21Z</time></trkpt><trkpt lat="45.995248136929156" lon="12.768855903195675"><ele>47.25</ele><time>2026-04-18T08:23:22Z</time></trkpt><trkpt lat="45.99533479404231" lon="12.769035007113404"><ele>48.0</ele><time>2026-04-18T08:23:23Z</time></trkpt><trkpt lat="45.99542969322054" lon="12.769222440523018"><ele>47.75</ele><time>2026-04-18T08:23:24Z</time></trkpt><trkpt lat="45.99551813369103" lon="12.769394367767022"><ele>47.5</ele><time>2026-04-18T08:23:25Z</time></trkpt><trkpt lat="45.99560109613981" lon="12.769556111916854"><ele>47.25</ele><time>2026-04-18T08:23:26Z</time></trkpt><trkpt lat="45.995681611257446" lon="12.769714622705386"><ele>47.0</ele><time>2026-04-18T08:23:27Z</time></trkpt><trkpt lat="45.995763022114495" lon="12.769891025254095"><ele>47.33333333333333</ele><time>2026-04-18T08:23:28Z</time></trkpt><trkpt lat="45.99584180439111" lon="12.770086134755356"><ele>47.666666666666664</ele><time>2026-04-18T08:23:29Z</time></trkpt><trkpt lat="45.995905584503134" lon="12.770290340043028"><ele>48.0</ele><time>2026-04-18T08:23:30Z</time></trkpt><trkpt lat="45.995947809053874" lon="12.770517740313009"><ele>47.333333333333336</ele><time>2026-04-18T08:23:31Z</time></trkpt><trkpt lat="45.99599540503369" lon="12.770740811299387"><ele>46.66666666666667</ele><time>2026-04-18T08:23:32Z</time></trkpt><trkpt lat="45.996061071461455" lon="12.7709302678944"><ele>46.0</ele><time>2026-04-18T08:23:33Z</time></trkpt><trkpt lat="45.99613981920532" lon="12.771120046556709"><ele>45.0</ele><time>2026-04-18T08:23:34Z</time></trkpt><trkpt lat="45.99623700048379" lon="12.771318261560499"><ele>44.0</ele><time>2026-04-18T08:23:35Z</time></trkpt><trkpt lat="45.996337898094886" lon="12.771507885991575"><ele>43.0</ele><time>2026-04-18T08:23:36Z</time></trkpt><trkpt lat="45.99643576026251" lon="12.771671115307528"><ele>43.0</ele><time>2026-04-18T08:23:37Z</time></trkpt><trkpt lat="45.996543801692454" lon="12.771834395872064"><ele>43.0</ele><time>2026-04-18T08:23:38Z</time></trkpt><trkpt lat="45.99665124716004" lon="12.772003153430497"><ele>43.0</ele><time>2026-04-18T08:23:39Z</time></trkpt><trkpt lat="45.99676086701362" lon="12.77217674705913"><ele>43.0</ele><time>2026-04-18T08:23:40Z</time></trkpt><trkpt lat="45.996884041940305" lon="12.77234764563085"><ele>43.0</ele><time>2026-04-18T08:23:41Z</time></trkpt><trkpt lat="45.99700630608796" lon="12.772505923298748"><ele>43.0</ele><time>2026-04-18T08:23:42Z</time></trkpt><trkpt lat="45.99711092347393" lon="12.772649059190574"><ele>43.0</ele><time>2026-04-18T08:23:43Z</time></trkpt><trkpt lat="45.99719905596724" lon="12.772780955436835"><ele>43.0</ele><time>2026-04-18T08:23:44Z</time></trkpt><trkpt lat="45.997285813065815" lon="12.772917192222371"><ele>43.0</ele><time>2026-04-18T08:23:45Z</time></trkpt><trkpt lat="45.99735783755255" lon="12.773063410214831"><ele>43.0</ele><time>2026-04-18T08:23:46Z</time></trkpt><trkpt lat="45.99743011141352" lon="12.773202302298305"><ele>43.25</ele><time>2026-04-18T08:23:47Z</time></trkpt><trkpt lat="45.9975132043659" lon="12.773316308804443"><ele>43.5</ele><time>2026-04-18T08:23:48Z</time></trkpt><trkpt lat="45.99761348070506" lon="12.773439459400189"><ele>43.75</ele><time>2026-04-18T08:23:49Z</time></trkpt><trkpt lat="45.99772811790205" lon="12.773555108901151"><ele>44.0</ele><time>2026-04-18T08:23:49.999Z</time></trkpt><trkpt lat="45.99785409396261" lon="12.773661282788632"><ele>44.0</ele><time>2026-04-18T08:23:50.999Z</time></trkpt><trkpt lat="45.99796753289258" lon="12.773785372023404"><ele>44.0</ele><time>2026-04-18T08:23:51.999Z</time></trkpt><trkpt lat="45.99808031322017" lon="12.773889752674442"><ele>44.0</ele><time>2026-04-18T08:23:52.999Z</time></trkpt><trkpt lat="45.99819389246635" lon="12.773985713213683"><ele>44.0</ele><time>2026-04-18T08:23:53.999Z</time></trkpt><trkpt lat="45.99830723577454" lon="12.774079813034419"><ele>44.0</ele><time>2026-04-18T08:23:54.999Z</time></trkpt><trkpt lat="45.99842323833593" lon="12.774181406387678"><ele>44.0</ele><time>2026-04-18T08:23:55.999Z</time></trkpt><trkpt lat="45.99853740379793" lon="12.774277947285293"><ele>44.0</ele><time>2026-04-18T08:23:56.999Z</time></trkpt><trkpt lat="45.998644008446256" lon="12.77435299103311"><ele>44.0</ele><time>2026-04-18T08:23:57.999Z</time></trkpt><trkpt lat="45.9987463656482" lon="12.774417471596857"><ele>44.0</ele><time>2026-04-18T08:23:58.999Z</time></trkpt><trkpt lat="45.99884510738735" lon="12.77447128937406"><ele>44.0</ele><time>2026-04-18T08:23:59.999Z</time></trkpt><trkpt lat="45.99895696683936" lon="12.774511338070601"><ele>44.0</ele><time>2026-04-18T08:24:00.999Z</time></trkpt><trkpt lat="45.99908170878884" lon="12.774537716006028"><ele>44.0</ele><time>2026-04-18T08:24:01.999Z</time></trkpt><trkpt lat="45.99921059381722" lon="12.774567474153367"><ele>44.2</ele><time>2026-04-18T08:24:02.999Z</time></trkpt><trkpt lat="45.99932570076728" lon="12.774591615383017"><ele>44.400000000000006</ele><time>2026-04-18T08:24:03.999Z</time></trkpt><trkpt lat="45.99941910401999" lon="12.774616624033378"><ele>44.6</ele><time>2026-04-18T08:24:04.999Z</time></trkpt><trkpt lat="45.99949622951678" lon="12.774634567855419"><ele>44.8</ele><time>2026-04-18T08:24:05.999Z</time></trkpt><trkpt lat="45.99955984651143" lon="12.77465018835674"><ele>45.0</ele><time>2026-04-18T08:24:06.999Z</time></trkpt><trkpt lat="45.99965462673899" lon="12.774680899863977"><ele>45.0</ele><time>2026-04-18T08:24:08.999Z</time></trkpt><trkpt lat="45.99966494758957" lon="12.774784016455026"><ele>45.0</ele><time>2026-04-18T08:24:11.999Z</time></trkpt><trkpt lat="45.99956769554868" lon="12.774803756786717"><ele>45.0</ele><time>2026-04-18T08:24:15.999Z</time></trkpt><trkpt lat="45.99947033765553" lon="12.774767512676997"><ele>45.0</ele><time>2026-04-18T08:24:17.999Z</time></trkpt><trkpt lat="45.999371121464506" lon="12.774725462507273"><ele>45.0</ele><time>2026-04-18T08:24:19.999Z</time></trkpt><trkpt lat="45.99931233061432" lon="12.77469232450053"><ele>45.0</ele><time>2026-04-18T08:24:20.999Z</time></trkpt><trkpt lat="45.999245783235956" lon="12.774641724659357"><ele>45.0</ele><time>2026-04-18T08:24:21.999Z</time></trkpt><trkpt lat="45.99916893736891" lon="12.774587067043054"><ele>45.0</ele><time>2026-04-18T08:24:22.999Z</time></trkpt><trkpt lat="45.99910382908337" lon="12.7745580275359"><ele>45.0</ele><time>2026-04-18T08:24:23.999Z</time></trkpt><trkpt lat="45.999031613393406" lon="12.7745284226287"><ele>45.0</ele><time>2026-04-18T08:24:24.999Z</time></trkpt><trkpt lat="45.99895981045504" lon="12.774490470931607"><ele>45.0</ele><time>2026-04-18T08:24:25.999Z</time></trkpt><trkpt lat="45.99887740717081" lon="12.77445058265617"><ele>45.0</ele><time>2026-04-18T08:24:26.999Z</time></trkpt><trkpt lat="45.99879140977296" lon="12.77441324461529"><ele>44.8</ele><time>2026-04-18T08:24:27.999Z</time></trkpt><trkpt lat="45.99870206927285" lon="12.77438112100946"><ele>44.6</ele><time>2026-04-18T08:24:29Z</time></trkpt><trkpt lat="45.99860676133211" lon="12.774335635047118"><ele>44.400000000000006</ele><time>2026-04-18T08:24:30Z</time></trkpt><trkpt lat="45.99850990511797" lon="12.77426789598124"><ele>44.2</ele><time>2026-04-18T08:24:31Z</time></trkpt><trkpt lat="45.998416815064324" lon="12.774191834844618"><ele>44.0</ele><time>2026-04-18T08:24:32Z</time></trkpt><trkpt lat="45.998321680130985" lon="12.774119554124145"><ele>44.0</ele><time>2026-04-18T08:24:33Z</time></trkpt><trkpt lat="45.99822791842706" lon="12.77403778089166"><ele>44.0</ele><time>2026-04-18T08:24:34Z</time></trkpt><trkpt lat="45.99813616637543" lon="12.773953702834213"><ele>44.0</ele><time>2026-04-18T08:24:35Z</time></trkpt><trkpt lat="45.99805942990494" lon="12.773881900025804"><ele>44.0</ele><time>2026-04-18T08:24:36Z</time></trkpt><trkpt lat="45.99799472488108" lon="12.773826549131822"><ele>44.0</ele><time>2026-04-18T08:24:37Z</time></trkpt><trkpt lat="45.997933151802044" lon="12.773776720998454"><ele>44.0</ele><time>2026-04-18T08:24:38Z</time></trkpt><trkpt lat="45.997844846171866" lon="12.773679129226823"><ele>44.0</ele><time>2026-04-18T08:24:40Z</time></trkpt><trkpt lat="45.99776081996426" lon="12.773623613134134"><ele>44.0</ele><time>2026-04-18T08:24:42Z</time></trkpt><trkpt lat="45.997695450732" lon="12.773644395156582"><ele>44.0</ele><time>2026-04-18T08:24:44Z</time></trkpt><trkpt lat="45.997674623578405" lon="12.773764521001626"><ele>44.0</ele><time>2026-04-18T08:24:47Z</time></trkpt><trkpt lat="45.99773293165313" lon="12.773833882671134"><ele>44.0</ele><time>2026-04-18T08:24:49Z</time></trkpt><trkpt lat="45.99780799911661" lon="12.773876082126312"><ele>44.0</ele><time>2026-04-18T08:24:51Z</time></trkpt><trkpt lat="45.997910282936424" lon="12.773890268646324"><ele>44.0</ele><time>2026-04-18T08:24:53Z</time></trkpt><trkpt lat="45.99799793295516" lon="12.77385920963184"><ele>44.0</ele><time>2026-04-18T08:24:55Z</time></trkpt><trkpt lat="45.998091776310204" lon="12.773867441300464"><ele>44.0</ele><time>2026-04-18T08:24:57Z</time></trkpt><trkpt lat="45.99820071582225" lon="12.773992003995222"><ele>44.0</ele><time>2026-04-18T08:24:59Z</time></trkpt><trkpt lat="45.99825925106295" lon="12.774056153291802"><ele>44.0</ele><time>2026-04-18T08:25:00Z</time></trkpt><trkpt lat="45.99836865336549" lon="12.774137293186554"><ele>44.0</ele><time>2026-04-18T08:25:02Z</time></trkpt><trkpt lat="45.99843162526457" lon="12.77419553879665"><ele>44.0</ele><time>2026-04-18T08:25:03Z</time></trkpt><trkpt lat="45.9984981971288" lon="12.774250679247814"><ele>44.0</ele><time>2026-04-18T08:25:04Z</time></trkpt><trkpt lat="45.99856523101769" lon="12.774297845359744"><ele>44.0</ele><time>2026-04-18T08:25:05Z</time></trkpt><trkpt lat="45.99863089487136" lon="12.774347010660875"><ele>44.0</ele><time>2026-04-18T08:25:06Z</time></trkpt><trkpt lat="45.99869371685931" lon="12.774396673801263"><ele>44.0</ele><time>2026-04-18T08:25:07Z</time></trkpt><trkpt lat="45.9987565156347" lon="12.774447346987742"><ele>44.0</ele><time>2026-04-18T08:25:08Z</time></trkpt><trkpt lat="45.998829199041545" lon="12.774492669724225"><ele>44.0</ele><time>2026-04-18T08:25:09Z</time></trkpt><trkpt lat="45.99890077004012" lon="12.774522577595713"><ele>44.0</ele><time>2026-04-18T08:25:10Z</time></trkpt><trkpt lat="45.99897391032565" lon="12.774548237885023"><ele>44.0</ele><time>2026-04-18T08:25:11Z</time></trkpt><trkpt lat="45.999055454238984" lon="12.774560879837022"><ele>44.0</ele><time>2026-04-18T08:25:12Z</time></trkpt><trkpt lat="45.99913257034047" lon="12.774556893817817"><ele>44.166666666666664</ele><time>2026-04-18T08:25:13Z</time></trkpt><trkpt lat="45.99921206021278" lon="12.77456006744434"><ele>44.33333333333333</ele><time>2026-04-18T08:25:14Z</time></trkpt><trkpt lat="45.999286644367785" lon="12.774580179782527"><ele>44.5</ele><time>2026-04-18T08:25:15Z</time></trkpt><trkpt lat="45.999362947673056" lon="12.774601165478883"><ele>44.666666666666664</ele><time>2026-04-18T08:25:16Z</time></trkpt><trkpt lat="45.99944354827616" lon="12.77461270678549"><ele>44.833333333333336</ele><time>2026-04-18T08:25:17Z</time></trkpt><trkpt lat="45.999517228331975" lon="12.774619101310918"><ele>45.0</ele><time>2026-04-18T08:25:18Z</time></trkpt><trkpt lat="45.99959590789902" lon="12.774630951404793"><ele>45.0</ele><time>2026-04-18T08:25:19Z</time></trkpt><trkpt lat="45.99967804920902" lon="12.77465438469503"><ele>45.0</ele><time>2026-04-18T08:25:20Z</time></trkpt><trkpt lat="45.99975927761356" lon="12.774677669787371"><ele>45.0</ele><time>2026-04-18T08:25:21Z</time></trkpt><trkpt lat="45.99984793118432" lon="12.774692856383044"><ele>45.0</ele><time>2026-04-18T08:25:22Z</time></trkpt><trkpt lat="45.999935392954505" lon="12.774719707404428"><ele>45.0</ele><time>2026-04-18T08:25:23Z</time></trkpt><trkpt lat="46.00002105806256" lon="12.774755905096056"><ele>45.0</ele><time>2026-04-18T08:25:24Z</time></trkpt><trkpt lat="46.00010543800523" lon="12.774794644347951"><ele>45.0</ele><time>2026-04-18T08:25:25Z</time></trkpt><trkpt lat="46.0001848266311" lon="12.77482980829028"><ele>45.0</ele><time>2026-04-18T08:25:26Z</time></trkpt><trkpt lat="46.000270970503685" lon="12.77486853683451"><ele>45.0</ele><time>2026-04-18T08:25:27Z</time></trkpt><trkpt lat="46.00034842992818" lon="12.774917468146676"><ele>45.0</ele><time>2026-04-18T08:25:28Z</time></trkpt><trkpt lat="46.00044307611474" lon="12.774961112557204"><ele>45.0</ele><time>2026-04-18T08:25:29Z</time></trkpt><trkpt lat="46.00051848318714" lon="12.774994945232171"><ele>45.0</ele><time>2026-04-18T08:25:30Z</time></trkpt><trkpt lat="46.00059445679652" lon="12.775024786661428"><ele>45.0</ele><time>2026-04-18T08:25:31Z</time></trkpt><trkpt lat="46.00067544555207" lon="12.775054978700544"><ele>45.0</ele><time>2026-04-18T08:25:32Z</time></trkpt><trkpt lat="46.00075624271984" lon="12.775098003080329"><ele>45.0</ele><time>2026-04-18T08:25:33Z</time></trkpt><trkpt lat="46.00082667829896" lon="12.775156105817972"><ele>45.0</ele><time>2026-04-18T08:25:34Z</time></trkpt><trkpt lat="46.00089337691707" lon="12.77523571431114"><ele>45.0</ele><time>2026-04-18T08:25:35Z</time></trkpt><trkpt lat="46.00095650684322" lon="12.775319510495843"><ele>45.0</ele><time>2026-04-18T08:25:36Z</time></trkpt><trkpt lat="46.00101750308373" lon="12.775394349735611"><ele>45.333333333333336</ele><time>2026-04-18T08:25:37Z</time></trkpt><trkpt lat="46.00109061333795" lon="12.77546191275944"><ele>45.666666666666664</ele><time>2026-04-18T08:25:38Z</time></trkpt><trkpt lat="46.00116752940943" lon="12.775510728686376"><ele>46.0</ele><time>2026-04-18T08:25:39Z</time></trkpt><trkpt lat="46.00124595617362" lon="12.77554837355164"><ele>46.33333333333333</ele><time>2026-04-18T08:25:40Z</time></trkpt><trkpt lat="46.0013119042336" lon="12.775574641334684"><ele>46.666666666666664</ele><time>2026-04-18T08:25:41Z</time></trkpt><trkpt lat="46.00137848556178" lon="12.77558196998581"><ele>47.0</ele><time>2026-04-18T08:25:42Z</time></trkpt><trkpt lat="46.00146260575935" lon="12.775572391821404"><ele>47.0</ele><time>2026-04-18T08:25:43Z</time></trkpt><trkpt lat="46.001539947176724" lon="12.775555739224762"><ele>47.0</ele><time>2026-04-18T08:25:44Z</time></trkpt><trkpt lat="46.00161074945965" lon="12.775526505356451"><ele>47.0</ele><time>2026-04-18T08:25:45Z</time></trkpt><trkpt lat="46.001687379852164" lon="12.775495319711542"><ele>47.0</ele><time>2026-04-18T08:25:46Z</time></trkpt><trkpt lat="46.00175881621814" lon="12.775459276211652"><ele>47.0</ele><time>2026-04-18T08:25:47Z</time></trkpt><trkpt lat="46.00183085818006" lon="12.775428545289246"><ele>47.0</ele><time>2026-04-18T08:25:48Z</time></trkpt><trkpt lat="46.001894581267315" lon="12.7754149707402"><ele>47.0</ele><time>2026-04-18T08:25:49Z</time></trkpt><trkpt lat="46.00199873013714" lon="12.775392313853976"><ele>47.2</ele><time>2026-04-18T08:25:51Z</time></trkpt><trkpt lat="46.00207113843584" lon="12.775362026265872"><ele>47.400000000000006</ele><time>2026-04-18T08:25:53Z</time></trkpt><trkpt lat="46.0021487181232" lon="12.775372314640553"><ele>47.599999999999994</ele><time>2026-04-18T08:25:55Z</time></trkpt><trkpt lat="46.00221197210524" lon="12.775388112908459"><ele>47.8</ele><time>2026-04-18T08:25:57Z</time></trkpt><trkpt lat="46.00233500950946" lon="12.775381962997168"><ele>48.0</ele><time>2026-04-18T08:26:00Z</time></trkpt><trkpt lat="46.00246080934402" lon="12.775384336294957"><ele>47.99999999999999</ele><time>2026-04-18T08:26:01.999Z</time></trkpt><trkpt lat="46.0025341679865" lon="12.775388412996529"><ele>48.0</ele><time>2026-04-18T08:26:02.999Z</time></trkpt><trkpt lat="46.00260128574677" lon="12.775397106937929"><ele>48.0</ele><time>2026-04-18T08:26:03.999Z</time></trkpt><trkpt lat="46.00266998424938" lon="12.775420898343066"><ele>48.0</ele><time>2026-04-18T08:26:04.999Z</time></trkpt><trkpt lat="46.00273810037222" lon="12.7754511593808"><ele>48.0</ele><time>2026-04-18T08:26:05.999Z</time></trkpt><trkpt lat="46.00280317749352" lon="12.775495237736271"><ele>47.99999999999999</ele><time>2026-04-18T08:26:06.999Z</time></trkpt><trkpt lat="46.00287211658876" lon="12.775547817286437"><ele>48.0</ele><time>2026-04-18T08:26:07.999Z</time></trkpt><trkpt lat="46.002948745846815" lon="12.775609184613247"><ele>47.99999999999999</ele><time>2026-04-18T08:26:08.999Z</time></trkpt><trkpt lat="46.00300531655468" lon="12.775660776125848"><ele>48.0</ele><time>2026-04-18T08:26:09.999Z</time></trkpt><trkpt lat="46.00307224873108" lon="12.775708743513203"><ele>48.0</ele><time>2026-04-18T08:26:10.999Z</time></trkpt><trkpt lat="46.00313628427032" lon="12.775747233644704"><ele>48.0</ele><time>2026-04-18T08:26:11.999Z</time></trkpt><trkpt lat="46.00320216457053" lon="12.775778740884643"><ele>48.0</ele><time>2026-04-18T08:26:12.999Z</time></trkpt><trkpt lat="46.00327910793692" lon="12.775800657379406"><ele>47.99999999999999</ele><time>2026-04-18T08:26:13.999Z</time></trkpt><trkpt lat="46.003350759028095" lon="12.775826706647353"><ele>48.0</ele><time>2026-04-18T08:26:14.999Z</time></trkpt><trkpt lat="46.00343148837767" lon="12.77585236616385"><ele>48.166666666666664</ele><time>2026-04-18T08:26:15.999Z</time></trkpt><trkpt lat="46.003518341107906" lon="12.775878620561476"><ele>48.33333333333333</ele><time>2026-04-18T08:26:16.999Z</time></trkpt><trkpt lat="46.00359382557279" lon="12.775893248449428"><ele>48.5</ele><time>2026-04-18T08:26:17.999Z</time></trkpt><trkpt lat="46.0036790560922" lon="12.775904682317742"><ele>48.666666666666664</ele><time>2026-04-18T08:26:18.999Z</time></trkpt><trkpt lat="46.00376991302702" lon="12.775905525465076"><ele>48.83333333333333</ele><time>2026-04-18T08:26:19.999Z</time></trkpt><trkpt lat="46.00385605771147" lon="12.77591472590648"><ele>49.0</ele><time>2026-04-18T08:26:20.999Z</time></trkpt><trkpt lat="46.003949177329" lon="12.775926725365897"><ele>48.99999999999999</ele><time>2026-04-18T08:26:21.999Z</time></trkpt><trkpt lat="46.00403915845476" lon="12.775934486084626"><ele>49.0</ele><time>2026-04-18T08:26:22.999Z</time></trkpt><trkpt lat="46.004129703828006" lon="12.775932583674704"><ele>49.0</ele><time>2026-04-18T08:26:23.999Z</time></trkpt><trkpt lat="46.00422609859122" lon="12.775935387166541"><ele>49.0</ele><time>2026-04-18T08:26:24.999Z</time></trkpt><trkpt lat="46.00431558612841" lon="12.77594480688767"><ele>48.99999999999999</ele><time>2026-04-18T08:26:25.999Z</time></trkpt><trkpt lat="46.00439390817138" lon="12.775952573642712"><ele>49.0</ele><time>2026-04-18T08:26:26.999Z</time></trkpt><trkpt lat="46.00447844471969" lon="12.775966382447425"><ele>48.99999999999999</ele><time>2026-04-18T08:26:27.999Z</time></trkpt><trkpt lat="46.00455447083819" lon="12.775985074911024"><ele>49.0</ele><time>2026-04-18T08:26:28.999Z</time></trkpt><trkpt lat="46.004639883841214" lon="12.775999863604799"><ele>49.0</ele><time>2026-04-18T08:26:29.999Z</time></trkpt><trkpt lat="46.004721447576465" lon="12.776025898496252"><ele>49.0</ele><time>2026-04-18T08:26:30.999Z</time></trkpt><trkpt lat="46.00480007000755" lon="12.776050310114062"><ele>48.99999999999999</ele><time>2026-04-18T08:26:31.999Z</time></trkpt><trkpt lat="46.004878491777774" lon="12.776067829910417"><ele>49.0</ele><time>2026-04-18T08:26:32.999Z</time></trkpt><trkpt lat="46.004960304363756" lon="12.776079494626403"><ele>49.33333333333333</ele><time>2026-04-18T08:26:33.999Z</time></trkpt><trkpt lat="46.00502819749691" lon="12.776093797610214"><ele>49.666666666666664</ele><time>2026-04-18T08:26:35Z</time></trkpt><trkpt lat="46.00509941456295" lon="12.776121339647766"><ele>50.0</ele><time>2026-04-18T08:26:36Z</time></trkpt><trkpt lat="46.005179419667925" lon="12.77614256851587"><ele>50.33333333333333</ele><time>2026-04-18T08:26:37Z</time></trkpt><trkpt lat="46.005251583281485" lon="12.776159260003142"><ele>50.666666666666664</ele><time>2026-04-18T08:26:38Z</time></trkpt><trkpt lat="46.00535823961769" lon="12.77620169231906"><ele>51.0</ele><time>2026-04-18T08:26:40Z</time></trkpt><trkpt lat="46.005444841540374" lon="12.776243310308663"><ele>51.0</ele><time>2026-04-18T08:26:42Z</time></trkpt><trkpt lat="46.00553738360753" lon="12.776272512437354"><ele>51.0</ele><time>2026-04-18T08:26:44Z</time></trkpt><trkpt lat="46.005634806752305" lon="12.77630380602833"><ele>51.0</ele><time>2026-04-18T08:26:46Z</time></trkpt><trkpt lat="46.005732727208866" lon="12.77632113217328"><ele>51.0</ele><time>2026-04-18T08:26:48Z</time></trkpt><trkpt lat="46.00580668716819" lon="12.776275154309092"><ele>51.0</ele><time>2026-04-18T08:26:50Z</time></trkpt><trkpt lat="46.00589761626455" lon="12.77624750241012"><ele>51.333333333333336</ele><time>2026-04-18T08:26:52Z</time></trkpt><trkpt lat="46.00599141710587" lon="12.776283138561467"><ele>51.66666666666667</ele><time>2026-04-18T08:26:54Z</time></trkpt><trkpt lat="46.00608621719361" lon="12.776304658856091"><ele>52.0</ele><time>2026-04-18T08:26:56Z</time></trkpt><trkpt lat="46.006160675762644" lon="12.776304062464035"><ele>52.333333333333336</ele><time>2026-04-18T08:26:57Z</time></trkpt><trkpt lat="46.00623140769677" lon="12.776292824568763"><ele>52.66666666666667</ele><time>2026-04-18T08:26:58Z</time></trkpt><trkpt lat="46.00631071612147" lon="12.776262854695565"><ele>53.0</ele><time>2026-04-18T08:26:59Z</time></trkpt><trkpt lat="46.00638802750747" lon="12.776220841822637"><ele>53.00000000000001</ele><time>2026-04-18T08:27:00Z</time></trkpt><trkpt lat="46.006461381125824" lon="12.776199432632154"><ele>53.0</ele><time>2026-04-18T08:27:01Z</time></trkpt><trkpt lat="46.006535530185786" lon="12.776188565938694"><ele>53.0</ele><time>2026-04-18T08:27:02Z</time></trkpt><trkpt lat="46.00661667701321" lon="12.77617410605467"><ele>53.0</ele><time>2026-04-18T08:27:03Z</time></trkpt><trkpt lat="46.00668851249124" lon="12.776149255845054"><ele>53.00000000000001</ele><time>2026-04-18T08:27:04Z</time></trkpt><trkpt lat="46.0067596867367" lon="12.776129937785392"><ele>53.0</ele><time>2026-04-18T08:27:05Z</time></trkpt><trkpt lat="46.00684193555951" lon="12.776121127275319"><ele>53.142857142857146</ele><time>2026-04-18T08:27:06Z</time></trkpt><trkpt lat="46.00691594362839" lon="12.776102568910451"><ele>53.285714285714285</ele><time>2026-04-18T08:27:07Z</time></trkpt><trkpt lat="46.006985023630236" lon="12.776089820491316"><ele>53.42857142857143</ele><time>2026-04-18T08:27:08Z</time></trkpt><trkpt lat="46.0070512947026" lon="12.77606367396013"><ele>53.57142857142857</ele><time>2026-04-18T08:27:09Z</time></trkpt><trkpt lat="46.00711503898893" lon="12.776031153781958"><ele>53.71428571428571</ele><time>2026-04-18T08:27:10Z</time></trkpt><trkpt lat="46.00718126303735" lon="12.775984383892762"><ele>53.857142857142854</ele><time>2026-04-18T08:27:11Z</time></trkpt><trkpt lat="46.0072512138069" lon="12.775919020622116"><ele>54.0</ele><time>2026-04-18T08:27:12Z</time></trkpt><trkpt lat="46.00730613875006" lon="12.775854548072958"><ele>53.833333333333336</ele><time>2026-04-18T08:27:13Z</time></trkpt><trkpt lat="46.00736659517392" lon="12.775782372535614"><ele>53.66666666666667</ele><time>2026-04-18T08:27:14Z</time></trkpt><trkpt lat="46.00743163313091" lon="12.775710277148132"><ele>53.5</ele><time>2026-04-18T08:27:15Z</time></trkpt><trkpt lat="46.007497711182985" lon="12.775638588079593"><ele>53.333333333333336</ele><time>2026-04-18T08:27:16Z</time></trkpt><trkpt lat="46.00756350322848" lon="12.775577837100842"><ele>53.16666666666667</ele><time>2026-04-18T08:27:17Z</time></trkpt><trkpt lat="46.0076357006399" lon="12.775512897549735"><ele>53.0</ele><time>2026-04-18T08:27:18Z</time></trkpt><trkpt lat="46.00770339846042" lon="12.775451474069762"><ele>53.00000000000001</ele><time>2026-04-18T08:27:19Z</time></trkpt><trkpt lat="46.007769439151396" lon="12.775381759242064"><ele>53.0</ele><time>2026-04-18T08:27:20Z</time></trkpt><trkpt lat="46.00783382827769" lon="12.775309793453731"><ele>53.0</ele><time>2026-04-18T08:27:21Z</time></trkpt><trkpt lat="46.00789192714427" lon="12.775256839059857"><ele>53.0</ele><time>2026-04-18T08:27:22Z</time></trkpt><trkpt lat="46.007961347438304" lon="12.77520478459535"><ele>53.00000000000001</ele><time>2026-04-18T08:27:23Z</time></trkpt><trkpt lat="46.00804123287715" lon="12.775170434510706"><ele>53.0</ele><time>2026-04-18T08:27:24Z</time></trkpt><trkpt lat="46.00811943490375" lon="12.775143398063376"><ele>53.0</ele><time>2026-04-18T08:27:25Z</time></trkpt><trkpt lat="46.00821031780257" lon="12.77510402404913"><ele>53.0</ele><time>2026-04-18T08:27:26Z</time></trkpt><trkpt lat="46.00829337232074" lon="12.775063428772414"><ele>53.0</ele><time>2026-04-18T08:27:27Z</time></trkpt><trkpt lat="46.00838674153839" lon="12.775027039876814"><ele>53.0</ele><time>2026-04-18T08:27:28Z</time></trkpt><trkpt lat="46.008481627617414" lon="12.774995661562436"><ele>53.0</ele><time>2026-04-18T08:27:29Z</time></trkpt><trkpt lat="46.00857751912759" lon="12.774958978496585"><ele>53.2</ele><time>2026-04-18T08:27:30Z</time></trkpt><trkpt lat="46.00867089649295" lon="12.774915983706832"><ele>53.4</ele><time>2026-04-18T08:27:31Z</time></trkpt><trkpt lat="46.008752739467646" lon="12.774886279676679"><ele>53.60000000000001</ele><time>2026-04-18T08:27:32Z</time></trkpt><trkpt lat="46.00883989381488" lon="12.774857823474045"><ele>53.800000000000004</ele><time>2026-04-18T08:27:33Z</time></trkpt><trkpt lat="46.00892780291761" lon="12.774837289669742"><ele>54.0</ele><time>2026-04-18T08:27:34Z</time></trkpt><trkpt lat="46.00901877908313" lon="12.774817993847726"><ele>54.0</ele><time>2026-04-18T08:27:35Z</time></trkpt><trkpt lat="46.00911211340095" lon="12.774798695973027"><ele>54.00000000000001</ele><time>2026-04-18T08:27:36Z</time></trkpt><trkpt lat="46.009207085580194" lon="12.774789795564027"><ele>54.00000000000001</ele><time>2026-04-18T08:27:37Z</time></trkpt><trkpt lat="46.00931247108518" lon="12.774779855893968"><ele>54.0</ele><time>2026-04-18T08:27:38Z</time></trkpt><trkpt lat="46.00943666671131" lon="12.774761174271386"><ele>54.0</ele><time>2026-04-18T08:27:39Z</time></trkpt><trkpt lat="46.009547839561684" lon="12.774740179847635"><ele>54.166666666666664</ele><time>2026-04-18T08:27:40Z</time></trkpt><trkpt lat="46.00963903472029" lon="12.774715021276572"><ele>54.33333333333333</ele><time>2026-04-18T08:27:41Z</time></trkpt><trkpt lat="46.009718490103474" lon="12.774684151559848"><ele>54.5</ele><time>2026-04-18T08:27:42Z</time></trkpt><trkpt lat="46.00978910595635" lon="12.774662606818707"><ele>54.666666666666664</ele><time>2026-04-18T08:27:43Z</time></trkpt><trkpt lat="46.009898740849685" lon="12.77462784006655"><ele>54.83333333333333</ele><time>2026-04-18T08:27:45Z</time></trkpt><trkpt lat="46.009959763776045" lon="12.774600933580448"><ele>55.0</ele><time>2026-04-18T08:27:46Z</time></trkpt><trkpt lat="46.010073264169755" lon="12.774558151957885"><ele>55.2</ele><time>2026-04-18T08:27:48Z</time></trkpt><trkpt lat="46.01018162119956" lon="12.774504795986207"><ele>55.4</ele><time>2026-04-18T08:27:50Z</time></trkpt><trkpt lat="46.01031419165736" lon="12.774475261992796"><ele>55.599999999999994</ele><time>2026-04-18T08:27:52Z</time></trkpt><trkpt lat="46.01038145582412" lon="12.774461783534951"><ele>55.8</ele><time>2026-04-18T08:27:53Z</time></trkpt><trkpt lat="46.01044936194966" lon="12.774447022297627"><ele>56.0</ele><time>2026-04-18T08:27:54Z</time></trkpt><trkpt lat="46.01052291817465" lon="12.774433149875106"><ele>56.00000000000001</ele><time>2026-04-18T08:27:55Z</time></trkpt><trkpt lat="46.010586897996134" lon="12.774425050564226"><ele>56.0</ele><time>2026-04-18T08:27:56Z</time></trkpt><trkpt lat="46.01070788511553" lon="12.77441488640715"><ele>56.0</ele><time>2026-04-18T08:27:58Z</time></trkpt><trkpt lat="46.0108315240099" lon="12.774405745248217"><ele>56.0</ele><time>2026-04-18T08:28:00Z</time></trkpt><trkpt lat="46.010898777080826" lon="12.774394698127015"><ele>56.00000000000001</ele><time>2026-04-18T08:28:01Z</time></trkpt><trkpt lat="46.010963591997736" lon="12.77439221130006"><ele>56.0</ele><time>2026-04-18T08:28:02Z</time></trkpt><trkpt lat="46.01103283277075" lon="12.774396026206983"><ele>56.25</ele><time>2026-04-18T08:28:03Z</time></trkpt><trkpt lat="46.011151484296875" lon="12.774401813121166"><ele>56.5</ele><time>2026-04-18T08:28:05Z</time></trkpt><trkpt lat="46.01125785588422" lon="12.774395575224966"><ele>56.75</ele><time>2026-04-18T08:28:07Z</time></trkpt><trkpt lat="46.011382334565255" lon="12.774390647338553"><ele>57.0</ele><time>2026-04-18T08:28:09Z</time></trkpt><trkpt lat="46.01150656236028" lon="12.774385325262678"><ele>57.0</ele><time>2026-04-18T08:28:11Z</time></trkpt><trkpt lat="46.01157713862932" lon="12.77442030908423"><ele>57.0</ele><time>2026-04-18T08:28:13Z</time></trkpt><trkpt lat="46.01165941567905" lon="12.77450989044994"><ele>57.0</ele><time>2026-04-18T08:28:15Z</time></trkpt><trkpt lat="46.01171321439066" lon="12.77461204332533"><ele>57.0</ele><time>2026-04-18T08:28:16Z</time></trkpt><trkpt lat="46.01178365671286" lon="12.77474819298849"><ele>57.0</ele><time>2026-04-18T08:28:17Z</time></trkpt><trkpt lat="46.01184939203237" lon="12.774895729481612"><ele>57.0</ele><time>2026-04-18T08:28:18Z</time></trkpt><trkpt lat="46.0119043091115" lon="12.775008819255248"><ele>57.0</ele><time>2026-04-18T08:28:19Z</time></trkpt><trkpt lat="46.01194157127667" lon="12.775111258279212"><ele>57.0</ele><time>2026-04-18T08:28:20Z</time></trkpt><trkpt lat="46.011978450757795" lon="12.775209469207196"><ele>57.0</ele><time>2026-04-18T08:28:21Z</time></trkpt><trkpt lat="46.01205091758002" lon="12.775287317167484"><ele>57.0</ele><time>2026-04-18T08:28:22Z</time></trkpt><trkpt lat="46.01212028093383" lon="12.775338466107444"><ele>57.0</ele><time>2026-04-18T08:28:23Z</time></trkpt><trkpt lat="46.01219695006492" lon="12.775395271836627"><ele>57.0</ele><time>2026-04-18T08:28:24Z</time></trkpt><trkpt lat="46.01226839305929" lon="12.775460302650567"><ele>57.0</ele><time>2026-04-18T08:28:25Z</time></trkpt><trkpt lat="46.012331603577586" lon="12.775522197408973"><ele>57.0</ele><time>2026-04-18T08:28:26Z</time></trkpt><trkpt lat="46.01238825894143" lon="12.775607027833741"><ele>57.0</ele><time>2026-04-18T08:28:27Z</time></trkpt><trkpt lat="46.012436843560984" lon="12.77571585165655"><ele>57.0</ele><time>2026-04-18T08:28:28Z</time></trkpt><trkpt lat="46.01246571974428" lon="12.775825809495108"><ele>57.0</ele><time>2026-04-18T08:28:29Z</time></trkpt><trkpt lat="46.012486036497734" lon="12.775949915391115"><ele>57.333333333333336</ele><time>2026-04-18T08:28:30Z</time></trkpt><trkpt lat="46.01249820732943" lon="12.776071352985058"><ele>57.66666666666667</ele><time>2026-04-18T08:28:31Z</time></trkpt><trkpt lat="46.01250795864762" lon="12.776185020988496"><ele>58.0</ele><time>2026-04-18T08:28:32Z</time></trkpt><trkpt lat="46.01251865653012" lon="12.776306309936562"><ele>58.333333333333336</ele><time>2026-04-18T08:28:32.999Z</time></trkpt><trkpt lat="46.01253867692568" lon="12.776440868794632"><ele>58.66666666666667</ele><time>2026-04-18T08:28:33.999Z</time></trkpt><trkpt lat="46.01256811942287" lon="12.776575592620853"><ele>59.0</ele><time>2026-04-18T08:28:34.999Z</time></trkpt><trkpt lat="46.012601268158015" lon="12.776694098226512"><ele>59.00000000000001</ele><time>2026-04-18T08:28:35.999Z</time></trkpt><trkpt lat="46.01263478578448" lon="12.77680591046505"><ele>59.0</ele><time>2026-04-18T08:28:36.999Z</time></trkpt><trkpt lat="46.01265489145035" lon="12.77692664203723"><ele>59.0</ele><time>2026-04-18T08:28:37.999Z</time></trkpt><trkpt lat="46.012664727463964" lon="12.777051953250075"><ele>59.0</ele><time>2026-04-18T08:28:38.999Z</time></trkpt><trkpt lat="46.01269809958131" lon="12.777163380094596"><ele>59.00000000000001</ele><time>2026-04-18T08:28:39.999Z</time></trkpt><trkpt lat="46.012753486986725" lon="12.777269168903873"><ele>59.0</ele><time>2026-04-18T08:28:41Z</time></trkpt><trkpt lat="46.01281829828042" lon="12.777373291642906"><ele>59.0</ele><time>2026-04-18T08:28:42Z</time></trkpt><trkpt lat="46.012887376432516" lon="12.777482930326318"><ele>59.00000000000001</ele><time>2026-04-18T08:28:43Z</time></trkpt><trkpt lat="46.01295030400182" lon="12.777594370990881"><ele>59.00000000000001</ele><time>2026-04-18T08:28:44Z</time></trkpt><trkpt lat="46.01301869335233" lon="12.777713242229176"><ele>59.0</ele><time>2026-04-18T08:28:45Z</time></trkpt><trkpt lat="46.01308666570102" lon="12.77784011049606"><ele>59.0</ele><time>2026-04-18T08:28:46Z</time></trkpt><trkpt lat="46.01315504703883" lon="12.777967238622953"><ele>59.0</ele><time>2026-04-18T08:28:47Z</time></trkpt><trkpt lat="46.01321629789864" lon="12.778093914980639"><ele>59.00000000000001</ele><time>2026-04-18T08:28:48Z</time></trkpt><trkpt lat="46.01327151139469" lon="12.77820733946852"><ele>59.00000000000001</ele><time>2026-04-18T08:28:49Z</time></trkpt><trkpt lat="46.01334253339143" lon="12.778317337888314"><ele>59.0</ele><time>2026-04-18T08:28:50Z</time></trkpt><trkpt lat="46.01341615555061" lon="12.778434028569029"><ele>59.0</ele><time>2026-04-18T08:28:51Z</time></trkpt><trkpt lat="46.013484322406974" lon="12.778557330023157"><ele>59.2</ele><time>2026-04-18T08:28:52Z</time></trkpt><trkpt lat="46.01355396290213" lon="12.778678375330275"><ele>59.400000000000006</ele><time>2026-04-18T08:28:53Z</time></trkpt><trkpt lat="46.01362441395224" lon="12.778792953211417"><ele>59.6</ele><time>2026-04-18T08:28:54Z</time></trkpt><trkpt lat="46.0136952688565" lon="12.778921461256108"><ele>59.8</ele><time>2026-04-18T08:28:55Z</time></trkpt><trkpt lat="46.0137611127996" lon="12.779061561719317"><ele>60.0</ele><time>2026-04-18T08:28:56Z</time></trkpt><trkpt lat="46.013829380422926" lon="12.7791941797411"><ele>60.0</ele><time>2026-04-18T08:28:57Z</time></trkpt><trkpt lat="46.01389749356285" lon="12.779320706780496"><ele>60.0</ele><time>2026-04-18T08:28:58Z</time></trkpt><trkpt lat="46.013969780796444" lon="12.779451402605412"><ele>60.0</ele><time>2026-04-18T08:28:59Z</time></trkpt><trkpt lat="46.014047509244264" lon="12.779574657627194"><ele>60.0</ele><time>2026-04-18T08:29:00Z</time></trkpt><trkpt lat="46.01412908373848" lon="12.779697114553157"><ele>60.2</ele><time>2026-04-18T08:29:01Z</time></trkpt><trkpt lat="46.014198474361564" lon="12.779806111210934"><ele>60.4</ele><time>2026-04-18T08:29:02Z</time></trkpt><trkpt lat="46.01427030987294" lon="12.779900098688046"><ele>60.599999999999994</ele><time>2026-04-18T08:29:03Z</time></trkpt><trkpt lat="46.01434911281584" lon="12.780000398935421"><ele>60.8</ele><time>2026-04-18T08:29:04Z</time></trkpt><trkpt lat="46.014428396274205" lon="12.780102374741132"><ele>61.0</ele><time>2026-04-18T08:29:05Z</time></trkpt><trkpt lat="46.01452246409759" lon="12.780195191147175"><ele>60.5</ele><time>2026-04-18T08:29:06Z</time></trkpt><trkpt lat="46.01462041069659" lon="12.780282908965816"><ele>60.0</ele><time>2026-04-18T08:29:07Z</time></trkpt><trkpt lat="46.014722784055536" lon="12.780369698125241"><ele>59.5</ele><time>2026-04-18T08:29:08Z</time></trkpt><trkpt lat="46.01481244846185" lon="12.780465273470119"><ele>59.0</ele><time>2026-04-18T08:29:09Z</time></trkpt><trkpt lat="46.01489166655745" lon="12.780579377598778"><ele>59.0</ele><time>2026-04-18T08:29:10Z</time></trkpt><trkpt lat="46.01495694592011" lon="12.780713005713551"><ele>59.00000000000001</ele><time>2026-04-18T08:29:11Z</time></trkpt><trkpt lat="46.01501611769119" lon="12.780851361347779"><ele>59.00000000000001</ele><time>2026-04-18T08:29:12Z</time></trkpt><trkpt lat="46.01506249575836" lon="12.780982783946031"><ele>59.0</ele><time>2026-04-18T08:29:13Z</time></trkpt><trkpt lat="46.01510119573852" lon="12.781118780460355"><ele>59.0</ele><time>2026-04-18T08:29:14Z</time></trkpt><trkpt lat="46.01512908299778" lon="12.78126990090149"><ele>59.25</ele><time>2026-04-18T08:29:15Z</time></trkpt><trkpt lat="46.01515515881415" lon="12.781428117174915"><ele>59.5</ele><time>2026-04-18T08:29:16Z</time></trkpt><trkpt lat="46.01517903087695" lon="12.781599015225988"><ele>59.75</ele><time>2026-04-18T08:29:17Z</time></trkpt><trkpt lat="46.01520824948121" lon="12.78177603373869"><ele>60.0</ele><time>2026-04-18T08:29:18Z</time></trkpt><trkpt lat="46.015239307713415" lon="12.781965615242909"><ele>59.5</ele><time>2026-04-18T08:29:19Z</time></trkpt><trkpt lat="46.01526621528564" lon="12.782167171467016"><ele>59.0</ele><time>2026-04-18T08:29:20Z</time></trkpt><trkpt lat="46.01529630901506" lon="12.78236959197918"><ele>58.5</ele><time>2026-04-18T08:29:21Z</time></trkpt><trkpt lat="46.015329388066945" lon="12.782578886005108"><ele>58.0</ele><time>2026-04-18T08:29:22Z</time></trkpt><trkpt lat="46.01536775316893" lon="12.782793178079109"><ele>57.666666666666664</ele><time>2026-04-18T08:29:23Z</time></trkpt><trkpt lat="46.01541235507346" lon="12.783012458082164"><ele>57.33333333333333</ele><time>2026-04-18T08:29:24Z</time></trkpt><trkpt lat="46.01545967804845" lon="12.783233876744484"><ele>57.0</ele><time>2026-04-18T08:29:25Z</time></trkpt><trkpt lat="46.01550660809864" lon="12.78344598467543"><ele>57.0</ele><time>2026-04-18T08:29:26Z</time></trkpt><trkpt lat="46.015557941760605" lon="12.7836532732339"><ele>57.0</ele><time>2026-04-18T08:29:27Z</time></trkpt><trkpt lat="46.015613946847026" lon="12.783838818042451"><ele>57.0</ele><time>2026-04-18T08:29:28Z</time></trkpt><trkpt lat="46.01564775320042" lon="12.784048045175906"><ele>57.0</ele><time>2026-04-18T08:29:29Z</time></trkpt><trkpt lat="46.015686407290545" lon="12.78422492762257"><ele>57.25</ele><time>2026-04-18T08:29:30Z</time></trkpt><trkpt lat="46.015723290392025" lon="12.784401420376854"><ele>57.5</ele><time>2026-04-18T08:29:31Z</time></trkpt><trkpt lat="46.015764062441164" lon="12.784580325811605"><ele>57.75</ele><time>2026-04-18T08:29:32Z</time></trkpt><trkpt lat="46.01581168099062" lon="12.784749691515993"><ele>58.0</ele><time>2026-04-18T08:29:33Z</time></trkpt><trkpt lat="46.0158565882938" lon="12.78491572472488"><ele>58.0</ele><time>2026-04-18T08:29:34Z</time></trkpt><trkpt lat="46.01590140845654" lon="12.785090620254442"><ele>58.0</ele><time>2026-04-18T08:29:35Z</time></trkpt><trkpt lat="46.01594616763281" lon="12.785272862896559"><ele>58.0</ele><time>2026-04-18T08:29:36Z</time></trkpt><trkpt lat="46.01599218847829" lon="12.785459867844478"><ele>58.0</ele><time>2026-04-18T08:29:37Z</time></trkpt><trkpt lat="46.01603698055671" lon="12.785650644641365"><ele>58.0</ele><time>2026-04-18T08:29:38Z</time></trkpt><trkpt lat="46.0160804391179" lon="12.7858410918319"><ele>58.0</ele><time>2026-04-18T08:29:39Z</time></trkpt><trkpt lat="46.01611807516656" lon="12.78603726192872"><ele>58.0</ele><time>2026-04-18T08:29:40Z</time></trkpt><trkpt lat="46.01615622541587" lon="12.78623812204755"><ele>58.0</ele><time>2026-04-18T08:29:41Z</time></trkpt><trkpt lat="46.016202406240225" lon="12.786441533557047"><ele>58.0</ele><time>2026-04-18T08:29:42Z</time></trkpt><trkpt lat="46.016253682806514" lon="12.786642579518718"><ele>58.0</ele><time>2026-04-18T08:29:43Z</time></trkpt><trkpt lat="46.01630075486252" lon="12.786849312659884"><ele>58.0</ele><time>2026-04-18T08:29:44Z</time></trkpt><trkpt lat="46.016353975159824" lon="12.787052726641067"><ele>58.0</ele><time>2026-04-18T08:29:45Z</time></trkpt><trkpt lat="46.016404674045084" lon="12.7872348909118"><ele>58.0</ele><time>2026-04-18T08:29:46Z</time></trkpt><trkpt lat="46.01644945327248" lon="12.78740243816251"><ele>58.0</ele><time>2026-04-18T08:29:47Z</time></trkpt><trkpt lat="46.016486250410836" lon="12.787548421004649"><ele>58.0</ele><time>2026-04-18T08:29:48Z</time></trkpt><trkpt lat="46.01652250150539" lon="12.787698611307215"><ele>58.0</ele><time>2026-04-18T08:29:49Z</time></trkpt><trkpt lat="46.01655856838954" lon="12.787853457140113"><ele>58.0</ele><time>2026-04-18T08:29:50Z</time></trkpt><trkpt lat="46.01659641219248" lon="12.788013490821989"><ele>58.0</ele><time>2026-04-18T08:29:51Z</time></trkpt><trkpt lat="46.01663665749941" lon="12.788188731311141"><ele>58.0</ele><time>2026-04-18T08:29:52Z</time></trkpt><trkpt lat="46.01667426059274" lon="12.788366593967774"><ele>58.5</ele><time>2026-04-18T08:29:53Z</time></trkpt><trkpt lat="46.01671120698759" lon="12.788546844209742"><ele>59.0</ele><time>2026-04-18T08:29:54Z</time></trkpt><trkpt lat="46.016752815939626" lon="12.788726231851035"><ele>59.5</ele><time>2026-04-18T08:29:55Z</time></trkpt><trkpt lat="46.01679470983529" lon="12.788901997622268"><ele>60.0</ele><time>2026-04-18T08:29:56Z</time></trkpt><trkpt lat="46.01683734911681" lon="12.789089418144744"><ele>60.0</ele><time>2026-04-18T08:29:57Z</time></trkpt><trkpt lat="46.016881526358446" lon="12.789276725904294"><ele>60.0</ele><time>2026-04-18T08:29:58Z</time></trkpt><trkpt lat="46.01692353011666" lon="12.789475444753283"><ele>60.0</ele><time>2026-04-18T08:29:59Z</time></trkpt><trkpt lat="46.016962111398534" lon="12.789683194788411"><ele>60.0</ele><time>2026-04-18T08:30:00Z</time></trkpt><trkpt lat="46.01699360962067" lon="12.789900713765151"><ele>60.66666666666667</ele><time>2026-04-18T08:30:01Z</time></trkpt><trkpt lat="46.0170222690088" lon="12.79012548829535"><ele>61.333333333333336</ele><time>2026-04-18T08:30:02Z</time></trkpt><trkpt lat="46.01705864975201" lon="12.790339149096484"><ele>62.0</ele><time>2026-04-18T08:30:03Z</time></trkpt><trkpt lat="46.01711669285925" lon="12.790559284211565"><ele>62.0</ele><time>2026-04-18T08:30:04Z</time></trkpt><trkpt lat="46.01717664458743" lon="12.79077742871752"><ele>62.0</ele><time>2026-04-18T08:30:05Z</time></trkpt><trkpt lat="46.01723292057975" lon="12.790986663235707"><ele>62.0</ele><time>2026-04-18T08:30:06Z</time></trkpt><trkpt lat="46.017278156872045" lon="12.791175435612907"><ele>62.0</ele><time>2026-04-18T08:30:07Z</time></trkpt><trkpt lat="46.01731682219521" lon="12.791354251130338"><ele>62.0</ele><time>2026-04-18T08:30:08Z</time></trkpt><trkpt lat="46.01735425044046" lon="12.791517322287971"><ele>62.0</ele><time>2026-04-18T08:30:09Z</time></trkpt><trkpt lat="46.01739576573419" lon="12.791686153209183"><ele>62.0</ele><time>2026-04-18T08:30:10Z</time></trkpt><trkpt lat="46.01744273483613" lon="12.791859221460927"><ele>62.25</ele><time>2026-04-18T08:30:11Z</time></trkpt><trkpt lat="46.017487596681555" lon="12.792033609086493"><ele>62.5</ele><time>2026-04-18T08:30:12Z</time></trkpt><trkpt lat="46.01753496796482" lon="12.792210978097"><ele>62.75</ele><time>2026-04-18T08:30:13Z</time></trkpt><trkpt lat="46.01757080841259" lon="12.792397592592133"><ele>63.0</ele><time>2026-04-18T08:30:14Z</time></trkpt><trkpt lat="46.01760418548462" lon="12.792587478408805"><ele>63.0</ele><time>2026-04-18T08:30:15Z</time></trkpt><trkpt lat="46.01763981021827" lon="12.792784285538865"><ele>63.0</ele><time>2026-04-18T08:30:16Z</time></trkpt><trkpt lat="46.01766796230939" lon="12.792979720173017"><ele>63.0</ele><time>2026-04-18T08:30:17Z</time></trkpt><trkpt lat="46.01769705660354" lon="12.793146789074486"><ele>63.0</ele><time>2026-04-18T08:30:18Z</time></trkpt><trkpt lat="46.01772490131454" lon="12.793289655681226"><ele>63.0</ele><time>2026-04-18T08:30:19Z</time></trkpt><trkpt lat="46.017752437038375" lon="12.79341463232652"><ele>63.0</ele><time>2026-04-18T08:30:20Z</time></trkpt><trkpt lat="46.01777656101332" lon="12.79355125374855"><ele>63.0</ele><time>2026-04-18T08:30:21Z</time></trkpt><trkpt lat="46.01779535756435" lon="12.793699213432614"><ele>63.0</ele><time>2026-04-18T08:30:22Z</time></trkpt><trkpt lat="46.01780838180501" lon="12.793826276074766"><ele>63.0</ele><time>2026-04-18T08:30:23Z</time></trkpt><trkpt lat="46.01783514296911" lon="12.793946408774405"><ele>63.0</ele><time>2026-04-18T08:30:24Z</time></trkpt><trkpt lat="46.017859766252556" lon="12.794035325003028"><ele>63.0</ele><time>2026-04-18T08:30:25Z</time></trkpt><trkpt lat="46.01790570489862" lon="12.794187302845565"><ele>63.0</ele><time>2026-04-18T08:30:27Z</time></trkpt><trkpt lat="46.01792247438902" lon="12.794279979718823"><ele>63.0</ele><time>2026-04-18T08:30:30Z</time></trkpt><trkpt lat="46.01799702041681" lon="12.794311530733289"><ele>63.0</ele><time>2026-04-18T08:30:34Z</time></trkpt><trkpt lat="46.01798551774024" lon="12.794201072207368"><ele>63.0</ele><time>2026-04-18T08:30:37Z</time></trkpt><trkpt lat="46.01793146398084" lon="12.79413720247922"><ele>63.0</ele><time>2026-04-18T08:30:39Z</time></trkpt><trkpt lat="46.01786926668273" lon="12.794028292004135"><ele>63.0</ele><time>2026-04-18T08:30:41Z</time></trkpt><trkpt lat="46.017838843485436" lon="12.793945976636186"><ele>63.0</ele><time>2026-04-18T08:30:42Z</time></trkpt><trkpt lat="46.01783180810382" lon="12.793797341750363"><ele>63.0</ele><time>2026-04-18T08:30:44Z</time></trkpt><trkpt lat="46.01780787800806" lon="12.793596422184573"><ele>63.0</ele><time>2026-04-18T08:30:46Z</time></trkpt><trkpt lat="46.017784819079374" lon="12.79344621569181"><ele>63.0</ele><time>2026-04-18T08:30:47Z</time></trkpt><trkpt lat="46.01775769602195" lon="12.793310771727148"><ele>63.0</ele><time>2026-04-18T08:30:48Z</time></trkpt><trkpt lat="46.01772594783805" lon="12.793174971275642"><ele>63.0</ele><time>2026-04-18T08:30:49Z</time></trkpt><trkpt lat="46.01769219320591" lon="12.793026614007236"><ele>63.0</ele><time>2026-04-18T08:30:50Z</time></trkpt><trkpt lat="46.01767018586263" lon="12.79288470112679"><ele>63.0</ele><time>2026-04-18T08:30:51Z</time></trkpt><trkpt lat="46.01765396743869" lon="12.79276043601572"><ele>63.0</ele><time>2026-04-18T08:30:52Z</time></trkpt><trkpt lat="46.017633848963044" lon="12.792633299504836"><ele>63.0</ele><time>2026-04-18T08:30:53Z</time></trkpt><trkpt lat="46.01761210920087" lon="12.792496251271215"><ele>63.0</ele><time>2026-04-18T08:30:54Z</time></trkpt><trkpt lat="46.0175867927595" lon="12.792352041669727"><ele>63.0</ele><time>2026-04-18T08:30:55Z</time></trkpt><trkpt lat="46.01755553238788" lon="12.792214985790087"><ele>63.0</ele><time>2026-04-18T08:30:56Z</time></trkpt><trkpt lat="46.01752939221278" lon="12.792094652381046"><ele>63.0</ele><time>2026-04-18T08:30:57Z</time></trkpt><trkpt lat="46.0175018471618" lon="12.791959549192132"><ele>63.0</ele><time>2026-04-18T08:30:58Z</time></trkpt><trkpt lat="46.0174712393259" lon="12.791832999756698"><ele>63.0</ele><time>2026-04-18T08:30:59Z</time></trkpt><trkpt lat="46.01743870055146" lon="12.791704086297436"><ele>63.0</ele><time>2026-04-18T08:31:00Z</time></trkpt><trkpt lat="46.01740090677845" lon="12.791578071389997"><ele>63.0</ele><time>2026-04-18T08:31:01Z</time></trkpt><trkpt lat="46.017369683665954" lon="12.791452745299242"><ele>62.8</ele><time>2026-04-18T08:31:02Z</time></trkpt><trkpt lat="46.01733700858558" lon="12.791321867249367"><ele>62.599999999999994</ele><time>2026-04-18T08:31:03Z</time></trkpt><trkpt lat="46.017295904699516" lon="12.791182541944346"><ele>62.400000000000006</ele><time>2026-04-18T08:31:04Z</time></trkpt><trkpt lat="46.01725566537961" lon="12.791036515475668"><ele>62.2</ele><time>2026-04-18T08:31:05Z</time></trkpt><trkpt lat="46.01721372719197" lon="12.790873974370461"><ele>62.0</ele><time>2026-04-18T08:31:06Z</time></trkpt><trkpt lat="46.017169356541686" lon="12.790709161868485"><ele>62.0</ele><time>2026-04-18T08:31:07Z</time></trkpt><trkpt lat="46.01712521256402" lon="12.790529377407667"><ele>62.0</ele><time>2026-04-18T08:31:08Z</time></trkpt><trkpt lat="46.01708356858473" lon="12.79038516706915"><ele>62.0</ele><time>2026-04-18T08:31:09Z</time></trkpt><trkpt lat="46.01705026193108" lon="12.790249702988891"><ele>62.0</ele><time>2026-04-18T08:31:10Z</time></trkpt><trkpt lat="46.01701986273903" lon="12.790137204627982"><ele>62.0</ele><time>2026-04-18T08:31:11Z</time></trkpt><trkpt lat="46.01698551632532" lon="12.78998863410442"><ele>62.00000000000001</ele><time>2026-04-18T08:31:13Z</time></trkpt><trkpt lat="46.01699876661194" lon="12.789874815397468"><ele>62.0</ele><time>2026-04-18T08:31:15Z</time></trkpt><trkpt lat="46.017000171637555" lon="12.78975935500991"><ele>62.0</ele><time>2026-04-18T08:31:17Z</time></trkpt><trkpt lat="46.017009390836364" lon="12.789613073791974"><ele>62.0</ele><time>2026-04-18T08:31:20Z</time></trkpt><trkpt lat="46.01709174006569" lon="12.789520778132257"><ele>62.00000000000001</ele><time>2026-04-18T08:31:22Z</time></trkpt><trkpt lat="46.017155539105744" lon="12.78948777834219"><ele>62.0</ele><time>2026-04-18T08:31:23Z</time></trkpt><trkpt lat="46.01728584549628" lon="12.789497635357197"><ele>62.00000000000001</ele><time>2026-04-18T08:31:25Z</time></trkpt><trkpt lat="46.01737151715596" lon="12.78955770371317"><ele>62.0</ele><time>2026-04-18T08:31:26Z</time></trkpt><trkpt lat="46.01745486853333" lon="12.789615160797894"><ele>62.0</ele><time>2026-04-18T08:31:27Z</time></trkpt><trkpt lat="46.017543661675184" lon="12.789663008071946"><ele>62.0</ele><time>2026-04-18T08:31:28Z</time></trkpt><trkpt lat="46.01762818267486" lon="12.789710250251677"><ele>62.00000000000001</ele><time>2026-04-18T08:31:29Z</time></trkpt><trkpt lat="46.0176932564265" lon="12.789752643828058"><ele>62.0</ele><time>2026-04-18T08:31:30Z</time></trkpt><trkpt lat="46.01774277111472" lon="12.789814642835482"><ele>62.00000000000001</ele><time>2026-04-18T08:31:31Z</time></trkpt><trkpt lat="46.01778967809519" lon="12.789881527571673"><ele>62.0</ele><time>2026-04-18T08:31:32Z</time></trkpt><trkpt lat="46.017861161634485" lon="12.78991841241814"><ele>62.0</ele><time>2026-04-18T08:31:33Z</time></trkpt><trkpt lat="46.01794624020227" lon="12.789919476480545"><ele>62.0</ele><time>2026-04-18T08:31:34Z</time></trkpt><trkpt lat="46.01803745094041" lon="12.789928547366467"><ele>62.00000000000001</ele><time>2026-04-18T08:31:35Z</time></trkpt><trkpt lat="46.01814047133196" lon="12.789962279611148"><ele>62.0</ele><time>2026-04-18T08:31:36Z</time></trkpt><trkpt lat="46.01823813785916" lon="12.789996419164074"><ele>62.0</ele><time>2026-04-18T08:31:37Z</time></trkpt><trkpt lat="46.01833276823239" lon="12.790032333900989"><ele>62.0</ele><time>2026-04-18T08:31:38Z</time></trkpt><trkpt lat="46.018429163106724" lon="12.790066332595117"><ele>62.0</ele><time>2026-04-18T08:31:39Z</time></trkpt><trkpt lat="46.01851886192148" lon="12.790118071308607"><ele>62.0</ele><time>2026-04-18T08:31:40Z</time></trkpt><trkpt lat="46.01860106978004" lon="12.790165200415704"><ele>62.0</ele><time>2026-04-18T08:31:41Z</time></trkpt><trkpt lat="46.01867028887905" lon="12.790190302463325"><ele>62.16666666666667</ele><time>2026-04-18T08:31:42Z</time></trkpt><trkpt lat="46.01873899091791" lon="12.790197238020797"><ele>62.333333333333336</ele><time>2026-04-18T08:31:43Z</time></trkpt><trkpt lat="46.018805391862834" lon="12.790204980551142"><ele>62.5</ele><time>2026-04-18T08:31:44Z</time></trkpt><trkpt lat="46.018890153872675" lon="12.790215778310365"><ele>62.66666666666667</ele><time>2026-04-18T08:31:45Z</time></trkpt><trkpt lat="46.01897366833041" lon="12.79024748604546"><ele>62.833333333333336</ele><time>2026-04-18T08:31:46Z</time></trkpt><trkpt lat="46.01905768461506" lon="12.79029652373314"><ele>63.0</ele><time>2026-04-18T08:31:47Z</time></trkpt><trkpt lat="46.01912114475273" lon="12.790331809090198"><ele>63.166666666666664</ele><time>2026-04-18T08:31:48Z</time></trkpt><trkpt lat="46.01919681445757" lon="12.790345698581108"><ele>63.33333333333333</ele><time>2026-04-18T08:31:49Z</time></trkpt><trkpt lat="46.019283727835024" lon="12.79035296055691"><ele>63.5</ele><time>2026-04-18T08:31:50Z</time></trkpt><trkpt lat="46.01935713465202" lon="12.790360641664199"><ele>63.666666666666664</ele><time>2026-04-18T08:31:51Z</time></trkpt><trkpt lat="46.01942838156188" lon="12.790364533405246"><ele>63.83333333333333</ele><time>2026-04-18T08:31:52Z</time></trkpt><trkpt lat="46.0194981827424" lon="12.790351563131972"><ele>64.0</ele><time>2026-04-18T08:31:53Z</time></trkpt><trkpt lat="46.019592778755595" lon="12.790282963018566"><ele>64.0</ele><time>2026-04-18T08:31:55Z</time></trkpt><trkpt lat="46.01967719422299" lon="12.790166865610404"><ele>64.0</ele><time>2026-04-18T08:31:57Z</time></trkpt><trkpt lat="46.01975929913566" lon="12.790070150377774"><ele>64.0</ele><time>2026-04-18T08:31:59Z</time></trkpt><trkpt lat="46.01987062796772" lon="12.790011714430982"><ele>64.0</ele><time>2026-04-18T08:32:01Z</time></trkpt><trkpt lat="46.019939077875755" lon="12.789972302753762"><ele>64.0</ele><time>2026-04-18T08:32:02Z</time></trkpt><trkpt lat="46.02000651215254" lon="12.78994149063486"><ele>63.99999999999999</ele><time>2026-04-18T08:32:03Z</time></trkpt><trkpt lat="46.02008932308373" lon="12.789909247757185"><ele>64.0</ele><time>2026-04-18T08:32:04Z</time></trkpt><trkpt lat="46.02015688840031" lon="12.789896121343284"><ele>64.0</ele><time>2026-04-18T08:32:05Z</time></trkpt><trkpt lat="46.02023366450475" lon="12.78989605512053"><ele>64.0</ele><time>2026-04-18T08:32:06Z</time></trkpt><trkpt lat="46.02032087621207" lon="12.789919607651916"><ele>63.99999999999999</ele><time>2026-04-18T08:32:07Z</time></trkpt><trkpt lat="46.02040392729692" lon="12.789974286161367"><ele>64.0</ele><time>2026-04-18T08:32:08Z</time></trkpt><trkpt lat="46.020487902758276" lon="12.790038749411414"><ele>64.0</ele><time>2026-04-18T08:32:09Z</time></trkpt><trkpt lat="46.02058346014603" lon="12.790114402983452"><ele>64.0</ele><time>2026-04-18T08:32:10Z</time></trkpt><trkpt lat="46.02067558111333" lon="12.790178183262915"><ele>64.0</ele><time>2026-04-18T08:32:11Z</time></trkpt><trkpt lat="46.020768207410946" lon="12.790224812990504"><ele>64.0</ele><time>2026-04-18T08:32:12Z</time></trkpt><trkpt lat="46.02086488672238" lon="12.79025436059663"><ele>64.0</ele><time>2026-04-18T08:32:13Z</time></trkpt><trkpt lat="46.020970363861515" lon="12.790296984935626"><ele>64.0</ele><time>2026-04-18T08:32:14Z</time></trkpt><trkpt lat="46.021072924868484" lon="12.79033824118349"><ele>64.0</ele><time>2026-04-18T08:32:15Z</time></trkpt><trkpt lat="46.021168329095545" lon="12.79036210605505"><ele>64.0</ele><time>2026-04-18T08:32:16Z</time></trkpt><trkpt lat="46.02125236145248" lon="12.790372366753887"><ele>64.0</ele><time>2026-04-18T08:32:17Z</time></trkpt><trkpt lat="46.02133863375337" lon="12.79038761193072"><ele>64.0</ele><time>2026-04-18T08:32:18Z</time></trkpt><trkpt lat="46.021428556199446" lon="12.790432476870949"><ele>64.0</ele><time>2026-04-18T08:32:19Z</time></trkpt><trkpt lat="46.02152666474269" lon="12.790510469496457"><ele>64.0</ele><time>2026-04-18T08:32:20Z</time></trkpt><trkpt lat="46.02161433826574" lon="12.790599609312295"><ele>64.0</ele><time>2026-04-18T08:32:21Z</time></trkpt><trkpt lat="46.02171572158823" lon="12.790674865516834"><ele>64.0</ele><time>2026-04-18T08:32:22Z</time></trkpt><trkpt lat="46.021816999910406" lon="12.790730291529513"><ele>64.0</ele><time>2026-04-18T08:32:23Z</time></trkpt><trkpt lat="46.02192286650367" lon="12.790757177547006"><ele>64.2</ele><time>2026-04-18T08:32:24Z</time></trkpt><trkpt lat="46.02203214484365" lon="12.790781840774422"><ele>64.4</ele><time>2026-04-18T08:32:25Z</time></trkpt><trkpt lat="46.02212673647021" lon="12.790807572473945"><ele>64.6</ele><time>2026-04-18T08:32:26Z</time></trkpt><trkpt lat="46.022218579505356" lon="12.790835213296127"><ele>64.8</ele><time>2026-04-18T08:32:27Z</time></trkpt><trkpt lat="46.0223032854438" lon="12.790869637025446"><ele>65.0</ele><time>2026-04-18T08:32:28Z</time></trkpt><trkpt lat="46.02238996649069" lon="12.790912004021672"><ele>65.0</ele><time>2026-04-18T08:32:29Z</time></trkpt><trkpt lat="46.02247831345572" lon="12.790962329065197"><ele>65.0</ele><time>2026-04-18T08:32:30Z</time></trkpt><trkpt lat="46.02255400570006" lon="12.791008461655192"><ele>65.0</ele><time>2026-04-18T08:32:31Z</time></trkpt><trkpt lat="46.022613826748675" lon="12.791051483167244"><ele>65.0</ele><time>2026-04-18T08:32:32Z</time></trkpt><trkpt lat="46.02271158524627" lon="12.791107879301576"><ele>65.0</ele><time>2026-04-18T08:32:34Z</time></trkpt><trkpt lat="46.02276622031005" lon="12.79122522535122"><ele>65.0</ele><time>2026-04-18T08:32:36Z</time></trkpt><trkpt lat="46.0228213239948" lon="12.791354821872568"><ele>65.16666666666667</ele><time>2026-04-18T08:32:38Z</time></trkpt><trkpt lat="46.022879074541954" lon="12.79140329190205"><ele>65.33333333333334</ele><time>2026-04-18T08:32:39Z</time></trkpt><trkpt lat="46.02301750302922" lon="12.79145568263404"><ele>65.5</ele><time>2026-04-18T08:32:41Z</time></trkpt><trkpt lat="46.02309167665982" lon="12.791459448215566"><ele>65.66666666666667</ele><time>2026-04-18T08:32:42Z</time></trkpt><trkpt lat="46.02316868332285" lon="12.791458354839106"><ele>65.83333333333333</ele><time>2026-04-18T08:32:43Z</time></trkpt><trkpt lat="46.023248186155094" lon="12.791453678820593"><ele>66.0</ele><time>2026-04-18T08:32:44Z</time></trkpt><trkpt lat="46.02331918644123" lon="12.791458679420646"><ele>66.16666666666667</ele><time>2026-04-18T08:32:45Z</time></trkpt><trkpt lat="46.023386613122454" lon="12.79150086944961"><ele>66.33333333333333</ele><time>2026-04-18T08:32:46Z</time></trkpt><trkpt lat="46.023475139207456" lon="12.791478305733015"><ele>66.5</ele><time>2026-04-18T08:32:47Z</time></trkpt><trkpt lat="46.023554621348005" lon="12.791475738785103"><ele>66.66666666666666</ele><time>2026-04-18T08:32:48Z</time></trkpt><trkpt lat="46.02363163354436" lon="12.791464019935091"><ele>66.83333333333333</ele><time>2026-04-18T08:32:49Z</time></trkpt><trkpt lat="46.02372062003974" lon="12.791441809377687"><ele>67.0</ele><time>2026-04-18T08:32:50Z</time></trkpt><trkpt lat="46.023809597307945" lon="12.791430980932743"><ele>67.0</ele><time>2026-04-18T08:32:51Z</time></trkpt><trkpt lat="46.023892011327646" lon="12.79143214900503"><ele>67.0</ele><time>2026-04-18T08:32:52Z</time></trkpt><trkpt lat="46.023968077437715" lon="12.791408454177105"><ele>67.0</ele><time>2026-04-18T08:32:53Z</time></trkpt><trkpt lat="46.02404849394771" lon="12.791379205186272"><ele>67.0</ele><time>2026-04-18T08:32:54Z</time></trkpt><trkpt lat="46.02412828539474" lon="12.79136769535485"><ele>67.0</ele><time>2026-04-18T08:32:55Z</time></trkpt><trkpt lat="46.024195942920485" lon="12.791349956143929"><ele>67.0</ele><time>2026-04-18T08:32:56Z</time></trkpt><trkpt lat="46.02426809328308" lon="12.791320220541346"><ele>67.0</ele><time>2026-04-18T08:32:57Z</time></trkpt><trkpt lat="46.0243490828496" lon="12.791309476345262"><ele>67.0</ele><time>2026-04-18T08:32:58Z</time></trkpt><trkpt lat="46.02443214016279" lon="12.791314781920628"><ele>67.0</ele><time>2026-04-18T08:32:59Z</time></trkpt><trkpt lat="46.024508959685" lon="12.791339286693324"><ele>67.0</ele><time>2026-04-18T08:33:00Z</time></trkpt><trkpt lat="46.0245927850355" lon="12.791382068350751"><ele>67.0</ele><time>2026-04-18T08:33:01Z</time></trkpt><trkpt lat="46.024669933842816" lon="12.791412271572112"><ele>67.0</ele><time>2026-04-18T08:33:02Z</time></trkpt><trkpt lat="46.02474786600012" lon="12.791443676390195"><ele>67.0</ele><time>2026-04-18T08:33:03Z</time></trkpt><trkpt lat="46.024825509580474" lon="12.791465065517759"><ele>67.0</ele><time>2026-04-18T08:33:04Z</time></trkpt><trkpt lat="46.024906566425365" lon="12.791495276834585"><ele>67.0</ele><time>2026-04-18T08:33:05Z</time></trkpt><trkpt lat="46.02498167170783" lon="12.791537983633168"><ele>67.0</ele><time>2026-04-18T08:33:06Z</time></trkpt><trkpt lat="46.02505583386077" lon="12.791600757273036"><ele>67.0</ele><time>2026-04-18T08:33:07Z</time></trkpt><trkpt lat="46.0251466327134" lon="12.791678434365132"><ele>67.0</ele><time>2026-04-18T08:33:08Z</time></trkpt><trkpt lat="46.025243189494006" lon="12.791745131244358"><ele>67.0</ele><time>2026-04-18T08:33:09Z</time></trkpt><trkpt lat="46.0253608791155" lon="12.791805610156706"><ele>67.0</ele><time>2026-04-18T08:33:10Z</time></trkpt><trkpt lat="46.02547194541239" lon="12.79185222122172"><ele>67.0</ele><time>2026-04-18T08:33:11Z</time></trkpt><trkpt lat="46.02557226081637" lon="12.791884080075773"><ele>67.0</ele><time>2026-04-18T08:33:12Z</time></trkpt><trkpt lat="46.025649830329286" lon="12.791922086684307"><ele>67.0</ele><time>2026-04-18T08:33:13Z</time></trkpt><trkpt lat="46.025731649220795" lon="12.791963228281569"><ele>67.16666666666666</ele><time>2026-04-18T08:33:14Z</time></trkpt><trkpt lat="46.025805025012815" lon="12.792006490811511"><ele>67.33333333333333</ele><time>2026-04-18T08:33:15Z</time></trkpt><trkpt lat="46.025875815339816" lon="12.792048653492948"><ele>67.5</ele><time>2026-04-18T08:33:16Z</time></trkpt><trkpt lat="46.02595645936125" lon="12.792089333951775"><ele>67.66666666666667</ele><time>2026-04-18T08:33:17Z</time></trkpt><trkpt lat="46.02603485972468" lon="12.792127106827175"><ele>67.83333333333334</ele><time>2026-04-18T08:33:18Z</time></trkpt><trkpt lat="46.026124767471096" lon="12.792167224673515"><ele>68.0</ele><time>2026-04-18T08:33:19Z</time></trkpt><trkpt lat="46.02619894719949" lon="12.792215174015578"><ele>68.2</ele><time>2026-04-18T08:33:20Z</time></trkpt><trkpt lat="46.026286755356494" lon="12.792261050683289"><ele>68.4</ele><time>2026-04-18T08:33:21Z</time></trkpt><trkpt lat="46.02636254604877" lon="12.79232225025453"><ele>68.60000000000001</ele><time>2026-04-18T08:33:22Z</time></trkpt><trkpt lat="46.02645095516387" lon="12.79238801942455"><ele>68.8</ele><time>2026-04-18T08:33:23Z</time></trkpt><trkpt lat="46.02654226686199" lon="12.79244250074277"><ele>69.0</ele><time>2026-04-18T08:33:24Z</time></trkpt><trkpt lat="46.02663473026705" lon="12.792488359809902"><ele>69.0</ele><time>2026-04-18T08:33:25Z</time></trkpt><trkpt lat="46.026724338127295" lon="12.792518088993065"><ele>69.0</ele><time>2026-04-18T08:33:26Z</time></trkpt><trkpt lat="46.026811121094354" lon="12.792537858577393"><ele>69.0</ele><time>2026-04-18T08:33:27Z</time></trkpt><trkpt lat="46.02691110733479" lon="12.792556798095262"><ele>69.0</ele><time>2026-04-18T08:33:28Z</time></trkpt><trkpt lat="46.02700799702863" lon="12.792584591117269"><ele>69.0</ele><time>2026-04-18T08:33:29Z</time></trkpt><trkpt lat="46.02712295735754" lon="12.7926278925692"><ele>69.25</ele><time>2026-04-18T08:33:30Z</time></trkpt><trkpt lat="46.02723306701821" lon="12.792687992214534"><ele>69.5</ele><time>2026-04-18T08:33:31Z</time></trkpt><trkpt lat="46.02734018582009" lon="12.792740481633817"><ele>69.75</ele><time>2026-04-18T08:33:32Z</time></trkpt><trkpt lat="46.02745539562844" lon="12.792773741205504"><ele>70.0</ele><time>2026-04-18T08:33:33Z</time></trkpt><trkpt lat="46.027585136684266" lon="12.792800529990496"><ele>70.4</ele><time>2026-04-18T08:33:34Z</time></trkpt><trkpt lat="46.027721772900065" lon="12.792835672499669"><ele>70.8</ele><time>2026-04-18T08:33:35Z</time></trkpt><trkpt lat="46.02783964960036" lon="12.792866652099462"><ele>71.2</ele><time>2026-04-18T08:33:36Z</time></trkpt><trkpt lat="46.02793411122019" lon="12.792899161410693"><ele>71.6</ele><time>2026-04-18T08:33:37Z</time></trkpt><trkpt lat="46.02802369942673" lon="12.792935659046865"><ele>72.0</ele><time>2026-04-18T08:33:38Z</time></trkpt><trkpt lat="46.02811113799995" lon="12.792964688460888"><ele>72.00000000000001</ele><time>2026-04-18T08:33:39Z</time></trkpt><trkpt lat="46.028198394686335" lon="12.792998148124221"><ele>72.0</ele><time>2026-04-18T08:33:40Z</time></trkpt><trkpt lat="46.028266037887846" lon="12.793014615651787"><ele>72.0</ele><time>2026-04-18T08:33:41Z</time></trkpt><trkpt lat="46.02833069775565" lon="12.793042720912435"><ele>72.0</ele><time>2026-04-18T08:33:42Z</time></trkpt><trkpt lat="46.028401008815074" lon="12.793080461132712"><ele>72.0</ele><time>2026-04-18T08:33:43Z</time></trkpt><trkpt lat="46.028459981371284" lon="12.793127683735987"><ele>72.00000000000001</ele><time>2026-04-18T08:33:44Z</time></trkpt><trkpt lat="46.028516858343146" lon="12.793188615108777"><ele>72.0</ele><time>2026-04-18T08:33:45Z</time></trkpt><trkpt lat="46.02858779614422" lon="12.793253530419026"><ele>72.0</ele><time>2026-04-18T08:33:46Z</time></trkpt><trkpt lat="46.02866648106237" lon="12.793307021252286"><ele>72.0</ele><time>2026-04-18T08:33:47Z</time></trkpt><trkpt lat="46.02874221028266" lon="12.793365337647371"><ele>72.0</ele><time>2026-04-18T08:33:48Z</time></trkpt><trkpt lat="46.028798531659895" lon="12.793432193588133"><ele>72.0</ele><time>2026-04-18T08:33:49Z</time></trkpt><trkpt lat="46.02886459668456" lon="12.793557504589632"><ele>72.0</ele><time>2026-04-18T08:33:51Z</time></trkpt><trkpt lat="46.02894926453709" lon="12.793692954633379"><ele>72.0</ele><time>2026-04-18T08:33:53Z</time></trkpt><trkpt lat="46.02907420276197" lon="12.793789328632386"><ele>72.0</ele><time>2026-04-18T08:33:55Z</time></trkpt><trkpt lat="46.029147800733135" lon="12.793859769174981"><ele>72.0</ele><time>2026-04-18T08:33:56Z</time></trkpt><trkpt lat="46.02920864471016" lon="12.793950204042531"><ele>72.0</ele><time>2026-04-18T08:33:57Z</time></trkpt><trkpt lat="46.029257873688096" lon="12.794060042014955"><ele>72.0</ele><time>2026-04-18T08:33:58Z</time></trkpt><trkpt lat="46.029294800347195" lon="12.794168813336508"><ele>72.16666666666667</ele><time>2026-04-18T08:33:59Z</time></trkpt><trkpt lat="46.02933519399905" lon="12.794272429105296"><ele>72.33333333333333</ele><time>2026-04-18T08:34:00Z</time></trkpt><trkpt lat="46.02938238260523" lon="12.794368335132058"><ele>72.5</ele><time>2026-04-18T08:34:01Z</time></trkpt><trkpt lat="46.02943342962418" lon="12.794452116313723"><ele>72.66666666666666</ele><time>2026-04-18T08:34:02Z</time></trkpt><trkpt lat="46.029523156945984" lon="12.794581761037152"><ele>72.83333333333333</ele><time>2026-04-18T08:34:04Z</time></trkpt><trkpt lat="46.029562939502206" lon="12.794662416361824"><ele>73.0</ele><time>2026-04-18T08:34:05Z</time></trkpt><trkpt lat="46.029609374017255" lon="12.79474590604217"><ele>73.0</ele><time>2026-04-18T08:34:06Z</time></trkpt><trkpt lat="46.029663478336474" lon="12.794826065960851"><ele>73.0</ele><time>2026-04-18T08:34:07Z</time></trkpt><trkpt lat="46.02972362537952" lon="12.794898112115368"><ele>73.0</ele><time>2026-04-18T08:34:08Z</time></trkpt><trkpt lat="46.02978241971139" lon="12.7949541544088"><ele>73.0</ele><time>2026-04-18T08:34:09Z</time></trkpt><trkpt lat="46.02984565564974" lon="12.795012524034698"><ele>73.0</ele><time>2026-04-18T08:34:10Z</time></trkpt><trkpt lat="46.02990311677001" lon="12.795069356525483"><ele>73.0</ele><time>2026-04-18T08:34:11Z</time></trkpt><trkpt lat="46.02995981139996" lon="12.795124020028307"><ele>73.0</ele><time>2026-04-18T08:34:12Z</time></trkpt><trkpt lat="46.03002302191096" lon="12.795183594728472"><ele>73.28571428571428</ele><time>2026-04-18T08:34:13Z</time></trkpt><trkpt lat="46.03009140620282" lon="12.795240325290372"><ele>73.57142857142857</ele><time>2026-04-18T08:34:14Z</time></trkpt><trkpt lat="46.030157686714986" lon="12.795281016556787"><ele>73.85714285714286</ele><time>2026-04-18T08:34:15Z</time></trkpt><trkpt lat="46.03021679647556" lon="12.795325988480709"><ele>74.14285714285714</ele><time>2026-04-18T08:34:16Z</time></trkpt><trkpt lat="46.03027871151971" lon="12.795378194901259"><ele>74.42857142857143</ele><time>2026-04-18T08:34:17Z</time></trkpt><trkpt lat="46.03033639125361" lon="12.79543436533056"><ele>74.71428571428571</ele><time>2026-04-18T08:34:18Z</time></trkpt><trkpt lat="46.03039977420989" lon="12.795492445316519"><ele>75.0</ele><time>2026-04-18T08:34:19Z</time></trkpt><trkpt lat="46.030479690728434" lon="12.795550782387428"><ele>75.0</ele><time>2026-04-18T08:34:20Z</time></trkpt><trkpt lat="46.030555409950075" lon="12.795603498719755"><ele>75.0</ele><time>2026-04-18T08:34:21Z</time></trkpt><trkpt lat="46.03061868386498" lon="12.79564714094447"><ele>75.0</ele><time>2026-04-18T08:34:22Z</time></trkpt><trkpt lat="46.03074509483766" lon="12.79571532364183"><ele>75.0</ele><time>2026-04-18T08:34:24Z</time></trkpt><trkpt lat="46.03082877336799" lon="12.795765342892668"><ele>75.0</ele><time>2026-04-18T08:34:25Z</time></trkpt><trkpt lat="46.03092992442126" lon="12.79582161402444"><ele>75.0</ele><time>2026-04-18T08:34:26Z</time></trkpt><trkpt lat="46.03105605125209" lon="12.7958718345476"><ele>75.0</ele><time>2026-04-18T08:34:27Z</time></trkpt><trkpt lat="46.03117541793369" lon="12.79590269327622"><ele>75.0</ele><time>2026-04-18T08:34:28Z</time></trkpt><trkpt lat="46.03126778212427" lon="12.795910653179838"><ele>75.0</ele><time>2026-04-18T08:34:29Z</time></trkpt><trkpt lat="46.03134817422846" lon="12.795896473962442"><ele>75.0</ele><time>2026-04-18T08:34:30Z</time></trkpt><trkpt lat="46.031432325323244" lon="12.795873234533065"><ele>75.0</ele><time>2026-04-18T08:34:31Z</time></trkpt><trkpt lat="46.03152080555039" lon="12.795856691215961"><ele>75.0</ele><time>2026-04-18T08:34:32Z</time></trkpt><trkpt lat="46.031607494891496" lon="12.795832568032912"><ele>75.0</ele><time>2026-04-18T08:34:33Z</time></trkpt><trkpt lat="46.031691736616324" lon="12.795813366144882"><ele>75.0</ele><time>2026-04-18T08:34:34Z</time></trkpt><trkpt lat="46.03178978443258" lon="12.795802790741194"><ele>75.0</ele><time>2026-04-18T08:34:35Z</time></trkpt><trkpt lat="46.03188331734083" lon="12.795811430318853"><ele>75.0</ele><time>2026-04-18T08:34:36Z</time></trkpt><trkpt lat="46.031979924970656" lon="12.795823565433867"><ele>75.0</ele><time>2026-04-18T08:34:37Z</time></trkpt><trkpt lat="46.03208313172679" lon="12.795841378271035"><ele>75.0</ele><time>2026-04-18T08:34:38Z</time></trkpt><trkpt lat="46.03217492691983" lon="12.795854124891754"><ele>75.0</ele><time>2026-04-18T08:34:39Z</time></trkpt><trkpt lat="46.03226351332892" lon="12.795862554030613"><ele>75.0</ele><time>2026-04-18T08:34:40Z</time></trkpt><trkpt lat="46.0323479592265" lon="12.795873978979294"><ele>75.0</ele><time>2026-04-18T08:34:41Z</time></trkpt><trkpt lat="46.03242682617226" lon="12.795882520579475"><ele>75.0</ele><time>2026-04-18T08:34:42Z</time></trkpt><trkpt lat="46.03251215063973" lon="12.795890953829154"><ele>75.0</ele><time>2026-04-18T08:34:43Z</time></trkpt><trkpt lat="46.032600923937295" lon="12.795892331146783"><ele>75.0</ele><time>2026-04-18T08:34:44Z</time></trkpt><trkpt lat="46.0326858623432" lon="12.795895536314152"><ele>75.0</ele><time>2026-04-18T08:34:45Z</time></trkpt><trkpt lat="46.03276393781983" lon="12.795914251841074"><ele>75.0</ele><time>2026-04-18T08:34:46Z</time></trkpt><trkpt lat="46.03285713737233" lon="12.795947263902637"><ele>75.2</ele><time>2026-04-18T08:34:47Z</time></trkpt><trkpt lat="46.03295403642467" lon="12.795972909728226"><ele>75.4</ele><time>2026-04-18T08:34:48Z</time></trkpt><trkpt lat="46.033044867558395" lon="12.796004682100895"><ele>75.6</ele><time>2026-04-18T08:34:49Z</time></trkpt><trkpt lat="46.033142919202355" lon="12.79605211274907"><ele>75.8</ele><time>2026-04-18T08:34:50Z</time></trkpt><trkpt lat="46.033234846762454" lon="12.796118667156975"><ele>76.0</ele><time>2026-04-18T08:34:51Z</time></trkpt><trkpt lat="46.033327586918396" lon="12.796187286268339"><ele>76.2</ele><time>2026-04-18T08:34:52Z</time></trkpt><trkpt lat="46.033429637972965" lon="12.79624976013023"><ele>76.39999999999999</ele><time>2026-04-18T08:34:53Z</time></trkpt><trkpt lat="46.033527393593026" lon="12.796304832686493"><ele>76.6</ele><time>2026-04-18T08:34:54Z</time></trkpt><trkpt lat="46.03361613420438" lon="12.796335432783183"><ele>76.8</ele><time>2026-04-18T08:34:55Z</time></trkpt><trkpt lat="46.03370250275485" lon="12.79634522243744"><ele>77.0</ele><time>2026-04-18T08:34:56Z</time></trkpt><trkpt lat="46.03379564260599" lon="12.796355040211637"><ele>77.0</ele><time>2026-04-18T08:34:57Z</time></trkpt><trkpt lat="46.03389313022565" lon="12.796372898470725"><ele>77.0</ele><time>2026-04-18T08:34:58Z</time></trkpt><trkpt lat="46.033983024357774" lon="12.79638043181242"><ele>77.0</ele><time>2026-04-18T08:34:59.001Z</time></trkpt><trkpt lat="46.034059741430774" lon="12.79637983584685"><ele>77.0</ele><time>2026-04-18T08:35:00.001Z</time></trkpt><trkpt lat="46.03412599264494" lon="12.796411461141624"><ele>77.0</ele><time>2026-04-18T08:35:01.001Z</time></trkpt><trkpt lat="46.03419760622616" lon="12.79644786324595"><ele>77.0</ele><time>2026-04-18T08:35:02.001Z</time></trkpt><trkpt lat="46.03427799445205" lon="12.796485169880787"><ele>77.0</ele><time>2026-04-18T08:35:03.001Z</time></trkpt><trkpt lat="46.03435673436302" lon="12.796531114033645"><ele>77.0</ele><time>2026-04-18T08:35:04.001Z</time></trkpt><trkpt lat="46.0344369130699" lon="12.796586225081183"><ele>77.0</ele><time>2026-04-18T08:35:05.001Z</time></trkpt><trkpt lat="46.034501136459895" lon="12.796640563490792"><ele>77.0</ele><time>2026-04-18T08:35:06.001Z</time></trkpt><trkpt lat="46.03457566386329" lon="12.796703097349962"><ele>77.0</ele><time>2026-04-18T08:35:07.001Z</time></trkpt><trkpt lat="46.03463931212345" lon="12.796741980289145"><ele>77.0</ele><time>2026-04-18T08:35:08.001Z</time></trkpt><trkpt lat="46.034718387551834" lon="12.796777179158507"><ele>77.0</ele><time>2026-04-18T08:35:09.001Z</time></trkpt><trkpt lat="46.03478984921972" lon="12.796791630961476"><ele>77.0</ele><time>2026-04-18T08:35:10.001Z</time></trkpt><trkpt lat="46.034857732906524" lon="12.796788450943806"><ele>77.0</ele><time>2026-04-18T08:35:11.001Z</time></trkpt><trkpt lat="46.03496069658251" lon="12.796719581018987"><ele>77.0</ele><time>2026-04-18T08:35:13.001Z</time></trkpt><trkpt lat="46.035050638608475" lon="12.796647692295434"><ele>77.0</ele><time>2026-04-18T08:35:15.001Z</time></trkpt><trkpt lat="46.03513017944933" lon="12.796609275304476"><ele>77.0</ele><time>2026-04-18T08:35:17.001Z</time></trkpt><trkpt lat="46.03520590235706" lon="12.796558430372368"><ele>77.0</ele><time>2026-04-18T08:35:19Z</time></trkpt><trkpt lat="46.03527042808088" lon="12.796403892010701"><ele>77.0</ele><time>2026-04-18T08:35:21Z</time></trkpt><trkpt lat="46.035298629877346" lon="12.79631576945618"><ele>77.0</ele><time>2026-04-18T08:35:22Z</time></trkpt><trkpt lat="46.03534917904692" lon="12.796194909249737"><ele>77.0</ele><time>2026-04-18T08:35:24Z</time></trkpt><trkpt lat="46.03539224362354" lon="12.796071286819679"><ele>77.0</ele><time>2026-04-18T08:35:27Z</time></trkpt><trkpt lat="46.0354768302902" lon="12.796079802033432"><ele>77.0</ele><time>2026-04-18T08:42:10.999Z</time></trkpt><trkpt lat="46.035474147113575" lon="12.79619197891001"><ele>77.0</ele><time>2026-04-18T08:42:13.999Z</time></trkpt><trkpt lat="46.035499173065375" lon="12.796277805463303"><ele>77.0</ele><time>2026-04-18T08:42:16.999Z</time></trkpt><trkpt lat="46.03558395770602" lon="12.796341096223967"><ele>77.0</ele><time>2026-04-18T08:42:19.999Z</time></trkpt><trkpt lat="46.03560765632748" lon="12.796453360487924"><ele>77.0</ele><time>2026-04-18T08:42:22.999Z</time></trkpt><trkpt lat="46.035679911909135" lon="12.796541966737463"><ele>77.0</ele><time>2026-04-18T08:42:25.999Z</time></trkpt><trkpt lat="46.03576912128929" lon="12.796592148539467"><ele>77.33333333333334</ele><time>2026-04-18T08:42:28.999Z</time></trkpt><trkpt lat="46.0358325413688" lon="12.796631329245109"><ele>77.66666666666667</ele><time>2026-04-18T08:42:30.999Z</time></trkpt><trkpt lat="46.035892549503096" lon="12.796689586919543"><ele>78.0</ele><time>2026-04-18T08:42:32.999Z</time></trkpt><trkpt lat="46.0359371324676" lon="12.796804744078479"><ele>78.33333333333333</ele><time>2026-04-18T08:42:34.999Z</time></trkpt><trkpt lat="46.03597416987284" lon="12.796904230924383"><ele>78.66666666666666</ele><time>2026-04-18T08:42:36.999Z</time></trkpt><trkpt lat="46.03599734396702" lon="12.797013397670439"><ele>79.0</ele><time>2026-04-18T08:42:38.999Z</time></trkpt><trkpt lat="46.03604667780718" lon="12.7971485587039"><ele>79.0</ele><time>2026-04-18T08:42:40.999Z</time></trkpt><trkpt lat="46.0361276019065" lon="12.797228940687665"><ele>79.0</ele><time>2026-04-18T08:42:42.999Z</time></trkpt><trkpt lat="46.03621732553312" lon="12.797305228754603"><ele>79.0</ele><time>2026-04-18T08:42:44.999Z</time></trkpt><trkpt lat="46.03631440896249" lon="12.797388645563064"><ele>79.0</ele><time>2026-04-18T08:42:46.999Z</time></trkpt><trkpt lat="46.03641832797964" lon="12.797455129600172"><ele>79.0</ele><time>2026-04-18T08:42:48.999Z</time></trkpt><trkpt lat="46.036531238694984" lon="12.797524202533728"><ele>79.33333333333333</ele><time>2026-04-18T08:42:50.999Z</time></trkpt><trkpt lat="46.03663790730997" lon="12.79760481500886"><ele>79.66666666666666</ele><time>2026-04-18T08:42:52.999Z</time></trkpt><trkpt lat="46.03674070762799" lon="12.79768728195721"><ele>80.0</ele><time>2026-04-18T08:42:54.999Z</time></trkpt><trkpt lat="46.03679553267003" lon="12.797733640546898"><ele>80.33333333333333</ele><time>2026-04-18T08:42:55.999Z</time></trkpt><trkpt lat="46.03684942491904" lon="12.797786401164952"><ele>80.66666666666667</ele><time>2026-04-18T08:42:56.999Z</time></trkpt><trkpt lat="46.03690702232007" lon="12.797836107674192"><ele>81.0</ele><time>2026-04-18T08:42:57.999Z</time></trkpt><trkpt lat="46.03697717065409" lon="12.797881059429223"><ele>81.0</ele><time>2026-04-18T08:42:58.999Z</time></trkpt><trkpt lat="46.037036572769516" lon="12.797920866739563"><ele>81.0</ele><time>2026-04-18T08:42:59.999Z</time></trkpt><trkpt lat="46.03709249678763" lon="12.797966064137348"><ele>81.0</ele><time>2026-04-18T08:43:00.999Z</time></trkpt><trkpt lat="46.03715027851929" lon="12.79801214357583"><ele>81.0</ele><time>2026-04-18T08:43:01.999Z</time></trkpt><trkpt lat="46.03720844334027" lon="12.79805444640513"><ele>81.0</ele><time>2026-04-18T08:43:02.999Z</time></trkpt><trkpt lat="46.03726493070029" lon="12.798102445895127"><ele>81.0</ele><time>2026-04-18T08:43:03.999Z</time></trkpt><trkpt lat="46.037323386813775" lon="12.798148802141002"><ele>81.0</ele><time>2026-04-18T08:43:04.999Z</time></trkpt><trkpt lat="46.037380791679304" lon="12.79818941381942"><ele>81.0</ele><time>2026-04-18T08:43:05.999Z</time></trkpt><trkpt lat="46.03744040708063" lon="12.798232104761416"><ele>81.0</ele><time>2026-04-18T08:43:06.999Z</time></trkpt><trkpt lat="46.0374974580611" lon="12.798274481415966"><ele>81.0</ele><time>2026-04-18T08:43:07.999Z</time></trkpt><trkpt lat="46.03756263972801" lon="12.798327943610314"><ele>81.0</ele><time>2026-04-18T08:43:08.999Z</time></trkpt><trkpt lat="46.03762209220035" lon="12.79838232125131"><ele>81.0</ele><time>2026-04-18T08:43:09.999Z</time></trkpt><trkpt lat="46.03767466058383" lon="12.798436270789491"><ele>81.0</ele><time>2026-04-18T08:43:10.999Z</time></trkpt><trkpt lat="46.03772886808656" lon="12.7984925630003"><ele>81.0</ele><time>2026-04-18T08:43:11.999Z</time></trkpt><trkpt lat="46.03777753073409" lon="12.798552036761333"><ele>80.83333333333333</ele><time>2026-04-18T08:43:12.999Z</time></trkpt><trkpt lat="46.03787453707168" lon="12.79867200712137"><ele>80.66666666666667</ele><time>2026-04-18T08:43:14.999Z</time></trkpt><trkpt lat="46.03792254165788" lon="12.798734605401972"><ele>80.5</ele><time>2026-04-18T08:43:15.999Z</time></trkpt><trkpt lat="46.037967617961016" lon="12.798812006271485"><ele>80.33333333333334</ele><time>2026-04-18T08:43:16.999Z</time></trkpt><trkpt lat="46.03801888006315" lon="12.798901424311511"><ele>80.16666666666667</ele><time>2026-04-18T08:43:17.999Z</time></trkpt><trkpt lat="46.038066234527975" lon="12.79898333543655"><ele>80.0</ele><time>2026-04-18T08:43:18.999Z</time></trkpt><trkpt lat="46.03811187947056" lon="12.799073979027963"><ele>80.0</ele><time>2026-04-18T08:43:19.999Z</time></trkpt><trkpt lat="46.03815395660764" lon="12.799156005404022"><ele>80.0</ele><time>2026-04-18T08:43:20.999Z</time></trkpt><trkpt lat="46.038195937179964" lon="12.799236587577646"><ele>80.0</ele><time>2026-04-18T08:43:21.999Z</time></trkpt><trkpt lat="46.038240428360766" lon="12.799318884850809"><ele>80.0</ele><time>2026-04-18T08:43:22.999Z</time></trkpt><trkpt lat="46.0382837416873" lon="12.79939702555224"><ele>80.0</ele><time>2026-04-18T08:43:23.999Z</time></trkpt><trkpt lat="46.03832719254867" lon="12.799474934641884"><ele>80.0</ele><time>2026-04-18T08:43:24.999Z</time></trkpt><trkpt lat="46.03836803648643" lon="12.79955948875253"><ele>80.0</ele><time>2026-04-18T08:43:25.999Z</time></trkpt><trkpt lat="46.0384147163429" lon="12.799645409403816"><ele>80.14285714285714</ele><time>2026-04-18T08:43:26.999Z</time></trkpt><trkpt lat="46.03846546701378" lon="12.799727112909517"><ele>80.28571428571429</ele><time>2026-04-18T08:43:27.999Z</time></trkpt><trkpt lat="46.03851945126301" lon="12.799810785558831"><ele>80.42857142857143</ele><time>2026-04-18T08:43:28.999Z</time></trkpt><trkpt lat="46.03857230543438" lon="12.799881714662005"><ele>80.57142857142857</ele><time>2026-04-18T08:43:29.999Z</time></trkpt><trkpt lat="46.03863125470121" lon="12.799944345255563"><ele>80.71428571428571</ele><time>2026-04-18T08:43:30.999Z</time></trkpt><trkpt lat="46.038696906820704" lon="12.799992372274497"><ele>80.85714285714286</ele><time>2026-04-18T08:43:31.999Z</time></trkpt><trkpt lat="46.03875756878842" lon="12.800033132282257"><ele>81.0</ele><time>2026-04-18T08:43:33Z</time></trkpt><trkpt lat="46.03886185906624" lon="12.800115573988503"><ele>81.0</ele><time>2026-04-18T08:43:35Z</time></trkpt><trkpt lat="46.03891736630737" lon="12.800162051405726"><ele>81.0</ele><time>2026-04-18T08:43:36Z</time></trkpt><trkpt lat="46.039017187722955" lon="12.800228116129382"><ele>81.0</ele><time>2026-04-18T08:43:38Z</time></trkpt><trkpt lat="46.03913268229467" lon="12.800292078701952"><ele>81.0</ele><time>2026-04-18T08:43:40Z</time></trkpt><trkpt lat="46.03920154231435" lon="12.800373366204996"><ele>81.0</ele><time>2026-04-18T08:43:42Z</time></trkpt><trkpt lat="46.039216768447034" lon="12.800472965522367"><ele>81.14285714285714</ele><time>2026-04-18T08:43:44Z</time></trkpt><trkpt lat="46.039236056800135" lon="12.800566259946592"><ele>81.28571428571428</ele><time>2026-04-18T08:43:46Z</time></trkpt><trkpt lat="46.03928230201535" lon="12.800635363830445"><ele>81.42857142857142</ele><time>2026-04-18T08:43:48Z</time></trkpt><trkpt lat="46.03935143471033" lon="12.800725625280466"><ele>81.57142857142857</ele><time>2026-04-18T08:43:50Z</time></trkpt><trkpt lat="46.039398959986784" lon="12.80079337302127"><ele>81.71428571428571</ele><time>2026-04-18T08:43:51Z</time></trkpt><trkpt lat="46.0394471377023" lon="12.800865082375847"><ele>81.85714285714285</ele><time>2026-04-18T08:43:52Z</time></trkpt><trkpt lat="46.03949219052879" lon="12.800936688463748"><ele>82.0</ele><time>2026-04-18T08:43:53Z</time></trkpt><trkpt lat="46.039553245670675" lon="12.80107363804847"><ele>82.19999999999999</ele><time>2026-04-18T08:43:55Z</time></trkpt><trkpt lat="46.039588669287276" lon="12.801210288286535"><ele>82.4</ele><time>2026-04-18T08:43:57Z</time></trkpt><trkpt lat="46.03965396624593" lon="12.801337172386264"><ele>82.6</ele><time>2026-04-18T08:43:59Z</time></trkpt><trkpt lat="46.03974874808402" lon="12.801400722918872"><ele>82.80000000000001</ele><time>2026-04-18T08:44:01Z</time></trkpt><trkpt lat="46.039854562111934" lon="12.801436658251724"><ele>83.0</ele><time>2026-04-18T08:44:03Z</time></trkpt><trkpt lat="46.039916796417806" lon="12.80145056751649"><ele>82.71428571428571</ele><time>2026-04-18T08:44:04Z</time></trkpt><trkpt lat="46.039980669217165" lon="12.801464047894653"><ele>82.42857142857143</ele><time>2026-04-18T08:44:05Z</time></trkpt><trkpt lat="46.040043375046864" lon="12.801478273254396"><ele>82.14285714285714</ele><time>2026-04-18T08:44:06Z</time></trkpt><trkpt lat="46.040104707647664" lon="12.801504049196446"><ele>81.85714285714286</ele><time>2026-04-18T08:44:07Z</time></trkpt><trkpt lat="46.04016509186895" lon="12.8015345699802"><ele>81.57142857142857</ele><time>2026-04-18T08:44:08Z</time></trkpt><trkpt lat="46.04022643506382" lon="12.80156287010014"><ele>81.28571428571429</ele><time>2026-04-18T08:44:09Z</time></trkpt><trkpt lat="46.04034113996432" lon="12.801617002137743"><ele>81.0</ele><time>2026-04-18T08:44:11Z</time></trkpt><trkpt lat="46.040449660011376" lon="12.801655182682053"><ele>81.0</ele><time>2026-04-18T08:44:13Z</time></trkpt><trkpt lat="46.040513574349724" lon="12.801679806098566"><ele>81.0</ele><time>2026-04-18T08:44:15Z</time></trkpt><trkpt lat="46.040610783843654" lon="12.801713116578203"><ele>81.0</ele><time>2026-04-18T08:44:18Z</time></trkpt><trkpt lat="46.04068519743873" lon="12.80171420660932"><ele>81.0</ele><time>2026-04-18T08:44:20Z</time></trkpt><trkpt lat="46.04076064532701" lon="12.80177903439664"><ele>81.0</ele><time>2026-04-18T08:44:23Z</time></trkpt><trkpt lat="46.04084011765421" lon="12.801816811246864"><ele>81.0</ele><time>2026-04-18T08:44:25Z</time></trkpt><trkpt lat="46.040914726139995" lon="12.80189138266708"><ele>81.57142857142857</ele><time>2026-04-18T08:44:27Z</time></trkpt><trkpt lat="46.04098144183701" lon="12.801896983454927"><ele>82.14285714285714</ele><time>2026-04-18T08:44:29Z</time></trkpt><trkpt lat="46.04106002222234" lon="12.801918223429949"><ele>82.71428571428572</ele><time>2026-04-18T08:44:31Z</time></trkpt><trkpt lat="46.041103986434216" lon="12.802007577115816"><ele>83.28571428571428</ele><time>2026-04-18T08:44:35Z</time></trkpt><trkpt lat="46.04116904851771" lon="12.802096313670999"><ele>83.85714285714285</ele><time>2026-04-18T08:44:40Z</time></trkpt><trkpt lat="46.041238010153776" lon="12.802118886566687"><ele>84.42857142857143</ele><time>2026-04-18T08:44:42Z</time></trkpt><trkpt lat="46.04129028729299" lon="12.802170482353395"><ele>85.0</ele><time>2026-04-18T08:44:44Z</time></trkpt><trkpt lat="46.041326632033226" lon="12.802269144382215"><ele>85.0</ele><time>2026-04-18T08:44:46Z</time></trkpt><trkpt lat="46.04137439895436" lon="12.802344579121117"><ele>85.0</ele><time>2026-04-18T08:44:48Z</time></trkpt><trkpt lat="46.0414182821169" lon="12.802412123863466"><ele>85.0</ele><time>2026-04-18T08:44:51Z</time></trkpt><trkpt lat="46.04144329779859" lon="12.802521420105046"><ele>85.0</ele><time>2026-04-18T08:44:54Z</time></trkpt><trkpt lat="46.04151305291177" lon="12.802605954704605"><ele>85.0</ele><time>2026-04-18T08:44:57Z</time></trkpt><trkpt lat="46.041584893429054" lon="12.802662962537678"><ele>85.0</ele><time>2026-04-18T08:44:59Z</time></trkpt><trkpt lat="46.041674010892244" lon="12.802710226153478"><ele>85.0</ele><time>2026-04-18T08:45:01Z</time></trkpt><trkpt lat="46.04175286056997" lon="12.802742096537898"><ele>85.0</ele><time>2026-04-18T08:45:03Z</time></trkpt><trkpt lat="46.04182694772505" lon="12.802743753081224"><ele>85.0</ele><time>2026-04-18T08:45:05Z</time></trkpt><trkpt lat="46.04189925576206" lon="12.802729484633847"><ele>85.0</ele><time>2026-04-18T08:45:07Z</time></trkpt><trkpt lat="46.041967186492236" lon="12.802709149124434"><ele>85.0</ele><time>2026-04-18T08:45:09Z</time></trkpt><trkpt lat="46.042044130894425" lon="12.80273899261766"><ele>85.0</ele><time>2026-04-18T08:45:11Z</time></trkpt><trkpt lat="46.04210919906757" lon="12.802763956586045"><ele>85.0</ele><time>2026-04-18T08:45:13Z</time></trkpt><trkpt lat="46.04216770955173" lon="12.80281010750594"><ele>85.0</ele><time>2026-04-18T08:45:15Z</time></trkpt><trkpt lat="46.04223508507625" lon="12.80282485989511"><ele>85.0</ele><time>2026-04-18T08:45:17Z</time></trkpt><trkpt lat="46.04230868776164" lon="12.80283980289366"><ele>85.0</ele><time>2026-04-18T08:45:19Z</time></trkpt><trkpt lat="46.042382147882044" lon="12.802807499302132"><ele>85.0</ele><time>2026-04-18T08:45:21Z</time></trkpt><trkpt lat="46.04244373952227" lon="12.802782540200594"><ele>85.0</ele><time>2026-04-18T08:45:23Z</time></trkpt><trkpt lat="46.0425256424078" lon="12.802820441002002"><ele>85.0</ele><time>2026-04-18T08:45:26Z</time></trkpt><trkpt lat="46.04257183476726" lon="12.802890153964988"><ele>85.0</ele><time>2026-04-18T08:45:29Z</time></trkpt><trkpt lat="46.0426532742981" lon="12.802943466216727"><ele>85.0</ele><time>2026-04-18T08:45:32Z</time></trkpt><trkpt lat="46.04275483222459" lon="12.803014750325152"><ele>85.0</ele><time>2026-04-18T08:45:34Z</time></trkpt><trkpt lat="46.042853429631435" lon="12.803036256710191"><ele>85.0</ele><time>2026-04-18T08:45:36Z</time></trkpt><trkpt lat="46.0429582034021" lon="12.803021204467877"><ele>85.0</ele><time>2026-04-18T08:45:38Z</time></trkpt><trkpt lat="46.04302122159436" lon="12.803002256305865"><ele>85.0</ele><time>2026-04-18T08:45:39Z</time></trkpt><trkpt lat="46.043147343769036" lon="12.802967473302457"><ele>85.0</ele><time>2026-04-18T08:45:41Z</time></trkpt><trkpt lat="46.04327068160473" lon="12.802969312939132"><ele>85.0</ele><time>2026-04-18T08:45:43Z</time></trkpt><trkpt lat="46.04338176264634" lon="12.80303104050505"><ele>85.0</ele><time>2026-04-18T08:45:45Z</time></trkpt><trkpt lat="46.04346766609521" lon="12.803135567758883"><ele>85.0</ele><time>2026-04-18T08:45:47Z</time></trkpt><trkpt lat="46.043559103024016" lon="12.803214833077254"><ele>85.0</ele><time>2026-04-18T08:45:49Z</time></trkpt><trkpt lat="46.04365995711589" lon="12.803310082316862"><ele>85.0</ele><time>2026-04-18T08:45:51Z</time></trkpt><trkpt lat="46.04376791197032" lon="12.803394454997493"><ele>85.0</ele><time>2026-04-18T08:45:53Z</time></trkpt><trkpt lat="46.04382528735216" lon="12.803451858715352"><ele>85.0</ele><time>2026-04-18T08:45:54Z</time></trkpt><trkpt lat="46.04388154903784" lon="12.803518132327252"><ele>85.0</ele><time>2026-04-18T08:45:55Z</time></trkpt><trkpt lat="46.04397694081252" lon="12.803653937503993"><ele>85.33333333333333</ele><time>2026-04-18T08:45:57Z</time></trkpt><trkpt lat="46.04404123888724" lon="12.803719598805074"><ele>85.66666666666666</ele><time>2026-04-18T08:45:58Z</time></trkpt><trkpt lat="46.04411423466783" lon="12.803819148951016"><ele>86.0</ele><time>2026-04-18T08:46:00Z</time></trkpt><trkpt lat="46.04418443062681" lon="12.803870524462818"><ele>86.33333333333333</ele><time>2026-04-18T08:46:02Z</time></trkpt><trkpt lat="46.044253865024466" lon="12.803931896519657"><ele>86.66666666666667</ele><time>2026-04-18T08:46:04Z</time></trkpt><trkpt lat="46.04431327136228" lon="12.803982094144688"><ele>87.0</ele><time>2026-04-18T08:46:07Z</time></trkpt><trkpt lat="46.04438857877191" lon="12.803916638789682"><ele>87.19999999999999</ele><time>2026-04-18T08:46:16Z</time></trkpt><trkpt lat="46.044503846326464" lon="12.803865060453063"><ele>87.4</ele><time>2026-04-18T08:46:18Z</time></trkpt><trkpt lat="46.04460139970791" lon="12.803825565327896"><ele>87.6</ele><time>2026-04-18T08:46:20Z</time></trkpt><trkpt lat="46.04467659614004" lon="12.803793301489542"><ele>87.80000000000001</ele><time>2026-04-18T08:46:22Z</time></trkpt><trkpt lat="46.04476314641866" lon="12.80374219517675"><ele>88.0</ele><time>2026-04-18T08:46:24Z</time></trkpt><trkpt lat="46.044828831915275" lon="12.803702595519649"><ele>88.0</ele><time>2026-04-18T08:46:29Z</time></trkpt><trkpt lat="46.04489711400885" lon="12.80377919781425"><ele>88.0</ele><time>2026-04-18T08:46:33Z</time></trkpt><trkpt lat="46.04496888239048" lon="12.80385576916118"><ele>88.0</ele><time>2026-04-18T08:46:35Z</time></trkpt><trkpt lat="46.045035112939416" lon="12.80390446949844"><ele>88.0</ele><time>2026-04-18T08:46:38Z</time></trkpt><trkpt lat="46.04520730417451" lon="12.804010287731874"><ele>88.0</ele><time>2026-04-18T08:46:41Z</time></trkpt><trkpt lat="46.04528254861285" lon="12.804064262453531"><ele>88.0</ele><time>2026-04-18T08:46:43Z</time></trkpt><trkpt lat="46.04536809715803" lon="12.804118377804093"><ele>88.0</ele><time>2026-04-18T08:46:45Z</time></trkpt><trkpt lat="46.04545703070256" lon="12.80419515373292"><ele>88.0</ele><time>2026-04-18T08:46:47Z</time></trkpt><trkpt lat="46.04552616653953" lon="12.804254498859816"><ele>88.0</ele><time>2026-04-18T08:46:49Z</time></trkpt><trkpt lat="46.04558330738883" lon="12.804317004113742"><ele>88.0</ele><time>2026-04-18T08:46:51Z</time></trkpt><trkpt lat="46.04565444235225" lon="12.804365901643228"><ele>88.0</ele><time>2026-04-18T08:46:53Z</time></trkpt><trkpt lat="46.04573780790589" lon="12.804401842571787"><ele>88.16666666666666</ele><time>2026-04-18T08:46:55Z</time></trkpt><trkpt lat="46.045825122290886" lon="12.80438979378607"><ele>88.33333333333333</ele><time>2026-04-18T08:46:57Z</time></trkpt><trkpt lat="46.04590957188341" lon="12.80436232051774"><ele>88.5</ele><time>2026-04-18T08:46:59Z</time></trkpt><trkpt lat="46.04597272626041" lon="12.80439379551995"><ele>88.66666666666667</ele><time>2026-04-18T08:47:01Z</time></trkpt><trkpt lat="46.04601956202196" lon="12.80446113207344"><ele>88.83333333333334</ele><time>2026-04-18T08:47:03Z</time></trkpt><trkpt lat="46.04607401041067" lon="12.804529468179169"><ele>89.0</ele><time>2026-04-18T08:47:05Z</time></trkpt><trkpt lat="46.04614015530456" lon="12.804595238385543"><ele>89.0</ele><time>2026-04-18T08:47:07Z</time></trkpt><trkpt lat="46.04622271469755" lon="12.804643423340508"><ele>89.0</ele><time>2026-04-18T08:47:09Z</time></trkpt><trkpt lat="46.04629838503753" lon="12.804629727769083"><ele>89.0</ele><time>2026-04-18T08:47:11Z</time></trkpt><trkpt lat="46.04638459592429" lon="12.80460435266364"><ele>89.0</ele><time>2026-04-18T08:47:14Z</time></trkpt><trkpt lat="46.04642524550022" lon="12.80467615470951"><ele>89.0</ele><time>2026-04-18T08:47:20Z</time></trkpt><trkpt lat="46.04649625233552" lon="12.804744973738906"><ele>89.0</ele><time>2026-04-18T08:47:25Z</time></trkpt><trkpt lat="46.046453865664255" lon="12.804677824323058"><ele>89.0</ele><time>2026-04-18T08:48:09Z</time></trkpt><trkpt lat="46.04640510467932" lon="12.804592288352849"><ele>89.0</ele><time>2026-04-18T08:48:12Z</time></trkpt><trkpt lat="46.04631841909562" lon="12.804607192986964"><ele>89.0</ele><time>2026-04-18T08:48:15Z</time></trkpt><trkpt lat="46.046244875245414" lon="12.804618731255264"><ele>89.0</ele><time>2026-04-18T08:48:23Z</time></trkpt><trkpt lat="46.04618421569906" lon="12.804657828862089"><ele>89.0</ele><time>2026-04-18T08:48:26Z</time></trkpt><trkpt lat="46.04627879368567" lon="12.804651451771523"><ele>89.0</ele><time>2026-04-18T08:48:34Z</time></trkpt><trkpt lat="46.0463335204545" lon="12.804721233326463"><ele>89.0</ele><time>2026-04-18T08:48:37Z</time></trkpt><trkpt lat="46.04639426691985" lon="12.80474882273213"><ele>89.0</ele><time>2026-04-18T08:48:40Z</time></trkpt><trkpt lat="46.04645985842141" lon="12.804710058358232"><ele>89.0</ele><time>2026-04-18T08:48:48Z</time></trkpt><trkpt lat="46.04642310272868" lon="12.804620619328947"><ele>89.0</ele><time>2026-04-18T08:48:51Z</time></trkpt><trkpt lat="46.04633517759613" lon="12.804595632570678"><ele>89.0</ele><time>2026-04-18T08:48:54Z</time></trkpt><trkpt lat="46.04626140698081" lon="12.804609429761728"><ele>89.0</ele><time>2026-04-18T08:48:57Z</time></trkpt><trkpt lat="46.04616942514316" lon="12.804606777392612"><ele>89.0</ele><time>2026-04-18T08:49:00Z</time></trkpt><trkpt lat="46.04610115354921" lon="12.804599765018192"><ele>89.0</ele><time>2026-04-18T08:49:03Z</time></trkpt><trkpt lat="46.046058173922376" lon="12.804515270845807"><ele>89.0</ele><time>2026-04-18T08:49:07Z</time></trkpt><trkpt lat="46.046090587067944" lon="12.804424589210104"><ele>89.0</ele><time>2026-04-18T08:49:12Z</time></trkpt><trkpt lat="46.046189888719205" lon="12.804373845512568"><ele>89.0</ele><time>2026-04-18T08:49:16Z</time></trkpt><trkpt lat="46.04626480967744" lon="12.80433933483871"><ele>89.0</ele><time>2026-04-18T08:49:19Z</time></trkpt><trkpt lat="46.04633654710654" lon="12.804341406210312"><ele>89.0</ele><time>2026-04-18T08:49:22Z</time></trkpt><trkpt lat="46.04642530778697" lon="12.804316001165722"><ele>89.0</ele><time>2026-04-18T08:49:33Z</time></trkpt><trkpt lat="46.046471743154065" lon="12.80438478898119"><ele>89.0</ele><time>2026-04-18T08:49:37Z</time></trkpt><trkpt lat="46.04653115951901" lon="12.804427020909166"><ele>89.0</ele><time>2026-04-18T08:51:35Z</time></trkpt><trkpt lat="46.04660027793633" lon="12.804469368962403"><ele>89.0</ele><time>2026-04-18T08:51:37Z</time></trkpt><trkpt lat="46.04666416545627" lon="12.804550492630062"><ele>89.0</ele><time>2026-04-18T08:51:39Z</time></trkpt><trkpt lat="46.04672866268283" lon="12.804630317100848"><ele>89.28571428571428</ele><time>2026-04-18T08:51:41Z</time></trkpt><trkpt lat="46.046773684704206" lon="12.804702058264697"><ele>89.57142857142857</ele><time>2026-04-18T08:51:43Z</time></trkpt><trkpt lat="46.04682835702505" lon="12.804763310421796"><ele>89.85714285714286</ele><time>2026-04-18T08:51:49Z</time></trkpt><trkpt lat="46.04689411024962" lon="12.804841075354878"><ele>90.14285714285714</ele><time>2026-04-18T08:51:52Z</time></trkpt><trkpt lat="46.04694886052121" lon="12.804888860172268"><ele>90.42857142857143</ele><time>2026-04-18T08:51:58Z</time></trkpt><trkpt lat="46.04702492179902" lon="12.804912957436162"><ele>90.71428571428571</ele><time>2026-04-18T08:52:01Z</time></trkpt><trkpt lat="46.04709625026218" lon="12.804874298507263"><ele>91.0</ele><time>2026-04-18T08:52:04Z</time></trkpt><trkpt lat="46.047160062229075" lon="12.804866629836827"><ele>91.0</ele><time>2026-04-18T08:52:09Z</time></trkpt><trkpt lat="46.04724231433176" lon="12.804874985770095"><ele>91.0</ele><time>2026-04-18T08:52:12Z</time></trkpt><trkpt lat="46.047304828919685" lon="12.804820966434841"><ele>91.0</ele><time>2026-04-18T08:52:15Z</time></trkpt><trkpt lat="46.04733397623996" lon="12.804740247739895"><ele>91.0</ele><time>2026-04-18T08:52:19Z</time></trkpt><trkpt lat="46.047382340268506" lon="12.80463480154869"><ele>91.0</ele><time>2026-04-18T08:52:30Z</time></trkpt><trkpt lat="46.047440445416484" lon="12.804578511187273"><ele>91.0</ele><time>2026-04-18T08:52:32Z</time></trkpt><trkpt lat="46.047512372022176" lon="12.80454747465207"><ele>91.0</ele><time>2026-04-18T08:52:34Z</time></trkpt><trkpt lat="46.04759810246327" lon="12.80456571505404"><ele>91.0</ele><time>2026-04-18T08:52:36Z</time></trkpt><trkpt lat="46.047695579483005" lon="12.804629729191342"><ele>91.0</ele><time>2026-04-18T08:52:38Z</time></trkpt><trkpt lat="46.04778981791078" lon="12.804733541044563"><ele>91.0</ele><time>2026-04-18T08:52:40Z</time></trkpt><trkpt lat="46.04787530901162" lon="12.804816660629461"><ele>91.0</ele><time>2026-04-18T08:52:42Z</time></trkpt><trkpt lat="46.04792660194552" lon="12.804878705665619"><ele>91.0</ele><time>2026-04-18T08:52:43Z</time></trkpt><trkpt lat="46.047988155836705" lon="12.804934625501096"><ele>91.0</ele><time>2026-04-18T08:52:44Z</time></trkpt><trkpt lat="46.048049131063216" lon="12.80498522201468"><ele>91.0</ele><time>2026-04-18T08:52:45Z</time></trkpt><trkpt lat="46.0481107227084" lon="12.805044069352508"><ele>91.0</ele><time>2026-04-18T08:52:46Z</time></trkpt><trkpt lat="46.048167014455245" lon="12.805096216509856"><ele>91.0</ele><time>2026-04-18T08:52:47Z</time></trkpt><trkpt lat="46.0482789087167" lon="12.805158134530231"><ele>91.0</ele><time>2026-04-18T08:52:49Z</time></trkpt><trkpt lat="46.04840031617957" lon="12.80518470999223"><ele>91.16666666666666</ele><time>2026-04-18T08:52:51Z</time></trkpt><trkpt lat="46.04853045729494" lon="12.805190881285737"><ele>91.33333333333333</ele><time>2026-04-18T08:52:53Z</time></trkpt><trkpt lat="46.04859868789407" lon="12.805200141861738"><ele>91.5</ele><time>2026-04-18T08:52:54Z</time></trkpt><trkpt lat="46.04866516268324" lon="12.80523027358545"><ele>91.66666666666667</ele><time>2026-04-18T08:52:55Z</time></trkpt><trkpt lat="46.04873155529606" lon="12.805268082705911"><ele>91.83333333333334</ele><time>2026-04-18T08:52:56Z</time></trkpt><trkpt lat="46.04879477202833" lon="12.80530760744134"><ele>92.0</ele><time>2026-04-18T08:52:57Z</time></trkpt><trkpt lat="46.04886162128489" lon="12.805345758248656"><ele>92.0</ele><time>2026-04-18T08:52:58Z</time></trkpt><trkpt lat="46.048935996798306" lon="12.805377867280804"><ele>92.0</ele><time>2026-04-18T08:52:59Z</time></trkpt><trkpt lat="46.04901386297071" lon="12.805403712072039"><ele>92.0</ele><time>2026-04-18T08:53:00Z</time></trkpt><trkpt lat="46.049096553162286" lon="12.80541963420166"><ele>92.0</ele><time>2026-04-18T08:53:01Z</time></trkpt><trkpt lat="46.04917482302707" lon="12.8054457202158"><ele>92.0</ele><time>2026-04-18T08:53:02Z</time></trkpt><trkpt lat="46.04925665159391" lon="12.80547992587601"><ele>92.0</ele><time>2026-04-18T08:53:03Z</time></trkpt><trkpt lat="46.049343649384895" lon="12.80551708802332"><ele>92.0</ele><time>2026-04-18T08:53:04Z</time></trkpt><trkpt lat="46.04942102160981" lon="12.805549667630439"><ele>92.0</ele><time>2026-04-18T08:53:05Z</time></trkpt><trkpt lat="46.049499318804536" lon="12.805595562714759"><ele>92.0</ele><time>2026-04-18T08:53:06Z</time></trkpt><trkpt lat="46.04957155522376" lon="12.805639186166186"><ele>92.0</ele><time>2026-04-18T08:53:07Z</time></trkpt><trkpt lat="46.049637845042824" lon="12.805691049932586"><ele>92.0</ele><time>2026-04-18T08:53:08Z</time></trkpt><trkpt lat="46.04970388403593" lon="12.805757930884232"><ele>92.0</ele><time>2026-04-18T08:53:09Z</time></trkpt><trkpt lat="46.04976419719075" lon="12.805824104030169"><ele>92.0</ele><time>2026-04-18T08:53:10Z</time></trkpt><trkpt lat="46.049835939090855" lon="12.80588472672017"><ele>92.0</ele><time>2026-04-18T08:53:11Z</time></trkpt><trkpt lat="46.049902753418294" lon="12.80592576569129"><ele>92.0</ele><time>2026-04-18T08:53:12Z</time></trkpt><trkpt lat="46.04997866273613" lon="12.805961323538149"><ele>92.0</ele><time>2026-04-18T08:53:13Z</time></trkpt><trkpt lat="46.05005612417113" lon="12.806002428880229"><ele>92.0</ele><time>2026-04-18T08:53:14Z</time></trkpt><trkpt lat="46.050124359074694" lon="12.806028526568232"><ele>92.0</ele><time>2026-04-18T08:53:15Z</time></trkpt><trkpt lat="46.05020007132303" lon="12.806063616222572"><ele>92.33333333333334</ele><time>2026-04-18T08:53:16Z</time></trkpt><trkpt lat="46.0502678780262" lon="12.806106983372924"><ele>92.66666666666667</ele><time>2026-04-18T08:53:17Z</time></trkpt><trkpt lat="46.05033697513148" lon="12.806158324587635"><ele>93.0</ele><time>2026-04-18T08:53:18Z</time></trkpt><trkpt lat="46.050404957349635" lon="12.806211265297145"><ele>93.33333333333333</ele><time>2026-04-18T08:53:19Z</time></trkpt><trkpt lat="46.05049938221318" lon="12.806296796649264"><ele>93.66666666666666</ele><time>2026-04-18T08:53:21Z</time></trkpt><trkpt lat="46.05060306453823" lon="12.806343438411087"><ele>94.0</ele><time>2026-04-18T08:53:23Z</time></trkpt><trkpt lat="46.050693436117506" lon="12.806349691084682"><ele>94.0</ele><time>2026-04-18T08:53:25Z</time></trkpt><trkpt lat="46.05081368896049" lon="12.806346500760872"><ele>94.0</ele><time>2026-04-18T08:53:27Z</time></trkpt><trkpt lat="46.050881732180386" lon="12.806333214235174"><ele>94.0</ele><time>2026-04-18T08:53:28Z</time></trkpt><trkpt lat="46.05095097079993" lon="12.806316412221738"><ele>94.0</ele><time>2026-04-18T08:53:29Z</time></trkpt><trkpt lat="46.05106710878917" lon="12.806291325243782"><ele>94.0</ele><time>2026-04-18T08:53:31Z</time></trkpt><trkpt lat="46.051171098496695" lon="12.80629942876414"><ele>94.0</ele><time>2026-04-18T08:53:33Z</time></trkpt><trkpt lat="46.051263667189346" lon="12.806366687910014"><ele>94.0</ele><time>2026-04-18T08:53:35Z</time></trkpt><trkpt lat="46.051379531697755" lon="12.806460285597897"><ele>94.0</ele><time>2026-04-18T08:53:37Z</time></trkpt><trkpt lat="46.051446534080036" lon="12.806492197815246"><ele>94.0</ele><time>2026-04-18T08:53:38Z</time></trkpt><trkpt lat="46.051513825237116" lon="12.806529766497448"><ele>94.0</ele><time>2026-04-18T08:53:39Z</time></trkpt><trkpt lat="46.05161237042655" lon="12.806664800244981"><ele>94.0</ele><time>2026-04-18T08:53:41Z</time></trkpt><trkpt lat="46.05165253517342" lon="12.806747615524577"><ele>94.0</ele><time>2026-04-18T08:53:42Z</time></trkpt><trkpt lat="46.05169176654631" lon="12.806835992947121"><ele>94.0</ele><time>2026-04-18T08:53:43Z</time></trkpt><trkpt lat="46.05172951759652" lon="12.806917140321985"><ele>94.0</ele><time>2026-04-18T08:53:44Z</time></trkpt><trkpt lat="46.05177665604411" lon="12.806996811374008"><ele>94.0</ele><time>2026-04-18T08:53:45Z</time></trkpt><trkpt lat="46.051834439837876" lon="12.807073860314784"><ele>94.0</ele><time>2026-04-18T08:53:46Z</time></trkpt><trkpt lat="46.05189607794306" lon="12.807123847977666"><ele>94.0</ele><time>2026-04-18T08:53:47Z</time></trkpt><trkpt lat="46.0519664642858" lon="12.807145424354012"><ele>94.0</ele><time>2026-04-18T08:53:48Z</time></trkpt><trkpt lat="46.052040954790925" lon="12.807162905757597"><ele>94.0</ele><time>2026-04-18T08:53:49Z</time></trkpt><trkpt lat="46.05210935563568" lon="12.807178606214782"><ele>94.0</ele><time>2026-04-18T08:53:50Z</time></trkpt><trkpt lat="46.05218848321138" lon="12.807171946386879"><ele>94.0</ele><time>2026-04-18T08:53:51Z</time></trkpt><trkpt lat="46.05226349193245" lon="12.807157775073307"><ele>94.0</ele><time>2026-04-18T08:53:52Z</time></trkpt><trkpt lat="46.052347026951345" lon="12.807146938629057"><ele>94.0</ele><time>2026-04-18T08:53:53Z</time></trkpt><trkpt lat="46.05242420049561" lon="12.807150284073758"><ele>94.33333333333333</ele><time>2026-04-18T08:53:54Z</time></trkpt><trkpt lat="46.05249446422233" lon="12.807166722453765"><ele>94.66666666666666</ele><time>2026-04-18T08:53:55Z</time></trkpt><trkpt lat="46.052612793368006" lon="12.807196915833131"><ele>95.0</ele><time>2026-04-18T08:53:57Z</time></trkpt><trkpt lat="46.05268135417113" lon="12.807209048551655"><ele>95.33333333333333</ele><time>2026-04-18T08:53:58Z</time></trkpt><trkpt lat="46.05275037865615" lon="12.807215677140961"><ele>95.66666666666667</ele><time>2026-04-18T08:53:59Z</time></trkpt><trkpt lat="46.05282224761629" lon="12.807227803452705"><ele>96.0</ele><time>2026-04-18T08:54:00Z</time></trkpt><trkpt lat="46.05289523249828" lon="12.807241515555013"><ele>96.0</ele><time>2026-04-18T08:54:01Z</time></trkpt><trkpt lat="46.0529634198177" lon="12.807246735990025"><ele>96.0</ele><time>2026-04-18T08:54:02Z</time></trkpt><trkpt lat="46.05302802002254" lon="12.80723253714128"><ele>96.0</ele><time>2026-04-18T08:54:03Z</time></trkpt><trkpt lat="46.05310160085523" lon="12.807203757637744"><ele>96.0</ele><time>2026-04-18T08:54:04Z</time></trkpt><trkpt lat="46.05317856981643" lon="12.80716366437"><ele>96.0</ele><time>2026-04-18T08:54:05Z</time></trkpt><trkpt lat="46.05325574532673" lon="12.8071231089748"><ele>96.0</ele><time>2026-04-18T08:54:06Z</time></trkpt><trkpt lat="46.053336961150016" lon="12.80708764162875"><ele>96.16666666666667</ele><time>2026-04-18T08:54:07Z</time></trkpt><trkpt lat="46.05341600132921" lon="12.807053493512024"><ele>96.33333333333334</ele><time>2026-04-18T08:54:08Z</time></trkpt><trkpt lat="46.05349666821536" lon="12.80702050452058"><ele>96.5</ele><time>2026-04-18T08:54:09Z</time></trkpt><trkpt lat="46.05357318299864" lon="12.806985792475952"><ele>96.66666666666667</ele><time>2026-04-18T08:54:10Z</time></trkpt><trkpt lat="46.053649749854365" lon="12.806946520918498"><ele>96.83333333333334</ele><time>2026-04-18T08:54:11Z</time></trkpt><trkpt lat="46.05371985712145" lon="12.806917919950312"><ele>97.0</ele><time>2026-04-18T08:54:12Z</time></trkpt><trkpt lat="46.0537917083366" lon="12.806886042883551"><ele>97.00000000000001</ele><time>2026-04-18T08:54:13Z</time></trkpt><trkpt lat="46.05386236187526" lon="12.806853998238868"><ele>97.0</ele><time>2026-04-18T08:54:14Z</time></trkpt><trkpt lat="46.053927931924996" lon="12.806821664069972"><ele>97.0</ele><time>2026-04-18T08:54:15Z</time></trkpt><trkpt lat="46.053990429601434" lon="12.806763022534776"><ele>97.0</ele><time>2026-04-18T08:54:16Z</time></trkpt><trkpt lat="46.05410198830238" lon="12.806688714922116"><ele>97.00000000000001</ele><time>2026-04-18T08:54:18Z</time></trkpt><trkpt lat="46.05416915502495" lon="12.806687957776742"><ele>97.0</ele><time>2026-04-18T08:54:19Z</time></trkpt><trkpt lat="46.0542353701901" lon="12.806699727854626"><ele>97.00000000000001</ele><time>2026-04-18T08:54:20Z</time></trkpt><trkpt lat="46.05430568882351" lon="12.806718835906114"><ele>97.0</ele><time>2026-04-18T08:54:21Z</time></trkpt><trkpt lat="46.0543757672092" lon="12.806754118397706"><ele>97.0</ele><time>2026-04-18T08:54:22Z</time></trkpt><trkpt lat="46.05444247318946" lon="12.806790421375581"><ele>97.0</ele><time>2026-04-18T08:54:23Z</time></trkpt><trkpt lat="46.05455653916399" lon="12.806831267605283"><ele>97.00000000000001</ele><time>2026-04-18T08:54:25Z</time></trkpt><trkpt lat="46.05462349052656" lon="12.806847035802972"><ele>97.0</ele><time>2026-04-18T08:54:26Z</time></trkpt><trkpt lat="46.05474346225461" lon="12.806888263728816"><ele>97.16666666666667</ele><time>2026-04-18T08:54:28Z</time></trkpt><trkpt lat="46.05480827127429" lon="12.80688472962073"><ele>97.33333333333334</ele><time>2026-04-18T08:54:29Z</time></trkpt><trkpt lat="46.054885960166025" lon="12.806878981966856"><ele>97.5</ele><time>2026-04-18T08:54:30Z</time></trkpt><trkpt lat="46.05496041871152" lon="12.806875391225422"><ele>97.66666666666666</ele><time>2026-04-18T08:54:31Z</time></trkpt><trkpt lat="46.05504857398017" lon="12.80687888696056"><ele>97.83333333333333</ele><time>2026-04-18T08:54:32Z</time></trkpt><trkpt lat="46.05512441843289" lon="12.806876750259047"><ele>98.0</ele><time>2026-04-18T08:54:33Z</time></trkpt><trkpt lat="46.05520747121331" lon="12.80687921225295"><ele>98.2</ele><time>2026-04-18T08:54:34Z</time></trkpt><trkpt lat="46.0552831643042" lon="12.806870790750937"><ele>98.4</ele><time>2026-04-18T08:54:35Z</time></trkpt><trkpt lat="46.0553644493417" lon="12.806870982054248"><ele>98.60000000000001</ele><time>2026-04-18T08:54:36Z</time></trkpt><trkpt lat="46.05545974762293" lon="12.806865980038049"><ele>98.80000000000001</ele><time>2026-04-18T08:54:38Z</time></trkpt><trkpt lat="46.055567209687936" lon="12.80683937662011"><ele>99.0</ele><time>2026-04-18T08:54:40Z</time></trkpt><trkpt lat="46.05569200887005" lon="12.806871807303358"><ele>99.0</ele><time>2026-04-18T08:54:42Z</time></trkpt><trkpt lat="46.05576184176374" lon="12.806895750847714"><ele>99.0</ele><time>2026-04-18T08:54:43Z</time></trkpt><trkpt lat="46.05583667295379" lon="12.806915172311522"><ele>99.0</ele><time>2026-04-18T08:54:44Z</time></trkpt><trkpt lat="46.055917516992785" lon="12.806925192212768"><ele>99.0</ele><time>2026-04-18T08:54:45Z</time></trkpt><trkpt lat="46.055999306073545" lon="12.806935975514072"><ele>99.0</ele><time>2026-04-18T08:54:46Z</time></trkpt><trkpt lat="46.056080760965315" lon="12.806952849698993"><ele>99.0</ele><time>2026-04-18T08:54:47Z</time></trkpt><trkpt lat="46.0561474740541" lon="12.806974905515014"><ele>99.33333333333333</ele><time>2026-04-18T08:54:48Z</time></trkpt><trkpt lat="46.05621496691545" lon="12.807003560679862"><ele>99.66666666666666</ele><time>2026-04-18T08:54:49Z</time></trkpt><trkpt lat="46.056278911724654" lon="12.807037379447673"><ele>100.0</ele><time>2026-04-18T08:54:50Z</time></trkpt><trkpt lat="46.05634342822276" lon="12.807079499661494"><ele>100.33333333333333</ele><time>2026-04-18T08:54:51Z</time></trkpt><trkpt lat="46.05643084942385" lon="12.80712892564008"><ele>100.66666666666666</ele><time>2026-04-18T08:54:52Z</time></trkpt><trkpt lat="46.05651800205663" lon="12.807189244899181"><ele>101.0</ele><time>2026-04-18T08:54:53Z</time></trkpt><trkpt lat="46.05659086527846" lon="12.80726041411666"><ele>100.99999999999999</ele><time>2026-04-18T08:54:54Z</time></trkpt><trkpt lat="46.05665148578742" lon="12.807305457085905"><ele>101.0</ele><time>2026-04-18T08:54:55Z</time></trkpt><trkpt lat="46.05671310892053" lon="12.807355010676412"><ele>101.0</ele><time>2026-04-18T08:54:56Z</time></trkpt><trkpt lat="46.05677011714482" lon="12.80740105142997"><ele>101.0</ele><time>2026-04-18T08:54:57Z</time></trkpt><trkpt lat="46.056879324902624" lon="12.807493200118104"><ele>100.99999999999999</ele><time>2026-04-18T08:54:59Z</time></trkpt><trkpt lat="46.056940793869195" lon="12.807560363123583"><ele>101.0</ele><time>2026-04-18T08:55:00Z</time></trkpt><trkpt lat="46.05699850858376" lon="12.807626053329589"><ele>100.99999999999999</ele><time>2026-04-18T08:55:01Z</time></trkpt><trkpt lat="46.05706892328394" lon="12.807735401167573"><ele>101.0</ele><time>2026-04-18T08:55:03Z</time></trkpt><trkpt lat="46.05712858751149" lon="12.807825004808414"><ele>101.0</ele><time>2026-04-18T08:55:05Z</time></trkpt><trkpt lat="46.057166981823" lon="12.807902862128154"><ele>101.0</ele><time>2026-04-18T08:55:07Z</time></trkpt><trkpt lat="46.05719789546436" lon="12.807982579620573"><ele>100.99999999999999</ele><time>2026-04-18T08:55:10Z</time></trkpt><trkpt lat="46.0571712872058" lon="12.80808696357866"><ele>101.0</ele><time>2026-04-18T08:55:12Z</time></trkpt><trkpt lat="46.0571316193576" lon="12.808161587045936"><ele>101.0</ele><time>2026-04-18T08:55:13Z</time></trkpt><trkpt lat="46.05708559620803" lon="12.808254282220101"><ele>101.0</ele><time>2026-04-18T08:55:14Z</time></trkpt><trkpt lat="46.057028596531154" lon="12.808359062670437"><ele>101.0</ele><time>2026-04-18T08:55:15Z</time></trkpt><trkpt lat="46.056951836318184" lon="12.80851667386364"><ele>101.0</ele><time>2026-04-18T08:55:16Z</time></trkpt><trkpt lat="46.05686269695254" lon="12.808678046764612"><ele>101.0</ele><time>2026-04-18T08:55:17Z</time></trkpt><trkpt lat="46.056793504670274" lon="12.80881568785837"><ele>100.83333333333333</ele><time>2026-04-18T08:55:18Z</time></trkpt><trkpt lat="46.056736341483585" lon="12.808925431305841"><ele>100.66666666666666</ele><time>2026-04-18T08:55:19Z</time></trkpt><trkpt lat="46.05668669883332" lon="12.809030068556776"><ele>100.5</ele><time>2026-04-18T08:55:20Z</time></trkpt><trkpt lat="46.05663905179133" lon="12.809119968437827"><ele>100.33333333333334</ele><time>2026-04-18T08:55:21Z</time></trkpt><trkpt lat="46.056586083586794" lon="12.809210329081097"><ele>100.16666666666667</ele><time>2026-04-18T08:55:22Z</time></trkpt><trkpt lat="46.056529881455575" lon="12.809308492326776"><ele>100.0</ele><time>2026-04-18T08:55:23Z</time></trkpt><trkpt lat="46.05648281945055" lon="12.809398586761773"><ele>100.00000000000001</ele><time>2026-04-18T08:55:24Z</time></trkpt><trkpt lat="46.056437194972894" lon="12.809477604063504"><ele>100.0</ele><time>2026-04-18T08:55:25Z</time></trkpt><trkpt lat="46.056386070468825" lon="12.809570699949772"><ele>100.0</ele><time>2026-04-18T08:55:26Z</time></trkpt><trkpt lat="46.05633007425645" lon="12.809669401924856"><ele>100.0</ele><time>2026-04-18T08:55:27Z</time></trkpt><trkpt lat="46.05626800522645" lon="12.809775180688026"><ele>100.00000000000001</ele><time>2026-04-18T08:55:28Z</time></trkpt><trkpt lat="46.056209705076505" lon="12.809874315439702"><ele>100.0</ele><time>2026-04-18T08:55:29Z</time></trkpt><trkpt lat="46.0561496331465" lon="12.809988981351548"><ele>100.0</ele><time>2026-04-18T08:55:30Z</time></trkpt><trkpt lat="46.0560878161636" lon="12.810094995070717"><ele>100.0</ele><time>2026-04-18T08:55:31Z</time></trkpt><trkpt lat="46.05602451492325" lon="12.810203728083675"><ele>100.0</ele><time>2026-04-18T08:55:32Z</time></trkpt><trkpt lat="46.055963270282724" lon="12.81031456821504"><ele>100.0</ele><time>2026-04-18T08:55:33Z</time></trkpt><trkpt lat="46.05590044547665" lon="12.810425148686965"><ele>100.0</ele><time>2026-04-18T08:55:34Z</time></trkpt><trkpt lat="46.055835185178836" lon="12.810534375053102"><ele>99.8</ele><time>2026-04-18T08:55:35Z</time></trkpt><trkpt lat="46.055767871335576" lon="12.810649371788454"><ele>99.6</ele><time>2026-04-18T08:55:36Z</time></trkpt><trkpt lat="46.05570057501025" lon="12.810771406636247"><ele>99.4</ele><time>2026-04-18T08:55:37Z</time></trkpt><trkpt lat="46.05563196773656" lon="12.810896166710315"><ele>99.2</ele><time>2026-04-18T08:55:38Z</time></trkpt><trkpt lat="46.05556551455237" lon="12.81102471787559"><ele>99.0</ele><time>2026-04-18T08:55:39Z</time></trkpt><trkpt lat="46.055504495365916" lon="12.811143852814892"><ele>99.0</ele><time>2026-04-18T08:55:40Z</time></trkpt><trkpt lat="46.05545328235632" lon="12.811252716204237"><ele>99.0</ele><time>2026-04-18T08:55:41Z</time></trkpt><trkpt lat="46.055406699615716" lon="12.811349431243734"><ele>99.0</ele><time>2026-04-18T08:55:42Z</time></trkpt><trkpt lat="46.055360924653385" lon="12.811444887478451"><ele>99.0</ele><time>2026-04-18T08:55:43Z</time></trkpt><trkpt lat="46.05531672185483" lon="12.811555540104068"><ele>99.0</ele><time>2026-04-18T08:55:44Z</time></trkpt><trkpt lat="46.055270941040966" lon="12.811669303678174"><ele>99.0</ele><time>2026-04-18T08:55:45Z</time></trkpt><trkpt lat="46.05522701738665" lon="12.811768733719525"><ele>99.0</ele><time>2026-04-18T08:55:46Z</time></trkpt><trkpt lat="46.05518715784107" lon="12.811865424420148"><ele>99.0</ele><time>2026-04-18T08:55:47Z</time></trkpt><trkpt lat="46.055138543704196" lon="12.812014449752747"><ele>99.0</ele><time>2026-04-18T08:55:49Z</time></trkpt><trkpt lat="46.055345129109085" lon="12.812120708311582"><ele>99.0</ele><time>2026-04-18T08:55:55Z</time></trkpt><trkpt lat="46.055450082044636" lon="12.812106806844056"><ele>99.0</ele><time>2026-04-18T08:55:57Z</time></trkpt><trkpt lat="46.05552881462567" lon="12.812090723413862"><ele>99.0</ele><time>2026-04-18T08:55:58Z</time></trkpt><trkpt lat="46.05562923007183" lon="12.812081114209489"><ele>99.0</ele><time>2026-04-18T08:55:59.001Z</time></trkpt><trkpt lat="46.055761350577875" lon="12.812075901325446"><ele>99.0</ele><time>2026-04-18T08:56:00Z</time></trkpt><trkpt lat="46.055923449897044" lon="12.812066642428016"><ele>99.0</ele><time>2026-04-18T08:56:01.001Z</time></trkpt><trkpt lat="46.05612544152435" lon="12.812039157861918"><ele>99.0</ele><time>2026-04-18T08:56:02.001Z</time></trkpt><trkpt lat="46.05635015657753" lon="12.81200847331239"><ele>99.0</ele><time>2026-04-18T08:56:03Z</time></trkpt><trkpt lat="46.05659227702487" lon="12.81196671188444"><ele>100.0</ele><time>2026-04-18T08:56:04Z</time></trkpt><trkpt lat="46.05685753509824" lon="12.811918983389607"><ele>101.0</ele><time>2026-04-18T08:56:05Z</time></trkpt><trkpt lat="46.057076985313074" lon="12.811927117976168"><ele>101.0</ele><time>2026-04-18T08:56:06Z</time></trkpt><trkpt lat="46.05735256715362" lon="12.81188402378054"><ele>101.0</ele><time>2026-04-18T08:56:07Z</time></trkpt><trkpt lat="46.057622615063565" lon="12.81184719496456"><ele>101.33333333333333</ele><time>2026-04-18T08:56:08Z</time></trkpt><trkpt lat="46.05785015261898" lon="12.81181659895107"><ele>101.66666666666666</ele><time>2026-04-18T08:56:09Z</time></trkpt><trkpt lat="46.05805478753309" lon="12.811789592633724"><ele>102.0</ele><time>2026-04-18T08:56:10Z</time></trkpt><trkpt lat="46.05824405238078" lon="12.811758447267952"><ele>102.66666666666666</ele><time>2026-04-18T08:56:11Z</time></trkpt><trkpt lat="46.058425648882256" lon="12.811739193346288"><ele>103.33333333333333</ele><time>2026-04-18T08:56:12Z</time></trkpt><trkpt lat="46.05858393038669" lon="12.811718990871354"><ele>104.0</ele><time>2026-04-18T08:56:13Z</time></trkpt><trkpt lat="46.05873994992994" lon="12.81169810506899"><ele>104.0</ele><time>2026-04-18T08:56:14Z</time></trkpt><trkpt lat="46.05889655263247" lon="12.811687983926639"><ele>104.0</ele><time>2026-04-18T08:56:15Z</time></trkpt><trkpt lat="46.05905531864266" lon="12.81169009998551"><ele>104.0</ele><time>2026-04-18T08:56:16Z</time></trkpt><trkpt lat="46.059211560876996" lon="12.81171125767248"><ele>103.66666666666666</ele><time>2026-04-18T08:56:17Z</time></trkpt><trkpt lat="46.05936265360446" lon="12.811756599717997"><ele>103.33333333333334</ele><time>2026-04-18T08:56:18Z</time></trkpt><trkpt lat="46.059505514210244" lon="12.811817497563814"><ele>103.0</ele><time>2026-04-18T08:56:19Z</time></trkpt><trkpt lat="46.05964587282184" lon="12.811895440659281"><ele>103.0</ele><time>2026-04-18T08:56:20Z</time></trkpt><trkpt lat="46.05978227386393" lon="12.811983838805881"><ele>103.0</ele><time>2026-04-18T08:56:21Z</time></trkpt><trkpt lat="46.05992370526305" lon="12.812095777380906"><ele>103.0</ele><time>2026-04-18T08:56:22Z</time></trkpt><trkpt lat="46.060072745063714" lon="12.812234845153993"><ele>103.33333333333334</ele><time>2026-04-18T08:56:23Z</time></trkpt><trkpt lat="46.06022344348459" lon="12.812369468489353"><ele>103.66666666666666</ele><time>2026-04-18T08:56:24Z</time></trkpt><trkpt lat="46.060372053289086" lon="12.81251430860531"><ele>104.0</ele><time>2026-04-18T08:56:25Z</time></trkpt><trkpt lat="46.06051959307083" lon="12.812648754087482"><ele>103.66666666666666</ele><time>2026-04-18T08:56:26Z</time></trkpt><trkpt lat="46.06067229781735" lon="12.81277596346942"><ele>103.33333333333334</ele><time>2026-04-18T08:56:27Z</time></trkpt><trkpt lat="46.060824912049696" lon="12.8128919963206"><ele>103.0</ele><time>2026-04-18T08:56:28Z</time></trkpt><trkpt lat="46.06095536516262" lon="12.812990137260348"><ele>103.0</ele><time>2026-04-18T08:56:29Z</time></trkpt><trkpt lat="46.06107144879536" lon="12.813086750003054"><ele>103.0</ele><time>2026-04-18T08:56:30Z</time></trkpt><trkpt lat="46.061180100267784" lon="12.813168836800296"><ele>103.0</ele><time>2026-04-18T08:56:31Z</time></trkpt><trkpt lat="46.061289898268775" lon="12.813259361309912"><ele>103.0</ele><time>2026-04-18T08:56:32Z</time></trkpt><trkpt lat="46.06140207505117" lon="12.81335821717246"><ele>103.0</ele><time>2026-04-18T08:56:33Z</time></trkpt><trkpt lat="46.06150595148426" lon="12.813448551584566"><ele>103.0</ele><time>2026-04-18T08:56:34Z</time></trkpt><trkpt lat="46.061614972477095" lon="12.813538917133954"><ele>103.0</ele><time>2026-04-18T08:56:35Z</time></trkpt><trkpt lat="46.06172967092506" lon="12.813593533936322"><ele>103.0</ele><time>2026-04-18T08:56:36Z</time></trkpt><trkpt lat="46.061860042469306" lon="12.81365207034741"><ele>103.33333333333334</ele><time>2026-04-18T08:56:37Z</time></trkpt><trkpt lat="46.061989773814155" lon="12.813698214698801"><ele>103.66666666666666</ele><time>2026-04-18T08:56:38Z</time></trkpt><trkpt lat="46.06211558975634" lon="12.813968955561789"><ele>104.0</ele><time>2026-04-18T08:56:39Z</time></trkpt><trkpt lat="46.062259290301114" lon="12.813984396737176"><ele>104.0</ele><time>2026-04-18T08:56:40Z</time></trkpt><trkpt lat="46.062407659793784" lon="12.814000339608654"><ele>104.0</ele><time>2026-04-18T08:56:41Z</time></trkpt><trkpt lat="46.0625632851409" lon="12.814018120456865"><ele>104.0</ele><time>2026-04-18T08:56:42Z</time></trkpt><trkpt lat="46.06272785688681" lon="12.81403890698064"><ele>104.33333333333333</ele><time>2026-04-18T08:56:43Z</time></trkpt><trkpt lat="46.06291306602818" lon="12.814062300148201"><ele>104.66666666666666</ele><time>2026-04-18T08:56:44Z</time></trkpt><trkpt lat="46.063104169454746" lon="12.814086303711003"><ele>105.0</ele><time>2026-04-18T08:56:45Z</time></trkpt><trkpt lat="46.063307354948975" lon="12.81410995971592"><ele>105.66666666666666</ele><time>2026-04-18T08:56:46Z</time></trkpt><trkpt lat="46.063520282430126" lon="12.814134749939797"><ele>106.33333333333333</ele><time>2026-04-18T08:56:47Z</time></trkpt><trkpt lat="46.06374525576249" lon="12.814160942607574"><ele>107.0</ele><time>2026-04-18T08:56:48Z</time></trkpt><trkpt lat="46.063987903150725" lon="12.814189192989232"><ele>108.0</ele><time>2026-04-18T08:56:49Z</time></trkpt><trkpt lat="46.064243316233444" lon="12.814218929624996"><ele>109.0</ele><time>2026-04-18T08:56:50Z</time></trkpt><trkpt lat="46.06450059724464" lon="12.814249121510818"><ele>109.0</ele><time>2026-04-18T08:56:51Z</time></trkpt><trkpt lat="46.064718615123574" lon="12.814275347795487"><ele>109.0</ele><time>2026-04-18T08:56:52Z</time></trkpt><trkpt lat="46.06491743743971" lon="12.81429926496639"><ele>109.0</ele><time>2026-04-18T08:56:53Z</time></trkpt><trkpt lat="46.06510653189341" lon="12.814322011929171"><ele>108.33333333333334</ele><time>2026-04-18T08:56:54Z</time></trkpt><trkpt lat="46.06528304125065" lon="12.814343095289338"><ele>107.66666666666666</ele><time>2026-04-18T08:56:55Z</time></trkpt><trkpt lat="46.06544793818217" lon="12.814363158414436"><ele>107.0</ele><time>2026-04-18T08:56:56Z</time></trkpt><trkpt lat="46.06559862596874" lon="12.814381492702736"><ele>107.0</ele><time>2026-04-18T08:56:57Z</time></trkpt><trkpt lat="46.065747441784985" lon="12.81440032847689"><ele>107.0</ele><time>2026-04-18T08:56:58Z</time></trkpt><trkpt lat="46.06588563320108" lon="12.814416893294108"><ele>107.0</ele><time>2026-04-18T08:56:59Z</time></trkpt><trkpt lat="46.06600944440119" lon="12.814431058462556"><ele>107.0</ele><time>2026-04-18T08:57:00Z</time></trkpt><trkpt lat="46.066131402797005" lon="12.814445009690067"><ele>107.25</ele><time>2026-04-18T08:57:01Z</time></trkpt><trkpt lat="46.06625087889296" lon="12.814458676958333"><ele>107.5</ele><time>2026-04-18T08:57:02Z</time></trkpt><trkpt lat="46.066365944464685" lon="12.814472999181042"><ele>107.75</ele><time>2026-04-18T08:57:03Z</time></trkpt><trkpt lat="46.06648500271832" lon="12.814489199448632"><ele>108.0</ele><time>2026-04-18T08:57:04Z</time></trkpt><trkpt lat="46.06660854226459" lon="12.814506952601022"><ele>108.25</ele><time>2026-04-18T08:57:05Z</time></trkpt><trkpt lat="46.06674360409193" lon="12.814526933140584"><ele>108.5</ele><time>2026-04-18T08:57:06Z</time></trkpt><trkpt lat="46.06688247304775" lon="12.814549207668462"><ele>108.75</ele><time>2026-04-18T08:57:07Z</time></trkpt><trkpt lat="46.0670264699451" lon="12.814575664104861"><ele>109.0</ele><time>2026-04-18T08:57:08Z</time></trkpt><trkpt lat="46.06717916304179" lon="12.814607731492039"><ele>109.0</ele><time>2026-04-18T08:57:09Z</time></trkpt><trkpt lat="46.06732982446995" lon="12.814644209325623"><ele>109.0</ele><time>2026-04-18T08:57:10Z</time></trkpt><trkpt lat="46.06748453001383" lon="12.81468586236534"><ele>109.0</ele><time>2026-04-18T08:57:11Z</time></trkpt><trkpt lat="46.06764402435198" lon="12.814731563164289"><ele>110.0</ele><time>2026-04-18T08:57:12Z</time></trkpt><trkpt lat="46.06781195780009" lon="12.814783228806576"><ele>111.0</ele><time>2026-04-18T08:57:13Z</time></trkpt><trkpt lat="46.067983403210775" lon="12.814837933602336"><ele>112.0</ele><time>2026-04-18T08:57:14Z</time></trkpt><trkpt lat="46.06815947227089" lon="12.814896784632461"><ele>112.66666666666667</ele><time>2026-04-18T08:57:15Z</time></trkpt><trkpt lat="46.068334240331154" lon="12.814959535720314"><ele>113.33333333333334</ele><time>2026-04-18T08:57:16Z</time></trkpt><trkpt lat="46.068490474472526" lon="12.815016852869427"><ele>114.0</ele><time>2026-04-18T08:57:17Z</time></trkpt><trkpt lat="46.06864311442465" lon="12.81507313195495"><ele>114.0</ele><time>2026-04-18T08:57:18Z</time></trkpt><trkpt lat="46.068787544376704" lon="12.81512641857173"><ele>114.0</ele><time>2026-04-18T08:57:19Z</time></trkpt><trkpt lat="46.068940872713696" lon="12.81518298819701"><ele>114.0</ele><time>2026-04-18T08:57:20Z</time></trkpt><trkpt lat="46.069094632614494" lon="12.815241373800117"><ele>113.0</ele><time>2026-04-18T08:57:21Z</time></trkpt><trkpt lat="46.069244282633015" lon="12.815298392793407"><ele>112.0</ele><time>2026-04-18T08:57:22Z</time></trkpt><trkpt lat="46.06941020550249" lon="12.815360007876798"><ele>111.0</ele><time>2026-04-18T08:57:23Z</time></trkpt><trkpt lat="46.06957103151833" lon="12.815419180599363"><ele>111.0</ele><time>2026-04-18T08:57:24Z</time></trkpt><trkpt lat="46.06972984952184" lon="12.815476623204468"><ele>111.0</ele><time>2026-04-18T08:57:25Z</time></trkpt><trkpt lat="46.069891428128365" lon="12.815535558682651"><ele>111.0</ele><time>2026-04-18T08:57:26Z</time></trkpt><trkpt lat="46.070058100117485" lon="12.815598704928838"><ele>111.66666666666666</ele><time>2026-04-18T08:57:27Z</time></trkpt><trkpt lat="46.07022552260335" lon="12.81566213552875"><ele>112.33333333333333</ele><time>2026-04-18T08:57:28Z</time></trkpt><trkpt lat="46.07039958912344" lon="12.815727198180891"><ele>113.0</ele><time>2026-04-18T08:57:29Z</time></trkpt><trkpt lat="46.07056986426799" lon="12.815789986697185"><ele>113.0</ele><time>2026-04-18T08:57:30Z</time></trkpt><trkpt lat="46.070742279923415" lon="12.815853566538072"><ele>113.0</ele><time>2026-04-18T08:57:31Z</time></trkpt><trkpt lat="46.07091930985974" lon="12.815917053232273"><ele>113.0</ele><time>2026-04-18T08:57:32Z</time></trkpt><trkpt lat="46.07110416821216" lon="12.815978535210757"><ele>113.0</ele><time>2026-04-18T08:57:33Z</time></trkpt><trkpt lat="46.0712781414026" lon="12.816032326010635"><ele>113.0</ele><time>2026-04-18T08:57:34Z</time></trkpt><trkpt lat="46.071443554120066" lon="12.816078151330544"><ele>113.0</ele><time>2026-04-18T08:57:35Z</time></trkpt><trkpt lat="46.071602967800125" lon="12.816119204105272"><ele>113.33333333333333</ele><time>2026-04-18T08:57:36Z</time></trkpt><trkpt lat="46.07176716746933" lon="12.81615773200578"><ele>113.66666666666666</ele><time>2026-04-18T08:57:37Z</time></trkpt><trkpt lat="46.071917582868934" lon="12.816189601758019"><ele>114.0</ele><time>2026-04-18T08:57:38Z</time></trkpt><trkpt lat="46.07204859879912" lon="12.816217361220998"><ele>114.0</ele><time>2026-04-18T08:57:39Z</time></trkpt><trkpt lat="46.072180524831985" lon="12.816245313464735"><ele>114.0</ele><time>2026-04-18T08:57:40Z</time></trkpt><trkpt lat="46.07230326556144" lon="12.816269273278527"><ele>114.0</ele><time>2026-04-18T08:57:41Z</time></trkpt><trkpt lat="46.07243090396551" lon="12.816288987804706"><ele>114.0</ele><time>2026-04-18T08:57:42Z</time></trkpt><trkpt lat="46.072545318336715" lon="12.816302608558331"><ele>114.4</ele><time>2026-04-18T08:57:43Z</time></trkpt><trkpt lat="46.0726578792819" lon="12.816313125984635"><ele>114.80000000000001</ele><time>2026-04-18T08:57:44Z</time></trkpt><trkpt lat="46.072757354227214" lon="12.81632157298781"><ele>115.19999999999999</ele><time>2026-04-18T08:57:45Z</time></trkpt><trkpt lat="46.07286117335036" lon="12.816330388876342"><ele>115.6</ele><time>2026-04-18T08:57:46Z</time></trkpt><trkpt lat="46.072957026380436" lon="12.81633852829745"><ele>116.0</ele><time>2026-04-18T08:57:47Z</time></trkpt><trkpt lat="46.07304308806868" lon="12.816345836311111"><ele>116.0</ele><time>2026-04-18T08:57:48Z</time></trkpt><trkpt lat="46.07314673401388" lon="12.816354637495754"><ele>116.0</ele><time>2026-04-18T08:57:49Z</time></trkpt><trkpt lat="46.07324759476691" lon="12.816363828601103"><ele>116.0</ele><time>2026-04-18T08:57:50Z</time></trkpt><trkpt lat="46.073350742119494" lon="12.81637276644202"><ele>116.0</ele><time>2026-04-18T08:57:51Z</time></trkpt><trkpt lat="46.07345216091857" lon="12.816381554527085"><ele>116.0</ele><time>2026-04-18T08:57:52Z</time></trkpt><trkpt lat="46.073543448386054" lon="12.81638946472693"><ele>116.19999999999999</ele><time>2026-04-18T08:57:53Z</time></trkpt><trkpt lat="46.073634660836994" lon="12.816397368395675"><ele>116.39999999999999</ele><time>2026-04-18T08:57:54Z</time></trkpt><trkpt lat="46.07372617953951" lon="12.816405298614209"><ele>116.6</ele><time>2026-04-18T08:57:55Z</time></trkpt><trkpt lat="46.07382694792296" lon="12.816414030348062"><ele>116.8</ele><time>2026-04-18T08:57:56Z</time></trkpt><trkpt lat="46.07393965192764" lon="12.816423796260658"><ele>117.0</ele><time>2026-04-18T08:57:57Z</time></trkpt><trkpt lat="46.07405065138314" lon="12.816433414511629"><ele>117.19999999999999</ele><time>2026-04-18T08:57:58Z</time></trkpt><trkpt lat="46.074155619292185" lon="12.816442510144432"><ele>117.39999999999999</ele><time>2026-04-18T08:57:59Z</time></trkpt><trkpt lat="46.07424980930966" lon="12.816450671805534"><ele>117.60000000000001</ele><time>2026-04-18T08:58:00Z</time></trkpt><trkpt lat="46.07434415579342" lon="12.81645884707883"><ele>117.80000000000001</ele><time>2026-04-18T08:58:01Z</time></trkpt><trkpt lat="46.07444656456492" lon="12.816467720938155"><ele>118.0</ele><time>2026-04-18T08:58:02Z</time></trkpt><trkpt lat="46.074540428483445" lon="12.81647585437699"><ele>118.0</ele><time>2026-04-18T08:58:03Z</time></trkpt><trkpt lat="46.07463009723828" lon="12.81648362428632"><ele>118.00000000000001</ele><time>2026-04-18T08:58:04Z</time></trkpt><trkpt lat="46.074728737671705" lon="12.816492171639476"><ele>118.00000000000001</ele><time>2026-04-18T08:58:05Z</time></trkpt><trkpt lat="46.07483183019353" lon="12.8165011047098"><ele>118.0</ele><time>2026-04-18T08:58:06Z</time></trkpt><trkpt lat="46.074933787409165" lon="12.816509939417953"><ele>118.0</ele><time>2026-04-18T08:58:07Z</time></trkpt><trkpt lat="46.07504691868313" lon="12.816519742454126"><ele>118.0</ele><time>2026-04-18T08:58:08Z</time></trkpt><trkpt lat="46.075160832859204" lon="12.816529613204095"><ele>118.00000000000001</ele><time>2026-04-18T08:58:09Z</time></trkpt><trkpt lat="46.07526440661133" lon="12.816538588080805"><ele>118.00000000000001</ele><time>2026-04-18T08:58:10Z</time></trkpt><trkpt lat="46.07536208687999" lon="12.816547052140596"><ele>118.0</ele><time>2026-04-18T08:58:11Z</time></trkpt><trkpt lat="46.07545855207441" lon="12.816555411026258"><ele>118.0</ele><time>2026-04-18T08:58:12Z</time></trkpt><trkpt lat="46.07555302782247" lon="12.816563597515797"><ele>118.0</ele><time>2026-04-18T08:58:13Z</time></trkpt><trkpt lat="46.07564252262285" lon="12.816571352297569"><ele>118.00000000000001</ele><time>2026-04-18T08:58:14Z</time></trkpt><trkpt lat="46.07573516752222" lon="12.816579380095334"><ele>118.00000000000001</ele><time>2026-04-18T08:58:15Z</time></trkpt><trkpt lat="46.075835654840006" lon="12.816588089547801"><ele>118.0</ele><time>2026-04-18T08:58:16Z</time></trkpt><trkpt lat="46.075939339507656" lon="12.81659707396448"><ele>118.0</ele><time>2026-04-18T08:58:17Z</time></trkpt><trkpt lat="46.076041433804555" lon="12.816605920570991"><ele>118.0</ele><time>2026-04-18T08:58:18Z</time></trkpt><trkpt lat="46.07615647323882" lon="12.81661588889138"><ele>118.0</ele><time>2026-04-18T08:58:19Z</time></trkpt><trkpt lat="46.07627505702184" lon="12.816626164337146"><ele>118.0</ele><time>2026-04-18T08:58:20Z</time></trkpt><trkpt lat="46.076401347068305" lon="12.816637107536433"><ele>118.0</ele><time>2026-04-18T08:58:21Z</time></trkpt><trkpt lat="46.07653217991791" lon="12.8166484443787"><ele>119.0</ele><time>2026-04-18T08:58:22Z</time></trkpt><trkpt lat="46.07667327802912" lon="12.816660670723373"><ele>120.0</ele><time>2026-04-18T08:58:23Z</time></trkpt><trkpt lat="46.07681417766693" lon="12.816672879861299"><ele>121.0</ele><time>2026-04-18T08:58:24Z</time></trkpt><trkpt lat="46.07695694273823" lon="12.816685250648552"><ele>122.0</ele><time>2026-04-18T08:58:25Z</time></trkpt><trkpt lat="46.077106764076845" lon="12.816698232870653"><ele>122.0</ele><time>2026-04-18T08:58:26Z</time></trkpt><trkpt lat="46.07726135481846" lon="12.816711628365484"><ele>122.0</ele><time>2026-04-18T08:58:27Z</time></trkpt><trkpt lat="46.077421743884145" lon="12.816725526291242"><ele>122.0</ele><time>2026-04-18T08:58:28Z</time></trkpt><trkpt lat="46.077581055428006" lon="12.816739330850115"><ele>122.0</ele><time>2026-04-18T08:58:29Z</time></trkpt><trkpt lat="46.07772886950166" lon="12.816752139138618"><ele>122.0</ele><time>2026-04-18T08:58:30Z</time></trkpt><trkpt lat="46.077856250172175" lon="12.816763176842132"><ele>122.0</ele><time>2026-04-18T08:58:31Z</time></trkpt><trkpt lat="46.07797090087688" lon="12.816773111479803"><ele>122.0</ele><time>2026-04-18T08:58:32Z</time></trkpt><trkpt lat="46.078089033604066" lon="12.81678334783923"><ele>122.0</ele><time>2026-04-18T08:58:33Z</time></trkpt><trkpt lat="46.07821420031319" lon="12.816794193700387"><ele>122.0</ele><time>2026-04-18T08:58:34Z</time></trkpt><trkpt lat="46.07834281226725" lon="12.816805338100401"><ele>122.0</ele><time>2026-04-18T08:58:35Z</time></trkpt><trkpt lat="46.07847211570175" lon="12.81681654241704"><ele>122.0</ele><time>2026-04-18T08:58:36Z</time></trkpt><trkpt lat="46.078612195866484" lon="12.816828680549092"><ele>122.33333333333333</ele><time>2026-04-18T08:58:37Z</time></trkpt><trkpt lat="46.07876439159475" lon="12.81684186851524"><ele>122.66666666666666</ele><time>2026-04-18T08:58:38Z</time></trkpt><trkpt lat="46.0789299397305" lon="12.816856213482682"><ele>123.0</ele><time>2026-04-18T08:58:39Z</time></trkpt><trkpt lat="46.07909172565299" lon="12.816870232449606"><ele>123.66666666666666</ele><time>2026-04-18T08:58:40Z</time></trkpt><trkpt lat="46.079242531293396" lon="12.816883299959692"><ele>124.33333333333333</ele><time>2026-04-18T08:58:41Z</time></trkpt><trkpt lat="46.079392948366326" lon="12.816896333802271"><ele>125.0</ele><time>2026-04-18T08:58:42Z</time></trkpt><trkpt lat="46.07954056522157" lon="12.816909125002864"><ele>125.0</ele><time>2026-04-18T08:58:43Z</time></trkpt><trkpt lat="46.079702685012506" lon="12.816923122498622"><ele>125.0</ele><time>2026-04-18T08:58:44Z</time></trkpt><trkpt lat="46.07985665304925" lon="12.816936232264212"><ele>125.0</ele><time>2026-04-18T08:58:45Z</time></trkpt><trkpt lat="46.080006671295976" lon="12.81694900571494"><ele>125.33333333333333</ele><time>2026-04-18T08:58:46Z</time></trkpt><trkpt lat="46.08015642834516" lon="12.816961756927094"><ele>125.66666666666666</ele><time>2026-04-18T08:58:47Z</time></trkpt><trkpt lat="46.08031407464931" lon="12.816975179877671"><ele>126.0</ele><time>2026-04-18T08:58:48Z</time></trkpt><trkpt lat="46.080469126969" lon="12.816988381958165"><ele>126.0</ele><time>2026-04-18T08:58:49Z</time></trkpt><trkpt lat="46.08062660997269" lon="12.817001793091144"><ele>126.0</ele><time>2026-04-18T08:58:50Z</time></trkpt><trkpt lat="46.08078924454463" lon="12.817015640788641"><ele>126.0</ele><time>2026-04-18T08:58:51Z</time></trkpt><trkpt lat="46.080947490817906" lon="12.817029203002694"><ele>126.0</ele><time>2026-04-18T08:58:52Z</time></trkpt><trkpt lat="46.08110742024029" lon="12.817042966063054"><ele>126.0</ele><time>2026-04-18T08:58:53Z</time></trkpt><trkpt lat="46.08127312216348" lon="12.817057225885284"><ele>126.0</ele><time>2026-04-18T08:58:54Z</time></trkpt><trkpt lat="46.08143420950765" lon="12.817071088588476"><ele>126.0</ele><time>2026-04-18T08:58:55Z</time></trkpt><trkpt lat="46.08159098558611" lon="12.817084580276292"><ele>126.0</ele><time>2026-04-18T08:58:56Z</time></trkpt><trkpt lat="46.081735614469565" lon="12.817097026618987"><ele>126.0</ele><time>2026-04-18T08:58:57Z</time></trkpt><trkpt lat="46.08187946862454" lon="12.817109406289092"><ele>126.0</ele><time>2026-04-18T08:58:58Z</time></trkpt><trkpt lat="46.08202836218112" lon="12.817122219630651"><ele>126.0</ele><time>2026-04-18T08:58:59Z</time></trkpt><trkpt lat="46.08218007526502" lon="12.817135275612234"><ele>126.0</ele><time>2026-04-18T08:59:00Z</time></trkpt><trkpt lat="46.08232734859489" lon="12.81714794952225"><ele>126.0</ele><time>2026-04-18T08:59:01Z</time></trkpt><trkpt lat="46.08247085716785" lon="12.817160299447814"><ele>126.0</ele><time>2026-04-18T08:59:02Z</time></trkpt><trkpt lat="46.082608644719905" lon="12.817172157044949"><ele>126.0</ele><time>2026-04-18T08:59:03Z</time></trkpt><trkpt lat="46.082731627683806" lon="12.817182740591615"><ele>126.0</ele><time>2026-04-18T08:59:04Z</time></trkpt><trkpt lat="46.08284432746517" lon="12.81719243920721"><ele>126.0</ele><time>2026-04-18T08:59:05Z</time></trkpt><trkpt lat="46.08294537988689" lon="12.817201297980892"><ele>126.0</ele><time>2026-04-18T08:59:06Z</time></trkpt><trkpt lat="46.083038582609156" lon="12.81720953732944"><ele>126.0</ele><time>2026-04-18T08:59:07Z</time></trkpt><trkpt lat="46.083123258676146" lon="12.817217022901012"><ele>126.0</ele><time>2026-04-18T08:59:08Z</time></trkpt><trkpt lat="46.08319727955835" lon="12.817223566523724"><ele>126.0</ele><time>2026-04-18T08:59:09Z</time></trkpt><trkpt lat="46.08326972265216" lon="12.817229970663455"><ele>126.0</ele><time>2026-04-18T08:59:10Z</time></trkpt><trkpt lat="46.08333669514681" lon="12.81723589119051"><ele>126.0</ele><time>2026-04-18T08:59:11Z</time></trkpt><trkpt lat="46.083431828778" lon="12.81724430122776"><ele>126.0</ele><time>2026-04-18T08:59:13Z</time></trkpt><trkpt lat="46.08349289366508" lon="12.817213754235782"><ele>126.0</ele><time>2026-04-18T08:59:17Z</time></trkpt><trkpt lat="46.08338676060376" lon="12.817195794707915"><ele>126.0</ele><time>2026-04-18T08:59:22.999Z</time></trkpt><trkpt lat="46.08333870714914" lon="12.816794131453564"><ele>126.0</ele><time>2026-04-18T08:59:23.999Z</time></trkpt><trkpt lat="46.08324628553608" lon="12.816754246113398"><ele>126.0</ele><time>2026-04-18T08:59:25.999Z</time></trkpt><trkpt lat="46.0831618436455" lon="12.81675525003921"><ele>126.0</ele><time>2026-04-18T08:59:49.999Z</time></trkpt><trkpt lat="46.08311650853544" lon="12.817036712118238"><ele>126.0</ele><time>2026-04-18T08:59:50.999Z</time></trkpt><trkpt lat="46.08317428300157" lon="12.81696885019804"><ele>126.0</ele><time>2026-04-18T08:59:56.999Z</time></trkpt><trkpt lat="46.083239379937744" lon="12.81695499272746"><ele>126.0</ele><time>2026-04-18T08:59:57.999Z</time></trkpt><trkpt lat="46.0833523030821" lon="12.816939728807156"><ele>126.19999999999999</ele><time>2026-04-18T08:59:59.999Z</time></trkpt><trkpt lat="46.083425994964124" lon="12.81693208192826"><ele>126.39999999999999</ele><time>2026-04-18T09:00:00.999Z</time></trkpt><trkpt lat="46.083500444894135" lon="12.8169152634609"><ele>126.6</ele><time>2026-04-18T09:00:01.999Z</time></trkpt><trkpt lat="46.08357893638052" lon="12.816900625890424"><ele>126.8</ele><time>2026-04-18T09:00:02.999Z</time></trkpt><trkpt lat="46.08368542639607" lon="12.816897492116633"><ele>127.0</ele><time>2026-04-18T09:00:03.999Z</time></trkpt><trkpt lat="46.083810779718526" lon="12.816912919313934"><ele>127.0</ele><time>2026-04-18T09:00:04.999Z</time></trkpt><trkpt lat="46.083974871947134" lon="12.81694355300738"><ele>127.0</ele><time>2026-04-18T09:00:05.999Z</time></trkpt><trkpt lat="46.08416140550196" lon="12.816970408988416"><ele>127.0</ele><time>2026-04-18T09:00:06.999Z</time></trkpt><trkpt lat="46.08436422642889" lon="12.817009372467039"><ele>127.66666666666667</ele><time>2026-04-18T09:00:07.999Z</time></trkpt><trkpt lat="46.08452569172955" lon="12.817340402277061"><ele>128.33333333333334</ele><time>2026-04-18T09:00:08.999Z</time></trkpt><trkpt lat="46.08469330576844" lon="12.81735491502664"><ele>129.0</ele><time>2026-04-18T09:00:09.999Z</time></trkpt><trkpt lat="46.084881840461" lon="12.817371239179177"><ele>128.5</ele><time>2026-04-18T09:00:10.999Z</time></trkpt><trkpt lat="46.085113284413005" lon="12.817391278598933"><ele>128.0</ele><time>2026-04-18T09:00:11.999Z</time></trkpt><trkpt lat="46.085361573672984" lon="12.817412778615875"><ele>128.0</ele><time>2026-04-18T09:00:12.999Z</time></trkpt><trkpt lat="46.08558727333553" lon="12.817432320632768"><ele>128.0</ele><time>2026-04-18T09:00:13.999Z</time></trkpt><trkpt lat="46.08575584063279" lon="12.817446916000458"><ele>128.0</ele><time>2026-04-18T09:00:14.999Z</time></trkpt><trkpt lat="46.08589125665799" lon="12.81745864085581"><ele>128.5</ele><time>2026-04-18T09:00:15.999Z</time></trkpt><trkpt lat="46.08600670232718" lon="12.817468636639894"><ele>129.0</ele><time>2026-04-18T09:00:16.999Z</time></trkpt><trkpt lat="46.08612312259025" lon="12.817478716791605"><ele>129.5</ele><time>2026-04-18T09:00:17.999Z</time></trkpt><trkpt lat="46.086250448466" lon="12.81748974123177"><ele>130.0</ele><time>2026-04-18T09:00:18.999Z</time></trkpt><trkpt lat="46.08639107668723" lon="12.817502092103071"><ele>130.0</ele><time>2026-04-18T09:00:19.999Z</time></trkpt><trkpt lat="46.08655008677401" lon="12.817516832210721"><ele>130.0</ele><time>2026-04-18T09:00:20.999Z</time></trkpt><trkpt lat="46.08671526392143" lon="12.817533971197303"><ele>130.0</ele><time>2026-04-18T09:00:21.999Z</time></trkpt><trkpt lat="46.08687567990293" lon="12.817553827240497"><ele>130.33333333333334</ele><time>2026-04-18T09:00:22.999Z</time></trkpt><trkpt lat="46.08706185388137" lon="12.81757953343256"><ele>130.66666666666666</ele><time>2026-04-18T09:00:23.999Z</time></trkpt><trkpt lat="46.087243260949315" lon="12.817604840428572"><ele>131.0</ele><time>2026-04-18T09:00:24.999Z</time></trkpt><trkpt lat="46.087424170619045" lon="12.81763171255915"><ele>131.66666666666666</ele><time>2026-04-18T09:00:25.999Z</time></trkpt><trkpt lat="46.08760175309625" lon="12.817658596619365"><ele>132.33333333333334</ele><time>2026-04-18T09:00:26.999Z</time></trkpt><trkpt lat="46.087772690088315" lon="12.817685337863553"><ele>133.0</ele><time>2026-04-18T09:00:27.999Z</time></trkpt><trkpt lat="46.087955810954384" lon="12.817718289029722"><ele>133.0</ele><time>2026-04-18T09:00:28.999Z</time></trkpt><trkpt lat="46.08810731481393" lon="12.817747812155295"><ele>133.0</ele><time>2026-04-18T09:00:29.999Z</time></trkpt><trkpt lat="46.08824688944508" lon="12.817777207156931"><ele>133.0</ele><time>2026-04-18T09:00:30.999Z</time></trkpt><trkpt lat="46.08837693202613" lon="12.8178045945977"><ele>133.0</ele><time>2026-04-18T09:00:31.999Z</time></trkpt><trkpt lat="46.08849699908611" lon="12.817830364880644"><ele>133.0</ele><time>2026-04-18T09:00:32.999Z</time></trkpt><trkpt lat="46.08861654557429" lon="12.817857628610422"><ele>133.0</ele><time>2026-04-18T09:00:33.999Z</time></trkpt><trkpt lat="46.088742200748044" lon="12.817886285481672"><ele>133.0</ele><time>2026-04-18T09:00:34.999Z</time></trkpt><trkpt lat="46.08887031997857" lon="12.817917433695799"><ele>133.0</ele><time>2026-04-18T09:00:35.999Z</time></trkpt><trkpt lat="46.08898963335774" lon="12.817947842582985"><ele>133.4</ele><time>2026-04-18T09:00:36.999Z</time></trkpt><trkpt lat="46.089094237459555" lon="12.817975513651266"><ele>133.8</ele><time>2026-04-18T09:00:37.999Z</time></trkpt><trkpt lat="46.0891879594919" lon="12.818000580032649"><ele>134.2</ele><time>2026-04-18T09:00:38.999Z</time></trkpt><trkpt lat="46.08927715553264" lon="12.8180244359581"><ele>134.6</ele><time>2026-04-18T09:00:39.999Z</time></trkpt><trkpt lat="46.08936619164124" lon="12.818050028195081"><ele>135.0</ele><time>2026-04-18T09:00:40.999Z</time></trkpt><trkpt lat="46.08945731556099" lon="12.818076382623715"><ele>135.0</ele><time>2026-04-18T09:00:41.999Z</time></trkpt><trkpt lat="46.08955256089978" lon="12.818103929082582"><ele>135.0</ele><time>2026-04-18T09:00:42.999Z</time></trkpt><trkpt lat="46.08963378390964" lon="12.81812791873806"><ele>135.0</ele><time>2026-04-18T09:00:43.999Z</time></trkpt><trkpt lat="46.08971813439112" lon="12.818153280556492"><ele>135.0</ele><time>2026-04-18T09:00:44.999Z</time></trkpt><trkpt lat="46.08979276426199" lon="12.818175719708869"><ele>135.0</ele><time>2026-04-18T09:00:45.999Z</time></trkpt><trkpt lat="46.089860619572804" lon="12.818196121843556"><ele>135.0</ele><time>2026-04-18T09:00:46.999Z</time></trkpt><trkpt lat="46.08992892053062" lon="12.818216658034167"><ele>134.83333333333334</ele><time>2026-04-18T09:00:47.999Z</time></trkpt><trkpt lat="46.08999903746147" lon="12.818238219413356"><ele>134.66666666666666</ele><time>2026-04-18T09:00:48.999Z</time></trkpt><trkpt lat="46.09007468203189" lon="12.81826166481225"><ele>134.5</ele><time>2026-04-18T09:00:49.999Z</time></trkpt><trkpt lat="46.09014265147965" lon="12.818282731367425"><ele>134.33333333333331</ele><time>2026-04-18T09:00:50.999Z</time></trkpt><trkpt lat="46.09022357783942" lon="12.818307815805772"><ele>134.16666666666666</ele><time>2026-04-18T09:00:51.999Z</time></trkpt><trkpt lat="46.09029957925498" lon="12.818331371858674"><ele>134.0</ele><time>2026-04-18T09:00:52.999Z</time></trkpt><trkpt lat="46.09037768630949" lon="12.818355580515803"><ele>134.0</ele><time>2026-04-18T09:00:53.999Z</time></trkpt><trkpt lat="46.090450757179006" lon="12.818378228077309"><ele>134.0</ele><time>2026-04-18T09:00:54.999Z</time></trkpt><trkpt lat="46.090525066397056" lon="12.818401259647201"><ele>134.0</ele><time>2026-04-18T09:00:55.999Z</time></trkpt><trkpt lat="46.090595996610126" lon="12.818423243939261"><ele>134.0</ele><time>2026-04-18T09:00:56.999Z</time></trkpt><trkpt lat="46.0906718078251" lon="12.818446741071932"><ele>134.0</ele><time>2026-04-18T09:00:57.999Z</time></trkpt><trkpt lat="46.09074718557067" lon="12.818471826830253"><ele>134.0</ele><time>2026-04-18T09:00:58.999Z</time></trkpt><trkpt lat="46.090825622141026" lon="12.818497789709623"><ele>134.16666666666666</ele><time>2026-04-18T09:00:59.999Z</time></trkpt><trkpt lat="46.0908945134342" lon="12.81852059347143"><ele>134.33333333333331</ele><time>2026-04-18T09:01:00.999Z</time></trkpt><trkpt lat="46.09101553599269" lon="12.818564999880675"><ele>134.5</ele><time>2026-04-18T09:01:02.999Z</time></trkpt><trkpt lat="46.09108549284876" lon="12.818590398174006"><ele>134.66666666666666</ele><time>2026-04-18T09:01:03.999Z</time></trkpt><trkpt lat="46.0911490235435" lon="12.818613875380866"><ele>134.83333333333334</ele><time>2026-04-18T09:01:04.999Z</time></trkpt><trkpt lat="46.091221206292985" lon="12.818641713973076"><ele>135.0</ele><time>2026-04-18T09:01:05.999Z</time></trkpt><trkpt lat="46.091290503986066" lon="12.818668439766132"><ele>135.0</ele><time>2026-04-18T09:01:06.999Z</time></trkpt><trkpt lat="46.09136098492991" lon="12.818695622443169"><ele>135.0</ele><time>2026-04-18T09:01:07.999Z</time></trkpt><trkpt lat="46.09148877003975" lon="12.818749271954223"><ele>135.0</ele><time>2026-04-18T09:01:09.999Z</time></trkpt><trkpt lat="46.09160743580122" lon="12.818802046940515"><ele>135.0</ele><time>2026-04-18T09:01:11.999Z</time></trkpt><trkpt lat="46.091669419286035" lon="12.818829939247442"><ele>135.0</ele><time>2026-04-18T09:01:12.999Z</time></trkpt><trkpt lat="46.091783607535675" lon="12.818887747423258"><ele>135.33333333333334</ele><time>2026-04-18T09:01:14.999Z</time></trkpt><trkpt lat="46.09184929286013" lon="12.818920522691576"><ele>135.66666666666666</ele><time>2026-04-18T09:01:15.999Z</time></trkpt><trkpt lat="46.091945716222256" lon="12.818977974303811"><ele>136.0</ele><time>2026-04-18T09:01:17.999Z</time></trkpt><trkpt lat="46.092049748735626" lon="12.819040854656794"><ele>136.33333333333331</ele><time>2026-04-18T09:01:19.999Z</time></trkpt><trkpt lat="46.092111784369806" lon="12.819078213484278"><ele>136.66666666666666</ele><time>2026-04-18T09:01:20.999Z</time></trkpt><trkpt lat="46.0921711742168" lon="12.819113978001367"><ele>137.0</ele><time>2026-04-18T09:01:21.999Z</time></trkpt><trkpt lat="46.092259715565646" lon="12.819174529526391"><ele>137.0</ele><time>2026-04-18T09:01:23.999Z</time></trkpt><trkpt lat="46.09234932538987" lon="12.819235544290587"><ele>137.0</ele><time>2026-04-18T09:01:25.999Z</time></trkpt><trkpt lat="46.09244971639582" lon="12.819305263012364"><ele>137.0</ele><time>2026-04-18T09:01:27.999Z</time></trkpt><trkpt lat="46.09253020631512" lon="12.819362253160179"><ele>137.0</ele><time>2026-04-18T09:01:29.999Z</time></trkpt><trkpt lat="46.09262062475612" lon="12.819427410997779"><ele>137.0</ele><time>2026-04-18T09:01:31.999Z</time></trkpt><trkpt lat="46.09268402710769" lon="12.819475305237905"><ele>137.0</ele><time>2026-04-18T09:01:33.999Z</time></trkpt><trkpt lat="46.09277207422693" lon="12.819483333493526"><ele>137.0</ele><time>2026-04-18T09:01:35.999Z</time></trkpt><trkpt lat="46.09284124515116" lon="12.819441278068188"><ele>137.0</ele><time>2026-04-18T09:01:37.999Z</time></trkpt><trkpt lat="46.09287549942491" lon="12.81931112486863"><ele>137.0</ele><time>2026-04-18T09:01:40.999Z</time></trkpt><trkpt lat="46.09291323178655" lon="12.819214677072223"><ele>137.0</ele><time>2026-04-18T09:01:42.999Z</time></trkpt><trkpt lat="46.09295069227543" lon="12.819118136125057"><ele>137.0</ele><time>2026-04-18T09:01:44.999Z</time></trkpt><trkpt lat="46.092989012046054" lon="12.819022793337702"><ele>137.0</ele><time>2026-04-18T09:01:46.999Z</time></trkpt><trkpt lat="46.09303280519547" lon="12.81892927530554"><ele>137.0</ele><time>2026-04-18T09:01:48.999Z</time></trkpt><trkpt lat="46.09313187966036" lon="12.818891176282037"><ele>137.0</ele><time>2026-04-18T09:01:50.999Z</time></trkpt><trkpt lat="46.09331004241865" lon="12.818579748392493"><ele>137.16666666666666</ele><time>2026-04-18T09:01:51.999Z</time></trkpt><trkpt lat="46.09337857225793" lon="12.81855599543849"><ele>137.33333333333331</ele><time>2026-04-18T09:01:53.999Z</time></trkpt><trkpt lat="46.093448698297635" lon="12.818483517671572"><ele>137.5</ele><time>2026-04-18T09:01:55.999Z</time></trkpt><trkpt lat="46.09345044356456" lon="12.818353634555429"><ele>137.66666666666666</ele><time>2026-04-18T09:01:57.999Z</time></trkpt><trkpt lat="46.09340165733049" lon="12.818208124124578"><ele>137.83333333333334</ele><time>2026-04-18T09:01:59.999Z</time></trkpt><trkpt lat="46.09336935227189" lon="12.818127143775545"><ele>138.0</ele><time>2026-04-18T09:02:00.999Z</time></trkpt><trkpt lat="46.09333538012675" lon="12.818038815251494"><ele>138.0</ele><time>2026-04-18T09:02:01.999Z</time></trkpt><trkpt lat="46.093295846099544" lon="12.817952629463768"><ele>138.0</ele><time>2026-04-18T09:02:02.999Z</time></trkpt><trkpt lat="46.09326302312117" lon="12.817846026440147"><ele>138.0</ele><time>2026-04-18T09:02:03.999Z</time></trkpt><trkpt lat="46.093209397632734" lon="12.817747286668899"><ele>138.0</ele><time>2026-04-18T09:02:04.999Z</time></trkpt><trkpt lat="46.093171448124544" lon="12.817626220718697"><ele>138.0</ele><time>2026-04-18T09:02:05.999Z</time></trkpt><trkpt lat="46.093123850193344" lon="12.817490914535712"><ele>138.0</ele><time>2026-04-18T09:02:06.999Z</time></trkpt><trkpt lat="46.093082573599276" lon="12.817337066861187"><ele>138.0</ele><time>2026-04-18T09:02:07.999Z</time></trkpt><trkpt lat="46.0930411238444" lon="12.817206161556904"><ele>138.0</ele><time>2026-04-18T09:02:08.999Z</time></trkpt><trkpt lat="46.093025196871366" lon="12.817083588706462"><ele>138.0</ele><time>2026-04-18T09:02:09.999Z</time></trkpt><trkpt lat="46.09299588919754" lon="12.816981391869637"><ele>138.0</ele><time>2026-04-18T09:02:10.999Z</time></trkpt><trkpt lat="46.093008778947414" lon="12.816883366961054"><ele>138.0</ele><time>2026-04-18T09:02:11.999Z</time></trkpt><trkpt lat="46.09301388496036" lon="12.816756167879737"><ele>138.0</ele><time>2026-04-18T09:02:13.999Z</time></trkpt><trkpt lat="46.09301267711483" lon="12.816627815295293"><ele>138.0</ele><time>2026-04-18T09:02:15.999Z</time></trkpt><trkpt lat="46.09291199742948" lon="12.816434741498824"><ele>138.0</ele><time>2026-04-18T09:02:17.999Z</time></trkpt><trkpt lat="46.092866495761356" lon="12.816284922487194"><ele>138.0</ele><time>2026-04-18T09:02:18.999Z</time></trkpt><trkpt lat="46.09280951736395" lon="12.816142692389889"><ele>138.0</ele><time>2026-04-18T09:02:19.999Z</time></trkpt><trkpt lat="46.09273426392712" lon="12.816009791567422"><ele>138.0</ele><time>2026-04-18T09:02:20.999Z</time></trkpt><trkpt lat="46.09263904935533" lon="12.81587189759562"><ele>138.0</ele><time>2026-04-18T09:02:21.999Z</time></trkpt><trkpt lat="46.092555645508845" lon="12.815739900942829"><ele>138.0</ele><time>2026-04-18T09:02:22.999Z</time></trkpt><trkpt lat="46.092492369170905" lon="12.815615560783371"><ele>138.0</ele><time>2026-04-18T09:02:23.999Z</time></trkpt><trkpt lat="46.09244982750083" lon="12.815493746221215"><ele>137.4</ele><time>2026-04-18T09:02:24.999Z</time></trkpt><trkpt lat="46.09229583676987" lon="12.815439526185045"><ele>136.8</ele><time>2026-04-18T09:02:25.999Z</time></trkpt><trkpt lat="46.09226190115633" lon="12.815311239567073"><ele>136.2</ele><time>2026-04-18T09:02:26.999Z</time></trkpt><trkpt lat="46.09222984954186" lon="12.815186330207512"><ele>135.6</ele><time>2026-04-18T09:02:27.999Z</time></trkpt><trkpt lat="46.09220510798947" lon="12.815084055848821"><ele>135.0</ele><time>2026-04-18T09:02:28.999Z</time></trkpt><trkpt lat="46.09218384497561" lon="12.814995054265937"><ele>135.0</ele><time>2026-04-18T09:02:29.999Z</time></trkpt><trkpt lat="46.09215128904036" lon="12.81485717689479"><ele>135.0</ele><time>2026-04-18T09:02:31.999Z</time></trkpt><trkpt lat="46.09212707907123" lon="12.814750211915456"><ele>135.0</ele><time>2026-04-18T09:02:35.999Z</time></trkpt><trkpt lat="46.09207403739771" lon="12.814508872775592"><ele>135.0</ele><time>2026-04-18T09:02:45.999Z</time></trkpt><trkpt lat="46.09204410799767" lon="12.814368486894848"><ele>135.0</ele><time>2026-04-18T09:02:47.999Z</time></trkpt><trkpt lat="46.092018011204544" lon="12.81424279270422"><ele>135.0</ele><time>2026-04-18T09:02:50.999Z</time></trkpt><trkpt lat="46.09199525643571" lon="12.814134177693237"><ele>135.0</ele><time>2026-04-18T09:02:52.999Z</time></trkpt><trkpt lat="46.09202176581922" lon="12.814006652673102"><ele>135.0</ele><time>2026-04-18T09:02:55.999Z</time></trkpt><trkpt lat="46.0922490265934" lon="12.813902166081455"><ele>135.0</ele><time>2026-04-18T09:02:56.999Z</time></trkpt><trkpt lat="46.092314917715456" lon="12.81385134444662"><ele>135.0</ele><time>2026-04-18T09:02:58.999Z</time></trkpt><trkpt lat="46.09239760228117" lon="12.813802257143458"><ele>135.0</ele><time>2026-04-18T09:03:00.999Z</time></trkpt><trkpt lat="46.09246967557967" lon="12.813692883490791"><ele>135.0</ele><time>2026-04-18T09:03:02.999Z</time></trkpt><trkpt lat="46.092536072336195" lon="12.813539610554754"><ele>135.0</ele><time>2026-04-18T09:03:04.999Z</time></trkpt><trkpt lat="46.09259244329305" lon="12.813425006580887"><ele>135.33333333333334</ele><time>2026-04-18T09:03:06.999Z</time></trkpt><trkpt lat="46.092636105193954" lon="12.813314938056044"><ele>135.66666666666666</ele><time>2026-04-18T09:03:08.999Z</time></trkpt><trkpt lat="46.09268902972089" lon="12.813196186206564"><ele>136.0</ele><time>2026-04-18T09:03:10.999Z</time></trkpt><trkpt lat="46.092735395685786" lon="12.813123191915484"><ele>136.33333333333331</ele><time>2026-04-18T09:03:54.999Z</time></trkpt><trkpt lat="46.092779000018275" lon="12.81304798794222"><ele>136.66666666666666</ele><time>2026-04-18T09:03:57.999Z</time></trkpt><trkpt lat="46.09282881976959" lon="12.81295261933298"><ele>137.0</ele><time>2026-04-18T09:04:19Z</time></trkpt><trkpt lat="46.09288093183134" lon="12.812831082345925"><ele>137.0</ele><time>2026-04-18T09:04:23Z</time></trkpt><trkpt lat="46.09297493425918" lon="12.812695432006134"><ele>137.0</ele><time>2026-04-18T09:04:25Z</time></trkpt><trkpt lat="46.093021728667225" lon="12.812611594413113"><ele>137.0</ele><time>2026-04-18T09:04:26Z</time></trkpt><trkpt lat="46.09310338813775" lon="12.812456767071943"><ele>137.0</ele><time>2026-04-18T09:04:28Z</time></trkpt><trkpt lat="46.09315325630218" lon="12.812373452826993"><ele>137.0</ele><time>2026-04-18T09:04:29Z</time></trkpt><trkpt lat="46.093197729524356" lon="12.812290118575163"><ele>137.0</ele><time>2026-04-18T09:04:30Z</time></trkpt><trkpt lat="46.09323673835005" lon="12.812214208039496"><ele>137.0</ele><time>2026-04-18T09:04:31Z</time></trkpt><trkpt lat="46.093271485875796" lon="12.812136662872168"><ele>137.0</ele><time>2026-04-18T09:04:32Z</time></trkpt><trkpt lat="46.0933392001917" lon="12.812013840286278"><ele>137.0</ele><time>2026-04-18T09:04:34Z</time></trkpt><trkpt lat="46.09342080041311" lon="12.811888758921526"><ele>137.0</ele><time>2026-04-18T09:04:36Z</time></trkpt><trkpt lat="46.09346784100979" lon="12.811819708993525"><ele>137.0</ele><time>2026-04-18T09:04:37Z</time></trkpt><trkpt lat="46.093513140606916" lon="12.811746592151513"><ele>136.83333333333331</ele><time>2026-04-18T09:04:38Z</time></trkpt><trkpt lat="46.093559637531" lon="12.811671755558075"><ele>136.66666666666666</ele><time>2026-04-18T09:04:39Z</time></trkpt><trkpt lat="46.093614185007475" lon="12.811594904913138"><ele>136.5</ele><time>2026-04-18T09:04:40Z</time></trkpt><trkpt lat="46.09367585009809" lon="12.811516415959698"><ele>136.33333333333334</ele><time>2026-04-18T09:04:41Z</time></trkpt><trkpt lat="46.09374036008246" lon="12.81144158330701"><ele>136.16666666666669</ele><time>2026-04-18T09:04:42Z</time></trkpt><trkpt lat="46.09380293415773" lon="12.811367629197255"><ele>136.0</ele><time>2026-04-18T09:04:43Z</time></trkpt><trkpt lat="46.09385034632267" lon="12.811306670522216"><ele>136.0</ele><time>2026-04-18T09:04:44Z</time></trkpt><trkpt lat="46.093925904859844" lon="12.811204619355475"><ele>136.0</ele><time>2026-04-18T09:04:46Z</time></trkpt><trkpt lat="46.0939911581544" lon="12.811122764526262"><ele>136.0</ele><time>2026-04-18T09:04:48Z</time></trkpt><trkpt lat="46.09404992393622" lon="12.811068073026062"><ele>136.0</ele><time>2026-04-18T09:04:50Z</time></trkpt><trkpt lat="46.094111493904464" lon="12.81099428106631"><ele>136.0</ele><time>2026-04-18T09:04:53Z</time></trkpt><trkpt lat="46.094159222791" lon="12.810859114765485"><ele>136.0</ele><time>2026-04-18T09:04:56Z</time></trkpt><trkpt lat="46.09416375240038" lon="12.810722834660712"><ele>135.8</ele><time>2026-04-18T09:04:58Z</time></trkpt><trkpt lat="46.09415564756541" lon="12.810578453217438"><ele>135.6</ele><time>2026-04-18T09:05:00Z</time></trkpt><trkpt lat="46.09416533834418" lon="12.810473294985446"><ele>135.4</ele><time>2026-04-18T09:05:01Z</time></trkpt><trkpt lat="46.09417796331487" lon="12.810344218513773"><ele>135.2</ele><time>2026-04-18T09:05:02Z</time></trkpt><trkpt lat="46.09419267630677" lon="12.810164870312391"><ele>135.0</ele><time>2026-04-18T09:05:03Z</time></trkpt><trkpt lat="46.09420862718894" lon="12.809940124095975"><ele>135.0</ele><time>2026-04-18T09:05:04Z</time></trkpt><trkpt lat="46.09423133785464" lon="12.80976118555323"><ele>135.0</ele><time>2026-04-18T09:05:05Z</time></trkpt><trkpt lat="46.09425871652847" lon="12.809633755439823"><ele>135.0</ele><time>2026-04-18T09:05:06Z</time></trkpt><trkpt lat="46.094339495076504" lon="12.809503088977651"><ele>135.0</ele><time>2026-04-18T09:05:08Z</time></trkpt><trkpt lat="46.09444223187072" lon="12.809428100355541"><ele>135.0</ele><time>2026-04-18T09:05:10Z</time></trkpt><trkpt lat="46.09456200855197" lon="12.80938433605489"><ele>135.0</ele><time>2026-04-18T09:05:12Z</time></trkpt><trkpt lat="46.094675636553944" lon="12.809347194514645"><ele>135.0</ele><time>2026-04-18T09:05:14Z</time></trkpt><trkpt lat="46.094791403123224" lon="12.809297579290599"><ele>135.0</ele><time>2026-04-18T09:05:16Z</time></trkpt><trkpt lat="46.0948863554395" lon="12.80923221918512"><ele>135.6</ele><time>2026-04-18T09:05:18Z</time></trkpt><trkpt lat="46.094981863137086" lon="12.809167318183434"><ele>136.2</ele><time>2026-04-18T09:05:20Z</time></trkpt><trkpt lat="46.095042484214204" lon="12.80912538487916"><ele>136.8</ele><time>2026-04-18T09:05:21Z</time></trkpt><trkpt lat="46.09510952482837" lon="12.809073438691152"><ele>137.4</ele><time>2026-04-18T09:05:22Z</time></trkpt><trkpt lat="46.09520322828511" lon="12.808979622599983"><ele>138.0</ele><time>2026-04-18T09:05:24Z</time></trkpt><trkpt lat="46.09527178222605" lon="12.808873166527626"><ele>138.0</ele><time>2026-04-18T09:05:26Z</time></trkpt><trkpt lat="46.09530999318133" lon="12.80872674282871"><ele>138.0</ele><time>2026-04-18T09:05:28Z</time></trkpt><trkpt lat="46.09533317669989" lon="12.808613343466748"><ele>138.0</ele><time>2026-04-18T09:05:30Z</time></trkpt><trkpt lat="46.09534528353105" lon="12.808483969957209"><ele>138.0</ele><time>2026-04-18T09:05:32Z</time></trkpt><trkpt lat="46.095349454438136" lon="12.808322599126374"><ele>138.0</ele><time>2026-04-18T09:05:34Z</time></trkpt><trkpt lat="46.095359113492805" lon="12.808157999320748"><ele>137.8</ele><time>2026-04-18T09:05:36Z</time></trkpt><trkpt lat="46.09539041817847" lon="12.808058182420513"><ele>137.60000000000002</ele><time>2026-04-18T09:05:38Z</time></trkpt><trkpt lat="46.09537443274548" lon="12.807829129935854"><ele>137.39999999999998</ele><time>2026-04-18T09:05:40Z</time></trkpt><trkpt lat="46.095398533483824" lon="12.807643267414424"><ele>137.2</ele><time>2026-04-18T09:05:42Z</time></trkpt><trkpt lat="46.09540786167839" lon="12.80755197918153"><ele>137.0</ele><time>2026-04-18T09:05:43Z</time></trkpt><trkpt lat="46.095418593901144" lon="12.8074571204775"><ele>136.79999999999998</ele><time>2026-04-18T09:05:44Z</time></trkpt><trkpt lat="46.09543232922428" lon="12.807295351268678"><ele>136.6</ele><time>2026-04-18T09:05:46Z</time></trkpt><trkpt lat="46.09545320858955" lon="12.80715682443485"><ele>136.39999999999998</ele><time>2026-04-18T09:05:48Z</time></trkpt><trkpt lat="46.09550227771174" lon="12.807041733608921"><ele>136.2</ele><time>2026-04-18T09:05:50Z</time></trkpt><trkpt lat="46.09558186436076" lon="12.806934585943855"><ele>136.0</ele><time>2026-04-18T09:05:52Z</time></trkpt><trkpt lat="46.095662108345756" lon="12.806861031503685"><ele>136.16666666666669</ele><time>2026-04-18T09:05:54Z</time></trkpt><trkpt lat="46.095672366214636" lon="12.80674591069363"><ele>136.33333333333334</ele><time>2026-04-18T09:05:56Z</time></trkpt><trkpt lat="46.09566205841843" lon="12.806651706184603"><ele>136.5</ele><time>2026-04-18T09:05:57Z</time></trkpt><trkpt lat="46.095637157673714" lon="12.80653568728995"><ele>136.66666666666666</ele><time>2026-04-18T09:05:59Z</time></trkpt><trkpt lat="46.09558937188808" lon="12.806458207125681"><ele>136.83333333333331</ele><time>2026-04-18T09:06:01Z</time></trkpt><trkpt lat="46.0955275356097" lon="12.806406686261465"><ele>137.0</ele><time>2026-04-18T09:06:03Z</time></trkpt><trkpt lat="46.09544624822708" lon="12.80638879880611"><ele>137.0</ele><time>2026-04-18T09:06:05Z</time></trkpt><trkpt lat="46.095365744109486" lon="12.806408744017155"><ele>137.0</ele><time>2026-04-18T09:06:07Z</time></trkpt><trkpt lat="46.09528506791974" lon="12.806387245511681"><ele>137.0</ele><time>2026-04-18T09:06:09Z</time></trkpt><trkpt lat="46.09519146408633" lon="12.80628816030502"><ele>137.0</ele><time>2026-04-18T09:06:11Z</time></trkpt><trkpt lat="46.09511207395414" lon="12.806203225553553"><ele>137.0</ele><time>2026-04-18T09:06:13Z</time></trkpt><trkpt lat="46.094992964515086" lon="12.806206456716673"><ele>136.79999999999998</ele><time>2026-04-18T09:06:15Z</time></trkpt><trkpt lat="46.09488251928091" lon="12.806189894841102"><ele>136.6</ele><time>2026-04-18T09:06:17Z</time></trkpt><trkpt lat="46.09476599729766" lon="12.806181464239268"><ele>136.39999999999998</ele><time>2026-04-18T09:06:19Z</time></trkpt><trkpt lat="46.094691887237275" lon="12.806152269638622"><ele>136.2</ele><time>2026-04-18T09:06:21Z</time></trkpt><trkpt lat="46.09462753737025" lon="12.80614171320367"><ele>136.0</ele><time>2026-04-18T09:06:23Z</time></trkpt><trkpt lat="46.0945250293862" lon="12.80615000774257"><ele>136.0</ele><time>2026-04-18T09:06:25Z</time></trkpt><trkpt lat="46.09442793670112" lon="12.80608058441731"><ele>136.0</ele><time>2026-04-18T09:06:27Z</time></trkpt><trkpt lat="46.094326392403055" lon="12.806063065733303"><ele>136.0</ele><time>2026-04-18T09:06:29Z</time></trkpt><trkpt lat="46.094214762438845" lon="12.806078290785926"><ele>136.0</ele><time>2026-04-18T09:06:31Z</time></trkpt><trkpt lat="46.094115179448096" lon="12.806105447574671"><ele>136.0</ele><time>2026-04-18T09:06:33Z</time></trkpt><trkpt lat="46.0940484386233" lon="12.806117300827598"><ele>135.8</ele><time>2026-04-18T09:06:34Z</time></trkpt><trkpt lat="46.09398388498704" lon="12.806103213816593"><ele>135.6</ele><time>2026-04-18T09:06:35Z</time></trkpt><trkpt lat="46.09391451584736" lon="12.806086833819698"><ele>135.4</ele><time>2026-04-18T09:06:36Z</time></trkpt><trkpt lat="46.09380236735731" lon="12.806060532948496"><ele>135.2</ele><time>2026-04-18T09:06:38Z</time></trkpt><trkpt lat="46.093685803543266" lon="12.806011894829203"><ele>135.0</ele><time>2026-04-18T09:06:40Z</time></trkpt><trkpt lat="46.093610722663314" lon="12.805975203053046"><ele>134.83333333333334</ele><time>2026-04-18T09:06:41Z</time></trkpt><trkpt lat="46.09354476096328" lon="12.80593400425418"><ele>134.66666666666666</ele><time>2026-04-18T09:06:42Z</time></trkpt><trkpt lat="46.09347289709737" lon="12.80589293094637"><ele>134.5</ele><time>2026-04-18T09:06:43Z</time></trkpt><trkpt lat="46.093402106442824" lon="12.805868966075613"><ele>134.33333333333331</ele><time>2026-04-18T09:06:44Z</time></trkpt><trkpt lat="46.093285353405015" lon="12.805835443453729"><ele>134.16666666666666</ele><time>2026-04-18T09:06:46Z</time></trkpt><trkpt lat="46.09321606546584" lon="12.805808504699547"><ele>134.0</ele><time>2026-04-18T09:06:47Z</time></trkpt><trkpt lat="46.09314250221306" lon="12.805782119101298"><ele>134.0</ele><time>2026-04-18T09:06:48Z</time></trkpt><trkpt lat="46.09307026414105" lon="12.805767664685321"><ele>134.0</ele><time>2026-04-18T09:06:49Z</time></trkpt><trkpt lat="46.09298513050796" lon="12.805749640413103"><ele>134.0</ele><time>2026-04-18T09:06:50Z</time></trkpt><trkpt lat="46.0929019271102" lon="12.805724291692481"><ele>134.0</ele><time>2026-04-18T09:06:51Z</time></trkpt><trkpt lat="46.0928135777414" lon="12.805695896073814"><ele>134.0</ele><time>2026-04-18T09:06:52Z</time></trkpt><trkpt lat="46.09272514586895" lon="12.805657489732493"><ele>134.0</ele><time>2026-04-18T09:06:53Z</time></trkpt><trkpt lat="46.09263488070361" lon="12.805610457541958"><ele>134.0</ele><time>2026-04-18T09:06:54Z</time></trkpt><trkpt lat="46.0925446678088" lon="12.80556246814133"><ele>134.0</ele><time>2026-04-18T09:06:55Z</time></trkpt><trkpt lat="46.09244841233679" lon="12.805536066788003"><ele>134.0</ele><time>2026-04-18T09:06:56Z</time></trkpt><trkpt lat="46.092368557862635" lon="12.80550327617984"><ele>134.0</ele><time>2026-04-18T09:06:57Z</time></trkpt><trkpt lat="46.092300955943266" lon="12.805492716351369"><ele>134.0</ele><time>2026-04-18T09:06:58Z</time></trkpt><trkpt lat="46.09218807849787" lon="12.80548463295689"><ele>134.0</ele><time>2026-04-18T09:07:00Z</time></trkpt><trkpt lat="46.092096544085116" lon="12.805497733991022"><ele>134.0</ele><time>2026-04-18T09:07:02Z</time></trkpt><trkpt lat="46.092056678915206" lon="12.805585884043815"><ele>134.0</ele><time>2026-04-18T09:07:04Z</time></trkpt><trkpt lat="46.09199385358688" lon="12.805578527104228"><ele>134.0</ele><time>2026-04-18T09:07:05Z</time></trkpt><trkpt lat="46.09192261642734" lon="12.805670965113848"><ele>134.0</ele><time>2026-04-18T09:07:07Z</time></trkpt><trkpt lat="46.09189067065772" lon="12.80579232311371"><ele>134.0</ele><time>2026-04-18T09:07:09Z</time></trkpt><trkpt lat="46.09188056861894" lon="12.805882766525992"><ele>134.0</ele><time>2026-04-18T09:07:10Z</time></trkpt><trkpt lat="46.09186837385892" lon="12.805978888009058"><ele>134.0</ele><time>2026-04-18T09:07:11Z</time></trkpt><trkpt lat="46.09185374214566" lon="12.80608039886059"><ele>134.0</ele><time>2026-04-18T09:07:12Z</time></trkpt><trkpt lat="46.09173879873763" lon="12.80614094740725"><ele>134.0</ele><time>2026-04-18T09:07:13Z</time></trkpt><trkpt lat="46.09181753282623" lon="12.806306955008685"><ele>134.0</ele><time>2026-04-18T09:07:15Z</time></trkpt><trkpt lat="46.091797443292904" lon="12.806418710720887"><ele>134.0</ele><time>2026-04-18T09:07:17Z</time></trkpt><trkpt lat="46.09176736074097" lon="12.806528245590581"><ele>134.0</ele><time>2026-04-18T09:07:19Z</time></trkpt><trkpt lat="46.091694875860256" lon="12.806585957744709"><ele>134.0</ele><time>2026-04-18T09:07:21Z</time></trkpt><trkpt lat="46.09159652890248" lon="12.8066228369219"><ele>134.0</ele><time>2026-04-18T09:07:23Z</time></trkpt><trkpt lat="46.09149116121398" lon="12.80666287934835"><ele>134.0</ele><time>2026-04-18T09:07:25Z</time></trkpt><trkpt lat="46.091378677462714" lon="12.806678941788325"><ele>133.6</ele><time>2026-04-18T09:07:27Z</time></trkpt><trkpt lat="46.09128132659526" lon="12.806688996263913"><ele>133.2</ele><time>2026-04-18T09:07:29Z</time></trkpt><trkpt lat="46.09119698727588" lon="12.80670970223"><ele>132.79999999999998</ele><time>2026-04-18T09:07:31Z</time></trkpt><trkpt lat="46.09110192553924" lon="12.806722376649628"><ele>132.4</ele><time>2026-04-18T09:07:33Z</time></trkpt><trkpt lat="46.09100226696184" lon="12.806704351195462"><ele>132.0</ele><time>2026-04-18T09:07:35Z</time></trkpt><trkpt lat="46.09088349990615" lon="12.806687481008725"><ele>132.0</ele><time>2026-04-18T09:07:37Z</time></trkpt><trkpt lat="46.09076831313962" lon="12.806595232956889"><ele>132.0</ele><time>2026-04-18T09:07:39Z</time></trkpt><trkpt lat="46.0907016754175" lon="12.806559683364679"><ele>132.0</ele><time>2026-04-18T09:07:40Z</time></trkpt><trkpt lat="46.09064173699485" lon="12.80652230550362"><ele>132.0</ele><time>2026-04-18T09:07:41Z</time></trkpt><trkpt lat="46.09054447293752" lon="12.806450580100755"><ele>132.0</ele><time>2026-04-18T09:07:43Z</time></trkpt><trkpt lat="46.090464019832815" lon="12.806375225170713"><ele>131.79999999999998</ele><time>2026-04-18T09:07:45Z</time></trkpt><trkpt lat="46.090360134137036" lon="12.806319792636634"><ele>131.6</ele><time>2026-04-18T09:07:47Z</time></trkpt><trkpt lat="46.09029816583428" lon="12.806294454299582"><ele>131.39999999999998</ele><time>2026-04-18T09:07:48Z</time></trkpt><trkpt lat="46.090192313105725" lon="12.806257386067157"><ele>131.2</ele><time>2026-04-18T09:07:50Z</time></trkpt><trkpt lat="46.090122176350754" lon="12.806202809639538"><ele>131.0</ele><time>2026-04-18T09:07:52Z</time></trkpt><trkpt lat="46.09005416260955" lon="12.806074841610052"><ele>131.2</ele><time>2026-04-18T09:07:54Z</time></trkpt><trkpt lat="46.089991440341265" lon="12.805904815840323"><ele>131.39999999999998</ele><time>2026-04-18T09:07:56Z</time></trkpt><trkpt lat="46.089952795883654" lon="12.805796105030383"><ele>131.6</ele><time>2026-04-18T09:07:57Z</time></trkpt><trkpt lat="46.08991068732239" lon="12.805685105556849"><ele>131.79999999999998</ele><time>2026-04-18T09:07:58Z</time></trkpt><trkpt lat="46.08986879764339" lon="12.80559206685578"><ele>132.0</ele><time>2026-04-18T09:07:59Z</time></trkpt><trkpt lat="46.089828503036514" lon="12.805499563958634"><ele>131.83333333333334</ele><time>2026-04-18T09:08:00Z</time></trkpt><trkpt lat="46.08978686314721" lon="12.805403723441113"><ele>131.66666666666666</ele><time>2026-04-18T09:08:01Z</time></trkpt><trkpt lat="46.08974848945666" lon="12.805293179093521"><ele>131.5</ele><time>2026-04-18T09:08:02Z</time></trkpt><trkpt lat="46.089709521230304" lon="12.805188250342175"><ele>131.33333333333331</ele><time>2026-04-18T09:08:03Z</time></trkpt><trkpt lat="46.08966344297343" lon="12.805082003647588"><ele>131.16666666666666</ele><time>2026-04-18T09:08:04Z</time></trkpt><trkpt lat="46.08962303024627" lon="12.804971851686892"><ele>131.0</ele><time>2026-04-18T09:08:05Z</time></trkpt><trkpt lat="46.08957282524246" lon="12.804850442187846"><ele>131.0</ele><time>2026-04-18T09:08:06Z</time></trkpt><trkpt lat="46.08953021646371" lon="12.804764917938908"><ele>131.0</ele><time>2026-04-18T09:08:07Z</time></trkpt><trkpt lat="46.08949163739327" lon="12.804674044947248"><ele>131.0</ele><time>2026-04-18T09:08:08Z</time></trkpt><trkpt lat="46.08945105357358" lon="12.804589175117327"><ele>131.0</ele><time>2026-04-18T09:08:09Z</time></trkpt><trkpt lat="46.08940985108481" lon="12.804494010984868"><ele>131.0</ele><time>2026-04-18T09:08:10Z</time></trkpt><trkpt lat="46.08937274774992" lon="12.804411140552649"><ele>131.0</ele><time>2026-04-18T09:08:11Z</time></trkpt><trkpt lat="46.0893077787501" lon="12.804269260090532"><ele>131.16666666666666</ele><time>2026-04-18T09:08:13Z</time></trkpt><trkpt lat="46.08926560885594" lon="12.80415508601724"><ele>131.33333333333331</ele><time>2026-04-18T09:08:14Z</time></trkpt><trkpt lat="46.089217589283344" lon="12.804038387811394"><ele>131.5</ele><time>2026-04-18T09:08:15Z</time></trkpt><trkpt lat="46.08918373981218" lon="12.803936339558748"><ele>131.66666666666666</ele><time>2026-04-18T09:08:16Z</time></trkpt><trkpt lat="46.08915406707003" lon="12.80382607108302"><ele>131.83333333333334</ele><time>2026-04-18T09:08:17Z</time></trkpt><trkpt lat="46.08912877098639" lon="12.803705944377276"><ele>132.0</ele><time>2026-04-18T09:08:18Z</time></trkpt><trkpt lat="46.08910995513826" lon="12.803572963867415"><ele>132.0</ele><time>2026-04-18T09:08:19Z</time></trkpt><trkpt lat="46.08909688404453" lon="12.803434498576468"><ele>132.0</ele><time>2026-04-18T09:08:20Z</time></trkpt><trkpt lat="46.08908213775422" lon="12.80329644457018"><ele>132.0</ele><time>2026-04-18T09:08:21Z</time></trkpt><trkpt lat="46.089069108085546" lon="12.803146409441645"><ele>132.0</ele><time>2026-04-18T09:08:22Z</time></trkpt><trkpt lat="46.0890544927875" lon="12.802994137622244"><ele>132.0</ele><time>2026-04-18T09:08:23Z</time></trkpt><trkpt lat="46.08903584268111" lon="12.802844332295624"><ele>132.0</ele><time>2026-04-18T09:08:24Z</time></trkpt><trkpt lat="46.08901512172799" lon="12.802715674377712"><ele>132.0</ele><time>2026-04-18T09:08:25Z</time></trkpt><trkpt lat="46.088990641824964" lon="12.802581652427037"><ele>132.0</ele><time>2026-04-18T09:08:26Z</time></trkpt><trkpt lat="46.08895966127764" lon="12.802444702002663"><ele>132.0</ele><time>2026-04-18T09:08:27Z</time></trkpt><trkpt lat="46.08891948234605" lon="12.80230485975083"><ele>132.0</ele><time>2026-04-18T09:08:28Z</time></trkpt><trkpt lat="46.08886771873875" lon="12.802173145963357"><ele>131.79999999999998</ele><time>2026-04-18T09:08:29Z</time></trkpt><trkpt lat="46.08881353522877" lon="12.802041782104888"><ele>131.6</ele><time>2026-04-18T09:08:30.001Z</time></trkpt><trkpt lat="46.08876858559052" lon="12.801903975742354"><ele>131.39999999999998</ele><time>2026-04-18T09:08:31.001Z</time></trkpt><trkpt lat="46.088737608206316" lon="12.801754830873504"><ele>131.2</ele><time>2026-04-18T09:08:32.001Z</time></trkpt><trkpt lat="46.088715783574976" lon="12.8016001917772"><ele>131.0</ele><time>2026-04-18T09:08:33.001Z</time></trkpt><trkpt lat="46.08870380535371" lon="12.801447699843298"><ele>130.83333333333331</ele><time>2026-04-18T09:08:34.001Z</time></trkpt><trkpt lat="46.08870057669827" lon="12.801317102181986"><ele>130.66666666666666</ele><time>2026-04-18T09:08:35.001Z</time></trkpt><trkpt lat="46.08871059817431" lon="12.801196428904696"><ele>130.5</ele><time>2026-04-18T09:08:36.001Z</time></trkpt><trkpt lat="46.08870590017754" lon="12.801092615978057"><ele>130.33333333333334</ele><time>2026-04-18T09:08:37.001Z</time></trkpt><trkpt lat="46.08865994477549" lon="12.800937359239521"><ele>130.16666666666669</ele><time>2026-04-18T09:08:39Z</time></trkpt><trkpt lat="46.08862191655338" lon="12.800855059426391"><ele>130.0</ele><time>2026-04-18T09:08:40Z</time></trkpt><trkpt lat="46.0885629192447" lon="12.80075767561292"><ele>130.0</ele><time>2026-04-18T09:08:41Z</time></trkpt><trkpt lat="46.08851242687049" lon="12.800679432556615"><ele>130.0</ele><time>2026-04-18T09:08:42Z</time></trkpt><trkpt lat="46.08847150866825" lon="12.800593478991777"><ele>130.0</ele><time>2026-04-18T09:08:43Z</time></trkpt><trkpt lat="46.08844532793984" lon="12.800481473423588"><ele>130.0</ele><time>2026-04-18T09:08:44Z</time></trkpt><trkpt lat="46.088428857090854" lon="12.800361872634335"><ele>130.0</ele><time>2026-04-18T09:08:45Z</time></trkpt><trkpt lat="46.08841740822161" lon="12.80025110586518"><ele>130.0</ele><time>2026-04-18T09:08:46Z</time></trkpt><trkpt lat="46.08840167288133" lon="12.800144580078372"><ele>130.0</ele><time>2026-04-18T09:08:47Z</time></trkpt><trkpt lat="46.0883841609369" lon="12.80005674286688"><ele>130.0</ele><time>2026-04-18T09:08:48Z</time></trkpt><trkpt lat="46.08835713395024" lon="12.799913502853467"><ele>130.0</ele><time>2026-04-18T09:08:50Z</time></trkpt><trkpt lat="46.08833746702747" lon="12.799826107988556"><ele>130.0</ele><time>2026-04-18T09:08:51Z</time></trkpt><trkpt lat="46.08828908725375" lon="12.799684857236505"><ele>130.0</ele><time>2026-04-18T09:08:53Z</time></trkpt><trkpt lat="46.088258918628334" lon="12.799599250342245"><ele>130.0</ele><time>2026-04-18T09:08:54Z</time></trkpt><trkpt lat="46.08823944215046" lon="12.79950015976067"><ele>130.16666666666669</ele><time>2026-04-18T09:08:55Z</time></trkpt><trkpt lat="46.08822758016495" lon="12.799399801767738"><ele>130.33333333333334</ele><time>2026-04-18T09:08:56Z</time></trkpt><trkpt lat="46.088212188329614" lon="12.799302863239493"><ele>130.5</ele><time>2026-04-18T09:08:57Z</time></trkpt><trkpt lat="46.088189995168214" lon="12.79920059630247"><ele>130.66666666666666</ele><time>2026-04-18T09:08:58Z</time></trkpt><trkpt lat="46.088157232918256" lon="12.799097325134372"><ele>130.83333333333331</ele><time>2026-04-18T09:08:59Z</time></trkpt><trkpt lat="46.088123553067355" lon="12.79899536549798"><ele>131.0</ele><time>2026-04-18T09:09:00Z</time></trkpt><trkpt lat="46.08808599085354" lon="12.798879801441014"><ele>130.66666666666666</ele><time>2026-04-18T09:09:01Z</time></trkpt><trkpt lat="46.08804868244266" lon="12.798771940154031"><ele>130.33333333333331</ele><time>2026-04-18T09:09:02Z</time></trkpt><trkpt lat="46.08800612982401" lon="12.798664783152226"><ele>130.0</ele><time>2026-04-18T09:09:03Z</time></trkpt><trkpt lat="46.08795141728441" lon="12.798575145873912"><ele>129.66666666666666</ele><time>2026-04-18T09:09:04Z</time></trkpt><trkpt lat="46.08788986103137" lon="12.798501508730977"><ele>129.33333333333334</ele><time>2026-04-18T09:09:05Z</time></trkpt><trkpt lat="46.087831560060195" lon="12.798440083986126"><ele>129.0</ele><time>2026-04-18T09:09:06Z</time></trkpt><trkpt lat="46.08776817105874" lon="12.798398757153933"><ele>128.85714285714283</ele><time>2026-04-18T09:09:07Z</time></trkpt><trkpt lat="46.08770389396151" lon="12.798382933308341"><ele>128.71428571428572</ele><time>2026-04-18T09:09:08Z</time></trkpt><trkpt lat="46.08763242072497" lon="12.798384136868906"><ele>128.57142857142856</ele><time>2026-04-18T09:09:09Z</time></trkpt><trkpt lat="46.08755440247472" lon="12.798388493742573"><ele>128.42857142857142</ele><time>2026-04-18T09:09:10Z</time></trkpt><trkpt lat="46.08748337890728" lon="12.798378823677902"><ele>128.28571428571428</ele><time>2026-04-18T09:09:11Z</time></trkpt><trkpt lat="46.08741446507289" lon="12.798354160289046"><ele>128.14285714285714</ele><time>2026-04-18T09:09:12Z</time></trkpt><trkpt lat="46.08735435628783" lon="12.798308296875105"><ele>128.0</ele><time>2026-04-18T09:09:13Z</time></trkpt><trkpt lat="46.08730172627891" lon="12.798244891992907"><ele>128.0</ele><time>2026-04-18T09:09:14Z</time></trkpt><trkpt lat="46.087253014935236" lon="12.798165179588956"><ele>128.0</ele><time>2026-04-18T09:09:15Z</time></trkpt><trkpt lat="46.087200244067006" lon="12.798061827062803"><ele>128.0</ele><time>2026-04-18T09:09:16Z</time></trkpt><trkpt lat="46.08715099455355" lon="12.797943494657718"><ele>128.0</ele><time>2026-04-18T09:09:17Z</time></trkpt><trkpt lat="46.087094713351014" lon="12.79781748080819"><ele>128.0</ele><time>2026-04-18T09:09:18Z</time></trkpt><trkpt lat="46.08703231972983" lon="12.797703969593705"><ele>127.60000000000001</ele><time>2026-04-18T09:09:19Z</time></trkpt><trkpt lat="46.086955519693305" lon="12.797600782801092"><ele>127.20000000000002</ele><time>2026-04-18T09:09:20Z</time></trkpt><trkpt lat="46.08687487165649" lon="12.797509949587623"><ele>126.8</ele><time>2026-04-18T09:09:21Z</time></trkpt><trkpt lat="46.0867941919964" lon="12.797418574900997"><ele>126.4</ele><time>2026-04-18T09:09:22Z</time></trkpt><trkpt lat="46.086717959319536" lon="12.797314753637345"><ele>126.0</ele><time>2026-04-18T09:09:23Z</time></trkpt><trkpt lat="46.08663739680626" lon="12.797215794508757"><ele>125.8</ele><time>2026-04-18T09:09:24Z</time></trkpt><trkpt lat="46.08653677741029" lon="12.797129346375483"><ele>125.6</ele><time>2026-04-18T09:09:25Z</time></trkpt><trkpt lat="46.08642548069976" lon="12.797056977922884"><ele>125.4</ele><time>2026-04-18T09:09:26Z</time></trkpt><trkpt lat="46.08632340967989" lon="12.797008197816245"><ele>125.2</ele><time>2026-04-18T09:09:27Z</time></trkpt><trkpt lat="46.08622567908333" lon="12.796972165123302"><ele>125.0</ele><time>2026-04-18T09:09:28Z</time></trkpt><trkpt lat="46.08613782057479" lon="12.796943617560611"><ele>124.99999999999999</ele><time>2026-04-18T09:09:29Z</time></trkpt><trkpt lat="46.08605693244448" lon="12.796924494035245"><ele>125.0</ele><time>2026-04-18T09:09:30Z</time></trkpt><trkpt lat="46.085977783112554" lon="12.796929623098025"><ele>125.0</ele><time>2026-04-18T09:09:31Z</time></trkpt><trkpt lat="46.085908468117616" lon="12.796958914906467"><ele>125.0</ele><time>2026-04-18T09:09:32Z</time></trkpt><trkpt lat="46.085851577668215" lon="12.797016061522813"><ele>124.99999999999999</ele><time>2026-04-18T09:09:33Z</time></trkpt><trkpt lat="46.0857883452884" lon="12.797098443597008"><ele>125.0</ele><time>2026-04-18T09:09:34Z</time></trkpt><trkpt lat="46.08572866537461" lon="12.797176137559573"><ele>125.0</ele><time>2026-04-18T09:09:35Z</time></trkpt><trkpt lat="46.085678725608425" lon="12.79726483064278"><ele>125.0</ele><time>2026-04-18T09:09:36Z</time></trkpt><trkpt lat="46.085637794513524" lon="12.797359952652815"><ele>125.0</ele><time>2026-04-18T09:09:37Z</time></trkpt><trkpt lat="46.085606460550366" lon="12.797453223849125"><ele>125.0</ele><time>2026-04-18T09:09:38Z</time></trkpt><trkpt lat="46.08557576890339" lon="12.797538415933886"><ele>125.0</ele><time>2026-04-18T09:09:39Z</time></trkpt><trkpt lat="46.085525274821464" lon="12.797618088162942"><ele>125.0</ele><time>2026-04-18T09:09:40Z</time></trkpt><trkpt lat="46.08545817820012" lon="12.7976635126965"><ele>125.0</ele><time>2026-04-18T09:09:41Z</time></trkpt><trkpt lat="46.08539898430905" lon="12.797715183221362"><ele>125.28571428571428</ele><time>2026-04-18T09:09:42Z</time></trkpt><trkpt lat="46.08534244395711" lon="12.797763550566447"><ele>125.57142857142858</ele><time>2026-04-18T09:09:43Z</time></trkpt><trkpt lat="46.08527663042655" lon="12.797805436780267"><ele>125.85714285714286</ele><time>2026-04-18T09:09:44Z</time></trkpt><trkpt lat="46.08521391243952" lon="12.797850521035993"><ele>126.14285714285714</ele><time>2026-04-18T09:09:45Z</time></trkpt><trkpt lat="46.085158062993166" lon="12.797898566169334"><ele>126.42857142857142</ele><time>2026-04-18T09:09:46Z</time></trkpt><trkpt lat="46.085078989287915" lon="12.797937410272931"><ele>126.71428571428572</ele><time>2026-04-18T09:09:47Z</time></trkpt><trkpt lat="46.08501128499836" lon="12.79798139011368"><ele>127.0</ele><time>2026-04-18T09:09:48Z</time></trkpt><trkpt lat="46.08495300703791" lon="12.798040186423712"><ele>126.66666666666667</ele><time>2026-04-18T09:09:49Z</time></trkpt><trkpt lat="46.0849000348194" lon="12.798122834501783"><ele>126.33333333333334</ele><time>2026-04-18T09:09:50Z</time></trkpt><trkpt lat="46.084862749047446" lon="12.798207066158094"><ele>126.0</ele><time>2026-04-18T09:09:51Z</time></trkpt><trkpt lat="46.08482112741592" lon="12.798300818421787"><ele>125.66666666666666</ele><time>2026-04-18T09:09:52Z</time></trkpt><trkpt lat="46.0847598768016" lon="12.798378333559922"><ele>125.33333333333333</ele><time>2026-04-18T09:09:53Z</time></trkpt><trkpt lat="46.08469095596895" lon="12.798443833664166"><ele>125.0</ele><time>2026-04-18T09:09:54Z</time></trkpt><trkpt lat="46.084625579369316" lon="12.798467421329478"><ele>125.2</ele><time>2026-04-18T09:09:55Z</time></trkpt><trkpt lat="46.08449395094272" lon="12.798506279548917"><ele>125.4</ele><time>2026-04-18T09:09:57Z</time></trkpt><trkpt lat="46.084412441829386" lon="12.79851802012595"><ele>125.6</ele><time>2026-04-18T09:09:58Z</time></trkpt><trkpt lat="46.084325223687266" lon="12.79852340704411"><ele>125.8</ele><time>2026-04-18T09:09:59Z</time></trkpt><trkpt lat="46.08423629314316" lon="12.798522377145284"><ele>126.0</ele><time>2026-04-18T09:10:00Z</time></trkpt><trkpt lat="46.08414387605572" lon="12.798515097637775"><ele>126.0</ele><time>2026-04-18T09:10:01Z</time></trkpt><trkpt lat="46.084051123069905" lon="12.798510124615376"><ele>126.0</ele><time>2026-04-18T09:10:02Z</time></trkpt><trkpt lat="46.08395926725653" lon="12.798502077493401"><ele>126.0</ele><time>2026-04-18T09:10:03Z</time></trkpt><trkpt lat="46.083868553533534" lon="12.798496485511626"><ele>126.0</ele><time>2026-04-18T09:10:04Z</time></trkpt><trkpt lat="46.08377447212924" lon="12.798485631090506"><ele>126.0</ele><time>2026-04-18T09:10:05Z</time></trkpt><trkpt lat="46.08367415555824" lon="12.798468886803018"><ele>125.83333333333333</ele><time>2026-04-18T09:10:06Z</time></trkpt><trkpt lat="46.08358337130633" lon="12.798451279082965"><ele>125.66666666666666</ele><time>2026-04-18T09:10:07Z</time></trkpt><trkpt lat="46.08350284081592" lon="12.798440725338553"><ele>125.5</ele><time>2026-04-18T09:10:08Z</time></trkpt><trkpt lat="46.083416143805096" lon="12.798424461511429"><ele>125.33333333333333</ele><time>2026-04-18T09:10:09Z</time></trkpt><trkpt lat="46.08333450232507" lon="12.79840819186519"><ele>125.16666666666666</ele><time>2026-04-18T09:10:10Z</time></trkpt><trkpt lat="46.08326157133551" lon="12.798390987541557"><ele>125.0</ele><time>2026-04-18T09:10:11Z</time></trkpt><trkpt lat="46.08319156513127" lon="12.798368237340826"><ele>124.99999999999999</ele><time>2026-04-18T09:10:12Z</time></trkpt><trkpt lat="46.083079919516486" lon="12.79832577278587"><ele>125.0</ele><time>2026-04-18T09:10:14Z</time></trkpt><trkpt lat="46.0829910406283" lon="12.798298067712048"><ele>125.0</ele><time>2026-04-18T09:10:16Z</time></trkpt><trkpt lat="46.082923215222856" lon="12.798249129395609"><ele>125.0</ele><time>2026-04-18T09:10:19Z</time></trkpt><trkpt lat="46.082849850183734" lon="12.798177347314276"><ele>124.99999999999999</ele><time>2026-04-18T09:10:26Z</time></trkpt><trkpt lat="46.08278623620489" lon="12.798127327296983"><ele>125.0</ele><time>2026-04-18T09:10:27Z</time></trkpt><trkpt lat="46.08271518786339" lon="12.798051450023834"><ele>125.0</ele><time>2026-04-18T09:10:28Z</time></trkpt><trkpt lat="46.08264545057042" lon="12.797960871105717"><ele>125.0</ele><time>2026-04-18T09:10:29Z</time></trkpt><trkpt lat="46.082558604509245" lon="12.79787017721143"><ele>125.0</ele><time>2026-04-18T09:10:30Z</time></trkpt><trkpt lat="46.082471944161455" lon="12.797772363009818"><ele>125.0</ele><time>2026-04-18T09:10:31Z</time></trkpt><trkpt lat="46.08238431124679" lon="12.797685546708248"><ele>125.0</ele><time>2026-04-18T09:10:32Z</time></trkpt><trkpt lat="46.08230939814869" lon="12.797607263881309"><ele>124.8</ele><time>2026-04-18T09:10:33Z</time></trkpt><trkpt lat="46.08223135029347" lon="12.797520100403094"><ele>124.6</ele><time>2026-04-18T09:10:34Z</time></trkpt><trkpt lat="46.08215147200234" lon="12.797435091703871"><ele>124.4</ele><time>2026-04-18T09:10:35Z</time></trkpt><trkpt lat="46.08207532472106" lon="12.797346950485089"><ele>124.2</ele><time>2026-04-18T09:10:36.001Z</time></trkpt><trkpt lat="46.0820025728108" lon="12.797267575479951"><ele>124.0</ele><time>2026-04-18T09:10:37.001Z</time></trkpt><trkpt lat="46.08193154895206" lon="12.797191363786407"><ele>124.00000000000001</ele><time>2026-04-18T09:10:38.001Z</time></trkpt><trkpt lat="46.08185772687858" lon="12.797118058889268"><ele>124.0</ele><time>2026-04-18T09:10:39.001Z</time></trkpt><trkpt lat="46.081788326449264" lon="12.797049261699785"><ele>124.0</ele><time>2026-04-18T09:10:40.001Z</time></trkpt><trkpt lat="46.081718338507" lon="12.79697361250997"><ele>124.0</ele><time>2026-04-18T09:10:41.001Z</time></trkpt><trkpt lat="46.08165290392112" lon="12.796896076361946"><ele>124.00000000000001</ele><time>2026-04-18T09:10:42.001Z</time></trkpt><trkpt lat="46.08158898322567" lon="12.796814733963652"><ele>124.0</ele><time>2026-04-18T09:10:43.001Z</time></trkpt><trkpt lat="46.081523293580894" lon="12.796736671598644"><ele>123.83333333333334</ele><time>2026-04-18T09:10:44.001Z</time></trkpt><trkpt lat="46.08145122221759" lon="12.796670701027244"><ele>123.66666666666667</ele><time>2026-04-18T09:10:45.001Z</time></trkpt><trkpt lat="46.081388831885164" lon="12.79661126207501"><ele>123.5</ele><time>2026-04-18T09:10:46.001Z</time></trkpt><trkpt lat="46.081331512771335" lon="12.796563395611935"><ele>123.33333333333334</ele><time>2026-04-18T09:10:47.001Z</time></trkpt><trkpt lat="46.08126239905789" lon="12.79652194047489"><ele>123.16666666666667</ele><time>2026-04-18T09:10:48.001Z</time></trkpt><trkpt lat="46.08118218427914" lon="12.796480564553805"><ele>123.0</ele><time>2026-04-18T09:10:49.001Z</time></trkpt><trkpt lat="46.081100888172294" lon="12.79646630003948"><ele>123.0</ele><time>2026-04-18T09:10:50.001Z</time></trkpt><trkpt lat="46.08101018768307" lon="12.796459847834702"><ele>123.00000000000001</ele><time>2026-04-18T09:10:51.001Z</time></trkpt><trkpt lat="46.08090982100282" lon="12.796449739553871"><ele>123.00000000000001</ele><time>2026-04-18T09:10:52.001Z</time></trkpt><trkpt lat="46.080814533255456" lon="12.796422431921535"><ele>123.0</ele><time>2026-04-18T09:10:53.001Z</time></trkpt><trkpt lat="46.08071444427598" lon="12.796380918915755"><ele>123.0</ele><time>2026-04-18T09:10:54.001Z</time></trkpt><trkpt lat="46.080612182902165" lon="12.796332942093537"><ele>122.80000000000001</ele><time>2026-04-18T09:10:55.001Z</time></trkpt><trkpt lat="46.080509543892646" lon="12.796286037940256"><ele>122.60000000000001</ele><time>2026-04-18T09:10:56.001Z</time></trkpt><trkpt lat="46.08040058585121" lon="12.796240597199933"><ele>122.39999999999999</ele><time>2026-04-18T09:10:57.001Z</time></trkpt><trkpt lat="46.080294804763994" lon="12.796195431863572"><ele>122.19999999999999</ele><time>2026-04-18T09:10:58.001Z</time></trkpt><trkpt lat="46.08019430779988" lon="12.796160532896597"><ele>122.0</ele><time>2026-04-18T09:10:59.001Z</time></trkpt><trkpt lat="46.080090150719634" lon="12.796131969492627"><ele>122.0</ele><time>2026-04-18T09:11:00.001Z</time></trkpt><trkpt lat="46.07998973574081" lon="12.796097836511471"><ele>121.99999999999999</ele><time>2026-04-18T09:11:01.001Z</time></trkpt><trkpt lat="46.07988983198423" lon="12.796057829505976"><ele>121.99999999999999</ele><time>2026-04-18T09:11:02.001Z</time></trkpt><trkpt lat="46.07979093429381" lon="12.796016880962087"><ele>122.0</ele><time>2026-04-18T09:11:03.001Z</time></trkpt><trkpt lat="46.07969916473961" lon="12.795976366765213"><ele>122.0</ele><time>2026-04-18T09:11:04.001Z</time></trkpt><trkpt lat="46.079609649600606" lon="12.795928427407134"><ele>121.8</ele><time>2026-04-18T09:11:05.001Z</time></trkpt><trkpt lat="46.07951824210884" lon="12.795884098453827"><ele>121.6</ele><time>2026-04-18T09:11:06.001Z</time></trkpt><trkpt lat="46.07942364341569" lon="12.795832671055173"><ele>121.39999999999999</ele><time>2026-04-18T09:11:07.001Z</time></trkpt><trkpt lat="46.079325044038946" lon="12.795783836717662"><ele>121.19999999999999</ele><time>2026-04-18T09:11:08.001Z</time></trkpt><trkpt lat="46.07922540274009" lon="12.795734386746085"><ele>121.0</ele><time>2026-04-18T09:11:09.001Z</time></trkpt><trkpt lat="46.07912134409683" lon="12.795684163247008"><ele>121.0</ele><time>2026-04-18T09:11:10.001Z</time></trkpt><trkpt lat="46.07902088858517" lon="12.795626306069364"><ele>121.0</ele><time>2026-04-18T09:11:11.001Z</time></trkpt><trkpt lat="46.07892291095437" lon="12.795566941837851"><ele>121.0</ele><time>2026-04-18T09:11:12.001Z</time></trkpt><trkpt lat="46.07882573081771" lon="12.795495661401135"><ele>121.0</ele><time>2026-04-18T09:11:13.001Z</time></trkpt><trkpt lat="46.078725378666" lon="12.795415832038573"><ele>121.0</ele><time>2026-04-18T09:11:14.001Z</time></trkpt><trkpt lat="46.07862310655425" lon="12.795338379186715"><ele>121.0</ele><time>2026-04-18T09:11:15Z</time></trkpt><trkpt lat="46.078528007053286" lon="12.795255808536186"><ele>121.0</ele><time>2026-04-18T09:11:16Z</time></trkpt><trkpt lat="46.078435511344644" lon="12.79515008812506"><ele>121.0</ele><time>2026-04-18T09:11:17Z</time></trkpt><trkpt lat="46.078356681821354" lon="12.795052492077538"><ele>121.0</ele><time>2026-04-18T09:11:18Z</time></trkpt><trkpt lat="46.07828932120475" lon="12.794962119985893"><ele>121.0</ele><time>2026-04-18T09:11:19Z</time></trkpt><trkpt lat="46.078219570706445" lon="12.794877982688602"><ele>120.66666666666667</ele><time>2026-04-18T09:11:20Z</time></trkpt><trkpt lat="46.07815328448482" lon="12.794805223975422"><ele>120.33333333333334</ele><time>2026-04-18T09:11:21Z</time></trkpt><trkpt lat="46.07808716817795" lon="12.794745246771095"><ele>120.0</ele><time>2026-04-18T09:11:22Z</time></trkpt><trkpt lat="46.07802227422661" lon="12.794695467802493"><ele>119.66666666666666</ele><time>2026-04-18T09:11:23Z</time></trkpt><trkpt lat="46.077957687467446" lon="12.794644372715538"><ele>119.33333333333333</ele><time>2026-04-18T09:11:24Z</time></trkpt><trkpt lat="46.07788585447949" lon="12.794590110896431"><ele>119.0</ele><time>2026-04-18T09:11:25Z</time></trkpt><trkpt lat="46.077807024785734" lon="12.794540062945707"><ele>118.99999999999999</ele><time>2026-04-18T09:11:26Z</time></trkpt><trkpt lat="46.077737935436566" lon="12.794528422176306"><ele>119.0</ele><time>2026-04-18T09:11:27Z</time></trkpt><trkpt lat="46.077654729759615" lon="12.794551500630295"><ele>119.0</ele><time>2026-04-18T09:11:28Z</time></trkpt><trkpt lat="46.0775749636558" lon="12.79460308895629"><ele>119.0</ele><time>2026-04-18T09:11:29Z</time></trkpt><trkpt lat="46.07750480621206" lon="12.79463339867949"><ele>118.99999999999999</ele><time>2026-04-18T09:11:30Z</time></trkpt><trkpt lat="46.07742286112776" lon="12.794638618019137"><ele>119.0</ele><time>2026-04-18T09:11:31Z</time></trkpt><trkpt lat="46.077323220921194" lon="12.794636069990815"><ele>118.5</ele><time>2026-04-18T09:11:32Z</time></trkpt><trkpt lat="46.077218547885394" lon="12.794626501722687"><ele>118.0</ele><time>2026-04-18T09:11:33Z</time></trkpt><trkpt lat="46.077106055790416" lon="12.794617259528419"><ele>117.5</ele><time>2026-04-18T09:11:34Z</time></trkpt><trkpt lat="46.07699251520551" lon="12.794592128178198"><ele>117.0</ele><time>2026-04-18T09:11:35Z</time></trkpt><trkpt lat="46.0768843644601" lon="12.794523986456477"><ele>117.0</ele><time>2026-04-18T09:11:36Z</time></trkpt><trkpt lat="46.076770836203124" lon="12.794445682415125"><ele>117.0</ele><time>2026-04-18T09:11:37Z</time></trkpt><trkpt lat="46.07666450140093" lon="12.794351742488557"><ele>117.0</ele><time>2026-04-18T09:11:38Z</time></trkpt><trkpt lat="46.07656888235024" lon="12.794294752748264"><ele>117.0</ele><time>2026-04-18T09:11:39Z</time></trkpt><trkpt lat="46.07646803871311" lon="12.794227523723311"><ele>117.0</ele><time>2026-04-18T09:11:40Z</time></trkpt><trkpt lat="46.07635989908672" lon="12.794164930715159"><ele>117.0</ele><time>2026-04-18T09:11:41Z</time></trkpt><trkpt lat="46.07624571444808" lon="12.794117176880079"><ele>117.0</ele><time>2026-04-18T09:11:42Z</time></trkpt><trkpt lat="46.07612686379801" lon="12.794077831761303"><ele>117.0</ele><time>2026-04-18T09:11:43Z</time></trkpt><trkpt lat="46.0760083547869" lon="12.794035502442965"><ele>117.0</ele><time>2026-04-18T09:11:44Z</time></trkpt><trkpt lat="46.07588825039858" lon="12.79399043968941"><ele>117.0</ele><time>2026-04-18T09:11:45Z</time></trkpt><trkpt lat="46.07576565172088" lon="12.79393693629904"><ele>117.0</ele><time>2026-04-18T09:11:46Z</time></trkpt><trkpt lat="46.07564199118261" lon="12.793882519679096"><ele>117.0</ele><time>2026-04-18T09:11:47Z</time></trkpt><trkpt lat="46.075514483790045" lon="12.793838910239518"><ele>117.25</ele><time>2026-04-18T09:11:48Z</time></trkpt><trkpt lat="46.075381080932786" lon="12.793796623294773"><ele>117.5</ele><time>2026-04-18T09:11:49Z</time></trkpt><trkpt lat="46.07525174450318" lon="12.79375099105248"><ele>117.75</ele><time>2026-04-18T09:11:50Z</time></trkpt><trkpt lat="46.07512758408404" lon="12.793718303481224"><ele>118.0</ele><time>2026-04-18T09:11:51Z</time></trkpt><trkpt lat="46.07499333952505" lon="12.793703700755396"><ele>117.75</ele><time>2026-04-18T09:11:52Z</time></trkpt><trkpt lat="46.07487106656428" lon="12.79369365832602"><ele>117.5</ele><time>2026-04-18T09:11:53Z</time></trkpt><trkpt lat="46.07476123335804" lon="12.793687845899917"><ele>117.25</ele><time>2026-04-18T09:11:54Z</time></trkpt><trkpt lat="46.07465053961297" lon="12.793685155753519"><ele>117.0</ele><time>2026-04-18T09:11:55Z</time></trkpt><trkpt lat="46.07454078395147" lon="12.79367693587319"><ele>117.0</ele><time>2026-04-18T09:11:56Z</time></trkpt><trkpt lat="46.0744262507651" lon="12.793668117090585"><ele>116.99999999999999</ele><time>2026-04-18T09:11:57Z</time></trkpt><trkpt lat="46.07431236267943" lon="12.79364987719057"><ele>116.99999999999999</ele><time>2026-04-18T09:11:58Z</time></trkpt><trkpt lat="46.07420252333666" lon="12.793623023268465"><ele>117.0</ele><time>2026-04-18T09:11:59Z</time></trkpt><trkpt lat="46.07409903035101" lon="12.793587766712555"><ele>117.0</ele><time>2026-04-18T09:12:00Z</time></trkpt><trkpt lat="46.07400426314497" lon="12.7935429935886"><ele>116.5</ele><time>2026-04-18T09:12:01Z</time></trkpt><trkpt lat="46.07390503704669" lon="12.793492601407896"><ele>116.0</ele><time>2026-04-18T09:12:02Z</time></trkpt><trkpt lat="46.073816860351606" lon="12.793434610854044"><ele>115.5</ele><time>2026-04-18T09:12:03Z</time></trkpt><trkpt lat="46.07374251254935" lon="12.793384481581555"><ele>115.0</ele><time>2026-04-18T09:12:04Z</time></trkpt><trkpt lat="46.073672990787905" lon="12.793337402981926"><ele>114.5</ele><time>2026-04-18T09:12:05Z</time></trkpt><trkpt lat="46.07360269273784" lon="12.79328660419431"><ele>114.0</ele><time>2026-04-18T09:12:06Z</time></trkpt><trkpt lat="46.0735349319219" lon="12.793203382706782"><ele>114.0</ele><time>2026-04-18T09:12:07Z</time></trkpt><trkpt lat="46.07348204147665" lon="12.793099028809578"><ele>114.0</ele><time>2026-04-18T09:12:08Z</time></trkpt><trkpt lat="46.07343362830571" lon="12.792975232281387"><ele>114.0</ele><time>2026-04-18T09:12:09Z</time></trkpt><trkpt lat="46.07338210893003" lon="12.792857033225735"><ele>114.0</ele><time>2026-04-18T09:12:09.999Z</time></trkpt><trkpt lat="46.07332340089751" lon="12.792751837820532"><ele>114.0</ele><time>2026-04-18T09:12:10.999Z</time></trkpt><trkpt lat="46.073263444110474" lon="12.792661395038492"><ele>114.2</ele><time>2026-04-18T09:12:11.999Z</time></trkpt><trkpt lat="46.07319447996554" lon="12.79258529185898"><ele>114.4</ele><time>2026-04-18T09:12:12.999Z</time></trkpt><trkpt lat="46.07311644742984" lon="12.792520260471287"><ele>114.6</ele><time>2026-04-18T09:12:13.999Z</time></trkpt><trkpt lat="46.073029666186414" lon="12.792471693364906"><ele>114.8</ele><time>2026-04-18T09:12:14.999Z</time></trkpt><trkpt lat="46.072935269323686" lon="12.7924298083827"><ele>115.0</ele><time>2026-04-18T09:12:15.999Z</time></trkpt><trkpt lat="46.07283679713732" lon="12.792390773603657"><ele>115.00000000000001</ele><time>2026-04-18T09:12:16.999Z</time></trkpt><trkpt lat="46.072750225212985" lon="12.792354295756772"><ele>115.0</ele><time>2026-04-18T09:12:17.999Z</time></trkpt><trkpt lat="46.07267090421805" lon="12.792330302975698"><ele>115.0</ele><time>2026-04-18T09:12:18.999Z</time></trkpt><trkpt lat="46.07260107984629" lon="12.792326450377175"><ele>115.0</ele><time>2026-04-18T09:12:19.999Z</time></trkpt><trkpt lat="46.07252751522932" lon="12.792317524530235"><ele>115.00000000000001</ele><time>2026-04-18T09:12:20.999Z</time></trkpt><trkpt lat="46.07246174421135" lon="12.792292443765106"><ele>115.0</ele><time>2026-04-18T09:12:21.999Z</time></trkpt><trkpt lat="46.07239408042009" lon="12.792248962353229"><ele>115.00000000000001</ele><time>2026-04-18T09:12:22.999Z</time></trkpt><trkpt lat="46.0723386005078" lon="12.792186754135548"><ele>115.0</ele><time>2026-04-18T09:12:23.999Z</time></trkpt><trkpt lat="46.07229829222559" lon="12.792113261151046"><ele>115.0</ele><time>2026-04-18T09:12:24.999Z</time></trkpt><trkpt lat="46.07227027325216" lon="12.792006291538168"><ele>115.0</ele><time>2026-04-18T09:12:25.999Z</time></trkpt><trkpt lat="46.07223910059453" lon="12.79188991028864"><ele>115.00000000000001</ele><time>2026-04-18T09:12:26.999Z</time></trkpt><trkpt lat="46.07218948891946" lon="12.791794706061493"><ele>115.0</ele><time>2026-04-18T09:12:27.999Z</time></trkpt><trkpt lat="46.07214025404763" lon="12.791699653059215"><ele>114.8</ele><time>2026-04-18T09:12:28.999Z</time></trkpt><trkpt lat="46.07207860452538" lon="12.79160609848508"><ele>114.6</ele><time>2026-04-18T09:12:29.999Z</time></trkpt><trkpt lat="46.07201152358837" lon="12.791512192384385"><ele>114.4</ele><time>2026-04-18T09:12:30.999Z</time></trkpt><trkpt lat="46.07194112379609" lon="12.79142082716523"><ele>114.2</ele><time>2026-04-18T09:12:31.999Z</time></trkpt><trkpt lat="46.071861023653334" lon="12.791347984398438"><ele>114.0</ele><time>2026-04-18T09:12:32.999Z</time></trkpt><trkpt lat="46.071771266944246" lon="12.791310859505447"><ele>114.0</ele><time>2026-04-18T09:12:33.999Z</time></trkpt><trkpt lat="46.07168528531629" lon="12.791289611502505"><ele>114.0</ele><time>2026-04-18T09:12:34.999Z</time></trkpt><trkpt lat="46.071580405184356" lon="12.79126476349701"><ele>114.0</ele><time>2026-04-18T09:12:35.999Z</time></trkpt><trkpt lat="46.07147040358825" lon="12.791222911376913"><ele>114.0</ele><time>2026-04-18T09:12:36.999Z</time></trkpt><trkpt lat="46.07136057646853" lon="12.791173517621928"><ele>114.0</ele><time>2026-04-18T09:12:37.999Z</time></trkpt><trkpt lat="46.07124453230552" lon="12.79111938086776"><ele>113.75</ele><time>2026-04-18T09:12:38.999Z</time></trkpt><trkpt lat="46.07112695201828" lon="12.791066696348775"><ele>113.5</ele><time>2026-04-18T09:12:39.999Z</time></trkpt><trkpt lat="46.07100378242611" lon="12.791019590473798"><ele>113.25</ele><time>2026-04-18T09:12:40.999Z</time></trkpt><trkpt lat="46.070883575018854" lon="12.790985225445105"><ele>113.0</ele><time>2026-04-18T09:12:42Z</time></trkpt><trkpt lat="46.07075971663566" lon="12.790954128175711"><ele>113.5</ele><time>2026-04-18T09:12:43Z</time></trkpt><trkpt lat="46.070630842795254" lon="12.790916857425772"><ele>114.0</ele><time>2026-04-18T09:12:44Z</time></trkpt><trkpt lat="46.07050711644899" lon="12.790888731641227"><ele>114.5</ele><time>2026-04-18T09:12:45Z</time></trkpt><trkpt lat="46.070400727727794" lon="12.790874978551383"><ele>115.0</ele><time>2026-04-18T09:12:46Z</time></trkpt><trkpt lat="46.07030920402006" lon="12.790859998545006"><ele>115.0</ele><time>2026-04-18T09:12:47Z</time></trkpt><trkpt lat="46.07020948516241" lon="12.79085526805574"><ele>115.0</ele><time>2026-04-18T09:12:48Z</time></trkpt><trkpt lat="46.07010246703418" lon="12.7908510830872"><ele>115.0</ele><time>2026-04-18T09:12:49Z</time></trkpt><trkpt lat="46.069993093099505" lon="12.790853064057519"><ele>115.0</ele><time>2026-04-18T09:12:50Z</time></trkpt><trkpt lat="46.06989802868423" lon="12.79085829917865"><ele>115.0</ele><time>2026-04-18T09:12:51Z</time></trkpt><trkpt lat="46.06981013911329" lon="12.790867174425928"><ele>114.6</ele><time>2026-04-18T09:12:52Z</time></trkpt><trkpt lat="46.06973603157502" lon="12.790880500738842"><ele>114.2</ele><time>2026-04-18T09:12:53Z</time></trkpt><trkpt lat="46.06964003350556" lon="12.79089355096069"><ele>113.80000000000001</ele><time>2026-04-18T09:12:54Z</time></trkpt><trkpt lat="46.069546735579" lon="12.790911927138959"><ele>113.4</ele><time>2026-04-18T09:12:55Z</time></trkpt><trkpt lat="46.06944048783423" lon="12.790920653757626"><ele>113.0</ele><time>2026-04-18T09:12:56Z</time></trkpt><trkpt lat="46.06932979202618" lon="12.790937767044817"><ele>113.0</ele><time>2026-04-18T09:12:57Z</time></trkpt><trkpt lat="46.06921483141702" lon="12.790956175679144"><ele>113.00000000000001</ele><time>2026-04-18T09:12:58Z</time></trkpt><trkpt lat="46.06910216248512" lon="12.790965630429964"><ele>113.00000000000001</ele><time>2026-04-18T09:12:59Z</time></trkpt><trkpt lat="46.06900506741791" lon="12.79095143446375"><ele>113.0</ele><time>2026-04-18T09:13:00Z</time></trkpt><trkpt lat="46.06891222072193" lon="12.790928443670902"><ele>113.0</ele><time>2026-04-18T09:13:01Z</time></trkpt><trkpt lat="46.068803128224864" lon="12.790901194372365"><ele>112.60000000000001</ele><time>2026-04-18T09:13:02Z</time></trkpt><trkpt lat="46.06870534210976" lon="12.790858541732902"><ele>112.20000000000002</ele><time>2026-04-18T09:13:03Z</time></trkpt><trkpt lat="46.06861161411533" lon="12.790815628354949"><ele>111.8</ele><time>2026-04-18T09:13:04Z</time></trkpt><trkpt lat="46.06851302664661" lon="12.79077267509818"><ele>111.4</ele><time>2026-04-18T09:13:05Z</time></trkpt><trkpt lat="46.068411458977636" lon="12.790736678365992"><ele>111.0</ele><time>2026-04-18T09:13:06Z</time></trkpt><trkpt lat="46.06830642614118" lon="12.79071243268265"><ele>111.4</ele><time>2026-04-18T09:13:07Z</time></trkpt><trkpt lat="46.06819923143532" lon="12.790706922031902"><ele>111.8</ele><time>2026-04-18T09:13:08Z</time></trkpt><trkpt lat="46.068091645553636" lon="12.79073252552704"><ele>112.20000000000002</ele><time>2026-04-18T09:13:09Z</time></trkpt><trkpt lat="46.067986530455684" lon="12.790755949675686"><ele>112.60000000000001</ele><time>2026-04-18T09:13:10Z</time></trkpt><trkpt lat="46.06789283655256" lon="12.790765666804022"><ele>113.0</ele><time>2026-04-18T09:13:11Z</time></trkpt><trkpt lat="46.06779074112232" lon="12.790768826009087"><ele>113.0</ele><time>2026-04-18T09:13:12Z</time></trkpt><trkpt lat="46.067673878387055" lon="12.79075324643017"><ele>113.0</ele><time>2026-04-18T09:13:13Z</time></trkpt><trkpt lat="46.06755631455434" lon="12.790716829230517"><ele>113.0</ele><time>2026-04-18T09:13:14Z</time></trkpt><trkpt lat="46.067438059624685" lon="12.790675701896534"><ele>113.0</ele><time>2026-04-18T09:13:15Z</time></trkpt><trkpt lat="46.067328715319974" lon="12.79064679386952"><ele>113.0</ele><time>2026-04-18T09:13:16Z</time></trkpt><trkpt lat="46.06722417983153" lon="12.790617809352877"><ele>113.00000000000001</ele><time>2026-04-18T09:13:17Z</time></trkpt><trkpt lat="46.06711825975266" lon="12.790586300190041"><ele>113.00000000000001</ele><time>2026-04-18T09:13:18Z</time></trkpt><trkpt lat="46.0670204427631" lon="12.790567482049235"><ele>113.0</ele><time>2026-04-18T09:13:19Z</time></trkpt><trkpt lat="46.06693734572452" lon="12.790560549168044"><ele>113.0</ele><time>2026-04-18T09:13:20Z</time></trkpt><trkpt lat="46.06686535496846" lon="12.790565138311592"><ele>112.99999999999999</ele><time>2026-04-18T09:13:21Z</time></trkpt><trkpt lat="46.06679380620925" lon="12.790578680893052"><ele>113.0</ele><time>2026-04-18T09:13:22Z</time></trkpt><trkpt lat="46.06672724920954" lon="12.790601942023825"><ele>113.0</ele><time>2026-04-18T09:13:23Z</time></trkpt><trkpt lat="46.06665232120163" lon="12.790637276397653"><ele>113.0</ele><time>2026-04-18T09:13:24Z</time></trkpt><trkpt lat="46.066574095583064" lon="12.790670850542032"><ele>112.99999999999999</ele><time>2026-04-18T09:13:25Z</time></trkpt><trkpt lat="46.066492665973506" lon="12.79070752976856"><ele>113.0</ele><time>2026-04-18T09:13:26Z</time></trkpt><trkpt lat="46.066406079542936" lon="12.790753020907188"><ele>113.2</ele><time>2026-04-18T09:13:27Z</time></trkpt><trkpt lat="46.06632941223748" lon="12.79078343089232"><ele>113.4</ele><time>2026-04-18T09:13:28Z</time></trkpt><trkpt lat="46.0662536852776" lon="12.790818937496368"><ele>113.60000000000001</ele><time>2026-04-18T09:13:29Z</time></trkpt><trkpt lat="46.06617075529518" lon="12.790860016818163"><ele>113.80000000000001</ele><time>2026-04-18T09:13:30Z</time></trkpt><trkpt lat="46.06608568896705" lon="12.790892553144255"><ele>114.0</ele><time>2026-04-18T09:13:31Z</time></trkpt><trkpt lat="46.06596943400305" lon="12.790952504281357"><ele>114.0</ele><time>2026-04-18T09:13:33Z</time></trkpt><trkpt lat="46.06588987134224" lon="12.790987275567215"><ele>113.99999999999999</ele><time>2026-04-18T09:13:34Z</time></trkpt><trkpt lat="46.06581932711133" lon="12.791008643778914"><ele>114.0</ele><time>2026-04-18T09:13:35Z</time></trkpt><trkpt lat="46.06575600211582" lon="12.791029441633341"><ele>114.0</ele><time>2026-04-18T09:13:36Z</time></trkpt><trkpt lat="46.06569138895083" lon="12.791050728843862"><ele>113.99999999999999</ele><time>2026-04-18T09:13:37Z</time></trkpt><trkpt lat="46.065627936054916" lon="12.791065018251226"><ele>114.0</ele><time>2026-04-18T09:13:38Z</time></trkpt><trkpt lat="46.06555254668539" lon="12.791054904546158"><ele>114.0</ele><time>2026-04-18T09:13:39Z</time></trkpt><trkpt lat="46.06547117982387" lon="12.7910406382326"><ele>113.83333333333333</ele><time>2026-04-18T09:13:40Z</time></trkpt><trkpt lat="46.0653902001187" lon="12.791014701289734"><ele>113.66666666666666</ele><time>2026-04-18T09:13:41Z</time></trkpt><trkpt lat="46.06531408678119" lon="12.790997610536484"><ele>113.5</ele><time>2026-04-18T09:13:42Z</time></trkpt><trkpt lat="46.06523652953013" lon="12.790986521269446"><ele>113.33333333333333</ele><time>2026-04-18T09:13:43Z</time></trkpt><trkpt lat="46.06515131647955" lon="12.790972161869318"><ele>113.16666666666666</ele><time>2026-04-18T09:13:44Z</time></trkpt><trkpt lat="46.065064256027654" lon="12.790959234635068"><ele>113.0</ele><time>2026-04-18T09:13:45Z</time></trkpt><trkpt lat="46.06497585075423" lon="12.790948045770948"><ele>112.66666666666666</ele><time>2026-04-18T09:13:46Z</time></trkpt><trkpt lat="46.0648999894212" lon="12.790946468077198"><ele>112.33333333333333</ele><time>2026-04-18T09:13:47Z</time></trkpt><trkpt lat="46.06482463070701" lon="12.7909440367226"><ele>112.0</ele><time>2026-04-18T09:13:48Z</time></trkpt><trkpt lat="46.064737927984076" lon="12.790942615851058"><ele>111.66666666666666</ele><time>2026-04-18T09:13:49Z</time></trkpt><trkpt lat="46.06465960955781" lon="12.79094538554351"><ele>111.33333333333333</ele><time>2026-04-18T09:13:50Z</time></trkpt><trkpt lat="46.064586300520844" lon="12.790946704910537"><ele>111.0</ele><time>2026-04-18T09:13:51Z</time></trkpt><trkpt lat="46.06446890546717" lon="12.79094303345487"><ele>111.0</ele><time>2026-04-18T09:13:53Z</time></trkpt><trkpt lat="46.06437793068802" lon="12.790937441788513"><ele>111.0</ele><time>2026-04-18T09:13:55Z</time></trkpt><trkpt lat="46.0643012965076" lon="12.790943212920084"><ele>111.0</ele><time>2026-04-18T09:13:58Z</time></trkpt><trkpt lat="46.06420133804255" lon="12.790964619583653"><ele>111.0</ele><time>2026-04-18T09:14:37Z</time></trkpt><trkpt lat="46.0641194775007" lon="12.791112392025237"><ele>111.0</ele><time>2026-04-18T09:14:39Z</time></trkpt><trkpt lat="46.06408389794939" lon="12.791226631920814"><ele>110.19999999999999</ele><time>2026-04-18T09:14:40Z</time></trkpt><trkpt lat="46.064036313047765" lon="12.79134253794366"><ele>109.39999999999999</ele><time>2026-04-18T09:14:41Z</time></trkpt><trkpt lat="46.06398782818617" lon="12.791462189928604"><ele>108.6</ele><time>2026-04-18T09:14:42Z</time></trkpt><trkpt lat="46.063938514331745" lon="12.79159929853974"><ele>107.8</ele><time>2026-04-18T09:14:43Z</time></trkpt><trkpt lat="46.06388677846113" lon="12.791737536940234"><ele>107.0</ele><time>2026-04-18T09:14:44Z</time></trkpt><trkpt lat="46.063831748512" lon="12.79188570514214"><ele>107.0</ele><time>2026-04-18T09:14:45Z</time></trkpt><trkpt lat="46.063774872919126" lon="12.792037837957693"><ele>107.0</ele><time>2026-04-18T09:14:46Z</time></trkpt><trkpt lat="46.06371797518848" lon="12.792191088505882"><ele>107.0</ele><time>2026-04-18T09:14:47Z</time></trkpt><trkpt lat="46.063661258172495" lon="12.792354185239727"><ele>107.0</ele><time>2026-04-18T09:14:48Z</time></trkpt><trkpt lat="46.06360469167855" lon="12.792523765971156"><ele>107.5</ele><time>2026-04-18T09:14:49Z</time></trkpt><trkpt lat="46.06354348540546" lon="12.792696630602038"><ele>108.0</ele><time>2026-04-18T09:14:50Z</time></trkpt><trkpt lat="46.06348293682392" lon="12.792872711310611"><ele>108.5</ele><time>2026-04-18T09:14:51Z</time></trkpt><trkpt lat="46.06342194866268" lon="12.793053425403153"><ele>109.0</ele><time>2026-04-18T09:14:52Z</time></trkpt><trkpt lat="46.06336056083385" lon="12.793237116554076"><ele>109.0</ele><time>2026-04-18T09:14:53Z</time></trkpt><trkpt lat="46.06329729938522" lon="12.793424045302427"><ele>109.0</ele><time>2026-04-18T09:14:54Z</time></trkpt><trkpt lat="46.06323138601031" lon="12.793609972505516"><ele>109.0</ele><time>2026-04-18T09:14:55Z</time></trkpt><trkpt lat="46.06316470982717" lon="12.793796749710422"><ele>109.0</ele><time>2026-04-18T09:14:56Z</time></trkpt><trkpt lat="46.063100347479924" lon="12.79398331296898"><ele>108.75</ele><time>2026-04-18T09:14:57Z</time></trkpt><trkpt lat="46.06303970290047" lon="12.79417153006918"><ele>108.5</ele><time>2026-04-18T09:14:58Z</time></trkpt><trkpt lat="46.06297567522825" lon="12.794358932709592"><ele>108.25</ele><time>2026-04-18T09:14:59Z</time></trkpt><trkpt lat="46.06291241445795" lon="12.794544375751734"><ele>108.0</ele><time>2026-04-18T09:15:00Z</time></trkpt><trkpt lat="46.062847558969004" lon="12.794730926564318"><ele>108.0</ele><time>2026-04-18T09:15:01Z</time></trkpt><trkpt lat="46.06278328760981" lon="12.794916735248327"><ele>108.0</ele><time>2026-04-18T09:15:02Z</time></trkpt><trkpt lat="46.06272287929738" lon="12.79509085474138"><ele>108.0</ele><time>2026-04-18T09:15:03Z</time></trkpt><trkpt lat="46.06266410031384" lon="12.795261468314507"><ele>108.0</ele><time>2026-04-18T09:15:04Z</time></trkpt><trkpt lat="46.0626019788101" lon="12.795440698585807"><ele>107.75</ele><time>2026-04-18T09:15:05Z</time></trkpt><trkpt lat="46.062538380092306" lon="12.79563024883441"><ele>107.5</ele><time>2026-04-18T09:15:06Z</time></trkpt><trkpt lat="46.06247406407286" lon="12.795825740418273"><ele>107.25</ele><time>2026-04-18T09:15:07Z</time></trkpt><trkpt lat="46.062405047367726" lon="12.796021386300387"><ele>107.0</ele><time>2026-04-18T09:15:08Z</time></trkpt><trkpt lat="46.062343830515545" lon="12.796199666673655"><ele>107.0</ele><time>2026-04-18T09:15:09Z</time></trkpt><trkpt lat="46.06228763246919" lon="12.796367546740381"><ele>107.0</ele><time>2026-04-18T09:15:10Z</time></trkpt><trkpt lat="46.0622347195491" lon="12.79652130078519"><ele>107.0</ele><time>2026-04-18T09:15:11Z</time></trkpt><trkpt lat="46.06218418492377" lon="12.796664710447427"><ele>107.0</ele><time>2026-04-18T09:15:12Z</time></trkpt><trkpt lat="46.062139183063906" lon="12.796799160820479"><ele>106.8</ele><time>2026-04-18T09:15:13Z</time></trkpt><trkpt lat="46.062092441748355" lon="12.796933123113474"><ele>106.6</ele><time>2026-04-18T09:15:14Z</time></trkpt><trkpt lat="46.06204341829119" lon="12.797058839312538"><ele>106.39999999999999</ele><time>2026-04-18T09:15:15Z</time></trkpt><trkpt lat="46.06198655112893" lon="12.797184288413808"><ele>106.19999999999999</ele><time>2026-04-18T09:15:16Z</time></trkpt><trkpt lat="46.06191995928323" lon="12.79729521919256"><ele>106.0</ele><time>2026-04-18T09:15:17Z</time></trkpt><trkpt lat="46.06187453892517" lon="12.797405986172453"><ele>106.0</ele><time>2026-04-18T09:15:18Z</time></trkpt><trkpt lat="46.06183184147629" lon="12.797520717291041"><ele>106.0</ele><time>2026-04-18T09:15:19Z</time></trkpt><trkpt lat="46.06178684452148" lon="12.797641627352618"><ele>106.0</ele><time>2026-04-18T09:15:20Z</time></trkpt><trkpt lat="46.06148675150778" lon="12.797695984888568"><ele>105.0</ele><time>2026-04-18T09:15:21Z</time></trkpt><trkpt lat="46.06132817697555" lon="12.797665039753097"><ele>104.0</ele><time>2026-04-18T09:15:22Z</time></trkpt><trkpt lat="46.061140484798244" lon="12.797653668198093"><ele>103.0</ele><time>2026-04-18T09:15:23Z</time></trkpt><trkpt lat="46.060926175936466" lon="12.797646408860615"><ele>103.5</ele><time>2026-04-18T09:15:24Z</time></trkpt><trkpt lat="46.06068967495374" lon="12.797619346672422"><ele>104.0</ele><time>2026-04-18T09:15:25Z</time></trkpt><trkpt lat="46.060459034745776" lon="12.797581661151296"><ele>104.0</ele><time>2026-04-18T09:15:26Z</time></trkpt><trkpt lat="46.06026468308045" lon="12.797527233145471"><ele>104.0</ele><time>2026-04-18T09:15:27Z</time></trkpt><trkpt lat="46.06007607888982" lon="12.797483065833186"><ele>104.0</ele><time>2026-04-18T09:15:28Z</time></trkpt><trkpt lat="46.059872160293295" lon="12.79742720487565"><ele>103.33333333333333</ele><time>2026-04-18T09:15:29Z</time></trkpt><trkpt lat="46.059654028322846" lon="12.797380720665405"><ele>102.66666666666666</ele><time>2026-04-18T09:15:30Z</time></trkpt><trkpt lat="46.0594505287013" lon="12.797336896342822"><ele>102.0</ele><time>2026-04-18T09:15:31Z</time></trkpt><trkpt lat="46.05925400415344" lon="12.79726623119496"><ele>101.33333333333334</ele><time>2026-04-18T09:15:32Z</time></trkpt><trkpt lat="46.05905971366353" lon="12.797164391325284"><ele>100.66666666666667</ele><time>2026-04-18T09:15:33Z</time></trkpt><trkpt lat="46.05887065326674" lon="12.797042740516273"><ele>100.0</ele><time>2026-04-18T09:15:34Z</time></trkpt><trkpt lat="46.05868209251254" lon="12.796907910693694"><ele>100.33333333333334</ele><time>2026-04-18T09:15:35Z</time></trkpt><trkpt lat="46.05849399452256" lon="12.796802133324613"><ele>100.66666666666666</ele><time>2026-04-18T09:15:36Z</time></trkpt><trkpt lat="46.05829225954518" lon="12.796719533072949"><ele>101.0</ele><time>2026-04-18T09:15:37Z</time></trkpt><trkpt lat="46.058088262261556" lon="12.796646560386705"><ele>101.0</ele><time>2026-04-18T09:15:38Z</time></trkpt><trkpt lat="46.05789306228668" lon="12.796574384296008"><ele>101.0</ele><time>2026-04-18T09:15:39Z</time></trkpt><trkpt lat="46.05768585805778" lon="12.79647884877897"><ele>101.0</ele><time>2026-04-18T09:15:40Z</time></trkpt><trkpt lat="46.057462236895475" lon="12.796416123407148"><ele>100.33333333333333</ele><time>2026-04-18T09:15:41Z</time></trkpt><trkpt lat="46.05726334391667" lon="12.79633955304021"><ele>99.66666666666666</ele><time>2026-04-18T09:15:42Z</time></trkpt><trkpt lat="46.05709142420396" lon="12.796240608953338"><ele>99.0</ele><time>2026-04-18T09:15:43Z</time></trkpt><trkpt lat="46.056935758856866" lon="12.796143922530543"><ele>99.0</ele><time>2026-04-18T09:15:44Z</time></trkpt><trkpt lat="46.05676367007837" lon="12.79605125833043"><ele>99.0</ele><time>2026-04-18T09:15:45Z</time></trkpt><trkpt lat="46.05659624614517" lon="12.79591976944487"><ele>99.0</ele><time>2026-04-18T09:15:46Z</time></trkpt><trkpt lat="46.05641267810299" lon="12.795820581723815"><ele>98.66666666666666</ele><time>2026-04-18T09:15:47Z</time></trkpt><trkpt lat="46.05623682824971" lon="12.795699706074087"><ele>98.33333333333333</ele><time>2026-04-18T09:15:48Z</time></trkpt><trkpt lat="46.056058601133415" lon="12.795581704753424"><ele>98.0</ele><time>2026-04-18T09:15:49Z</time></trkpt><trkpt lat="46.05587690148512" lon="12.795478078683798"><ele>97.66666666666666</ele><time>2026-04-18T09:15:50Z</time></trkpt><trkpt lat="46.055715410309894" lon="12.795385522627546"><ele>97.33333333333334</ele><time>2026-04-18T09:15:51Z</time></trkpt><trkpt lat="46.0555476670865" lon="12.795301157526207"><ele>97.0</ele><time>2026-04-18T09:15:52Z</time></trkpt><trkpt lat="46.055394637717875" lon="12.795223328502823"><ele>96.66666666666667</ele><time>2026-04-18T09:15:53Z</time></trkpt><trkpt lat="46.055219042273364" lon="12.795151296863835"><ele>96.33333333333334</ele><time>2026-04-18T09:15:54Z</time></trkpt><trkpt lat="46.05503183528813" lon="12.795070807656188"><ele>96.0</ele><time>2026-04-18T09:15:55Z</time></trkpt><trkpt lat="46.05483258169955" lon="12.794981395033377"><ele>96.66666666666666</ele><time>2026-04-18T09:15:56Z</time></trkpt><trkpt lat="46.0546241995762" lon="12.794874546872173"><ele>97.33333333333333</ele><time>2026-04-18T09:15:57Z</time></trkpt><trkpt lat="46.05440795582156" lon="12.794779610092641"><ele>98.0</ele><time>2026-04-18T09:15:58Z</time></trkpt><trkpt lat="46.05420425779549" lon="12.794675689801462"><ele>97.0</ele><time>2026-04-18T09:15:59Z</time></trkpt><trkpt lat="46.05400246667438" lon="12.794584224202692"><ele>96.0</ele><time>2026-04-18T09:16:00Z</time></trkpt><trkpt lat="46.05379151912925" lon="12.794488393891973"><ele>95.0</ele><time>2026-04-18T09:16:01Z</time></trkpt><trkpt lat="46.05356969904688" lon="12.794387583664813"><ele>95.0</ele><time>2026-04-18T09:16:02Z</time></trkpt><trkpt lat="46.05333674524901" lon="12.79428171350875"><ele>95.0</ele><time>2026-04-18T09:16:03Z</time></trkpt><trkpt lat="46.05310471073226" lon="12.794195828902874"><ele>94.0</ele><time>2026-04-18T09:16:04Z</time></trkpt><trkpt lat="46.05290627456138" lon="12.794099676245443"><ele>93.0</ele><time>2026-04-18T09:16:05Z</time></trkpt><trkpt lat="46.05272876658464" lon="12.794007472898583"><ele>92.0</ele><time>2026-04-18T09:16:06Z</time></trkpt><trkpt lat="46.05257026896314" lon="12.79391582078162"><ele>92.75</ele><time>2026-04-18T09:16:07Z</time></trkpt><trkpt lat="46.05242681379456" lon="12.793829025045945"><ele>93.5</ele><time>2026-04-18T09:16:08Z</time></trkpt><trkpt lat="46.05229275805957" lon="12.793747863184244"><ele>94.25</ele><time>2026-04-18T09:16:09Z</time></trkpt><trkpt lat="46.05217881472418" lon="12.793650257645481"><ele>95.0</ele><time>2026-04-18T09:16:10Z</time></trkpt><trkpt lat="46.05207326514722" lon="12.793570645392892"><ele>95.2</ele><time>2026-04-18T09:16:11Z</time></trkpt><trkpt lat="46.05198203994885" lon="12.793494036665543"><ele>95.4</ele><time>2026-04-18T09:16:12Z</time></trkpt><trkpt lat="46.051905053784544" lon="12.793429092898783"><ele>95.6</ele><time>2026-04-18T09:16:13Z</time></trkpt><trkpt lat="46.05181866696007" lon="12.79334995292134"><ele>95.8</ele><time>2026-04-18T09:16:14Z</time></trkpt><trkpt lat="46.05171831798576" lon="12.79323771941956"><ele>96.0</ele><time>2026-04-18T09:16:15Z</time></trkpt><trkpt lat="46.05160245660273" lon="12.793172620011903"><ele>95.6</ele><time>2026-04-18T09:16:16Z</time></trkpt><trkpt lat="46.05150149685941" lon="12.793069590541808"><ele>95.19999999999999</ele><time>2026-04-18T09:16:17Z</time></trkpt><trkpt lat="46.05139631055061" lon="12.793010186300918"><ele>94.80000000000001</ele><time>2026-04-18T09:16:18Z</time></trkpt><trkpt lat="46.05129790358365" lon="12.792981046776612"><ele>94.4</ele><time>2026-04-18T09:16:19Z</time></trkpt><trkpt lat="46.05120318051256" lon="12.793002849768339"><ele>94.0</ele><time>2026-04-18T09:16:20Z</time></trkpt><trkpt lat="46.0511057006248" lon="12.793015759620749"><ele>94.0</ele><time>2026-04-18T09:16:21Z</time></trkpt><trkpt lat="46.051007392488984" lon="12.793025494873724"><ele>94.0</ele><time>2026-04-18T09:16:22Z</time></trkpt><trkpt lat="46.05092380802842" lon="12.792966508697042"><ele>94.0</ele><time>2026-04-18T09:16:23Z</time></trkpt><trkpt lat="46.05085050839988" lon="12.792913197709582"><ele>94.0</ele><time>2026-04-18T09:16:24Z</time></trkpt><trkpt lat="46.05080893334415" lon="12.79283895133334"><ele>94.0</ele><time>2026-04-18T09:16:25Z</time></trkpt><trkpt lat="46.05080131292595" lon="12.792725915120654"><ele>94.0</ele><time>2026-04-18T09:16:27Z</time></trkpt><trkpt lat="46.050667788320936" lon="12.792693463036349"><ele>93.6</ele><time>2026-04-18T09:16:28Z</time></trkpt><trkpt lat="46.05059388162433" lon="12.792691770679927"><ele>93.2</ele><time>2026-04-18T09:16:31Z</time></trkpt><trkpt lat="46.05048693869668" lon="12.7929684823435"><ele>92.8</ele><time>2026-04-18T09:16:32Z</time></trkpt><trkpt lat="46.050528076427426" lon="12.793065806801238"><ele>92.39999999999999</ele><time>2026-04-18T09:16:35Z</time></trkpt><trkpt lat="46.05059421260105" lon="12.79303185500456"><ele>92.0</ele><time>2026-04-18T09:16:40Z</time></trkpt><trkpt lat="46.05054133810242" lon="12.792892239009664"><ele>92.0</ele><time>2026-04-18T09:16:43Z</time></trkpt><trkpt lat="46.05047279874679" lon="12.792851494822068"><ele>92.0</ele><time>2026-04-18T09:16:44Z</time></trkpt><trkpt lat="46.05037549614505" lon="12.792821087033339"><ele>92.0</ele><time>2026-04-18T09:16:45Z</time></trkpt><trkpt lat="46.050253879162476" lon="12.792802392851248"><ele>92.0</ele><time>2026-04-18T09:16:46Z</time></trkpt><trkpt lat="46.050122402429466" lon="12.792794848572123"><ele>92.0</ele><time>2026-04-18T09:16:47Z</time></trkpt><trkpt lat="46.04997121074359" lon="12.792795469507361"><ele>92.0</ele><time>2026-04-18T09:16:48Z</time></trkpt><trkpt lat="46.04981509708931" lon="12.792766787943341"><ele>92.0</ele><time>2026-04-18T09:16:49Z</time></trkpt><trkpt lat="46.04968392133455" lon="12.792736426913956"><ele>92.0</ele><time>2026-04-18T09:16:50Z</time></trkpt><trkpt lat="46.04955097021823" lon="12.792691058573709"><ele>92.0</ele><time>2026-04-18T09:16:51Z</time></trkpt><trkpt lat="46.049418162375716" lon="12.792646100441596"><ele>92.0</ele><time>2026-04-18T09:16:52Z</time></trkpt><trkpt lat="46.04928826999795" lon="12.792604518884533"><ele>92.0</ele><time>2026-04-18T09:16:53Z</time></trkpt><trkpt lat="46.04916032685178" lon="12.79257326385345"><ele>92.0</ele><time>2026-04-18T09:16:54Z</time></trkpt><trkpt lat="46.04903079432255" lon="12.792568125131053"><ele>92.0</ele><time>2026-04-18T09:16:55Z</time></trkpt><trkpt lat="46.048899681267464" lon="12.792587057757467"><ele>91.25</ele><time>2026-04-18T09:16:56Z</time></trkpt><trkpt lat="46.04876855563971" lon="12.792623025728957"><ele>90.5</ele><time>2026-04-18T09:16:57Z</time></trkpt><trkpt lat="46.04863348892065" lon="12.792650699088732"><ele>89.75</ele><time>2026-04-18T09:16:58Z</time></trkpt><trkpt lat="46.04849392960963" lon="12.792637762436986"><ele>89.0</ele><time>2026-04-18T09:16:59Z</time></trkpt><trkpt lat="46.04835354428123" lon="12.79261660659452"><ele>89.0</ele><time>2026-04-18T09:17:00Z</time></trkpt><trkpt lat="46.0482124659824" lon="12.792591743116851"><ele>89.0</ele><time>2026-04-18T09:17:01Z</time></trkpt><trkpt lat="46.048069200089515" lon="12.792571235946536"><ele>89.0</ele><time>2026-04-18T09:17:02Z</time></trkpt><trkpt lat="46.047930898729774" lon="12.79254639099396"><ele>89.0</ele><time>2026-04-18T09:17:03Z</time></trkpt><trkpt lat="46.04778663045298" lon="12.792518053765551"><ele>89.0</ele><time>2026-04-18T09:17:04Z</time></trkpt><trkpt lat="46.04764340818895" lon="12.79249496483839"><ele>89.0</ele><time>2026-04-18T09:17:05Z</time></trkpt><trkpt lat="46.047500841845086" lon="12.79246873987404"><ele>89.0</ele><time>2026-04-18T09:17:06Z</time></trkpt><trkpt lat="46.04737726572228" lon="12.792429710701416"><ele>89.0</ele><time>2026-04-18T09:17:07Z</time></trkpt><trkpt lat="46.04727151868324" lon="12.792368814526736"><ele>89.2</ele><time>2026-04-18T09:17:08Z</time></trkpt><trkpt lat="46.0471690615428" lon="12.792300050440963"><ele>89.4</ele><time>2026-04-18T09:17:09Z</time></trkpt><trkpt lat="46.04705504791698" lon="12.792257019893068"><ele>89.6</ele><time>2026-04-18T09:17:10Z</time></trkpt><trkpt lat="46.04694978081594" lon="12.792252666400849"><ele>89.8</ele><time>2026-04-18T09:17:11Z</time></trkpt><trkpt lat="46.04684146628286" lon="12.792226432789882"><ele>90.0</ele><time>2026-04-18T09:17:12Z</time></trkpt><trkpt lat="46.0467288135676" lon="12.792186530237393"><ele>89.25</ele><time>2026-04-18T09:17:13Z</time></trkpt><trkpt lat="46.046613857758395" lon="12.792177300299983"><ele>88.5</ele><time>2026-04-18T09:17:14Z</time></trkpt><trkpt lat="46.04649411950442" lon="12.79220095359276"><ele>87.75</ele><time>2026-04-18T09:17:15Z</time></trkpt><trkpt lat="46.046365129735" lon="12.79220401342361"><ele>87.0</ele><time>2026-04-18T09:17:16Z</time></trkpt><trkpt lat="46.04622700705298" lon="12.792189038949541"><ele>87.0</ele><time>2026-04-18T09:17:17Z</time></trkpt><trkpt lat="46.046083548245534" lon="12.792160812582885"><ele>87.0</ele><time>2026-04-18T09:17:18Z</time></trkpt><trkpt lat="46.04594444813158" lon="12.79213156348159"><ele>87.0</ele><time>2026-04-18T09:17:19Z</time></trkpt><trkpt lat="46.0458126782859" lon="12.792113882581727"><ele>87.0</ele><time>2026-04-18T09:17:20Z</time></trkpt><trkpt lat="46.0456851308398" lon="12.79210328323033"><ele>87.0</ele><time>2026-04-18T09:17:21Z</time></trkpt><trkpt lat="46.045553212653935" lon="12.792096691874416"><ele>87.0</ele><time>2026-04-18T09:17:22Z</time></trkpt><trkpt lat="46.04541575746949" lon="12.792095474295962"><ele>87.0</ele><time>2026-04-18T09:17:23Z</time></trkpt><trkpt lat="46.045290732566215" lon="12.792098059482619"><ele>87.0</ele><time>2026-04-18T09:17:24Z</time></trkpt><trkpt lat="46.04516505388979" lon="12.79209727493526"><ele>87.0</ele><time>2026-04-18T09:17:25Z</time></trkpt><trkpt lat="46.04504343506756" lon="12.792084594957176"><ele>87.0</ele><time>2026-04-18T09:17:26Z</time></trkpt><trkpt lat="46.04491070266927" lon="12.792059984701428"><ele>87.0</ele><time>2026-04-18T09:17:27Z</time></trkpt><trkpt lat="46.04477823685345" lon="12.79200225784563"><ele>87.0</ele><time>2026-04-18T09:17:28Z</time></trkpt><trkpt lat="46.044651186767965" lon="12.791916054388107"><ele>87.0</ele><time>2026-04-18T09:17:29Z</time></trkpt><trkpt lat="46.04451787826593" lon="12.791802722619089"><ele>87.0</ele><time>2026-04-18T09:17:30Z</time></trkpt><trkpt lat="46.04437768885295" lon="12.791715558439577"><ele>87.0</ele><time>2026-04-18T09:17:31Z</time></trkpt><trkpt lat="46.044244112548036" lon="12.791666925660635"><ele>87.0</ele><time>2026-04-18T09:17:32Z</time></trkpt><trkpt lat="46.04412390524794" lon="12.791642465243688"><ele>87.25</ele><time>2026-04-18T09:17:33Z</time></trkpt><trkpt lat="46.04399961485331" lon="12.791622745925705"><ele>87.5</ele><time>2026-04-18T09:17:34Z</time></trkpt><trkpt lat="46.04387073800401" lon="12.791582949110941"><ele>87.75</ele><time>2026-04-18T09:17:35Z</time></trkpt><trkpt lat="46.043740211278745" lon="12.791549234024071"><ele>88.0</ele><time>2026-04-18T09:17:36Z</time></trkpt><trkpt lat="46.04360884549253" lon="12.791499445816129"><ele>88.0</ele><time>2026-04-18T09:17:37Z</time></trkpt><trkpt lat="46.043483080614834" lon="12.791442960481419"><ele>88.0</ele><time>2026-04-18T09:17:38Z</time></trkpt><trkpt lat="46.04335410637945" lon="12.791397293306286"><ele>88.0</ele><time>2026-04-18T09:17:39Z</time></trkpt><trkpt lat="46.04322048082207" lon="12.791356105889381"><ele>88.0</ele><time>2026-04-18T09:17:40Z</time></trkpt><trkpt lat="46.043086833691994" lon="12.791318278520203"><ele>87.60000000000001</ele><time>2026-04-18T09:17:41Z</time></trkpt><trkpt lat="46.04296081385152" lon="12.79127800652651"><ele>87.2</ele><time>2026-04-18T09:17:42Z</time></trkpt><trkpt lat="46.042846834997285" lon="12.791234260147014"><ele>86.8</ele><time>2026-04-18T09:17:43Z</time></trkpt><trkpt lat="46.04274597385261" lon="12.79119730408089"><ele>86.4</ele><time>2026-04-18T09:17:44Z</time></trkpt><trkpt lat="46.04265070336325" lon="12.791172073379878"><ele>86.0</ele><time>2026-04-18T09:17:45Z</time></trkpt><trkpt lat="46.0425674671168" lon="12.791151073054024"><ele>86.0</ele><time>2026-04-18T09:17:46Z</time></trkpt><trkpt lat="46.042489710942384" lon="12.791127990083519"><ele>86.0</ele><time>2026-04-18T09:17:47Z</time></trkpt><trkpt lat="46.04241747761578" lon="12.791103929089987"><ele>86.0</ele><time>2026-04-18T09:17:48Z</time></trkpt><trkpt lat="46.042337297646924" lon="12.791075414477714"><ele>86.0</ele><time>2026-04-18T09:17:49Z</time></trkpt><trkpt lat="46.04224976060941" lon="12.791050132663338"><ele>86.0</ele><time>2026-04-18T09:17:50Z</time></trkpt><trkpt lat="46.042156949071114" lon="12.791025361558667"><ele>86.0</ele><time>2026-04-18T09:17:51Z</time></trkpt><trkpt lat="46.042057311131124" lon="12.7910047183803"><ele>85.8</ele><time>2026-04-18T09:17:52Z</time></trkpt><trkpt lat="46.0419480555079" lon="12.79098479244793"><ele>85.6</ele><time>2026-04-18T09:17:53Z</time></trkpt><trkpt lat="46.04183441802367" lon="12.790953463960514"><ele>85.4</ele><time>2026-04-18T09:17:54Z</time></trkpt><trkpt lat="46.04172328578608" lon="12.790912298411163"><ele>85.2</ele><time>2026-04-18T09:17:55Z</time></trkpt><trkpt lat="46.04162332928051" lon="12.790879947871685"><ele>85.0</ele><time>2026-04-18T09:17:56Z</time></trkpt><trkpt lat="46.04151761779848" lon="12.790875635789499"><ele>84.6</ele><time>2026-04-18T09:17:57Z</time></trkpt><trkpt lat="46.04139127209183" lon="12.79089651692882"><ele>84.2</ele><time>2026-04-18T09:17:58Z</time></trkpt><trkpt lat="46.0412691474018" lon="12.79090621852059"><ele>83.80000000000001</ele><time>2026-04-18T09:17:59Z</time></trkpt><trkpt lat="46.04116578333251" lon="12.790897214303392"><ele>83.4</ele><time>2026-04-18T09:18:00Z</time></trkpt><trkpt lat="46.041074021304986" lon="12.790881382796018"><ele>83.0</ele><time>2026-04-18T09:18:01Z</time></trkpt><trkpt lat="46.04098533740855" lon="12.790870145953466"><ele>83.0</ele><time>2026-04-18T09:18:02Z</time></trkpt><trkpt lat="46.040892869986585" lon="12.790864631760074"><ele>83.0</ele><time>2026-04-18T09:18:03Z</time></trkpt><trkpt lat="46.0407873224109" lon="12.79084678554326"><ele>83.0</ele><time>2026-04-18T09:18:04Z</time></trkpt><trkpt lat="46.04066451299732" lon="12.79080124332863"><ele>83.0</ele><time>2026-04-18T09:18:05Z</time></trkpt><trkpt lat="46.0405201028336" lon="12.790727202479603"><ele>83.33333333333334</ele><time>2026-04-18T09:18:06Z</time></trkpt><trkpt lat="46.04036233205899" lon="12.790657330963919"><ele>83.66666666666667</ele><time>2026-04-18T09:18:07Z</time></trkpt><trkpt lat="46.04019178158233" lon="12.790610655450678"><ele>84.0</ele><time>2026-04-18T09:18:08Z</time></trkpt><trkpt lat="46.04004242043118" lon="12.79058815926676"><ele>83.5</ele><time>2026-04-18T09:18:09Z</time></trkpt><trkpt lat="46.03990625097864" lon="12.790575197033453"><ele>83.0</ele><time>2026-04-18T09:18:10Z</time></trkpt><trkpt lat="46.03977919776393" lon="12.790564567976762"><ele>82.5</ele><time>2026-04-18T09:18:11Z</time></trkpt><trkpt lat="46.0396561244703" lon="12.790548868052326"><ele>82.0</ele><time>2026-04-18T09:18:12Z</time></trkpt><trkpt lat="46.03952586074477" lon="12.790531953435151"><ele>82.0</ele><time>2026-04-18T09:18:13Z</time></trkpt><trkpt lat="46.039392555737436" lon="12.79050974689817"><ele>82.0</ele><time>2026-04-18T09:18:14Z</time></trkpt><trkpt lat="46.03926394222283" lon="12.790465115703435"><ele>82.0</ele><time>2026-04-18T09:18:15Z</time></trkpt><trkpt lat="46.03915591202236" lon="12.790403928453895"><ele>82.0</ele><time>2026-04-18T09:18:16Z</time></trkpt><trkpt lat="46.039051950099164" lon="12.790321492970229"><ele>81.75</ele><time>2026-04-18T09:18:17Z</time></trkpt><trkpt lat="46.03896974610324" lon="12.790223350024382"><ele>81.5</ele><time>2026-04-18T09:18:18Z</time></trkpt><trkpt lat="46.03890834200471" lon="12.790096494311896"><ele>81.25</ele><time>2026-04-18T09:18:19Z</time></trkpt><trkpt lat="46.038851149751196" lon="12.789935367822844"><ele>81.0</ele><time>2026-04-18T09:18:20Z</time></trkpt><trkpt lat="46.03878662486813" lon="12.789774583069104"><ele>81.0</ele><time>2026-04-18T09:18:21Z</time></trkpt><trkpt lat="46.038695885019294" lon="12.789627043336557"><ele>81.0</ele><time>2026-04-18T09:18:22Z</time></trkpt><trkpt lat="46.03856905646248" lon="12.789492575951268"><ele>81.0</ele><time>2026-04-18T09:18:23Z</time></trkpt><trkpt lat="46.03840803508295" lon="12.789367463551695"><ele>81.33333333333333</ele><time>2026-04-18T09:18:24Z</time></trkpt><trkpt lat="46.03823319984579" lon="12.789247412148658"><ele>81.66666666666666</ele><time>2026-04-18T09:18:25Z</time></trkpt><trkpt lat="46.03806074857662" lon="12.7891457279276"><ele>82.0</ele><time>2026-04-18T09:18:26Z</time></trkpt><trkpt lat="46.037884295664675" lon="12.789080268725545"><ele>82.0</ele><time>2026-04-18T09:18:27Z</time></trkpt><trkpt lat="46.037683995190505" lon="12.789045591614878"><ele>82.0</ele><time>2026-04-18T09:18:28Z</time></trkpt><trkpt lat="46.03746792051294" lon="12.789039860239221"><ele>82.0</ele><time>2026-04-18T09:18:29Z</time></trkpt><trkpt lat="46.03728139436133" lon="12.789051283561722"><ele>82.33333333333333</ele><time>2026-04-18T09:18:30Z</time></trkpt><trkpt lat="46.037107879858" lon="12.789081766475942"><ele>82.66666666666667</ele><time>2026-04-18T09:18:31Z</time></trkpt><trkpt lat="46.03693773493009" lon="12.789130777614176"><ele>83.0</ele><time>2026-04-18T09:18:32Z</time></trkpt><trkpt lat="46.0367751016122" lon="12.789205067558443"><ele>82.33333333333334</ele><time>2026-04-18T09:18:33Z</time></trkpt><trkpt lat="46.03662038829217" lon="12.789287730679636"><ele>81.66666666666667</ele><time>2026-04-18T09:18:34Z</time></trkpt><trkpt lat="46.03646455786906" lon="12.789361440156704"><ele>81.0</ele><time>2026-04-18T09:18:35Z</time></trkpt><trkpt lat="46.036304884039026" lon="12.789414838012473"><ele>80.75</ele><time>2026-04-18T09:18:36Z</time></trkpt><trkpt lat="46.036154865301164" lon="12.789454692253287"><ele>80.5</ele><time>2026-04-18T09:18:37Z</time></trkpt><trkpt lat="46.036022741239144" lon="12.789493788959057"><ele>80.25</ele><time>2026-04-18T09:18:38Z</time></trkpt><trkpt lat="46.03591127168809" lon="12.789553562627312"><ele>80.0</ele><time>2026-04-18T09:18:39Z</time></trkpt><trkpt lat="46.035795640303434" lon="12.789633495911064"><ele>79.25</ele><time>2026-04-18T09:18:40Z</time></trkpt><trkpt lat="46.03567311475508" lon="12.789705963116244"><ele>78.5</ele><time>2026-04-18T09:18:41Z</time></trkpt><trkpt lat="46.03554324960965" lon="12.789737997467519"><ele>77.75</ele><time>2026-04-18T09:18:42Z</time></trkpt><trkpt lat="46.035408114594745" lon="12.789745079249753"><ele>77.0</ele><time>2026-04-18T09:18:43Z</time></trkpt><trkpt lat="46.035291130108426" lon="12.789748461866004"><ele>77.0</ele><time>2026-04-18T09:18:44Z</time></trkpt><trkpt lat="46.035188833565314" lon="12.78977425723299"><ele>77.0</ele><time>2026-04-18T09:18:45Z</time></trkpt><trkpt lat="46.0350875074121" lon="12.789829656542443"><ele>77.0</ele><time>2026-04-18T09:18:46Z</time></trkpt><trkpt lat="46.03498199082981" lon="12.789895848016046"><ele>77.0</ele><time>2026-04-18T09:18:47Z</time></trkpt><trkpt lat="46.034873675562" lon="12.78997452065154"><ele>77.0</ele><time>2026-04-18T09:18:48Z</time></trkpt><trkpt lat="46.03476657958382" lon="12.7900429675425"><ele>77.2</ele><time>2026-04-18T09:18:49Z</time></trkpt><trkpt lat="46.03466678189552" lon="12.79011586615113"><ele>77.4</ele><time>2026-04-18T09:18:50Z</time></trkpt><trkpt lat="46.034570824308055" lon="12.79017555237434"><ele>77.6</ele><time>2026-04-18T09:18:51Z</time></trkpt><trkpt lat="46.03447206937276" lon="12.79022614145164"><ele>77.8</ele><time>2026-04-18T09:18:52Z</time></trkpt><trkpt lat="46.03437710958641" lon="12.790267095792046"><ele>78.0</ele><time>2026-04-18T09:18:53Z</time></trkpt><trkpt lat="46.03429519198191" lon="12.790314981701057"><ele>77.66666666666667</ele><time>2026-04-18T09:18:54Z</time></trkpt><trkpt lat="46.034227886344695" lon="12.790365193133379"><ele>77.33333333333333</ele><time>2026-04-18T09:18:55Z</time></trkpt><trkpt lat="46.03416278460628" lon="12.790420009770422"><ele>77.0</ele><time>2026-04-18T09:18:56Z</time></trkpt><trkpt lat="46.03409346076245" lon="12.790496102571073"><ele>76.66666666666666</ele><time>2026-04-18T09:18:57Z</time></trkpt><trkpt lat="46.03403975306144" lon="12.790580807975195"><ele>76.33333333333333</ele><time>2026-04-18T09:18:58Z</time></trkpt><trkpt lat="46.03399613839019" lon="12.790675546556368"><ele>76.0</ele><time>2026-04-18T09:18:59Z</time></trkpt><trkpt lat="46.033903804424924" lon="12.790803315541618"><ele>75.6</ele><time>2026-04-18T09:19:01Z</time></trkpt><trkpt lat="46.0338213020146" lon="12.790822010254633"><ele>75.19999999999999</ele><time>2026-04-18T09:19:02Z</time></trkpt><trkpt lat="46.033728759127456" lon="12.7907938204003"><ele>74.80000000000001</ele><time>2026-04-18T09:19:03Z</time></trkpt><trkpt lat="46.03363747308312" lon="12.790730772525622"><ele>74.4</ele><time>2026-04-18T09:19:04Z</time></trkpt><trkpt lat="46.03354940518282" lon="12.790675437184053"><ele>74.0</ele><time>2026-04-18T09:19:05Z</time></trkpt><trkpt lat="46.0334631459919" lon="12.790645194928045"><ele>74.0</ele><time>2026-04-18T09:19:06Z</time></trkpt><trkpt lat="46.03338369974887" lon="12.79063081583268"><ele>74.0</ele><time>2026-04-18T09:19:07Z</time></trkpt><trkpt lat="46.033297567833976" lon="12.790635403082995"><ele>74.0</ele><time>2026-04-18T09:19:08Z</time></trkpt><trkpt lat="46.0332072312711" lon="12.79065887024899"><ele>74.0</ele><time>2026-04-18T09:19:09Z</time></trkpt><trkpt lat="46.033112618047035" lon="12.790674123849778"><ele>74.0</ele><time>2026-04-18T09:19:10Z</time></trkpt><trkpt lat="46.033011724366425" lon="12.790686520392931"><ele>74.0</ele><time>2026-04-18T09:19:11Z</time></trkpt><trkpt lat="46.03291207394877" lon="12.790691344893004"><ele>74.0</ele><time>2026-04-18T09:19:12Z</time></trkpt><trkpt lat="46.03281513125053" lon="12.79068900058205"><ele>74.0</ele><time>2026-04-18T09:19:13Z</time></trkpt><trkpt lat="46.03271909015145" lon="12.790682807246124"><ele>74.0</ele><time>2026-04-18T09:19:14Z</time></trkpt><trkpt lat="46.03262762772191" lon="12.790673547409138"><ele>74.0</ele><time>2026-04-18T09:19:15Z</time></trkpt><trkpt lat="46.03253427699677" lon="12.790674275718766"><ele>74.0</ele><time>2026-04-18T09:19:16Z</time></trkpt><trkpt lat="46.032437044905805" lon="12.790674518145861"><ele>74.0</ele><time>2026-04-18T09:19:17Z</time></trkpt><trkpt lat="46.032338089495184" lon="12.790659141372974"><ele>74.0</ele><time>2026-04-18T09:19:18Z</time></trkpt><trkpt lat="46.032244185999616" lon="12.790634234917668"><ele>74.0</ele><time>2026-04-18T09:19:19Z</time></trkpt><trkpt lat="46.032155083876916" lon="12.79062604612766"><ele>74.0</ele><time>2026-04-18T09:19:20Z</time></trkpt><trkpt lat="46.03206689043145" lon="12.790647573252288"><ele>74.0</ele><time>2026-04-18T09:19:21Z</time></trkpt><trkpt lat="46.03198017262303" lon="12.79069346733984"><ele>74.0</ele><time>2026-04-18T09:19:22Z</time></trkpt><trkpt lat="46.03189744521688" lon="12.7907652050525"><ele>74.0</ele><time>2026-04-18T09:19:23Z</time></trkpt><trkpt lat="46.031817347712526" lon="12.790844403681826"><ele>74.0</ele><time>2026-04-18T09:19:24Z</time></trkpt><trkpt lat="46.031736529128125" lon="12.79091877060123"><ele>74.0</ele><time>2026-04-18T09:19:25Z</time></trkpt><trkpt lat="46.0316526373192" lon="12.790969687015984"><ele>74.0</ele><time>2026-04-18T09:19:26Z</time></trkpt><trkpt lat="46.03156214063104" lon="12.79100607154137"><ele>74.0</ele><time>2026-04-18T09:19:27Z</time></trkpt><trkpt lat="46.03146768732969" lon="12.791017095047357"><ele>74.0</ele><time>2026-04-18T09:19:28Z</time></trkpt><trkpt lat="46.0313732144822" lon="12.790989979217308"><ele>74.0</ele><time>2026-04-18T09:19:29Z</time></trkpt><trkpt lat="46.03127801929336" lon="12.7909497797119"><ele>74.0</ele><time>2026-04-18T09:19:30Z</time></trkpt><trkpt lat="46.03118377143559" lon="12.790900424389912"><ele>74.0</ele><time>2026-04-18T09:19:31Z</time></trkpt><trkpt lat="46.03108863841591" lon="12.790844814069962"><ele>74.0</ele><time>2026-04-18T09:19:32Z</time></trkpt><trkpt lat="46.03099528638743" lon="12.790787258145397"><ele>74.0</ele><time>2026-04-18T09:19:33Z</time></trkpt><trkpt lat="46.03089840336449" lon="12.790738360272753"><ele>74.0</ele><time>2026-04-18T09:19:34Z</time></trkpt><trkpt lat="46.03079841537618" lon="12.790702444227806"><ele>74.0</ele><time>2026-04-18T09:19:35Z</time></trkpt><trkpt lat="46.03069497272904" lon="12.790677218552387"><ele>73.60000000000001</ele><time>2026-04-18T09:19:36Z</time></trkpt><trkpt lat="46.03059121173913" lon="12.790655775098353"><ele>73.2</ele><time>2026-04-18T09:19:37Z</time></trkpt><trkpt lat="46.03048728988162" lon="12.790640867437112"><ele>72.80000000000001</ele><time>2026-04-18T09:19:38Z</time></trkpt><trkpt lat="46.0303820968753" lon="12.790637932358365"><ele>72.4</ele><time>2026-04-18T09:19:39Z</time></trkpt><trkpt lat="46.03028001998453" lon="12.79064289096873"><ele>72.0</ele><time>2026-04-18T09:19:40Z</time></trkpt><trkpt lat="46.03018576527179" lon="12.790647011433459"><ele>72.0</ele><time>2026-04-18T09:19:41Z</time></trkpt><trkpt lat="46.03008956344326" lon="12.790646225821417"><ele>72.0</ele><time>2026-04-18T09:19:42Z</time></trkpt><trkpt lat="46.02998848938617" lon="12.790641270424473"><ele>72.0</ele><time>2026-04-18T09:19:43Z</time></trkpt><trkpt lat="46.02988579951713" lon="12.790614960169878"><ele>72.0</ele><time>2026-04-18T09:19:44Z</time></trkpt><trkpt lat="46.02978009261046" lon="12.790570730472709"><ele>72.0</ele><time>2026-04-18T09:19:45Z</time></trkpt><trkpt lat="46.02967133096464" lon="12.790526661129551"><ele>72.0</ele><time>2026-04-18T09:19:46Z</time></trkpt><trkpt lat="46.02956174421586" lon="12.790492053738268"><ele>72.0</ele><time>2026-04-18T09:19:47Z</time></trkpt><trkpt lat="46.02944729533563" lon="12.790471316623869"><ele>72.0</ele><time>2026-04-18T09:19:48Z</time></trkpt><trkpt lat="46.02933081322817" lon="12.790457993154467"><ele>72.0</ele><time>2026-04-18T09:19:49Z</time></trkpt><trkpt lat="46.02919129549516" lon="12.790442149312623"><ele>72.0</ele><time>2026-04-18T09:19:50Z</time></trkpt><trkpt lat="46.029038739703466" lon="12.790413137675095"><ele>72.0</ele><time>2026-04-18T09:19:51Z</time></trkpt><trkpt lat="46.02888520284426" lon="12.790379183589561"><ele>72.0</ele><time>2026-04-18T09:19:52Z</time></trkpt><trkpt lat="46.028717791279625" lon="12.790340142968772"><ele>72.0</ele><time>2026-04-18T09:19:53Z</time></trkpt><trkpt lat="46.02855984966946" lon="12.79028952157467"><ele>72.0</ele><time>2026-04-18T09:19:54Z</time></trkpt><trkpt lat="46.02840886246972" lon="12.79022253189014"><ele>72.0</ele><time>2026-04-18T09:19:55Z</time></trkpt><trkpt lat="46.02827905092061" lon="12.790150757182147"><ele>71.75</ele><time>2026-04-18T09:19:56Z</time></trkpt><trkpt lat="46.02815429221198" lon="12.790082682401744"><ele>71.5</ele><time>2026-04-18T09:19:57Z</time></trkpt><trkpt lat="46.02803849014185" lon="12.790040776468881"><ele>71.25</ele><time>2026-04-18T09:19:58Z</time></trkpt><trkpt lat="46.02791449919176" lon="12.790026764668543"><ele>71.0</ele><time>2026-04-18T09:19:59Z</time></trkpt><trkpt lat="46.02778704067817" lon="12.790005685822376"><ele>71.0</ele><time>2026-04-18T09:20:00Z</time></trkpt><trkpt lat="46.027661352124134" lon="12.789947265872547"><ele>71.0</ele><time>2026-04-18T09:20:01Z</time></trkpt><trkpt lat="46.027539538304076" lon="12.789873500870595"><ele>71.0</ele><time>2026-04-18T09:20:02Z</time></trkpt><trkpt lat="46.02742660658828" lon="12.789823852488777"><ele>71.0</ele><time>2026-04-18T09:20:03Z</time></trkpt><trkpt lat="46.027328976226386" lon="12.789805664017614"><ele>71.0</ele><time>2026-04-18T09:20:04Z</time></trkpt><trkpt lat="46.027229553282645" lon="12.789797168885984"><ele>71.0</ele><time>2026-04-18T09:20:05Z</time></trkpt><trkpt lat="46.02713564194427" lon="12.789803642233101"><ele>71.0</ele><time>2026-04-18T09:20:06Z</time></trkpt><trkpt lat="46.02704844938445" lon="12.789839164425585"><ele>71.0</ele><time>2026-04-18T09:20:07Z</time></trkpt><trkpt lat="46.02696071234531" lon="12.78989624597554"><ele>71.0</ele><time>2026-04-18T09:20:08Z</time></trkpt><trkpt lat="46.026863257483946" lon="12.789958491138835"><ele>71.0</ele><time>2026-04-18T09:20:09Z</time></trkpt><trkpt lat="46.026754557277236" lon="12.790005549613388"><ele>71.0</ele><time>2026-04-18T09:20:10Z</time></trkpt><trkpt lat="46.02663270850416" lon="12.790030697012389"><ele>71.0</ele><time>2026-04-18T09:20:11Z</time></trkpt><trkpt lat="46.02649871421974" lon="12.790026396354556"><ele>71.0</ele><time>2026-04-18T09:20:12Z</time></trkpt><trkpt lat="46.02635315329222" lon="12.789994723698904"><ele>70.33333333333334</ele><time>2026-04-18T09:20:13Z</time></trkpt><trkpt lat="46.02619832104571" lon="12.789925121029697"><ele>69.66666666666667</ele><time>2026-04-18T09:20:14Z</time></trkpt><trkpt lat="46.0260448991465" lon="12.789837954691118"><ele>69.0</ele><time>2026-04-18T09:20:15Z</time></trkpt><trkpt lat="46.02589718220744" lon="12.789764889820622"><ele>68.5</ele><time>2026-04-18T09:20:16Z</time></trkpt><trkpt lat="46.025757764709795" lon="12.789698696411408"><ele>68.0</ele><time>2026-04-18T09:20:17Z</time></trkpt><trkpt lat="46.025626858049755" lon="12.789627203859515"><ele>67.5</ele><time>2026-04-18T09:20:18Z</time></trkpt><trkpt lat="46.02549629053369" lon="12.789553632090572"><ele>67.0</ele><time>2026-04-18T09:20:19Z</time></trkpt><trkpt lat="46.025365729713535" lon="12.789466290459405"><ele>67.0</ele><time>2026-04-18T09:20:20Z</time></trkpt><trkpt lat="46.02524380391484" lon="12.789372651107575"><ele>67.0</ele><time>2026-04-18T09:20:21Z</time></trkpt><trkpt lat="46.02513288801542" lon="12.789286032243368"><ele>67.0</ele><time>2026-04-18T09:20:22Z</time></trkpt><trkpt lat="46.0250339697034" lon="12.789219042181019"><ele>67.0</ele><time>2026-04-18T09:20:23Z</time></trkpt><trkpt lat="46.02493725569048" lon="12.789167136750258"><ele>67.0</ele><time>2026-04-18T09:20:24Z</time></trkpt><trkpt lat="46.02482999986125" lon="12.789137154996057"><ele>67.0</ele><time>2026-04-18T09:20:25Z</time></trkpt><trkpt lat="46.02472413988363" lon="12.78911358547315"><ele>67.0</ele><time>2026-04-18T09:20:26Z</time></trkpt><trkpt lat="46.024626698061816" lon="12.789049609623362"><ele>67.0</ele><time>2026-04-18T09:20:27Z</time></trkpt><trkpt lat="46.02452567709438" lon="12.788930276761786"><ele>67.0</ele><time>2026-04-18T09:20:28Z</time></trkpt><trkpt lat="46.02441568971427" lon="12.788817426859804"><ele>67.0</ele><time>2026-04-18T09:20:29Z</time></trkpt><trkpt lat="46.02429165934799" lon="12.788714925618153"><ele>67.0</ele><time>2026-04-18T09:20:30Z</time></trkpt><trkpt lat="46.0241721635435" lon="12.788629929530027"><ele>67.0</ele><time>2026-04-18T09:20:31Z</time></trkpt><trkpt lat="46.02408889377085" lon="12.788579527833988"><ele>66.75</ele><time>2026-04-18T09:20:32Z</time></trkpt><trkpt lat="46.02397836713204" lon="12.788531550564107"><ele>66.5</ele><time>2026-04-18T09:20:33Z</time></trkpt><trkpt lat="46.02387320173017" lon="12.788510299922924"><ele>66.25</ele><time>2026-04-18T09:20:34Z</time></trkpt><trkpt lat="46.02376723448218" lon="12.788506145982199"><ele>66.0</ele><time>2026-04-18T09:20:35Z</time></trkpt><trkpt lat="46.02364392560391" lon="12.788533546434403"><ele>66.0</ele><time>2026-04-18T09:20:36Z</time></trkpt><trkpt lat="46.02351527786543" lon="12.78856828171359"><ele>66.0</ele><time>2026-04-18T09:20:37Z</time></trkpt><trkpt lat="46.023392227189895" lon="12.788594805723088"><ele>66.0</ele><time>2026-04-18T09:20:38Z</time></trkpt><trkpt lat="46.023267898856545" lon="12.788610758708323"><ele>66.0</ele><time>2026-04-18T09:20:39Z</time></trkpt><trkpt lat="46.02313955196263" lon="12.788622495854023"><ele>66.0</ele><time>2026-04-18T09:20:40Z</time></trkpt><trkpt lat="46.02301037553564" lon="12.788614377509946"><ele>66.0</ele><time>2026-04-18T09:20:41Z</time></trkpt><trkpt lat="46.022885655670315" lon="12.788577756633995"><ele>66.0</ele><time>2026-04-18T09:20:42Z</time></trkpt><trkpt lat="46.022767763102344" lon="12.788509285104219"><ele>66.0</ele><time>2026-04-18T09:20:43Z</time></trkpt><trkpt lat="46.02265477421513" lon="12.78841608728432"><ele>65.66666666666667</ele><time>2026-04-18T09:20:44Z</time></trkpt><trkpt lat="46.02253759562429" lon="12.788301570559957"><ele>65.33333333333334</ele><time>2026-04-18T09:20:45Z</time></trkpt><trkpt lat="46.02241704355291" lon="12.788164222376551"><ele>65.0</ele><time>2026-04-18T09:20:46Z</time></trkpt><trkpt lat="46.022299194946214" lon="12.788014131059303"><ele>64.5</ele><time>2026-04-18T09:20:47Z</time></trkpt><trkpt lat="46.022209570285675" lon="12.787887153687617"><ele>64.0</ele><time>2026-04-18T09:20:48Z</time></trkpt><trkpt lat="46.02212287458087" lon="12.787767905410202"><ele>63.5</ele><time>2026-04-18T09:20:49Z</time></trkpt><trkpt lat="46.02203851350988" lon="12.787659556350135"><ele>63.0</ele><time>2026-04-18T09:20:50Z</time></trkpt><trkpt lat="46.02196074600387" lon="12.787572953273616"><ele>63.0</ele><time>2026-04-18T09:20:51Z</time></trkpt><trkpt lat="46.021856181883784" lon="12.787500682771892"><ele>63.0</ele><time>2026-04-18T09:20:52Z</time></trkpt><trkpt lat="46.02173002532384" lon="12.787461200693064"><ele>63.0</ele><time>2026-04-18T09:20:53Z</time></trkpt><trkpt lat="46.021588722161184" lon="12.787459485257902"><ele>63.0</ele><time>2026-04-18T09:20:54Z</time></trkpt><trkpt lat="46.02145394208984" lon="12.787434370726956"><ele>63.25</ele><time>2026-04-18T09:20:55Z</time></trkpt><trkpt lat="46.02132044042261" lon="12.787401336570085"><ele>63.5</ele><time>2026-04-18T09:20:56Z</time></trkpt><trkpt lat="46.021186045562125" lon="12.787356607089789"><ele>63.75</ele><time>2026-04-18T09:20:57Z</time></trkpt><trkpt lat="46.021048845762266" lon="12.787306480523897"><ele>64.0</ele><time>2026-04-18T09:20:58Z</time></trkpt><trkpt lat="46.02090855585171" lon="12.78724505169995"><ele>63.666666666666664</ele><time>2026-04-18T09:20:59Z</time></trkpt><trkpt lat="46.02076900291533" lon="12.787158584542809"><ele>63.33333333333333</ele><time>2026-04-18T09:21:00Z</time></trkpt><trkpt lat="46.020629863818534" lon="12.787049796478142"><ele>63.0</ele><time>2026-04-18T09:21:01Z</time></trkpt><trkpt lat="46.02048449367326" lon="12.786916615228206"><ele>62.66666666666667</ele><time>2026-04-18T09:21:02Z</time></trkpt><trkpt lat="46.0203343834662" lon="12.786763000551389"><ele>62.333333333333336</ele><time>2026-04-18T09:21:03Z</time></trkpt><trkpt lat="46.02019227532325" lon="12.786612900205258"><ele>62.0</ele><time>2026-04-18T09:21:04Z</time></trkpt><trkpt lat="46.02007284947471" lon="12.786480897916013"><ele>62.25</ele><time>2026-04-18T09:21:05.001Z</time></trkpt><trkpt lat="46.019963375616854" lon="12.78636131031665"><ele>62.5</ele><time>2026-04-18T09:21:06.001Z</time></trkpt><trkpt lat="46.01985092595967" lon="12.786251699808076"><ele>62.75</ele><time>2026-04-18T09:21:07.001Z</time></trkpt><trkpt lat="46.01973241577003" lon="12.786158379281975"><ele>63.0</ele><time>2026-04-18T09:21:08.001Z</time></trkpt><trkpt lat="46.01961038122129" lon="12.786044894177872"><ele>63.0</ele><time>2026-04-18T09:21:09.001Z</time></trkpt><trkpt lat="46.019493382202825" lon="12.785918048601465"><ele>63.0</ele><time>2026-04-18T09:21:10.001Z</time></trkpt><trkpt lat="46.01937367139096" lon="12.785770438730978"><ele>63.0</ele><time>2026-04-18T09:21:11.001Z</time></trkpt><trkpt lat="46.01925308151459" lon="12.7856180998558"><ele>62.75</ele><time>2026-04-18T09:21:12.001Z</time></trkpt><trkpt lat="46.019120981219" lon="12.78546967804255"><ele>62.5</ele><time>2026-04-18T09:21:13.001Z</time></trkpt><trkpt lat="46.019003890578205" lon="12.785345417512673"><ele>62.25</ele><time>2026-04-18T09:21:14.001Z</time></trkpt><trkpt lat="46.01890097061574" lon="12.785234905315795"><ele>62.0</ele><time>2026-04-18T09:21:15.001Z</time></trkpt><trkpt lat="46.01879280979814" lon="12.785130474270575"><ele>62.0</ele><time>2026-04-18T09:21:16.001Z</time></trkpt><trkpt lat="46.01867133322111" lon="12.785022690119096"><ele>62.0</ele><time>2026-04-18T09:21:17.001Z</time></trkpt><trkpt lat="46.018549259618446" lon="12.784916073044283"><ele>62.0</ele><time>2026-04-18T09:21:18.001Z</time></trkpt><trkpt lat="46.018423982745475" lon="12.784820376517636"><ele>62.0</ele><time>2026-04-18T09:21:19.001Z</time></trkpt><trkpt lat="46.018288670378226" lon="12.78473827635212"><ele>61.75</ele><time>2026-04-18T09:21:20.001Z</time></trkpt><trkpt lat="46.018149276616214" lon="12.784658513824809"><ele>61.5</ele><time>2026-04-18T09:21:21.001Z</time></trkpt><trkpt lat="46.01801342548509" lon="12.784583370700933"><ele>61.25</ele><time>2026-04-18T09:21:22.001Z</time></trkpt><trkpt lat="46.01789318433939" lon="12.784527446069195"><ele>61.0</ele><time>2026-04-18T09:21:23.001Z</time></trkpt><trkpt lat="46.017777801424145" lon="12.784477327760776"><ele>61.0</ele><time>2026-04-18T09:21:24.001Z</time></trkpt><trkpt lat="46.01765944035216" lon="12.784436349878428"><ele>61.0</ele><time>2026-04-18T09:21:25.001Z</time></trkpt><trkpt lat="46.01753427042157" lon="12.784406011732472"><ele>61.0</ele><time>2026-04-18T09:21:26.001Z</time></trkpt><trkpt lat="46.017400675879074" lon="12.784384094444624"><ele>61.0</ele><time>2026-04-18T09:21:27Z</time></trkpt><trkpt lat="46.01725660635026" lon="12.78436819912941"><ele>60.5</ele><time>2026-04-18T09:21:28Z</time></trkpt><trkpt lat="46.01710639410047" lon="12.784357054095656"><ele>60.0</ele><time>2026-04-18T09:21:29Z</time></trkpt><trkpt lat="46.0169747996368" lon="12.784350098723802"><ele>59.5</ele><time>2026-04-18T09:21:30Z</time></trkpt><trkpt lat="46.01684930213979" lon="12.78435540155386"><ele>59.0</ele><time>2026-04-18T09:21:31Z</time></trkpt><trkpt lat="46.01674525955207" lon="12.784361398212765"><ele>58.75</ele><time>2026-04-18T09:21:32Z</time></trkpt><trkpt lat="46.01664179046376" lon="12.784368004846565"><ele>58.5</ele><time>2026-04-18T09:21:33Z</time></trkpt><trkpt lat="46.01652993946231" lon="12.784363251298954"><ele>58.25</ele><time>2026-04-18T09:21:34Z</time></trkpt><trkpt lat="46.016406847607875" lon="12.784334019917692"><ele>58.0</ele><time>2026-04-18T09:21:35Z</time></trkpt><trkpt lat="46.01627932217592" lon="12.78428481750523"><ele>58.0</ele><time>2026-04-18T09:21:36Z</time></trkpt><trkpt lat="46.01616734323931" lon="12.784225671384869"><ele>58.0</ele><time>2026-04-18T09:21:37Z</time></trkpt><trkpt lat="46.016067418047875" lon="12.784176961701784"><ele>58.0</ele><time>2026-04-18T09:21:38Z</time></trkpt><trkpt lat="46.01597886500956" lon="12.784148191396067"><ele>58.0</ele><time>2026-04-18T09:21:39Z</time></trkpt><trkpt lat="46.01589559224331" lon="12.784141761127774"><ele>58.0</ele><time>2026-04-18T09:21:40Z</time></trkpt><trkpt lat="46.0158110540174" lon="12.78415553401164"><ele>57.8</ele><time>2026-04-18T09:21:41Z</time></trkpt><trkpt lat="46.01572041736953" lon="12.784198825640292"><ele>57.599999999999994</ele><time>2026-04-18T09:21:42Z</time></trkpt><trkpt lat="46.01563189089711" lon="12.784244891865898"><ele>57.400000000000006</ele><time>2026-04-18T09:21:43Z</time></trkpt><trkpt lat="46.015549001558604" lon="12.78427085972065"><ele>57.2</ele><time>2026-04-18T09:21:44Z</time></trkpt><trkpt lat="46.01543808895686" lon="12.784281340796634"><ele>57.0</ele><time>2026-04-18T09:21:46Z</time></trkpt><trkpt lat="46.01538099203592" lon="12.78422852107156"><ele>57.0</ele><time>2026-04-18T09:21:50Z</time></trkpt><trkpt lat="46.01543943914892" lon="12.784169232851074"><ele>57.0</ele><time>2026-04-18T09:21:53Z</time></trkpt><trkpt lat="46.01555556045248" lon="12.784212150058206"><ele>57.0</ele><time>2026-04-18T09:21:55Z</time></trkpt><trkpt lat="46.01565253807725" lon="12.784233065577496"><ele>57.0</ele><time>2026-04-18T09:21:57Z</time></trkpt><trkpt lat="46.01569881503765" lon="12.784169564951638"><ele>57.0</ele><time>2026-04-18T09:22:11Z</time></trkpt><trkpt lat="46.01565896187216" lon="12.784090217453484"><ele>57.0</ele><time>2026-04-18T09:22:14Z</time></trkpt><trkpt lat="46.0155787454049" lon="12.784074662246548"><ele>57.0</ele><time>2026-04-18T09:23:13Z</time></trkpt><trkpt lat="46.01549381670722" lon="12.784069442941297"><ele>57.0</ele><time>2026-04-18T09:23:15Z</time></trkpt><trkpt lat="46.015393263420805" lon="12.784102383181448"><ele>57.0</ele><time>2026-04-18T09:23:17Z</time></trkpt><trkpt lat="46.01527870942425" lon="12.784141625919881"><ele>57.0</ele><time>2026-04-18T09:23:19Z</time></trkpt><trkpt lat="46.01521274137999" lon="12.784175195879545"><ele>57.0</ele><time>2026-04-18T09:23:20Z</time></trkpt><trkpt lat="46.01515647226357" lon="12.784232136721412"><ele>57.0</ele><time>2026-04-18T09:23:21Z</time></trkpt><trkpt lat="46.01510069040999" lon="12.784297885410824"><ele>57.0</ele><time>2026-04-18T09:23:22Z</time></trkpt><trkpt lat="46.015038796620615" lon="12.784356163227303"><ele>57.0</ele><time>2026-04-18T09:23:23Z</time></trkpt><trkpt lat="46.014971563255735" lon="12.784400967279614"><ele>57.0</ele><time>2026-04-18T09:23:24Z</time></trkpt><trkpt lat="46.014895188684754" lon="12.784438317556482"><ele>57.0</ele><time>2026-04-18T09:23:25Z</time></trkpt><trkpt lat="46.01481689998364" lon="12.78447055023444"><ele>57.0</ele><time>2026-04-18T09:23:26Z</time></trkpt><trkpt lat="46.01472902926863" lon="12.78448534317306"><ele>57.0</ele><time>2026-04-18T09:23:27Z</time></trkpt><trkpt lat="46.014636655806235" lon="12.784479816506085"><ele>57.0</ele><time>2026-04-18T09:23:28Z</time></trkpt><trkpt lat="46.01452861025029" lon="12.784448168003832"><ele>57.0</ele><time>2026-04-18T09:23:29Z</time></trkpt><trkpt lat="46.01441560061374" lon="12.784394271948361"><ele>57.0</ele><time>2026-04-18T09:23:30Z</time></trkpt><trkpt lat="46.01430356068142" lon="12.784338572418863"><ele>57.0</ele><time>2026-04-18T09:23:31Z</time></trkpt><trkpt lat="46.01417901381328" lon="12.784292959899783"><ele>56.8</ele><time>2026-04-18T09:23:32Z</time></trkpt><trkpt lat="46.014067944748675" lon="12.78424961723946"><ele>56.6</ele><time>2026-04-18T09:23:33Z</time></trkpt><trkpt lat="46.01396860540053" lon="12.784206874607214"><ele>56.39999999999999</ele><time>2026-04-18T09:23:34Z</time></trkpt><trkpt lat="46.01387044117483" lon="12.784143777431016"><ele>56.199999999999996</ele><time>2026-04-18T09:23:35Z</time></trkpt><trkpt lat="46.01376698842941" lon="12.784075139912881"><ele>56.0</ele><time>2026-04-18T09:23:36Z</time></trkpt><trkpt lat="46.01366067222855" lon="12.7840050608534"><ele>56.0</ele><time>2026-04-18T09:23:37Z</time></trkpt><trkpt lat="46.01355181407936" lon="12.783932269811716"><ele>56.0</ele><time>2026-04-18T09:23:38Z</time></trkpt><trkpt lat="46.01343787432731" lon="12.783860407543944"><ele>56.0</ele><time>2026-04-18T09:23:39Z</time></trkpt><trkpt lat="46.013320604690385" lon="12.78378869505655"><ele>56.0</ele><time>2026-04-18T09:23:40Z</time></trkpt><trkpt lat="46.013196634654456" lon="12.783728951661674"><ele>55.75</ele><time>2026-04-18T09:23:41Z</time></trkpt><trkpt lat="46.013065577085136" lon="12.783689137647983"><ele>55.5</ele><time>2026-04-18T09:23:42Z</time></trkpt><trkpt lat="46.01293081165501" lon="12.783657448896873"><ele>55.25</ele><time>2026-04-18T09:23:43Z</time></trkpt><trkpt lat="46.012794144166286" lon="12.783622624626355"><ele>55.0</ele><time>2026-04-18T09:23:44Z</time></trkpt><trkpt lat="46.01264143581054" lon="12.78359065623513"><ele>55.0</ele><time>2026-04-18T09:23:45Z</time></trkpt><trkpt lat="46.012483916991776" lon="12.783564262368659"><ele>55.0</ele><time>2026-04-18T09:23:46Z</time></trkpt><trkpt lat="46.01232020437432" lon="12.783537545787278"><ele>55.0</ele><time>2026-04-18T09:23:47Z</time></trkpt><trkpt lat="46.01217448965134" lon="12.783516628855985"><ele>55.0</ele><time>2026-04-18T09:23:48Z</time></trkpt><trkpt lat="46.01204632798807" lon="12.783496169495526"><ele>55.0</ele><time>2026-04-18T09:23:49Z</time></trkpt><trkpt lat="46.01190468081848" lon="12.78347984866798"><ele>55.0</ele><time>2026-04-18T09:23:50Z</time></trkpt><trkpt lat="46.01176820205911" lon="12.783452613851209"><ele>55.0</ele><time>2026-04-18T09:23:51Z</time></trkpt><trkpt lat="46.011619613045454" lon="12.783410163990718"><ele>55.0</ele><time>2026-04-18T09:23:52Z</time></trkpt><trkpt lat="46.0114655843533" lon="12.783373294970646"><ele>55.0</ele><time>2026-04-18T09:23:53Z</time></trkpt><trkpt lat="46.01131394323117" lon="12.783343540360685"><ele>55.0</ele><time>2026-04-18T09:23:54Z</time></trkpt><trkpt lat="46.011149448444726" lon="12.78330659027124"><ele>55.0</ele><time>2026-04-18T09:23:55Z</time></trkpt><trkpt lat="46.01098406159153" lon="12.783275674207076"><ele>55.0</ele><time>2026-04-18T09:23:56Z</time></trkpt><trkpt lat="46.010818677295894" lon="12.78324841029957"><ele>55.0</ele><time>2026-04-18T09:23:57Z</time></trkpt><trkpt lat="46.0106383199921" lon="12.783229771873042"><ele>54.33333333333333</ele><time>2026-04-18T09:23:58Z</time></trkpt><trkpt lat="46.01045352556499" lon="12.783215693344786"><ele>53.66666666666667</ele><time>2026-04-18T09:23:59Z</time></trkpt><trkpt lat="46.010275321017474" lon="12.783210228936662"><ele>53.0</ele><time>2026-04-18T09:24:00Z</time></trkpt><trkpt lat="46.010089726001915" lon="12.783204134438341"><ele>53.0</ele><time>2026-04-18T09:24:01Z</time></trkpt><trkpt lat="46.00990026027323" lon="12.783191712790499"><ele>53.0</ele><time>2026-04-18T09:24:02Z</time></trkpt><trkpt lat="46.00969766309241" lon="12.783168217718666"><ele>53.0</ele><time>2026-04-18T09:24:02.999Z</time></trkpt><trkpt lat="46.00948944944261" lon="12.783139994714542"><ele>53.0</ele><time>2026-04-18T09:24:03.999Z</time></trkpt><trkpt lat="46.00930445242169" lon="12.783108460553045"><ele>53.0</ele><time>2026-04-18T09:24:04.999Z</time></trkpt><trkpt lat="46.00913840557804" lon="12.783085257734546"><ele>53.0</ele><time>2026-04-18T09:24:05.999Z</time></trkpt><trkpt lat="46.00899038267303" lon="12.78306236164928"><ele>52.75</ele><time>2026-04-18T09:24:06.999Z</time></trkpt><trkpt lat="46.00885199745001" lon="12.783037905454838"><ele>52.5</ele><time>2026-04-18T09:24:07.999Z</time></trkpt><trkpt lat="46.00871000854217" lon="12.783005486919766"><ele>52.25</ele><time>2026-04-18T09:24:08.999Z</time></trkpt><trkpt lat="46.00855513307328" lon="12.782948373285434"><ele>52.0</ele><time>2026-04-18T09:24:09.999Z</time></trkpt><trkpt lat="46.0083969801906" lon="12.782875048951468"><ele>52.0</ele><time>2026-04-18T09:24:10.999Z</time></trkpt><trkpt lat="46.00823344210745" lon="12.782785731497427"><ele>52.0</ele><time>2026-04-18T09:24:11.999Z</time></trkpt><trkpt lat="46.00807050189933" lon="12.782695107033918"><ele>52.0</ele><time>2026-04-18T09:24:12.999Z</time></trkpt><trkpt lat="46.00792463526566" lon="12.782623556951064"><ele>51.5</ele><time>2026-04-18T09:24:13.999Z</time></trkpt><trkpt lat="46.00779037800992" lon="12.782567330606945"><ele>51.0</ele><time>2026-04-18T09:24:14.999Z</time></trkpt><trkpt lat="46.00764526497356" lon="12.782517200938038"><ele>50.5</ele><time>2026-04-18T09:24:15.999Z</time></trkpt><trkpt lat="46.00749215931198" lon="12.78247685884169"><ele>50.0</ele><time>2026-04-18T09:24:16.999Z</time></trkpt><trkpt lat="46.007337621705894" lon="12.782428762551465"><ele>50.0</ele><time>2026-04-18T09:24:17.999Z</time></trkpt><trkpt lat="46.00719123596332" lon="12.782350728765278"><ele>50.0</ele><time>2026-04-18T09:24:18.999Z</time></trkpt><trkpt lat="46.0070439076395" lon="12.78225253445902"><ele>50.0</ele><time>2026-04-18T09:24:19.999Z</time></trkpt><trkpt lat="46.006913113196944" lon="12.782176046941421"><ele>50.0</ele><time>2026-04-18T09:24:20.999Z</time></trkpt><trkpt lat="46.00678792652065" lon="12.78211832216498"><ele>50.0</ele><time>2026-04-18T09:24:21.999Z</time></trkpt><trkpt lat="46.006658182391014" lon="12.78207559637533"><ele>50.0</ele><time>2026-04-18T09:24:22.999Z</time></trkpt><trkpt lat="46.00653050413951" lon="12.782054318442885"><ele>50.0</ele><time>2026-04-18T09:24:23.999Z</time></trkpt><trkpt lat="46.006403086848394" lon="12.782041287802947"><ele>50.0</ele><time>2026-04-18T09:24:24.999Z</time></trkpt><trkpt lat="46.00626995137059" lon="12.782021335081811"><ele>50.0</ele><time>2026-04-18T09:24:25.999Z</time></trkpt><trkpt lat="46.00613298203916" lon="12.78199396457965"><ele>50.0</ele><time>2026-04-18T09:24:26.999Z</time></trkpt><trkpt lat="46.00599745034497" lon="12.781965536980328"><ele>50.0</ele><time>2026-04-18T09:24:27.999Z</time></trkpt><trkpt lat="46.00586770856823" lon="12.781925581502952"><ele>49.75</ele><time>2026-04-18T09:24:28.999Z</time></trkpt><trkpt lat="46.0057355721171" lon="12.781886734895403"><ele>49.5</ele><time>2026-04-18T09:24:29.999Z</time></trkpt><trkpt lat="46.005599552238934" lon="12.781841130852465"><ele>49.25</ele><time>2026-04-18T09:24:30.999Z</time></trkpt><trkpt lat="46.005462513737804" lon="12.781781539418649"><ele>49.0</ele><time>2026-04-18T09:24:31.999Z</time></trkpt><trkpt lat="46.005324869558756" lon="12.78171066511314"><ele>49.0</ele><time>2026-04-18T09:24:32.999Z</time></trkpt><trkpt lat="46.005188693358384" lon="12.781626319855754"><ele>49.0</ele><time>2026-04-18T09:24:33.999Z</time></trkpt><trkpt lat="46.00506141372146" lon="12.78153009579243"><ele>49.0</ele><time>2026-04-18T09:24:34.999Z</time></trkpt><trkpt lat="46.004941258986314" lon="12.781423301500547"><ele>49.0</ele><time>2026-04-18T09:24:35.999Z</time></trkpt><trkpt lat="46.0048292019949" lon="12.781301598115014"><ele>49.0</ele><time>2026-04-18T09:24:36.999Z</time></trkpt><trkpt lat="46.00473165007876" lon="12.781191659818923"><ele>49.0</ele><time>2026-04-18T09:24:37.999Z</time></trkpt><trkpt lat="46.00463584924386" lon="12.781094726365854"><ele>49.0</ele><time>2026-04-18T09:24:38.999Z</time></trkpt><trkpt lat="46.00453365028214" lon="12.781002755282259"><ele>49.0</ele><time>2026-04-18T09:24:39.999Z</time></trkpt><trkpt lat="46.00442368861258" lon="12.780922127650886"><ele>49.0</ele><time>2026-04-18T09:24:40.999Z</time></trkpt><trkpt lat="46.00430914212826" lon="12.780845083982543"><ele>49.0</ele><time>2026-04-18T09:24:41.999Z</time></trkpt><trkpt lat="46.004192091654936" lon="12.780764347941924"><ele>49.0</ele><time>2026-04-18T09:24:42.999Z</time></trkpt><trkpt lat="46.00407383140978" lon="12.780676865703795"><ele>49.0</ele><time>2026-04-18T09:24:43.999Z</time></trkpt><trkpt lat="46.00395032524198" lon="12.78060231573009"><ele>49.0</ele><time>2026-04-18T09:24:44.999Z</time></trkpt><trkpt lat="46.003813458343885" lon="12.780529435359856"><ele>49.0</ele><time>2026-04-18T09:24:45.999Z</time></trkpt><trkpt lat="46.00368075445478" lon="12.78046361866757"><ele>49.0</ele><time>2026-04-18T09:24:46.999Z</time></trkpt><trkpt lat="46.00355071878736" lon="12.780394871339343"><ele>49.0</ele><time>2026-04-18T09:24:47.999Z</time></trkpt><trkpt lat="46.003428993293305" lon="12.780320626801965"><ele>49.0</ele><time>2026-04-18T09:24:48.999Z</time></trkpt><trkpt lat="46.00331866897723" lon="12.78025180940298"><ele>49.0</ele><time>2026-04-18T09:24:49.999Z</time></trkpt><trkpt lat="46.003207150256024" lon="12.78018496253576"><ele>49.0</ele><time>2026-04-18T09:24:50.999Z</time></trkpt><trkpt lat="46.003111995519795" lon="12.780118908694593"><ele>49.0</ele><time>2026-04-18T09:24:51.999Z</time></trkpt><trkpt lat="46.00302811515986" lon="12.780053492438242"><ele>49.0</ele><time>2026-04-18T09:24:52.999Z</time></trkpt><trkpt lat="46.002949645251775" lon="12.779988771353517"><ele>48.99999999999999</ele><time>2026-04-18T09:24:53.999Z</time></trkpt><trkpt lat="46.002885167176544" lon="12.779928829673779"><ele>49.0</ele><time>2026-04-18T09:24:54.999Z</time></trkpt><trkpt lat="46.00279918327213" lon="12.779838439086737"><ele>49.0</ele><time>2026-04-18T09:24:56.999Z</time></trkpt><trkpt lat="46.00274359754517" lon="12.779745943261432"><ele>49.0</ele><time>2026-04-18T09:24:59.999Z</time></trkpt><trkpt lat="46.002719562799314" lon="12.779644442164319"><ele>48.99999999999999</ele><time>2026-04-18T09:25:03.999Z</time></trkpt><trkpt lat="46.00266089663174" lon="12.779591415999706"><ele>49.0</ele><time>2026-04-18T09:25:05.999Z</time></trkpt><trkpt lat="46.002587855022604" lon="12.779620000974127"><ele>49.0</ele><time>2026-04-18T09:25:07.999Z</time></trkpt><trkpt lat="46.00252035248751" lon="12.779635329175129"><ele>49.0</ele><time>2026-04-18T09:25:16Z</time></trkpt><trkpt lat="46.002471013694525" lon="12.779564541014246"><ele>49.0</ele><time>2026-04-18T09:25:25Z</time></trkpt><trkpt lat="46.00240455215901" lon="12.779457656678394"><ele>49.0</ele><time>2026-04-18T09:25:28Z</time></trkpt><trkpt lat="46.002309941001606" lon="12.779351546691755"><ele>49.0</ele><time>2026-04-18T09:25:30Z</time></trkpt><trkpt lat="46.00221988249715" lon="12.779274321037763"><ele>48.5</ele><time>2026-04-18T09:25:32Z</time></trkpt><trkpt lat="46.00211579542428" lon="12.77918932998537"><ele>48.0</ele><time>2026-04-18T09:25:34Z</time></trkpt><trkpt lat="46.00201370731956" lon="12.779089396119256"><ele>47.5</ele><time>2026-04-18T09:25:36Z</time></trkpt><trkpt lat="46.00195138253172" lon="12.778978683841181"><ele>47.0</ele><time>2026-04-18T09:25:38Z</time></trkpt><trkpt lat="46.00187068137129" lon="12.77887418174145"><ele>47.0</ele><time>2026-04-18T09:25:40Z</time></trkpt><trkpt lat="46.00181331564344" lon="12.778823716082801"><ele>47.0</ele><time>2026-04-18T09:25:41Z</time></trkpt><trkpt lat="46.001740231330146" lon="12.778775863022041"><ele>47.0</ele><time>2026-04-18T09:25:42Z</time></trkpt><trkpt lat="46.00167592577586" lon="12.778740382656837"><ele>47.0</ele><time>2026-04-18T09:25:43Z</time></trkpt><trkpt lat="46.001642485941765" lon="12.778584209072127"><ele>47.0</ele><time>2026-04-18T09:25:45Z</time></trkpt><trkpt lat="46.00160569447591" lon="12.7784364207475"><ele>47.0</ele><time>2026-04-18T09:25:47Z</time></trkpt><trkpt lat="46.00149943242518" lon="12.778340508870158"><ele>47.2</ele><time>2026-04-18T09:25:49Z</time></trkpt><trkpt lat="46.00141961060728" lon="12.778261383526718"><ele>47.400000000000006</ele><time>2026-04-18T09:25:50Z</time></trkpt><trkpt lat="46.00135334290017" lon="12.778145205049132"><ele>47.599999999999994</ele><time>2026-04-18T09:25:51Z</time></trkpt><trkpt lat="46.00129101390167" lon="12.77803372895069"><ele>47.8</ele><time>2026-04-18T09:25:52Z</time></trkpt><trkpt lat="46.00122781192462" lon="12.777932041521884"><ele>48.0</ele><time>2026-04-18T09:25:53Z</time></trkpt><trkpt lat="46.001156832405314" lon="12.777821976092682"><ele>48.0</ele><time>2026-04-18T09:25:54Z</time></trkpt><trkpt lat="46.001078270999514" lon="12.777704910968525"><ele>48.0</ele><time>2026-04-18T09:25:55Z</time></trkpt><trkpt lat="46.001002037682625" lon="12.777582647495457"><ele>48.0</ele><time>2026-04-18T09:25:56Z</time></trkpt><trkpt lat="46.00093141681781" lon="12.77746581127446"><ele>48.0</ele><time>2026-04-18T09:25:57Z</time></trkpt><trkpt lat="46.00087554756126" lon="12.777356520967972"><ele>48.0</ele><time>2026-04-18T09:25:58Z</time></trkpt><trkpt lat="46.00082613632148" lon="12.777262269588391"><ele>47.833333333333336</ele><time>2026-04-18T09:25:59Z</time></trkpt><trkpt lat="46.00076732390077" lon="12.777159081609122"><ele>47.666666666666664</ele><time>2026-04-18T09:26:00Z</time></trkpt><trkpt lat="46.00072313139882" lon="12.777051215661627"><ele>47.5</ele><time>2026-04-18T09:26:01Z</time></trkpt><trkpt lat="46.00067345462522" lon="12.776939969581008"><ele>47.33333333333333</ele><time>2026-04-18T09:26:02Z</time></trkpt><trkpt lat="46.00061899429691" lon="12.776840062625206"><ele>47.166666666666664</ele><time>2026-04-18T09:26:03Z</time></trkpt><trkpt lat="46.000558830311135" lon="12.776747369810366"><ele>47.0</ele><time>2026-04-18T09:26:04Z</time></trkpt><trkpt lat="46.00052569439087" lon="12.776669316651585"><ele>46.83333333333333</ele><time>2026-04-18T09:26:05Z</time></trkpt><trkpt lat="46.00048082911537" lon="12.776561476104941"><ele>46.666666666666664</ele><time>2026-04-18T09:26:06Z</time></trkpt><trkpt lat="46.00044090091428" lon="12.77648352846621"><ele>46.5</ele><time>2026-04-18T09:26:07Z</time></trkpt><trkpt lat="46.00038205855654" lon="12.776417296949166"><ele>46.333333333333336</ele><time>2026-04-18T09:26:08Z</time></trkpt><trkpt lat="46.00031008738225" lon="12.77636810982664"><ele>46.16666666666667</ele><time>2026-04-18T09:26:09Z</time></trkpt><trkpt lat="46.00022803785768" lon="12.77633624860031"><ele>46.0</ele><time>2026-04-18T09:26:10Z</time></trkpt><trkpt lat="46.00014271433717" lon="12.776316159727848"><ele>46.0</ele><time>2026-04-18T09:26:11Z</time></trkpt><trkpt lat="46.00005989288708" lon="12.776280885044775"><ele>46.0</ele><time>2026-04-18T09:26:12Z</time></trkpt><trkpt lat="45.999976647041535" lon="12.77623767051952"><ele>46.0</ele><time>2026-04-18T09:26:13Z</time></trkpt><trkpt lat="45.999882818327585" lon="12.776198210068483"><ele>46.0</ele><time>2026-04-18T09:26:14Z</time></trkpt><trkpt lat="45.99978075181788" lon="12.776164179378874"><ele>46.0</ele><time>2026-04-18T09:26:15Z</time></trkpt><trkpt lat="45.99968432135315" lon="12.776115095014067"><ele>46.0</ele><time>2026-04-18T09:26:16Z</time></trkpt><trkpt lat="45.999589690588216" lon="12.776058984249158"><ele>46.0</ele><time>2026-04-18T09:26:17Z</time></trkpt><trkpt lat="45.999495472295976" lon="12.776000945345618"><ele>46.0</ele><time>2026-04-18T09:26:18Z</time></trkpt><trkpt lat="45.99940717925826" lon="12.77595107656907"><ele>46.0</ele><time>2026-04-18T09:26:19Z</time></trkpt><trkpt lat="45.99931794567881" lon="12.775917635986932"><ele>46.0</ele><time>2026-04-18T09:26:20Z</time></trkpt><trkpt lat="45.99922173413667" lon="12.775886887861684"><ele>46.0</ele><time>2026-04-18T09:26:21Z</time></trkpt><trkpt lat="45.99912614607453" lon="12.775842467867784"><ele>46.0</ele><time>2026-04-18T09:26:22Z</time></trkpt><trkpt lat="45.999033287215596" lon="12.7757739065288"><ele>46.0</ele><time>2026-04-18T09:26:22.999Z</time></trkpt><trkpt lat="45.998947717667505" lon="12.775681111679427"><ele>46.0</ele><time>2026-04-18T09:26:23.999Z</time></trkpt><trkpt lat="45.99885793579839" lon="12.775572166325713"><ele>46.0</ele><time>2026-04-18T09:26:24.999Z</time></trkpt><trkpt lat="45.998779084579425" lon="12.775462936176277"><ele>46.0</ele><time>2026-04-18T09:26:25.999Z</time></trkpt><trkpt lat="45.99869589056007" lon="12.775351643804383"><ele>46.0</ele><time>2026-04-18T09:26:26.999Z</time></trkpt><trkpt lat="45.998609196853685" lon="12.775243335886115"><ele>46.0</ele><time>2026-04-18T09:26:27.999Z</time></trkpt><trkpt lat="45.99851283433343" lon="12.775135182835017"><ele>46.0</ele><time>2026-04-18T09:26:28.999Z</time></trkpt><trkpt lat="45.99841873097404" lon="12.7750168443625"><ele>46.0</ele><time>2026-04-18T09:26:29.999Z</time></trkpt><trkpt lat="45.998326646186925" lon="12.774895858836134"><ele>46.0</ele><time>2026-04-18T09:26:30.999Z</time></trkpt><trkpt lat="45.99823607354419" lon="12.774781185081913"><ele>46.0</ele><time>2026-04-18T09:26:31.999Z</time></trkpt><trkpt lat="45.99816139267326" lon="12.774670961447756"><ele>46.0</ele><time>2026-04-18T09:26:32.999Z</time></trkpt><trkpt lat="45.998088478906645" lon="12.77455030952385"><ele>46.0</ele><time>2026-04-18T09:26:33.999Z</time></trkpt><trkpt lat="45.99802760110848" lon="12.774418828975"><ele>46.0</ele><time>2026-04-18T09:26:34.999Z</time></trkpt><trkpt lat="45.997961764855226" lon="12.774274789114822"><ele>46.0</ele><time>2026-04-18T09:26:35.999Z</time></trkpt><trkpt lat="45.997900966727634" lon="12.774166095592003"><ele>46.0</ele><time>2026-04-18T09:26:36.999Z</time></trkpt><trkpt lat="45.997831632716505" lon="12.7740674817939"><ele>46.0</ele><time>2026-04-18T09:26:37.999Z</time></trkpt><trkpt lat="45.99774865404899" lon="12.77396741455352"><ele>45.599999999999994</ele><time>2026-04-18T09:26:38.999Z</time></trkpt><trkpt lat="45.99765594127213" lon="12.773866195111218"><ele>45.2</ele><time>2026-04-18T09:26:39.999Z</time></trkpt><trkpt lat="45.99757281658915" lon="12.773761869068327"><ele>44.8</ele><time>2026-04-18T09:26:40.999Z</time></trkpt><trkpt lat="45.99750214619985" lon="12.773648528468255"><ele>44.400000000000006</ele><time>2026-04-18T09:26:41.999Z</time></trkpt><trkpt lat="45.99744300357211" lon="12.773542267812548"><ele>44.0</ele><time>2026-04-18T09:26:42.999Z</time></trkpt><trkpt lat="45.99737534045667" lon="12.773421825582437"><ele>43.75</ele><time>2026-04-18T09:26:43.999Z</time></trkpt><trkpt lat="45.99729522945284" lon="12.77328997233701"><ele>43.5</ele><time>2026-04-18T09:26:44.999Z</time></trkpt><trkpt lat="45.99721370263399" lon="12.773155918198725"><ele>43.25</ele><time>2026-04-18T09:26:45.999Z</time></trkpt><trkpt lat="45.99714856266128" lon="12.77302520895069"><ele>43.0</ele><time>2026-04-18T09:26:46.999Z</time></trkpt><trkpt lat="45.997085554096714" lon="12.772886765507648"><ele>43.0</ele><time>2026-04-18T09:26:47.999Z</time></trkpt><trkpt lat="45.99701642330364" lon="12.77274858985925"><ele>43.0</ele><time>2026-04-18T09:26:48.999Z</time></trkpt><trkpt lat="45.99694063867579" lon="12.772610264801356"><ele>43.0</ele><time>2026-04-18T09:26:49.999Z</time></trkpt><trkpt lat="45.996853679090876" lon="12.772473058726858"><ele>43.0</ele><time>2026-04-18T09:26:50.999Z</time></trkpt><trkpt lat="45.99676228495761" lon="12.772336982061272"><ele>43.0</ele><time>2026-04-18T09:26:51.999Z</time></trkpt><trkpt lat="45.99667412868672" lon="12.772193001039708"><ele>43.0</ele><time>2026-04-18T09:26:52.999Z</time></trkpt><trkpt lat="45.99658835227068" lon="12.772033438743096"><ele>43.0</ele><time>2026-04-18T09:26:53.999Z</time></trkpt><trkpt lat="45.99650012633418" lon="12.7718588421284"><ele>43.0</ele><time>2026-04-18T09:26:54.999Z</time></trkpt><trkpt lat="45.99641914971898" lon="12.771702674631031"><ele>43.0</ele><time>2026-04-18T09:26:55.999Z</time></trkpt><trkpt lat="45.99633876606226" lon="12.771560004978568"><ele>43.0</ele><time>2026-04-18T09:26:56.999Z</time></trkpt><trkpt lat="45.99626467153315" lon="12.771422152575347"><ele>43.0</ele><time>2026-04-18T09:26:57.999Z</time></trkpt><trkpt lat="45.99619126506971" lon="12.77128650103102"><ele>43.0</ele><time>2026-04-18T09:26:58.999Z</time></trkpt><trkpt lat="45.99613278004028" lon="12.771164851202327"><ele>43.0</ele><time>2026-04-18T09:26:59.999Z</time></trkpt><trkpt lat="45.9960833301848" lon="12.771030804898361"><ele>43.0</ele><time>2026-04-18T09:27:00.999Z</time></trkpt><trkpt lat="45.99603849570625" lon="12.770891921356"><ele>43.0</ele><time>2026-04-18T09:27:01.999Z</time></trkpt><trkpt lat="45.995993918920526" lon="12.770739795145886"><ele>43.0</ele><time>2026-04-18T09:27:02.999Z</time></trkpt><trkpt lat="45.99594962422092" lon="12.770569129940876"><ele>43.75</ele><time>2026-04-18T09:27:03.999Z</time></trkpt><trkpt lat="45.99591495812491" lon="12.770398102021959"><ele>44.5</ele><time>2026-04-18T09:27:04.999Z</time></trkpt><trkpt lat="45.99588325486046" lon="12.770248093626952"><ele>45.25</ele><time>2026-04-18T09:27:05.999Z</time></trkpt><trkpt lat="45.995845850221095" lon="12.770095143114057"><ele>46.0</ele><time>2026-04-18T09:27:06.999Z</time></trkpt><trkpt lat="45.99579489972065" lon="12.769945767911203"><ele>46.25</ele><time>2026-04-18T09:27:07.999Z</time></trkpt><trkpt lat="45.99572978490345" lon="12.769793084520856"><ele>46.5</ele><time>2026-04-18T09:27:08.999Z</time></trkpt><trkpt lat="45.99565119627892" lon="12.769642136025185"><ele>46.75</ele><time>2026-04-18T09:27:09.999Z</time></trkpt><trkpt lat="45.99557435566513" lon="12.769487750531278"><ele>47.0</ele><time>2026-04-18T09:27:10.999Z</time></trkpt><trkpt lat="45.995497519906685" lon="12.769326739249918"><ele>47.25</ele><time>2026-04-18T09:27:11.999Z</time></trkpt><trkpt lat="45.995419160766055" lon="12.769164012087769"><ele>47.5</ele><time>2026-04-18T09:27:12.999Z</time></trkpt><trkpt lat="45.99533388450002" lon="12.769016572950386"><ele>47.75</ele><time>2026-04-18T09:27:13.999Z</time></trkpt><trkpt lat="45.995251270200974" lon="12.768865804727936"><ele>48.0</ele><time>2026-04-18T09:27:14.999Z</time></trkpt><trkpt lat="45.995169387719294" lon="12.768712492269737"><ele>48.0</ele><time>2026-04-18T09:27:15.999Z</time></trkpt><trkpt lat="45.99508815986136" lon="12.768544519124946"><ele>48.0</ele><time>2026-04-18T09:27:16.999Z</time></trkpt><trkpt lat="45.99500995836409" lon="12.768378747147398"><ele>48.0</ele><time>2026-04-18T09:27:17.999Z</time></trkpt><trkpt lat="45.994939404858066" lon="12.76822893385005"><ele>48.0</ele><time>2026-04-18T09:27:18.999Z</time></trkpt><trkpt lat="45.994875296886875" lon="12.768090526566988"><ele>47.25</ele><time>2026-04-18T09:27:19.999Z</time></trkpt><trkpt lat="45.99481433415193" lon="12.767940964789537"><ele>46.5</ele><time>2026-04-18T09:27:20.999Z</time></trkpt><trkpt lat="45.99475299917464" lon="12.767804352441917"><ele>45.75</ele><time>2026-04-18T09:27:22Z</time></trkpt><trkpt lat="45.99469019656967" lon="12.767682226011008"><ele>45.0</ele><time>2026-04-18T09:27:23Z</time></trkpt><trkpt lat="45.99461369861056" lon="12.767566331994079"><ele>45.0</ele><time>2026-04-18T09:27:24Z</time></trkpt><trkpt lat="45.994524237376524" lon="12.767461075036495"><ele>45.0</ele><time>2026-04-18T09:27:25Z</time></trkpt><trkpt lat="45.99442306721431" lon="12.767376369408396"><ele>45.0</ele><time>2026-04-18T09:27:26Z</time></trkpt><trkpt lat="45.994319695307986" lon="12.767286651653299"><ele>45.0</ele><time>2026-04-18T09:27:27Z</time></trkpt><trkpt lat="45.99422441144671" lon="12.767176678307385"><ele>44.5</ele><time>2026-04-18T09:27:28Z</time></trkpt><trkpt lat="45.994143332942656" lon="12.767044813440199"><ele>44.0</ele><time>2026-04-18T09:27:29Z</time></trkpt><trkpt lat="45.99407396857669" lon="12.766914084694168"><ele>43.5</ele><time>2026-04-18T09:27:30Z</time></trkpt><trkpt lat="45.994008382271076" lon="12.766780323001969"><ele>43.0</ele><time>2026-04-18T09:27:31Z</time></trkpt><trkpt lat="45.99394515075013" lon="12.766638702145444"><ele>42.75</ele><time>2026-04-18T09:27:32Z</time></trkpt><trkpt lat="45.99388488594124" lon="12.766498511066018"><ele>42.5</ele><time>2026-04-18T09:27:33Z</time></trkpt><trkpt lat="45.99382416568425" lon="12.766348200983396"><ele>42.25</ele><time>2026-04-18T09:27:34Z</time></trkpt><trkpt lat="45.99375509833439" lon="12.766200116461798"><ele>42.0</ele><time>2026-04-18T09:27:35Z</time></trkpt><trkpt lat="45.993669469817526" lon="12.766059327903045"><ele>41.8</ele><time>2026-04-18T09:27:36Z</time></trkpt><trkpt lat="45.993588719652685" lon="12.765938085164695"><ele>41.6</ele><time>2026-04-18T09:27:37Z</time></trkpt><trkpt lat="45.99352234006593" lon="12.765818067628864"><ele>41.4</ele><time>2026-04-18T09:27:38Z</time></trkpt><trkpt lat="45.99345663897551" lon="12.765694513875829"><ele>41.199999999999996</ele><time>2026-04-18T09:27:39Z</time></trkpt><trkpt lat="45.993380143130665" lon="12.765567580111643"><ele>41.0</ele><time>2026-04-18T09:27:40Z</time></trkpt><trkpt lat="45.99329963438096" lon="12.765434964041896"><ele>41.5</ele><time>2026-04-18T09:27:41Z</time></trkpt><trkpt lat="45.99323746942722" lon="12.765281155385582"><ele>42.0</ele><time>2026-04-18T09:27:42Z</time></trkpt><trkpt lat="45.993182157669004" lon="12.765122778132373"><ele>42.5</ele><time>2026-04-18T09:27:43Z</time></trkpt><trkpt lat="45.99312108436143" lon="12.76496313211615"><ele>43.0</ele><time>2026-04-18T09:27:44Z</time></trkpt><trkpt lat="45.99306198976877" lon="12.764816022016104"><ele>43.16666666666667</ele><time>2026-04-18T09:27:45Z</time></trkpt><trkpt lat="45.99301801186449" lon="12.764702684014456"><ele>43.333333333333336</ele><time>2026-04-18T09:27:46Z</time></trkpt><trkpt lat="45.99297720996015" lon="12.76461886948325"><ele>43.5</ele><time>2026-04-18T09:27:47Z</time></trkpt><trkpt lat="45.99291664830059" lon="12.764539875068422"><ele>43.666666666666664</ele><time>2026-04-18T09:27:48Z</time></trkpt><trkpt lat="45.99283830865343" lon="12.764461594731467"><ele>43.83333333333333</ele><time>2026-04-18T09:27:49Z</time></trkpt><trkpt lat="45.992753331660566" lon="12.764390444125981"><ele>44.0</ele><time>2026-04-18T09:27:50Z</time></trkpt><trkpt lat="45.9926735426248" lon="12.764305727130056"><ele>43.800000000000004</ele><time>2026-04-18T09:27:51Z</time></trkpt><trkpt lat="45.9926002126407" lon="12.764204282683123"><ele>43.6</ele><time>2026-04-18T09:27:52Z</time></trkpt><trkpt lat="45.99252619747027" lon="12.764100516314883"><ele>43.4</ele><time>2026-04-18T09:27:53Z</time></trkpt><trkpt lat="45.99244585925235" lon="12.764007516918943"><ele>43.2</ele><time>2026-04-18T09:27:54Z</time></trkpt><trkpt lat="45.99235941750314" lon="12.763926113623075"><ele>43.0</ele><time>2026-04-18T09:27:55Z</time></trkpt><trkpt lat="45.99226769162741" lon="12.763851288380557"><ele>43.0</ele><time>2026-04-18T09:27:56Z</time></trkpt><trkpt lat="45.992176122334136" lon="12.763777020988949"><ele>43.0</ele><time>2026-04-18T09:27:57Z</time></trkpt><trkpt lat="45.99208207056278" lon="12.763701646624705"><ele>43.0</ele><time>2026-04-18T09:27:58Z</time></trkpt><trkpt lat="45.99199153693221" lon="12.763620973187273"><ele>43.0</ele><time>2026-04-18T09:27:59Z</time></trkpt><trkpt lat="45.99189876197194" lon="12.763547669578525"><ele>43.0</ele><time>2026-04-18T09:28:00Z</time></trkpt><trkpt lat="45.99180221041088" lon="12.763474012680273"><ele>43.2</ele><time>2026-04-18T09:28:01Z</time></trkpt><trkpt lat="45.991713157235544" lon="12.763398113636386"><ele>43.4</ele><time>2026-04-18T09:28:02Z</time></trkpt><trkpt lat="45.99162742716008" lon="12.763313008924282"><ele>43.6</ele><time>2026-04-18T09:28:03Z</time></trkpt><trkpt lat="45.991542891457534" lon="12.763216732709612"><ele>43.800000000000004</ele><time>2026-04-18T09:28:04Z</time></trkpt><trkpt lat="45.99145960753731" lon="12.763115430934775"><ele>44.0</ele><time>2026-04-18T09:28:05Z</time></trkpt><trkpt lat="45.991378373480785" lon="12.763008705952311"><ele>43.400000000000006</ele><time>2026-04-18T09:28:06Z</time></trkpt><trkpt lat="45.991309542159854" lon="12.762892703232456"><ele>42.8</ele><time>2026-04-18T09:28:07Z</time></trkpt><trkpt lat="45.991244268228776" lon="12.762772733242906"><ele>42.2</ele><time>2026-04-18T09:28:08Z</time></trkpt><trkpt lat="45.99117898010945" lon="12.762648743700687"><ele>41.599999999999994</ele><time>2026-04-18T09:28:09Z</time></trkpt><trkpt lat="45.99111341098035" lon="12.762527304665479"><ele>41.0</ele><time>2026-04-18T09:28:10Z</time></trkpt><trkpt lat="45.99105066759062" lon="12.762425493633156"><ele>40.666666666666664</ele><time>2026-04-18T09:28:11Z</time></trkpt><trkpt lat="45.99099614376832" lon="12.762368136259537"><ele>40.33333333333333</ele><time>2026-04-18T09:28:12Z</time></trkpt><trkpt lat="45.99094179013825" lon="12.76231599768637"><ele>40.0</ele><time>2026-04-18T09:28:13Z</time></trkpt><trkpt lat="45.99088323484195" lon="12.762274207895997"><ele>39.666666666666664</ele><time>2026-04-18T09:28:14Z</time></trkpt><trkpt lat="45.99081734528812" lon="12.762234937840626"><ele>39.333333333333336</ele><time>2026-04-18T09:28:15Z</time></trkpt><trkpt lat="45.99071531074792" lon="12.762151912555973"><ele>39.0</ele><time>2026-04-18T09:28:17Z</time></trkpt><trkpt lat="45.99065534439432" lon="12.76209731489885"><ele>39.0</ele><time>2026-04-18T09:28:18Z</time></trkpt><trkpt lat="45.99058909424933" lon="12.762055220765696"><ele>39.0</ele><time>2026-04-18T09:28:19Z</time></trkpt><trkpt lat="45.990500619641274" lon="12.761965071236142"><ele>39.0</ele><time>2026-04-18T09:28:21Z</time></trkpt><trkpt lat="45.99047091810494" lon="12.761790358425658"><ele>39.0</ele><time>2026-04-18T09:28:23Z</time></trkpt><trkpt lat="45.99045912865548" lon="12.761664241492044"><ele>39.0</ele><time>2026-04-18T09:28:25Z</time></trkpt><trkpt lat="45.990418020678106" lon="12.761529870370982"><ele>38.8</ele><time>2026-04-18T09:28:27Z</time></trkpt><trkpt lat="45.99035462537456" lon="12.761374382107084"><ele>38.599999999999994</ele><time>2026-04-18T09:28:29Z</time></trkpt><trkpt lat="45.99031748082069" lon="12.761293012548174"><ele>38.4</ele><time>2026-04-18T09:28:30Z</time></trkpt><trkpt lat="45.99025819794949" lon="12.761167207625622"><ele>38.199999999999996</ele><time>2026-04-18T09:28:32Z</time></trkpt><trkpt lat="45.990158953316204" lon="12.761103162368308"><ele>38.0</ele><time>2026-04-18T09:28:34Z</time></trkpt><trkpt lat="45.99008866300269" lon="12.761068761396029"><ele>38.0</ele><time>2026-04-18T09:28:35Z</time></trkpt><trkpt lat="45.990018832709616" lon="12.761025453708456"><ele>38.0</ele><time>2026-04-18T09:28:36Z</time></trkpt><trkpt lat="45.98995519906557" lon="12.760954336464334"><ele>38.0</ele><time>2026-04-18T09:28:37Z</time></trkpt><trkpt lat="45.98989729952101" lon="12.76087690688861"><ele>38.0</ele><time>2026-04-18T09:28:38Z</time></trkpt><trkpt lat="45.989845256882525" lon="12.760794741786643"><ele>38.0</ele><time>2026-04-18T09:28:39Z</time></trkpt><trkpt lat="45.989801154309916" lon="12.760705044505448"><ele>38.0</ele><time>2026-04-18T09:28:40Z</time></trkpt><trkpt lat="45.989760055320296" lon="12.760590089274293"><ele>38.0</ele><time>2026-04-18T09:28:41Z</time></trkpt><trkpt lat="45.98972297842279" lon="12.760471082732423"><ele>38.0</ele><time>2026-04-18T09:28:42Z</time></trkpt><trkpt lat="45.98968131261814" lon="12.760362889789974"><ele>38.0</ele><time>2026-04-18T09:28:43Z</time></trkpt><trkpt lat="45.989641103434494" lon="12.760270175899725"><ele>38.0</ele><time>2026-04-18T09:28:44Z</time></trkpt><trkpt lat="45.98958689755866" lon="12.760169717460531"><ele>38.0</ele><time>2026-04-18T09:28:45Z</time></trkpt><trkpt lat="45.98952383760772" lon="12.760072124241995"><ele>38.0</ele><time>2026-04-18T09:28:46Z</time></trkpt><trkpt lat="45.98946162024498" lon="12.759976175739009"><ele>38.0</ele><time>2026-04-18T09:28:47Z</time></trkpt><trkpt lat="45.98940118511992" lon="12.75988338567251"><ele>38.0</ele><time>2026-04-18T09:28:48Z</time></trkpt><trkpt lat="45.9893432460071" lon="12.759788642397565"><ele>38.0</ele><time>2026-04-18T09:28:49Z</time></trkpt><trkpt lat="45.989287661403" lon="12.759688049794061"><ele>38.0</ele><time>2026-04-18T09:28:50Z</time></trkpt><trkpt lat="45.98923121594746" lon="12.759585079702777"><ele>38.0</ele><time>2026-04-18T09:28:51Z</time></trkpt><trkpt lat="45.9891696464818" lon="12.759500404933155"><ele>38.0</ele><time>2026-04-18T09:28:52Z</time></trkpt><trkpt lat="45.98909491126556" lon="12.759412965278102"><ele>37.8</ele><time>2026-04-18T09:28:53Z</time></trkpt><trkpt lat="45.98901490297138" lon="12.759340236915468"><ele>37.599999999999994</ele><time>2026-04-18T09:28:54Z</time></trkpt><trkpt lat="45.98892926571565" lon="12.759290234945775"><ele>37.400000000000006</ele><time>2026-04-18T09:28:55Z</time></trkpt><trkpt lat="45.988831882958046" lon="12.75925104561872"><ele>37.2</ele><time>2026-04-18T09:28:56Z</time></trkpt><trkpt lat="45.98874138732445" lon="12.759197648724149"><ele>37.0</ele><time>2026-04-18T09:28:57Z</time></trkpt><trkpt lat="45.988657043339806" lon="12.75910872938547"><ele>37.0</ele><time>2026-04-18T09:28:58Z</time></trkpt><trkpt lat="45.98858959624687" lon="12.758993363626145"><ele>37.0</ele><time>2026-04-18T09:28:59Z</time></trkpt><trkpt lat="45.98852819831278" lon="12.758854822532012"><ele>37.0</ele><time>2026-04-18T09:29:00Z</time></trkpt><trkpt lat="45.98846532094135" lon="12.758720418971349"><ele>37.0</ele><time>2026-04-18T09:29:01Z</time></trkpt><trkpt lat="45.988392347274264" lon="12.75858928927402"><ele>37.0</ele><time>2026-04-18T09:29:02Z</time></trkpt><trkpt lat="45.98831436490834" lon="12.758450718922756"><ele>37.0</ele><time>2026-04-18T09:29:03Z</time></trkpt><trkpt lat="45.98825140291817" lon="12.758334988261396"><ele>37.0</ele><time>2026-04-18T09:29:04Z</time></trkpt><trkpt lat="45.988207547775566" lon="12.758207530771932"><ele>37.0</ele><time>2026-04-18T09:29:05Z</time></trkpt><trkpt lat="45.988166980400095" lon="12.758075518973488"><ele>37.0</ele><time>2026-04-18T09:29:06Z</time></trkpt><trkpt lat="45.98812531879543" lon="12.7579732550415"><ele>37.0</ele><time>2026-04-18T09:29:07Z</time></trkpt><trkpt lat="45.9880728038868" lon="12.75787597841553"><ele>37.0</ele><time>2026-04-18T09:29:08Z</time></trkpt><trkpt lat="45.98802037103736" lon="12.757804178939928"><ele>37.0</ele><time>2026-04-18T09:29:09Z</time></trkpt><trkpt lat="45.987958453316615" lon="12.757720894333335"><ele>37.0</ele><time>2026-04-18T09:29:10Z</time></trkpt><trkpt lat="45.987905990320854" lon="12.757657616320008"><ele>37.0</ele><time>2026-04-18T09:29:11Z</time></trkpt><trkpt lat="45.98782608923214" lon="12.757470704919069"><ele>37.0</ele><time>2026-04-18T09:29:13Z</time></trkpt><trkpt lat="45.98778868897389" lon="12.757347579116658"><ele>37.142857142857146</ele><time>2026-04-18T09:29:14Z</time></trkpt><trkpt lat="45.98776297816545" lon="12.757249297769748"><ele>37.285714285714285</ele><time>2026-04-18T09:29:14.999Z</time></trkpt><trkpt lat="45.98772718435203" lon="12.757157667699394"><ele>37.42857142857143</ele><time>2026-04-18T09:29:15.999Z</time></trkpt><trkpt lat="45.98768986214168" lon="12.757083749455386"><ele>37.57142857142857</ele><time>2026-04-18T09:29:16.999Z</time></trkpt><trkpt lat="45.98764044983188" lon="12.757008619106193"><ele>37.714285714285715</ele><time>2026-04-18T09:29:17.999Z</time></trkpt><trkpt lat="45.987577159896105" lon="12.756945297171852"><ele>37.857142857142854</ele><time>2026-04-18T09:29:18.999Z</time></trkpt><trkpt lat="45.9874997658329" lon="12.756891541646567"><ele>38.0</ele><time>2026-04-18T09:29:19.999Z</time></trkpt><trkpt lat="45.987425689874165" lon="12.756850622068837"><ele>37.6</ele><time>2026-04-18T09:29:20.999Z</time></trkpt><trkpt lat="45.987343341842845" lon="12.756788877849512"><ele>37.199999999999996</ele><time>2026-04-18T09:29:21.999Z</time></trkpt><trkpt lat="45.987247200928316" lon="12.756704370621343"><ele>36.8</ele><time>2026-04-18T09:29:22.999Z</time></trkpt><trkpt lat="45.98715559460172" lon="12.756601022081325"><ele>36.4</ele><time>2026-04-18T09:29:23.999Z</time></trkpt><trkpt lat="45.987071495951895" lon="12.756480538393104"><ele>36.0</ele><time>2026-04-18T09:29:24.999Z</time></trkpt><trkpt lat="45.98700158904919" lon="12.756359660388227"><ele>36.0</ele><time>2026-04-18T09:29:25.999Z</time></trkpt><trkpt lat="45.986935949192" lon="12.756224202133172"><ele>36.0</ele><time>2026-04-18T09:29:26.999Z</time></trkpt><trkpt lat="45.98686465694911" lon="12.75606324296928"><ele>36.0</ele><time>2026-04-18T09:29:28Z</time></trkpt><trkpt lat="45.98681763589268" lon="12.755936933725705"><ele>36.0</ele><time>2026-04-18T09:29:29Z</time></trkpt><trkpt lat="45.98678538635268" lon="12.755845351196399"><ele>36.0</ele><time>2026-04-18T09:29:30Z</time></trkpt><trkpt lat="45.98675802716624" lon="12.755758760283243"><ele>36.0</ele><time>2026-04-18T09:29:31Z</time></trkpt><trkpt lat="45.98672953467994" lon="12.755672776073103"><ele>36.0</ele><time>2026-04-18T09:29:32Z</time></trkpt><trkpt lat="45.98670715990619" lon="12.75557887757098"><ele>36.0</ele><time>2026-04-18T09:29:33Z</time></trkpt><trkpt lat="45.98668685415236" lon="12.755471139933817"><ele>36.0</ele><time>2026-04-18T09:29:34Z</time></trkpt><trkpt lat="45.98666363818044" lon="12.75534343513483"><ele>36.0</ele><time>2026-04-18T09:29:35Z</time></trkpt><trkpt lat="45.986643334802736" lon="12.75521494122279"><ele>36.0</ele><time>2026-04-18T09:29:36Z</time></trkpt><trkpt lat="45.98662971916058" lon="12.755091701832026"><ele>35.833333333333336</ele><time>2026-04-18T09:29:37Z</time></trkpt><trkpt lat="45.98661829902323" lon="12.754968565925282"><ele>35.666666666666664</ele><time>2026-04-18T09:29:38Z</time></trkpt><trkpt lat="45.9866054955418" lon="12.75484882240547"><ele>35.5</ele><time>2026-04-18T09:29:39Z</time></trkpt><trkpt lat="45.98658759676607" lon="12.75473282316758"><ele>35.33333333333333</ele><time>2026-04-18T09:29:40Z</time></trkpt><trkpt lat="45.986559679996134" lon="12.754621418449899"><ele>35.166666666666664</ele><time>2026-04-18T09:29:41Z</time></trkpt><trkpt lat="45.98652645387614" lon="12.754540690812874"><ele>35.0</ele><time>2026-04-18T09:29:42Z</time></trkpt><trkpt lat="45.98647616189428" lon="12.754463591767156"><ele>35.0</ele><time>2026-04-18T09:29:43Z</time></trkpt><trkpt lat="45.986416625309076" lon="12.754389559165858"><ele>35.0</ele><time>2026-04-18T09:29:44Z</time></trkpt><trkpt lat="45.986358762295104" lon="12.754322543158931"><ele>35.0</ele><time>2026-04-18T09:29:45Z</time></trkpt><trkpt lat="45.98630761527253" lon="12.754237288259024"><ele>35.0</ele><time>2026-04-18T09:29:46Z</time></trkpt><trkpt lat="45.986246769459" lon="12.754151851974123"><ele>35.0</ele><time>2026-04-18T09:29:47Z</time></trkpt><trkpt lat="45.98619611457798" lon="12.754093218457108"><ele>35.0</ele><time>2026-04-18T09:29:48Z</time></trkpt><trkpt lat="45.98609174754656" lon="12.75396859661469"><ele>34.666666666666664</ele><time>2026-04-18T09:29:50Z</time></trkpt><trkpt lat="45.98604023906842" lon="12.75389100077154"><ele>34.33333333333333</ele><time>2026-04-18T09:29:51Z</time></trkpt><trkpt lat="45.98599882558917" lon="12.753820350141487"><ele>34.0</ele><time>2026-04-18T09:29:52Z</time></trkpt><trkpt lat="45.98595463144623" lon="12.75374473984396"><ele>33.666666666666664</ele><time>2026-04-18T09:29:53Z</time></trkpt><trkpt lat="45.98591071239351" lon="12.753660907343239"><ele>33.333333333333336</ele><time>2026-04-18T09:29:54Z</time></trkpt><trkpt lat="45.98584054368143" lon="12.753528079739276"><ele>33.0</ele><time>2026-04-18T09:29:56Z</time></trkpt><trkpt lat="45.98579622944728" lon="12.753454908768967"><ele>33.0</ele><time>2026-04-18T09:29:57Z</time></trkpt><trkpt lat="45.98574348453256" lon="12.753390084967148"><ele>33.0</ele><time>2026-04-18T09:29:58Z</time></trkpt><trkpt lat="45.98565302734707" lon="12.753262865574818"><ele>33.0</ele><time>2026-04-18T09:30:00Z</time></trkpt><trkpt lat="45.98559977372374" lon="12.753188009078984"><ele>33.0</ele><time>2026-04-18T09:30:01Z</time></trkpt><trkpt lat="45.98554654824411" lon="12.753114919738412"><ele>33.0</ele><time>2026-04-18T09:30:02Z</time></trkpt><trkpt lat="45.98547898472794" lon="12.753029620949388"><ele>33.0</ele><time>2026-04-18T09:30:03Z</time></trkpt><trkpt lat="45.98540962942878" lon="12.752951222461226"><ele>33.0</ele><time>2026-04-18T09:30:04Z</time></trkpt><trkpt lat="45.985336218656784" lon="12.75286079486864"><ele>33.0</ele><time>2026-04-18T09:30:05Z</time></trkpt><trkpt lat="45.985273807143884" lon="12.752769535711312"><ele>33.0</ele><time>2026-04-18T09:30:06Z</time></trkpt><trkpt lat="45.98522448266921" lon="12.752682325258114"><ele>33.0</ele><time>2026-04-18T09:30:07Z</time></trkpt><trkpt lat="45.98517314053873" lon="12.752573132665363"><ele>33.0</ele><time>2026-04-18T09:30:08Z</time></trkpt><trkpt lat="45.9851360433372" lon="12.752469990691722"><ele>33.0</ele><time>2026-04-18T09:30:09Z</time></trkpt><trkpt lat="45.98509037471496" lon="12.752359089160285"><ele>33.0</ele><time>2026-04-18T09:30:10Z</time></trkpt><trkpt lat="45.985033571890355" lon="12.752253314469097"><ele>33.0</ele><time>2026-04-18T09:30:11Z</time></trkpt><trkpt lat="45.98496798205171" lon="12.752147772224319"><ele>33.0</ele><time>2026-04-18T09:30:12Z</time></trkpt><trkpt lat="45.98489529427454" lon="12.752038622709781"><ele>33.0</ele><time>2026-04-18T09:30:13Z</time></trkpt><trkpt lat="45.98481818553927" lon="12.75192316766399"><ele>33.0</ele><time>2026-04-18T09:30:14Z</time></trkpt><trkpt lat="45.98475558583311" lon="12.751831022900038"><ele>33.166666666666664</ele><time>2026-04-18T09:30:15Z</time></trkpt><trkpt lat="45.984711593983555" lon="12.751754373177311"><ele>33.333333333333336</ele><time>2026-04-18T09:30:16Z</time></trkpt><trkpt lat="45.98464975760688" lon="12.751614128490248"><ele>33.5</ele><time>2026-04-18T09:30:18Z</time></trkpt><trkpt lat="45.984605352508225" lon="12.751519972355657"><ele>33.66666666666667</ele><time>2026-04-18T09:30:20Z</time></trkpt><trkpt lat="45.98452921387137" lon="12.751547579812096"><ele>33.833333333333336</ele><time>2026-04-18T09:30:23Z</time></trkpt><trkpt lat="45.984438514597876" lon="12.751516605684984"><ele>34.0</ele><time>2026-04-18T09:30:32Z</time></trkpt><trkpt lat="45.98437235799368" lon="12.751434246766538"><ele>34.0</ele><time>2026-04-18T09:30:33Z</time></trkpt><trkpt lat="45.98429176950873" lon="12.751343934129702"><ele>34.0</ele><time>2026-04-18T09:30:34Z</time></trkpt><trkpt lat="45.984186701575574" lon="12.751234630801667"><ele>34.0</ele><time>2026-04-18T09:30:35Z</time></trkpt><trkpt lat="45.98408516452045" lon="12.751130344573141"><ele>34.0</ele><time>2026-04-18T09:30:36Z</time></trkpt><trkpt lat="45.984007361810995" lon="12.751036596516647"><ele>34.0</ele><time>2026-04-18T09:30:37Z</time></trkpt><trkpt lat="45.983936463523435" lon="12.750955110769375"><ele>34.0</ele><time>2026-04-18T09:30:38Z</time></trkpt><trkpt lat="45.983868640133245" lon="12.750898474642376"><ele>34.0</ele><time>2026-04-18T09:30:39Z</time></trkpt><trkpt lat="45.98379661521408" lon="12.750848921112016"><ele>34.0</ele><time>2026-04-18T09:30:40Z</time></trkpt><trkpt lat="45.9837157573628" lon="12.750800684587835"><ele>34.0</ele><time>2026-04-18T09:30:41Z</time></trkpt><trkpt lat="45.98363905225593" lon="12.750757651206822"><ele>34.0</ele><time>2026-04-18T09:30:42Z</time></trkpt><trkpt lat="45.98355532975962" lon="12.75072458426265"><ele>34.0</ele><time>2026-04-18T09:30:43Z</time></trkpt><trkpt lat="45.98347784281411" lon="12.750707940679577"><ele>34.0</ele><time>2026-04-18T09:30:44Z</time></trkpt><trkpt lat="45.98340210497305" lon="12.750703405501248"><ele>34.0</ele><time>2026-04-18T09:30:45Z</time></trkpt><trkpt lat="45.98332536990324" lon="12.750701465204372"><ele>34.0</ele><time>2026-04-18T09:30:46Z</time></trkpt><trkpt lat="45.98324363475239" lon="12.75070674456404"><ele>34.0</ele><time>2026-04-18T09:30:47Z</time></trkpt><trkpt lat="45.983159364018576" lon="12.750718218243616"><ele>34.0</ele><time>2026-04-18T09:30:48Z</time></trkpt><trkpt lat="45.9830667092135" lon="12.750726046489156"><ele>34.5</ele><time>2026-04-18T09:30:49Z</time></trkpt><trkpt lat="45.98298087358141" lon="12.750729128305707"><ele>35.0</ele><time>2026-04-18T09:30:50Z</time></trkpt><trkpt lat="45.982898872899035" lon="12.750713610856595"><ele>35.5</ele><time>2026-04-18T09:30:51Z</time></trkpt><trkpt lat="45.9828349931334" lon="12.750688314605988"><ele>36.0</ele><time>2026-04-18T09:30:52Z</time></trkpt><trkpt lat="45.98276506782837" lon="12.750585451474713"><ele>36.5</ele><time>2026-04-18T09:30:54Z</time></trkpt><trkpt lat="45.98267267202081" lon="12.750493971850702"><ele>37.0</ele><time>2026-04-18T09:30:56Z</time></trkpt><trkpt lat="45.982604364539355" lon="12.750478935383018"><ele>37.0</ele><time>2026-04-18T09:30:57Z</time></trkpt><trkpt lat="45.98252798202304" lon="12.75045805720027"><ele>37.0</ele><time>2026-04-18T09:30:58Z</time></trkpt><trkpt lat="45.98246510423955" lon="12.75040936768437"><ele>37.0</ele><time>2026-04-18T09:30:59Z</time></trkpt><trkpt lat="45.98240247535862" lon="12.750345184392161"><ele>37.0</ele><time>2026-04-18T09:31:00Z</time></trkpt><trkpt lat="45.98233204421591" lon="12.750237245169004"><ele>37.0</ele><time>2026-04-18T09:31:01Z</time></trkpt><trkpt lat="45.98224792883742" lon="12.750141394911312"><ele>37.0</ele><time>2026-04-18T09:31:02Z</time></trkpt><trkpt lat="45.98215693209149" lon="12.75007679373522"><ele>36.75</ele><time>2026-04-18T09:31:03Z</time></trkpt><trkpt lat="45.98204830989083" lon="12.749985776534693"><ele>36.5</ele><time>2026-04-18T09:31:04Z</time></trkpt><trkpt lat="45.98192699148845" lon="12.749857286800697"><ele>36.25</ele><time>2026-04-18T09:31:05Z</time></trkpt><trkpt lat="45.98179979482389" lon="12.749705516317203"><ele>36.0</ele><time>2026-04-18T09:31:06Z</time></trkpt><trkpt lat="45.981691757333465" lon="12.749568811511386"><ele>35.6</ele><time>2026-04-18T09:31:07Z</time></trkpt><trkpt lat="45.981603238158044" lon="12.749467600910112"><ele>35.2</ele><time>2026-04-18T09:31:08Z</time></trkpt><trkpt lat="45.981523080963434" lon="12.749379552017611"><ele>34.8</ele><time>2026-04-18T09:31:09Z</time></trkpt><trkpt lat="45.98145298656277" lon="12.749299858249126"><ele>34.4</ele><time>2026-04-18T09:31:10Z</time></trkpt><trkpt lat="45.98138936490164" lon="12.74922595417436"><ele>34.0</ele><time>2026-04-18T09:31:11Z</time></trkpt><trkpt lat="45.9813256159419" lon="12.749158341160452"><ele>34.0</ele><time>2026-04-18T09:31:12Z</time></trkpt><trkpt lat="45.981265827121504" lon="12.749114274335408"><ele>34.0</ele><time>2026-04-18T09:31:13Z</time></trkpt><trkpt lat="45.98116444542842" lon="12.749124235423004"><ele>34.0</ele><time>2026-04-18T09:31:15Z</time></trkpt><trkpt lat="45.981100676005944" lon="12.749174854369254"><ele>34.0</ele><time>2026-04-18T09:31:17Z</time></trkpt><trkpt lat="45.980996200389264" lon="12.74919337922482"><ele>34.0</ele><time>2026-04-18T09:31:19Z</time></trkpt><trkpt lat="45.98092180167259" lon="12.74916018515899"><ele>34.0</ele><time>2026-04-18T09:31:20Z</time></trkpt><trkpt lat="45.98083887846216" lon="12.749112705769106"><ele>33.66666666666667</ele><time>2026-04-18T09:31:21Z</time></trkpt><trkpt lat="45.980746316641245" lon="12.749102466502652"><ele>33.333333333333336</ele><time>2026-04-18T09:31:22Z</time></trkpt><trkpt lat="45.98065683165349" lon="12.749106214625037"><ele>33.0</ele><time>2026-04-18T09:31:23Z</time></trkpt><trkpt lat="45.9805630120505" lon="12.749131248970585"><ele>32.666666666666664</ele><time>2026-04-18T09:31:24Z</time></trkpt><trkpt lat="45.980488347371406" lon="12.749158992000224"><ele>32.33333333333333</ele><time>2026-04-18T09:31:25Z</time></trkpt><trkpt lat="45.98042038530368" lon="12.749185507016161"><ele>32.0</ele><time>2026-04-18T09:31:26Z</time></trkpt><trkpt lat="45.980348397730985" lon="12.74920273318748"><ele>31.999999999999996</ele><time>2026-04-18T09:31:27Z</time></trkpt><trkpt lat="45.980229143729176" lon="12.749181829474178"><ele>32.0</ele><time>2026-04-18T09:31:29Z</time></trkpt><trkpt lat="45.980171945910904" lon="12.749137351450702"><ele>32.0</ele><time>2026-04-18T09:31:30Z</time></trkpt><trkpt lat="45.98011320210675" lon="12.749052787614374"><ele>32.0</ele><time>2026-04-18T09:31:31Z</time></trkpt><trkpt lat="45.980056614485726" lon="12.748962818020807"><ele>31.999999999999996</ele><time>2026-04-18T09:31:32Z</time></trkpt><trkpt lat="45.980005102116536" lon="12.748869332900377"><ele>32.0</ele><time>2026-04-18T09:31:33Z</time></trkpt><trkpt lat="45.979954322243394" lon="12.748789513467603"><ele>31.833333333333332</ele><time>2026-04-18T09:31:34Z</time></trkpt><trkpt lat="45.979907372890224" lon="12.74871448644253"><ele>31.666666666666664</ele><time>2026-04-18T09:31:35Z</time></trkpt><trkpt lat="45.97985390873337" lon="12.748642821988204"><ele>31.5</ele><time>2026-04-18T09:31:36Z</time></trkpt><trkpt lat="45.979801475150374" lon="12.74856458162509"><ele>31.333333333333336</ele><time>2026-04-18T09:31:37Z</time></trkpt><trkpt lat="45.97976304070202" lon="12.748483954235752"><ele>31.166666666666668</ele><time>2026-04-18T09:31:38Z</time></trkpt><trkpt lat="45.97972061231435" lon="12.748401004265006"><ele>31.0</ele><time>2026-04-18T09:31:39Z</time></trkpt><trkpt lat="45.97966634250373" lon="12.748288170857744"><ele>31.333333333333336</ele><time>2026-04-18T09:31:41Z</time></trkpt><trkpt lat="45.97961470392198" lon="12.748230650291072"><ele>31.666666666666668</ele><time>2026-04-18T09:31:43Z</time></trkpt><trkpt lat="45.97954615054223" lon="12.74818746669953"><ele>32.0</ele><time>2026-04-18T09:31:45Z</time></trkpt><trkpt lat="45.97946409277739" lon="12.748206991156545"><ele>32.333333333333336</ele><time>2026-04-18T09:31:49Z</time></trkpt><trkpt lat="45.97936203693383" lon="12.748198090047664"><ele>32.666666666666664</ele><time>2026-04-18T09:31:51Z</time></trkpt><trkpt lat="45.9792941564911" lon="12.74819214878582"><ele>33.0</ele><time>2026-04-18T09:31:53Z</time></trkpt><trkpt lat="45.9792350521894" lon="12.748120981538872"><ele>32.75</ele><time>2026-04-18T09:31:56Z</time></trkpt><trkpt lat="45.97917010733571" lon="12.74804465830729"><ele>32.5</ele><time>2026-04-18T09:31:58Z</time></trkpt><trkpt lat="45.97912387628182" lon="12.747921191536344"><ele>32.25</ele><time>2026-04-18T09:32:00Z</time></trkpt><trkpt lat="45.9789955837183" lon="12.747754017121768"><ele>32.0</ele><time>2026-04-18T09:32:02Z</time></trkpt><trkpt lat="45.97889854245373" lon="12.747639303126814"><ele>31.999999999999996</ele><time>2026-04-18T09:32:04Z</time></trkpt><trkpt lat="45.97883653853578" lon="12.747590299780557"><ele>32.0</ele><time>2026-04-18T09:32:05Z</time></trkpt><trkpt lat="45.978738082171425" lon="12.747555329228268"><ele>32.0</ele><time>2026-04-18T09:32:07Z</time></trkpt><trkpt lat="45.978697603281155" lon="12.747629538479687"><ele>32.0</ele><time>2026-04-18T09:32:11Z</time></trkpt><trkpt lat="45.97878518805554" lon="12.747722660108035"><ele>31.999999999999996</ele><time>2026-04-18T09:32:14Z</time></trkpt><trkpt lat="45.97884013802318" lon="12.747808573333531"><ele>32.0</ele><time>2026-04-18T09:32:16Z</time></trkpt><trkpt lat="45.97876296916315" lon="12.747842355677394"><ele>32.0</ele><time>2026-04-18T09:32:20Z</time></trkpt><trkpt lat="45.97868420475113" lon="12.747746484348252"><ele>32.0</ele><time>2026-04-18T09:32:22Z</time></trkpt><trkpt lat="45.978580332095106" lon="12.74764213186444"><ele>32.0</ele><time>2026-04-18T09:32:23Z</time></trkpt><trkpt lat="45.97853140445615" lon="12.747564945302924"><ele>32.0</ele><time>2026-04-18T09:32:24Z</time></trkpt><trkpt lat="45.978476065474425" lon="12.747460789930738"><ele>32.0</ele><time>2026-04-18T09:32:25Z</time></trkpt><trkpt lat="45.978436314885066" lon="12.74734234510589"><ele>31.857142857142854</ele><time>2026-04-18T09:32:26Z</time></trkpt><trkpt lat="45.978396937773915" lon="12.747245224137256"><ele>31.71428571428571</ele><time>2026-04-18T09:32:27Z</time></trkpt><trkpt lat="45.97835254216757" lon="12.747160899697834"><ele>31.57142857142857</ele><time>2026-04-18T09:32:28Z</time></trkpt><trkpt lat="45.978309339514276" lon="12.747094135449046"><ele>31.42857142857143</ele><time>2026-04-18T09:32:29Z</time></trkpt><trkpt lat="45.97826072444624" lon="12.747026894552091"><ele>31.28571428571429</ele><time>2026-04-18T09:32:30Z</time></trkpt><trkpt lat="45.97821569568647" lon="12.746954254986644"><ele>31.142857142857146</ele><time>2026-04-18T09:32:31Z</time></trkpt><trkpt lat="45.97815881346357" lon="12.746881819980304"><ele>31.0</ele><time>2026-04-18T09:32:32Z</time></trkpt><trkpt lat="45.97810504232935" lon="12.746809648371842"><ele>31.000000000000004</ele><time>2026-04-18T09:32:33Z</time></trkpt><trkpt lat="45.97804995496839" lon="12.746725912321484"><ele>31.0</ele><time>2026-04-18T09:32:34Z</time></trkpt><trkpt lat="45.97799719891774" lon="12.746636833319505"><ele>31.0</ele><time>2026-04-18T09:32:35Z</time></trkpt><trkpt lat="45.97795325231462" lon="12.7465496736609"><ele>31.0</ele><time>2026-04-18T09:32:36Z</time></trkpt><trkpt lat="45.97790555377426" lon="12.74646689717988"><ele>31.000000000000004</ele><time>2026-04-18T09:32:37Z</time></trkpt><trkpt lat="45.977856520290416" lon="12.746387176712828"><ele>31.0</ele><time>2026-04-18T09:32:38Z</time></trkpt><trkpt lat="45.97780623958006" lon="12.746295458696483"><ele>31.000000000000004</ele><time>2026-04-18T09:32:39Z</time></trkpt><trkpt lat="45.977754619546275" lon="12.746201145765745"><ele>31.0</ele><time>2026-04-18T09:32:40Z</time></trkpt><trkpt lat="45.977706685727725" lon="12.74610532039454"><ele>31.0</ele><time>2026-04-18T09:32:41Z</time></trkpt><trkpt lat="45.97764842018623" lon="12.746013833485183"><ele>31.0</ele><time>2026-04-18T09:32:42Z</time></trkpt><trkpt lat="45.97756779683272" lon="12.745920223514766"><ele>31.000000000000004</ele><time>2026-04-18T09:32:43Z</time></trkpt><trkpt lat="45.977515461779504" lon="12.745831005283572"><ele>31.0</ele><time>2026-04-18T09:32:44Z</time></trkpt><trkpt lat="45.97746811934343" lon="12.745747064766597"><ele>31.166666666666668</ele><time>2026-04-18T09:32:45Z</time></trkpt><trkpt lat="45.97740801040543" lon="12.745650303365608"><ele>31.333333333333336</ele><time>2026-04-18T09:32:46Z</time></trkpt><trkpt lat="45.97735234409691" lon="12.745559616577149"><ele>31.5</ele><time>2026-04-18T09:32:47Z</time></trkpt><trkpt lat="45.977294918370184" lon="12.745489154727887"><ele>31.666666666666664</ele><time>2026-04-18T09:32:48Z</time></trkpt><trkpt lat="45.97723656045529" lon="12.745417646159487"><ele>31.833333333333332</ele><time>2026-04-18T09:32:49Z</time></trkpt><trkpt lat="45.97717126702838" lon="12.745349890935708"><ele>32.0</ele><time>2026-04-18T09:32:50Z</time></trkpt><trkpt lat="45.97710442940295" lon="12.745283307597623"><ele>31.999999999999996</ele><time>2026-04-18T09:32:51Z</time></trkpt><trkpt lat="45.97703612585055" lon="12.745231383284048"><ele>32.0</ele><time>2026-04-18T09:32:52Z</time></trkpt><trkpt lat="45.976967224303905" lon="12.74517218193789"><ele>32.0</ele><time>2026-04-18T09:32:53Z</time></trkpt><trkpt lat="45.97689463003561" lon="12.74511811164288"><ele>32.0</ele><time>2026-04-18T09:32:54Z</time></trkpt><trkpt lat="45.976811832406156" lon="12.74505466165324"><ele>31.999999999999996</ele><time>2026-04-18T09:32:55Z</time></trkpt><trkpt lat="45.97673255952923" lon="12.74498784087904"><ele>32.0</ele><time>2026-04-18T09:32:56Z</time></trkpt><trkpt lat="45.97665471740766" lon="12.744916527872153"><ele>31.8</ele><time>2026-04-18T09:32:57Z</time></trkpt><trkpt lat="45.976573762864774" lon="12.744845145222868"><ele>31.6</ele><time>2026-04-18T09:32:58Z</time></trkpt><trkpt lat="45.976492393282385" lon="12.74478552073672"><ele>31.400000000000002</ele><time>2026-04-18T09:32:59Z</time></trkpt><trkpt lat="45.97640592720395" lon="12.74471067075218"><ele>31.200000000000003</ele><time>2026-04-18T09:33:00Z</time></trkpt><trkpt lat="45.97633025673512" lon="12.744634227096709"><ele>31.0</ele><time>2026-04-18T09:33:01Z</time></trkpt><trkpt lat="45.976272949674524" lon="12.744552582236384"><ele>31.0</ele><time>2026-04-18T09:33:02Z</time></trkpt><trkpt lat="45.97617976942064" lon="12.744448354160271"><ele>31.0</ele><time>2026-04-18T09:33:04Z</time></trkpt><trkpt lat="45.97612542780948" lon="12.744368301566839"><ele>31.0</ele><time>2026-04-18T09:33:05Z</time></trkpt><trkpt lat="45.97607972222365" lon="12.744246573125181"><ele>31.0</ele><time>2026-04-18T09:33:06Z</time></trkpt><trkpt lat="45.97602476100528" lon="12.744133278505933"><ele>31.0</ele><time>2026-04-18T09:33:07Z</time></trkpt><trkpt lat="45.97596903356343" lon="12.744026255622419"><ele>31.000000000000004</ele><time>2026-04-18T09:33:08Z</time></trkpt><trkpt lat="45.97590460406953" lon="12.743932411195011"><ele>31.0</ele><time>2026-04-18T09:33:09Z</time></trkpt><trkpt lat="45.975845419195046" lon="12.743850713715606"><ele>31.0</ele><time>2026-04-18T09:33:10Z</time></trkpt><trkpt lat="45.97578047758615" lon="12.743773920692913"><ele>31.0</ele><time>2026-04-18T09:33:11Z</time></trkpt><trkpt lat="45.97571522157903" lon="12.74369536976798"><ele>31.000000000000004</ele><time>2026-04-18T09:33:12Z</time></trkpt><trkpt lat="45.975650552962605" lon="12.743625099057102"><ele>31.0</ele><time>2026-04-18T09:33:13Z</time></trkpt><trkpt lat="45.97558386878739" lon="12.743559859908563"><ele>30.500000000000004</ele><time>2026-04-18T09:33:14Z</time></trkpt><trkpt lat="45.97551026065986" lon="12.743487760668872"><ele>30.0</ele><time>2026-04-18T09:33:15Z</time></trkpt><trkpt lat="45.975446814682456" lon="12.743412317576809"><ele>29.5</ele><time>2026-04-18T09:33:16Z</time></trkpt><trkpt lat="45.97539939509901" lon="12.743319499263963"><ele>29.0</ele><time>2026-04-18T09:33:17Z</time></trkpt><trkpt lat="45.975367655265636" lon="12.743227944913649"><ele>28.500000000000004</ele><time>2026-04-18T09:33:18Z</time></trkpt><trkpt lat="45.97534658483212" lon="12.743125038806157"><ele>28.0</ele><time>2026-04-18T09:33:19Z</time></trkpt><trkpt lat="45.975329668049625" lon="12.7430327009201"><ele>28.000000000000004</ele><time>2026-04-18T09:33:20Z</time></trkpt><trkpt lat="45.975316438377696" lon="12.742929753868328"><ele>28.0</ele><time>2026-04-18T09:33:21Z</time></trkpt><trkpt lat="45.97530347061539" lon="12.742822292025581"><ele>28.0</ele><time>2026-04-18T09:33:22Z</time></trkpt><trkpt lat="45.97528965580634" lon="12.7427272453696"><ele>28.0</ele><time>2026-04-18T09:33:23Z</time></trkpt><trkpt lat="45.975264818022396" lon="12.74261800750041"><ele>28.000000000000004</ele><time>2026-04-18T09:33:24Z</time></trkpt><trkpt lat="45.975235608723935" lon="12.74252358761349"><ele>28.0</ele><time>2026-04-18T09:33:25Z</time></trkpt><trkpt lat="45.97517346556101" lon="12.74238548020511"><ele>28.0</ele><time>2026-04-18T09:33:27Z</time></trkpt><trkpt lat="45.97512476107108" lon="12.742310230167584"><ele>28.0</ele><time>2026-04-18T09:33:28Z</time></trkpt><trkpt lat="45.9750717556564" lon="12.742244877713308"><ele>28.0</ele><time>2026-04-18T09:33:29Z</time></trkpt><trkpt lat="45.97500856297191" lon="12.742192596122575"><ele>28.0</ele><time>2026-04-18T09:33:30Z</time></trkpt><trkpt lat="45.97494167450605" lon="12.742157453865786"><ele>28.0</ele><time>2026-04-18T09:33:31Z</time></trkpt><trkpt lat="45.97487845751669" lon="12.742121248866441"><ele>28.0</ele><time>2026-04-18T09:33:32Z</time></trkpt><trkpt lat="45.97482433449929" lon="12.742074635700513"><ele>28.0</ele><time>2026-04-18T09:33:33Z</time></trkpt><trkpt lat="45.974774510964565" lon="12.742003760776695"><ele>28.000000000000004</ele><time>2026-04-18T09:33:35Z</time></trkpt><trkpt lat="45.97471770678274" lon="12.741926510612085"><ele>28.0</ele><time>2026-04-18T09:33:49Z</time></trkpt><trkpt lat="45.974648280265974" lon="12.741877614383784"><ele>28.0</ele><time>2026-04-18T09:39:37.999Z</time></trkpt><trkpt lat="45.97458347094236" lon="12.741803298529273"><ele>28.0</ele><time>2026-04-18T09:39:39.999Z</time></trkpt><trkpt lat="45.97449838009661" lon="12.741769038141953"><ele>28.000000000000004</ele><time>2026-04-18T09:39:41.999Z</time></trkpt><trkpt lat="45.97444413351192" lon="12.741684551665443"><ele>28.0</ele><time>2026-04-18T09:39:44.999Z</time></trkpt><trkpt lat="45.97441190998094" lon="12.741535650765705"><ele>28.2</ele><time>2026-04-18T09:39:46.999Z</time></trkpt><trkpt lat="45.97437541407288" lon="12.741438227033655"><ele>28.4</ele><time>2026-04-18T09:39:48.999Z</time></trkpt><trkpt lat="45.9742980698992" lon="12.741298201542557"><ele>28.599999999999998</ele><time>2026-04-18T09:39:50.999Z</time></trkpt><trkpt lat="45.97426127895912" lon="12.741220022226955"><ele>28.799999999999997</ele><time>2026-04-18T09:39:51.999Z</time></trkpt><trkpt lat="45.974196739328946" lon="12.74106742772824"><ele>29.0</ele><time>2026-04-18T09:39:53.999Z</time></trkpt><trkpt lat="45.97412856826489" lon="12.740912968216456"><ele>28.499999999999996</ele><time>2026-04-18T09:39:55.999Z</time></trkpt><trkpt lat="45.9740952247358" lon="12.740812775448795"><ele>28.0</ele><time>2026-04-18T09:39:56.999Z</time></trkpt><trkpt lat="45.97406788787691" lon="12.740710633194714"><ele>27.5</ele><time>2026-04-18T09:39:58Z</time></trkpt><trkpt lat="45.97404099328093" lon="12.740602988931755"><ele>27.0</ele><time>2026-04-18T09:39:59Z</time></trkpt><trkpt lat="45.97401223924138" lon="12.740511800892353"><ele>26.499999999999996</ele><time>2026-04-18T09:40:00Z</time></trkpt><trkpt lat="45.973986848226325" lon="12.740423677540546"><ele>26.0</ele><time>2026-04-18T09:40:01Z</time></trkpt><trkpt lat="45.97394847727028" lon="12.740257267480558"><ele>26.166666666666664</ele><time>2026-04-18T09:40:03Z</time></trkpt><trkpt lat="45.973916935963246" lon="12.740164426208576"><ele>26.333333333333332</ele><time>2026-04-18T09:40:04Z</time></trkpt><trkpt lat="45.97388751757718" lon="12.740069772080549"><ele>26.5</ele><time>2026-04-18T09:40:05Z</time></trkpt><trkpt lat="45.97382115944595" lon="12.739921699763649"><ele>26.666666666666664</ele><time>2026-04-18T09:40:07Z</time></trkpt><trkpt lat="45.97377364672381" lon="12.739853055110196"><ele>26.833333333333332</ele><time>2026-04-18T09:40:08Z</time></trkpt><trkpt lat="45.97370024839565" lon="12.739755418571557"><ele>27.0</ele><time>2026-04-18T09:40:10Z</time></trkpt><trkpt lat="45.97364216370363" lon="12.739615858653728"><ele>27.0</ele><time>2026-04-18T09:40:12Z</time></trkpt><trkpt lat="45.97362963023746" lon="12.739525153214442"><ele>27.0</ele><time>2026-04-18T09:40:13Z</time></trkpt><trkpt lat="45.973622424295215" lon="12.739400255935294"><ele>27.0</ele><time>2026-04-18T09:40:14Z</time></trkpt><trkpt lat="45.97360635386774" lon="12.739262803633185"><ele>27.0</ele><time>2026-04-18T09:40:15Z</time></trkpt><trkpt lat="45.97358840927945" lon="12.739148421331791"><ele>27.0</ele><time>2026-04-18T09:40:16Z</time></trkpt><trkpt lat="45.9735649032254" lon="12.739011517291068"><ele>27.0</ele><time>2026-04-18T09:40:18Z</time></trkpt><trkpt lat="45.97360176519691" lon="12.738931922457896"><ele>27.333333333333332</ele><time>2026-04-18T09:40:21Z</time></trkpt><trkpt lat="45.973660728709554" lon="12.738899542730291"><ele>27.666666666666664</ele><time>2026-04-18T09:40:23Z</time></trkpt><trkpt lat="45.973691018318725" lon="12.738801836129378"><ele>28.0</ele><time>2026-04-18T09:40:25Z</time></trkpt><trkpt lat="45.97369230916798" lon="12.738700520775527"><ele>28.333333333333332</ele><time>2026-04-18T09:40:26Z</time></trkpt><trkpt lat="45.97371034472483" lon="12.738558579082616"><ele>28.666666666666664</ele><time>2026-04-18T09:40:28Z</time></trkpt><trkpt lat="45.97373272550057" lon="12.73845676632261"><ele>29.0</ele><time>2026-04-18T09:40:30Z</time></trkpt><trkpt lat="45.97374906829971" lon="12.738360385410546"><ele>29.0</ele><time>2026-04-18T09:40:32Z</time></trkpt><trkpt lat="45.973795586145854" lon="12.738219402225603"><ele>29.0</ele><time>2026-04-18T09:40:33Z</time></trkpt><trkpt lat="45.97382750495814" lon="12.738130796746029"><ele>29.0</ele><time>2026-04-18T09:40:34Z</time></trkpt><trkpt lat="45.97385672023885" lon="12.737965030001634"><ele>29.0</ele><time>2026-04-18T09:40:36Z</time></trkpt><trkpt lat="45.97388938515771" lon="12.737798871328799"><ele>29.0</ele><time>2026-04-18T09:40:38Z</time></trkpt><trkpt lat="45.97390537510359" lon="12.737696892693535"><ele>28.999999999999996</ele><time>2026-04-18T09:40:39Z</time></trkpt><trkpt lat="45.97390466105903" lon="12.737591885277753"><ele>29.0</ele><time>2026-04-18T09:40:40Z</time></trkpt><trkpt lat="45.97390196405743" lon="12.737492819508276"><ele>29.0</ele><time>2026-04-18T09:40:41Z</time></trkpt><trkpt lat="45.9738959298587" lon="12.737400794861854"><ele>29.0</ele><time>2026-04-18T09:40:42Z</time></trkpt><trkpt lat="45.97385023820663" lon="12.737238228209835"><ele>28.999999999999996</ele><time>2026-04-18T09:40:44Z</time></trkpt><trkpt lat="45.973803140984366" lon="12.737160083527256"><ele>29.0</ele><time>2026-04-18T09:40:45Z</time></trkpt><trkpt lat="45.97375454902205" lon="12.737068727269644"><ele>28.999999999999996</ele><time>2026-04-18T09:40:46Z</time></trkpt><trkpt lat="45.973709178056275" lon="12.736979882425624"><ele>29.0</ele><time>2026-04-18T09:40:47Z</time></trkpt><trkpt lat="45.973662899753066" lon="12.736890586854184"><ele>29.0</ele><time>2026-04-18T09:40:48Z</time></trkpt><trkpt lat="45.97361452135802" lon="12.736796373351392"><ele>29.0</ele><time>2026-04-18T09:40:49Z</time></trkpt><trkpt lat="45.97356836948122" lon="12.736704815147998"><ele>28.999999999999996</ele><time>2026-04-18T09:40:50Z</time></trkpt><trkpt lat="45.97350872044303" lon="12.736626080332462"><ele>29.0</ele><time>2026-04-18T09:40:51Z</time></trkpt><trkpt lat="45.97343999046566" lon="12.73656316088273"><ele>28.666666666666664</ele><time>2026-04-18T09:40:52Z</time></trkpt><trkpt lat="45.97337360255626" lon="12.736506731267216"><ele>28.333333333333332</ele><time>2026-04-18T09:40:53Z</time></trkpt><trkpt lat="45.97330455764602" lon="12.736445529427932"><ele>28.0</ele><time>2026-04-18T09:40:54Z</time></trkpt><trkpt lat="45.9732181522143" lon="12.736323921818016"><ele>27.666666666666664</ele><time>2026-04-18T09:40:56Z</time></trkpt><trkpt lat="45.97318797343406" lon="12.73623927235175"><ele>27.333333333333332</ele><time>2026-04-18T09:40:57Z</time></trkpt><trkpt lat="45.97317081871656" lon="12.736151580909237"><ele>27.0</ele><time>2026-04-18T09:40:58Z</time></trkpt><trkpt lat="45.973185175478505" lon="12.736003841584603"><ele>26.666666666666668</ele><time>2026-04-18T09:41:00Z</time></trkpt><trkpt lat="45.973203359804295" lon="12.735913211603345"><ele>26.333333333333336</ele><time>2026-04-18T09:41:01Z</time></trkpt><trkpt lat="45.97322276239016" lon="12.735822289095212"><ele>26.0</ele><time>2026-04-18T09:41:02Z</time></trkpt><trkpt lat="45.97320577390457" lon="12.735670113267402"><ele>25.666666666666668</ele><time>2026-04-18T09:41:04Z</time></trkpt><trkpt lat="45.973169173302395" lon="12.73559560891022"><ele>25.333333333333336</ele><time>2026-04-18T09:41:05Z</time></trkpt><trkpt lat="45.97312028668794" lon="12.735514950699676"><ele>25.0</ele><time>2026-04-18T09:41:06Z</time></trkpt><trkpt lat="45.97307704896939" lon="12.735420817373038"><ele>25.000000000000004</ele><time>2026-04-18T09:41:07Z</time></trkpt><trkpt lat="45.97303967156097" lon="12.735336005285012"><ele>25.0</ele><time>2026-04-18T09:41:08Z</time></trkpt><trkpt lat="45.97300172432933" lon="12.7352287272568"><ele>25.0</ele><time>2026-04-18T09:41:10Z</time></trkpt><trkpt lat="45.97299250763372" lon="12.73506019551733"><ele>25.0</ele><time>2026-04-18T09:41:12Z</time></trkpt><trkpt lat="45.97299969131923" lon="12.734962833251279"><ele>25.000000000000004</ele><time>2026-04-18T09:41:13Z</time></trkpt><trkpt lat="45.972998161745174" lon="12.734861307447025"><ele>25.0</ele><time>2026-04-18T09:41:14Z</time></trkpt><trkpt lat="45.97300857975924" lon="12.734759001346582"><ele>25.000000000000004</ele><time>2026-04-18T09:41:15Z</time></trkpt><trkpt lat="45.973031565713164" lon="12.734667841052051"><ele>25.0</ele><time>2026-04-18T09:41:16Z</time></trkpt><trkpt lat="45.97307617318894" lon="12.734571710593034"><ele>25.0</ele><time>2026-04-18T09:41:18Z</time></trkpt><trkpt lat="45.9731651139412" lon="12.734576357855792"><ele>25.0</ele><time>2026-04-18T09:41:32Z</time></trkpt><trkpt lat="45.973233272163874" lon="12.734579693866202"><ele>25.000000000000004</ele><time>2026-04-18T09:41:34Z</time></trkpt><trkpt lat="45.97330917787005" lon="12.734533778412569"><ele>25.0</ele><time>2026-04-18T09:41:36Z</time></trkpt><trkpt lat="45.97338227395691" lon="12.734633725550728"><ele>25.000000000000004</ele><time>2026-04-18T09:41:37.999Z</time></trkpt><trkpt lat="45.97342054161126" lon="12.734742970252613"><ele>25.0</ele><time>2026-04-18T09:41:38.999Z</time></trkpt><trkpt lat="45.973449315173696" lon="12.734838514151292"><ele>25.0</ele><time>2026-04-18T09:41:39.999Z</time></trkpt><trkpt lat="45.97348619830567" lon="12.734918674023604"><ele>25.0</ele><time>2026-04-18T09:41:40.999Z</time></trkpt><trkpt lat="45.973542109801805" lon="12.734974966775084"><ele>25.000000000000004</ele><time>2026-04-18T09:41:41.999Z</time></trkpt><trkpt lat="45.9736085010789" lon="12.735022514030126"><ele>25.0</ele><time>2026-04-18T09:41:42.999Z</time></trkpt><trkpt lat="45.973679372762795" lon="12.735110972950231"><ele>24.8</ele><time>2026-04-18T09:41:44.999Z</time></trkpt><trkpt lat="45.97369043993828" lon="12.73524029987853"><ele>24.6</ele><time>2026-04-18T09:41:46.999Z</time></trkpt><trkpt lat="45.973650691682806" lon="12.735380296552238"><ele>24.4</ele><time>2026-04-18T09:41:48.999Z</time></trkpt><trkpt lat="45.97369272775976" lon="12.735562942589668"><ele>24.2</ele><time>2026-04-18T09:41:50.999Z</time></trkpt><trkpt lat="45.97374084504853" lon="12.735688505247683"><ele>24.0</ele><time>2026-04-18T09:41:51.999Z</time></trkpt><trkpt lat="45.97377751656262" lon="12.73578413527171"><ele>24.0</ele><time>2026-04-18T09:41:52.999Z</time></trkpt><trkpt lat="45.973806542922816" lon="12.735891749472703"><ele>24.0</ele><time>2026-04-18T09:41:54.999Z</time></trkpt><trkpt lat="45.97387810707956" lon="12.735869079542141"><ele>24.0</ele><time>2026-04-18T09:41:57.999Z</time></trkpt><trkpt lat="45.97394006546058" lon="12.735775266820362"><ele>24.0</ele><time>2026-04-18T09:41:59.999Z</time></trkpt><trkpt lat="45.974000413003836" lon="12.735701278559294"><ele>24.0</ele><time>2026-04-18T09:42:01.999Z</time></trkpt><trkpt lat="45.97406904809384" lon="12.73571013391751"><ele>24.0</ele><time>2026-04-18T09:42:04Z</time></trkpt><trkpt lat="45.97412011795948" lon="12.735828264900558"><ele>24.0</ele><time>2026-04-18T09:42:06Z</time></trkpt><trkpt lat="45.97414868466086" lon="12.73598835217904"><ele>24.0</ele><time>2026-04-18T09:42:08Z</time></trkpt><trkpt lat="45.97421715689704" lon="12.736134026856856"><ele>24.0</ele><time>2026-04-18T09:42:10Z</time></trkpt><trkpt lat="45.97422034251724" lon="12.73625858766828"><ele>24.0</ele><time>2026-04-18T09:42:13Z</time></trkpt><trkpt lat="45.97426879286184" lon="12.73644200708231"><ele>24.5</ele><time>2026-04-18T09:42:15Z</time></trkpt><trkpt lat="45.97431040285177" lon="12.736529381693385"><ele>25.0</ele><time>2026-04-18T09:42:16Z</time></trkpt><trkpt lat="45.97436332433254" lon="12.73658812395338"><ele>25.5</ele><time>2026-04-18T09:42:17Z</time></trkpt><trkpt lat="45.97442562544776" lon="12.736650721572191"><ele>26.0</ele><time>2026-04-18T09:42:18Z</time></trkpt><trkpt lat="45.97448135535308" lon="12.736707958320867"><ele>26.5</ele><time>2026-04-18T09:42:19Z</time></trkpt><trkpt lat="45.974569765348846" lon="12.736784671581502"><ele>27.0</ele><time>2026-04-18T09:42:21Z</time></trkpt><trkpt lat="45.97468281087452" lon="12.736790155334313"><ele>27.0</ele><time>2026-04-18T09:42:23Z</time></trkpt><trkpt lat="45.97478207136217" lon="12.736721427613375"><ele>27.0</ele><time>2026-04-18T09:42:25Z</time></trkpt><trkpt lat="45.97482984569503" lon="12.736655534099715"><ele>27.0</ele><time>2026-04-18T09:42:26Z</time></trkpt><trkpt lat="45.97486292636192" lon="12.73656197013194"><ele>27.0</ele><time>2026-04-18T09:42:27Z</time></trkpt><trkpt lat="45.974882423215696" lon="12.736469275139251"><ele>27.0</ele><time>2026-04-18T09:42:28Z</time></trkpt><trkpt lat="45.974875597235766" lon="12.736303823890443"><ele>27.0</ele><time>2026-04-18T09:42:30Z</time></trkpt><trkpt lat="45.974842821215404" lon="12.736223583751919"><ele>27.0</ele><time>2026-04-18T09:42:31Z</time></trkpt><trkpt lat="45.97479523542923" lon="12.736127886070234"><ele>27.000000000000004</ele><time>2026-04-18T09:42:32Z</time></trkpt><trkpt lat="45.974731312583074" lon="12.736020347913648"><ele>27.000000000000004</ele><time>2026-04-18T09:42:33Z</time></trkpt><trkpt lat="45.97466063653838" lon="12.735910763404522"><ele>27.0</ele><time>2026-04-18T09:42:34Z</time></trkpt><trkpt lat="45.97458809284921" lon="12.735808476637766"><ele>27.0</ele><time>2026-04-18T09:42:35Z</time></trkpt><trkpt lat="45.974514881107346" lon="12.735700561854408"><ele>26.8</ele><time>2026-04-18T09:42:36Z</time></trkpt><trkpt lat="45.974440664557804" lon="12.735586966989823"><ele>26.6</ele><time>2026-04-18T09:42:37Z</time></trkpt><trkpt lat="45.97437257404815" lon="12.735488860026132"><ele>26.400000000000002</ele><time>2026-04-18T09:42:38Z</time></trkpt><trkpt lat="45.97431260836745" lon="12.735398781318287"><ele>26.200000000000003</ele><time>2026-04-18T09:42:39Z</time></trkpt><trkpt lat="45.9742556155015" lon="12.735306819831907"><ele>26.0</ele><time>2026-04-18T09:42:40Z</time></trkpt><trkpt lat="45.974212833982506" lon="12.735219257543914"><ele>25.999999999999996</ele><time>2026-04-18T09:42:41Z</time></trkpt><trkpt lat="45.97419568163935" lon="12.735053845876536"><ele>26.0</ele><time>2026-04-18T09:42:43Z</time></trkpt><trkpt lat="45.974176542173765" lon="12.734949567460873"><ele>26.0</ele><time>2026-04-18T09:42:44Z</time></trkpt><trkpt lat="45.974130477964756" lon="12.734859824622907"><ele>26.0</ele><time>2026-04-18T09:42:45Z</time></trkpt><trkpt lat="45.97406756238417" lon="12.734777712257424"><ele>25.999999999999996</ele><time>2026-04-18T09:42:46Z</time></trkpt><trkpt lat="45.97400184573695" lon="12.73468088012831"><ele>26.0</ele><time>2026-04-18T09:42:47Z</time></trkpt><trkpt lat="45.973953659864414" lon="12.734559214439843"><ele>26.0</ele><time>2026-04-18T09:42:48Z</time></trkpt><trkpt lat="45.97391750815346" lon="12.734419675649587"><ele>26.0</ele><time>2026-04-18T09:42:49Z</time></trkpt><trkpt lat="45.97389093396952" lon="12.734273961965593"><ele>26.0</ele><time>2026-04-18T09:42:50Z</time></trkpt><trkpt lat="45.973870212506434" lon="12.734137599562159"><ele>26.0</ele><time>2026-04-18T09:42:51Z</time></trkpt><trkpt lat="45.97384937790691" lon="12.73401341679581"><ele>26.0</ele><time>2026-04-18T09:42:52Z</time></trkpt><trkpt lat="45.97382979671543" lon="12.733878985732549"><ele>26.0</ele><time>2026-04-18T09:42:53Z</time></trkpt><trkpt lat="45.973801970812524" lon="12.733743542750362"><ele>26.0</ele><time>2026-04-18T09:42:54Z</time></trkpt><trkpt lat="45.97376795387608" lon="12.733611838315687"><ele>26.0</ele><time>2026-04-18T09:42:55Z</time></trkpt><trkpt lat="45.97372518509297" lon="12.73347920132892"><ele>26.0</ele><time>2026-04-18T09:42:56Z</time></trkpt><trkpt lat="45.97367709635947" lon="12.733349671630739"><ele>26.0</ele><time>2026-04-18T09:42:57Z</time></trkpt><trkpt lat="45.97362682216476" lon="12.73322166056278"><ele>26.0</ele><time>2026-04-18T09:42:58Z</time></trkpt><trkpt lat="45.97357899012441" lon="12.733091596433008"><ele>26.0</ele><time>2026-04-18T09:42:59Z</time></trkpt><trkpt lat="45.973524742405075" lon="12.732961624842995"><ele>26.0</ele><time>2026-04-18T09:43:00Z</time></trkpt><trkpt lat="45.973476090712715" lon="12.732835400743875"><ele>26.0</ele><time>2026-04-18T09:43:01Z</time></trkpt><trkpt lat="45.9734273718292" lon="12.732715137187082"><ele>26.0</ele><time>2026-04-18T09:43:02Z</time></trkpt><trkpt lat="45.97338450001831" lon="12.732600188248261"><ele>25.833333333333332</ele><time>2026-04-18T09:43:03Z</time></trkpt><trkpt lat="45.97334144961963" lon="12.732482286317019"><ele>25.666666666666664</ele><time>2026-04-18T09:43:04Z</time></trkpt><trkpt lat="45.97329393674073" lon="12.732371012250056"><ele>25.5</ele><time>2026-04-18T09:43:05Z</time></trkpt><trkpt lat="45.97323748786185" lon="12.732265827598825"><ele>25.333333333333336</ele><time>2026-04-18T09:43:06Z</time></trkpt><trkpt lat="45.97317521046713" lon="12.732178170322882"><ele>25.166666666666668</ele><time>2026-04-18T09:43:07Z</time></trkpt><trkpt lat="45.973130551298865" lon="12.73208601449318"><ele>25.0</ele><time>2026-04-18T09:43:08Z</time></trkpt><trkpt lat="45.97307868479959" lon="12.731993284964517"><ele>25.000000000000004</ele><time>2026-04-18T09:43:09Z</time></trkpt><trkpt lat="45.97302079407652" lon="12.731901603901402"><ele>25.0</ele><time>2026-04-18T09:43:10Z</time></trkpt><trkpt lat="45.9729660607625" lon="12.731803913018062"><ele>25.0</ele><time>2026-04-18T09:43:11Z</time></trkpt><trkpt lat="45.972915310486215" lon="12.731703410335653"><ele>25.0</ele><time>2026-04-18T09:43:12Z</time></trkpt><trkpt lat="45.9728789135864" lon="12.731594994393475"><ele>25.000000000000004</ele><time>2026-04-18T09:43:13Z</time></trkpt><trkpt lat="45.97284112797145" lon="12.731488093231274"><ele>25.0</ele><time>2026-04-18T09:43:14Z</time></trkpt><trkpt lat="45.97280461188474" lon="12.731389250229705"><ele>25.0</ele><time>2026-04-18T09:43:15Z</time></trkpt><trkpt lat="45.97276729809213" lon="12.731314011669117"><ele>25.0</ele><time>2026-04-18T09:43:16Z</time></trkpt><trkpt lat="45.97268175803839" lon="12.731218841217405"><ele>25.0</ele><time>2026-04-18T09:43:18Z</time></trkpt><trkpt lat="45.97259485258528" lon="12.73116336645838"><ele>25.0</ele><time>2026-04-18T09:43:19Z</time></trkpt><trkpt lat="45.972528465406775" lon="12.731115479321994"><ele>25.0</ele><time>2026-04-18T09:43:20Z</time></trkpt><trkpt lat="45.97242373203466" lon="12.731043231143202"><ele>25.0</ele><time>2026-04-18T09:43:22Z</time></trkpt><trkpt lat="45.972295517805705" lon="12.731019215835024"><ele>25.0</ele><time>2026-04-18T09:43:24Z</time></trkpt><trkpt lat="45.97221618287917" lon="12.731014104841403"><ele>25.0</ele><time>2026-04-18T09:43:25Z</time></trkpt><trkpt lat="45.97213787304214" lon="12.731012227150057"><ele>25.0</ele><time>2026-04-18T09:43:26Z</time></trkpt><trkpt lat="45.97201997263497" lon="12.730954420680362"><ele>25.0</ele><time>2026-04-18T09:43:28Z</time></trkpt><trkpt lat="45.97194784954869" lon="12.730907540875432"><ele>25.0</ele><time>2026-04-18T09:43:29Z</time></trkpt><trkpt lat="45.97187855229512" lon="12.730862002501098"><ele>25.0</ele><time>2026-04-18T09:43:30Z</time></trkpt><trkpt lat="45.97179054120893" lon="12.730794892374515"><ele>25.0</ele><time>2026-04-18T09:43:32Z</time></trkpt><trkpt lat="45.971731369180645" lon="12.730760043576078"><ele>25.0</ele><time>2026-04-18T09:43:33Z</time></trkpt><trkpt lat="45.971631325567245" lon="12.730688622728222"><ele>25.0</ele><time>2026-04-18T09:43:35Z</time></trkpt><trkpt lat="45.97152784723745" lon="12.730592823942793"><ele>24.833333333333336</ele><time>2026-04-18T09:43:37Z</time></trkpt><trkpt lat="45.971474492024974" lon="12.730542136263253"><ele>24.666666666666668</ele><time>2026-04-18T09:43:38Z</time></trkpt><trkpt lat="45.9714182737074" lon="12.73047421103028"><ele>24.5</ele><time>2026-04-18T09:43:39Z</time></trkpt><trkpt lat="45.97136403749706" lon="12.730386682789876"><ele>24.333333333333336</ele><time>2026-04-18T09:43:40Z</time></trkpt><trkpt lat="45.97131494428215" lon="12.730284576244872"><ele>24.166666666666668</ele><time>2026-04-18T09:43:41Z</time></trkpt><trkpt lat="45.971260155658534" lon="12.730188792280826"><ele>24.0</ele><time>2026-04-18T09:43:42Z</time></trkpt><trkpt lat="45.9712115707272" lon="12.73010171742707"><ele>23.999999999999996</ele><time>2026-04-18T09:43:43Z</time></trkpt><trkpt lat="45.971168528111235" lon="12.730023736625016"><ele>24.0</ele><time>2026-04-18T09:43:44Z</time></trkpt><trkpt lat="45.97112439717879" lon="12.729951454139934"><ele>24.0</ele><time>2026-04-18T09:43:45Z</time></trkpt><trkpt lat="45.97107652334006" lon="12.729876702657803"><ele>24.0</ele><time>2026-04-18T09:43:46Z</time></trkpt><trkpt lat="45.97102410049029" lon="12.72979115180108"><ele>24.0</ele><time>2026-04-18T09:43:47Z</time></trkpt><trkpt lat="45.97096931946349" lon="12.729706537228562"><ele>23.999999999999996</ele><time>2026-04-18T09:43:48Z</time></trkpt><trkpt lat="45.97091245814423" lon="12.72961973130225"><ele>24.0</ele><time>2026-04-18T09:43:49Z</time></trkpt><trkpt lat="45.97086252126232" lon="12.72954451310342"><ele>24.166666666666668</ele><time>2026-04-18T09:43:50Z</time></trkpt><trkpt lat="45.970817345271136" lon="12.729475206393914"><ele>24.333333333333336</ele><time>2026-04-18T09:43:51Z</time></trkpt><trkpt lat="45.970739125765554" lon="12.72935530927383"><ele>24.5</ele><time>2026-04-18T09:43:53Z</time></trkpt><trkpt lat="45.97064952417152" lon="12.729275311536385"><ele>24.666666666666668</ele><time>2026-04-18T09:43:55Z</time></trkpt><trkpt lat="45.97058732165315" lon="12.729251155845759"><ele>24.833333333333336</ele><time>2026-04-18T09:43:57Z</time></trkpt><trkpt lat="45.970498381051094" lon="12.729232284398547"><ele>25.0</ele><time>2026-04-18T09:44:07.999Z</time></trkpt><trkpt lat="45.97041007853057" lon="12.729247003716198"><ele>25.000000000000004</ele><time>2026-04-18T09:44:11Z</time></trkpt><trkpt lat="45.970342821578434" lon="12.729299837455379"><ele>25.0</ele><time>2026-04-18T09:44:13Z</time></trkpt><trkpt lat="45.97026501507721" lon="12.729352901321885"><ele>25.0</ele><time>2026-04-18T09:44:16Z</time></trkpt><trkpt lat="45.970271511831335" lon="12.729454358250953"><ele>25.0</ele><time>2026-04-18T09:44:19Z</time></trkpt><trkpt lat="45.97033051996019" lon="12.729416430724184"><ele>25.000000000000004</ele><time>2026-04-18T09:44:34Z</time></trkpt><trkpt lat="45.970380197502145" lon="12.729352873677193"><ele>25.0</ele><time>2026-04-18T09:44:36Z</time></trkpt><trkpt lat="45.97041539092901" lon="12.729240507337781"><ele>24.6</ele><time>2026-04-18T09:44:38Z</time></trkpt><trkpt lat="45.970431477745926" lon="12.72915110339081"><ele>24.2</ele><time>2026-04-18T09:44:41Z</time></trkpt><trkpt lat="45.970361806172725" lon="12.729087548379347"><ele>23.799999999999997</ele><time>2026-04-18T09:44:59Z</time></trkpt><trkpt lat="45.97028428113516" lon="12.72896831711607"><ele>23.4</ele><time>2026-04-18T09:45:01Z</time></trkpt><trkpt lat="45.970245084425954" lon="12.728886399940766"><ele>23.0</ele><time>2026-04-18T09:45:02Z</time></trkpt><trkpt lat="45.970175308597064" lon="12.728734604652773"><ele>23.0</ele><time>2026-04-18T09:45:04Z</time></trkpt><trkpt lat="45.970130143975574" lon="12.728650801109401"><ele>23.0</ele><time>2026-04-18T09:45:05Z</time></trkpt><trkpt lat="45.9700820015038" lon="12.728571135779761"><ele>23.0</ele><time>2026-04-18T09:45:06Z</time></trkpt><trkpt lat="45.970010261413236" lon="12.728464171277997"><ele>23.0</ele><time>2026-04-18T09:45:08Z</time></trkpt><trkpt lat="45.96997744851743" lon="12.72837055973793"><ele>23.0</ele><time>2026-04-18T09:45:10Z</time></trkpt><trkpt lat="45.96999170712387" lon="12.728259546012543"><ele>23.0</ele><time>2026-04-18T09:45:14Z</time></trkpt><trkpt lat="45.97009050393701" lon="12.72821023715882"><ele>23.166666666666668</ele><time>2026-04-18T09:45:16Z</time></trkpt><trkpt lat="45.97016675443208" lon="12.728172900964777"><ele>23.333333333333336</ele><time>2026-04-18T09:45:17Z</time></trkpt><trkpt lat="45.97024244592225" lon="12.728112097133927"><ele>23.5</ele><time>2026-04-18T09:45:18Z</time></trkpt><trkpt lat="45.97030247733964" lon="12.728057401056137"><ele>23.666666666666668</ele><time>2026-04-18T09:45:19Z</time></trkpt><trkpt lat="45.97040643795424" lon="12.727946424366163"><ele>23.833333333333332</ele><time>2026-04-18T09:45:21Z</time></trkpt><trkpt lat="45.97046663532804" lon="12.727870606220552"><ele>24.0</ele><time>2026-04-18T09:45:22Z</time></trkpt><trkpt lat="45.970534470893824" lon="12.72781154440034"><ele>23.999999999999996</ele><time>2026-04-18T09:45:23Z</time></trkpt><trkpt lat="45.97060257748674" lon="12.727772477675737"><ele>24.0</ele><time>2026-04-18T09:45:24Z</time></trkpt><trkpt lat="45.97067477809076" lon="12.72774769639218"><ele>24.0</ele><time>2026-04-18T09:45:25Z</time></trkpt><trkpt lat="45.97075019186375" lon="12.72772525796721"><ele>24.0</ele><time>2026-04-18T09:45:26Z</time></trkpt><trkpt lat="45.97082182296108" lon="12.727695125196764"><ele>24.0</ele><time>2026-04-18T09:45:27Z</time></trkpt><trkpt lat="45.970884775149685" lon="12.727651946611218"><ele>23.999999999999996</ele><time>2026-04-18T09:45:28Z</time></trkpt><trkpt lat="45.970951640189995" lon="12.727597114865"><ele>24.0</ele><time>2026-04-18T09:45:29Z</time></trkpt><trkpt lat="45.97104384738619" lon="12.727531048675043"><ele>24.5</ele><time>2026-04-18T09:45:31Z</time></trkpt><trkpt lat="45.9711519284434" lon="12.727481025174262"><ele>25.0</ele><time>2026-04-18T09:45:33Z</time></trkpt><trkpt lat="45.97126435001932" lon="12.727460056631802"><ele>25.5</ele><time>2026-04-18T09:45:35Z</time></trkpt><trkpt lat="45.97136918874716" lon="12.727535523982421"><ele>26.0</ele><time>2026-04-18T09:45:37Z</time></trkpt><trkpt lat="45.97147170436126" lon="12.727578602700513"><ele>26.0</ele><time>2026-04-18T09:45:39Z</time></trkpt><trkpt lat="45.97155508627684" lon="12.727599100478063"><ele>26.0</ele><time>2026-04-18T09:45:41Z</time></trkpt><trkpt lat="45.97165667534087" lon="12.727588139153589"><ele>26.0</ele><time>2026-04-18T09:45:43Z</time></trkpt><trkpt lat="45.971721359270795" lon="12.727580989126121"><ele>26.0</ele><time>2026-04-18T09:45:44Z</time></trkpt><trkpt lat="45.97183022296834" lon="12.727604377617423"><ele>26.0</ele><time>2026-04-18T09:45:46Z</time></trkpt><trkpt lat="45.971973261171755" lon="12.727578618956219"><ele>25.8</ele><time>2026-04-18T09:45:48Z</time></trkpt><trkpt lat="45.97204288505117" lon="12.727555776337661"><ele>25.6</ele><time>2026-04-18T09:45:49Z</time></trkpt><trkpt lat="45.97214919083635" lon="12.727534880287397"><ele>25.4</ele><time>2026-04-18T09:45:51Z</time></trkpt><trkpt lat="45.972267013026936" lon="12.727455811973812"><ele>25.2</ele><time>2026-04-18T09:45:53Z</time></trkpt><trkpt lat="45.97238837402404" lon="12.727392661986176"><ele>25.0</ele><time>2026-04-18T09:45:55Z</time></trkpt><trkpt lat="45.972505138854935" lon="12.72736000181971"><ele>25.166666666666668</ele><time>2026-04-18T09:45:57Z</time></trkpt><trkpt lat="45.97256279005065" lon="12.72730598229483"><ele>25.333333333333336</ele><time>2026-04-18T09:45:58Z</time></trkpt><trkpt lat="45.972614713049786" lon="12.727229609463619"><ele>25.5</ele><time>2026-04-18T09:46:00Z</time></trkpt><trkpt lat="45.97267308868208" lon="12.727186126223545"><ele>25.666666666666664</ele><time>2026-04-18T09:46:03Z</time></trkpt><trkpt lat="45.97277040862149" lon="12.727076688894961"><ele>25.833333333333332</ele><time>2026-04-18T09:46:05Z</time></trkpt><trkpt lat="45.97283392657934" lon="12.727001364327165"><ele>26.0</ele><time>2026-04-18T09:46:06Z</time></trkpt><trkpt lat="45.97288291725283" lon="12.726941518315586"><ele>25.666666666666664</ele><time>2026-04-18T09:46:07Z</time></trkpt><trkpt lat="45.97296659391641" lon="12.726833559542197"><ele>25.333333333333332</ele><time>2026-04-18T09:46:09Z</time></trkpt><trkpt lat="45.9730208609601" lon="12.726740323574319"><ele>25.0</ele><time>2026-04-18T09:46:12Z</time></trkpt><trkpt lat="45.97299582532283" lon="12.72660183279084"><ele>24.666666666666664</ele><time>2026-04-18T09:46:14Z</time></trkpt><trkpt lat="45.97295825976298" lon="12.726525269129567"><ele>24.333333333333332</ele><time>2026-04-18T09:46:15Z</time></trkpt><trkpt lat="45.972902137418366" lon="12.726438032557784"><ele>24.0</ele><time>2026-04-18T09:46:16Z</time></trkpt><trkpt lat="45.97282771046877" lon="12.726343039076271"><ele>24.0</ele><time>2026-04-18T09:46:17Z</time></trkpt><trkpt lat="45.972749004187904" lon="12.726230354505613"><ele>24.0</ele><time>2026-04-18T09:46:18Z</time></trkpt><trkpt lat="45.97268720317074" lon="12.72613034969409"><ele>24.0</ele><time>2026-04-18T09:46:19Z</time></trkpt><trkpt lat="45.97261992139067" lon="12.726039179068996"><ele>24.0</ele><time>2026-04-18T09:46:20Z</time></trkpt><trkpt lat="45.97252990285848" lon="12.72595167604283"><ele>24.0</ele><time>2026-04-18T09:46:21Z</time></trkpt><trkpt lat="45.97241825554869" lon="12.725873393699349"><ele>23.799999999999997</ele><time>2026-04-18T09:46:22Z</time></trkpt><trkpt lat="45.97230112467568" lon="12.725831063910535"><ele>23.599999999999998</ele><time>2026-04-18T09:46:23Z</time></trkpt><trkpt lat="45.97220478824434" lon="12.725799612862591"><ele>23.4</ele><time>2026-04-18T09:46:24Z</time></trkpt><trkpt lat="45.972129166230744" lon="12.725780852251358"><ele>23.2</ele><time>2026-04-18T09:46:25Z</time></trkpt><trkpt lat="45.97202740844706" lon="12.725719433565377"><ele>23.0</ele><time>2026-04-18T09:46:27Z</time></trkpt><trkpt lat="45.97198108546471" lon="12.725603706208135"><ele>23.0</ele><time>2026-04-18T09:46:29Z</time></trkpt><trkpt lat="45.972010413363805" lon="12.725452290880131"><ele>23.0</ele><time>2026-04-18T09:46:31Z</time></trkpt><trkpt lat="45.9720638386124" lon="12.725363218203078"><ele>23.0</ele><time>2026-04-18T09:46:32Z</time></trkpt><trkpt lat="45.97211661119007" lon="12.725269912475113"><ele>23.0</ele><time>2026-04-18T09:46:33Z</time></trkpt><trkpt lat="45.972155531660306" lon="12.725180668162428"><ele>23.0</ele><time>2026-04-18T09:46:34Z</time></trkpt><trkpt lat="45.97221196772804" lon="12.725015661964974"><ele>23.166666666666668</ele><time>2026-04-18T09:46:36Z</time></trkpt><trkpt lat="45.9722490672514" lon="12.72489923676613"><ele>23.333333333333336</ele><time>2026-04-18T09:46:38Z</time></trkpt><trkpt lat="45.97225249053093" lon="12.724805969709255"><ele>23.5</ele><time>2026-04-18T09:46:40Z</time></trkpt><trkpt lat="45.97221945058266" lon="12.724724815147248"><ele>23.666666666666668</ele><time>2026-04-18T09:46:42Z</time></trkpt><trkpt lat="45.97211360864506" lon="12.724701153366873"><ele>23.833333333333332</ele><time>2026-04-18T09:46:44Z</time></trkpt><trkpt lat="45.97204257735528" lon="12.724724085381357"><ele>24.0</ele><time>2026-04-18T09:46:45Z</time></trkpt><trkpt lat="45.97196256913975" lon="12.724708781436991"><ele>24.0</ele><time>2026-04-18T09:46:46Z</time></trkpt><trkpt lat="45.97187992972259" lon="12.724678252472163"><ele>24.0</ele><time>2026-04-18T09:46:46.999Z</time></trkpt><trkpt lat="45.97177274143252" lon="12.724676158982712"><ele>24.0</ele><time>2026-04-18T09:46:47.999Z</time></trkpt><trkpt lat="45.97166476609479" lon="12.724695634441298"><ele>24.0</ele><time>2026-04-18T09:46:48.999Z</time></trkpt><trkpt lat="45.97155621470123" lon="12.724722557679671"><ele>24.0</ele><time>2026-04-18T09:46:49.999Z</time></trkpt><trkpt lat="45.971444881249525" lon="12.724751863232756"><ele>24.25</ele><time>2026-04-18T09:46:50.999Z</time></trkpt><trkpt lat="45.97133154763354" lon="12.724781695274235"><ele>24.5</ele><time>2026-04-18T09:46:51.999Z</time></trkpt><trkpt lat="45.97121017230457" lon="12.72481384230805"><ele>24.75</ele><time>2026-04-18T09:46:52.999Z</time></trkpt><trkpt lat="45.97108601009918" lon="12.72485209837771"><ele>25.0</ele><time>2026-04-18T09:46:53.999Z</time></trkpt><trkpt lat="45.97096397507303" lon="12.724891586474783"><ele>24.75</ele><time>2026-04-18T09:46:54.999Z</time></trkpt><trkpt lat="45.970842821367306" lon="12.724925733087725"><ele>24.5</ele><time>2026-04-18T09:46:55.999Z</time></trkpt><trkpt lat="45.970724725804914" lon="12.724947763400516"><ele>24.25</ele><time>2026-04-18T09:46:56.999Z</time></trkpt><trkpt lat="45.97060398748667" lon="12.724938282010228"><ele>24.0</ele><time>2026-04-18T09:46:57.999Z</time></trkpt><trkpt lat="45.97048789863841" lon="12.724888086206944"><ele>24.0</ele><time>2026-04-18T09:46:58.999Z</time></trkpt><trkpt lat="45.97036427231376" lon="12.724828953788528"><ele>24.0</ele><time>2026-04-18T09:46:59.999Z</time></trkpt><trkpt lat="45.970240637584304" lon="12.724769519396851"><ele>24.0</ele><time>2026-04-18T09:47:00.999Z</time></trkpt><trkpt lat="45.970127025630774" lon="12.724738868809276"><ele>24.0</ele><time>2026-04-18T09:47:01.999Z</time></trkpt><trkpt lat="45.97002557462697" lon="12.724694184493233"><ele>23.799999999999997</ele><time>2026-04-18T09:47:02.999Z</time></trkpt><trkpt lat="45.96993422083851" lon="12.72464887082734"><ele>23.599999999999998</ele><time>2026-04-18T09:47:03.999Z</time></trkpt><trkpt lat="45.96983469436937" lon="12.724609135045691"><ele>23.4</ele><time>2026-04-18T09:47:04.999Z</time></trkpt><trkpt lat="45.96973620640139" lon="12.724572236283585"><ele>23.2</ele><time>2026-04-18T09:47:05.999Z</time></trkpt><trkpt lat="45.96963509368406" lon="12.724528873960876"><ele>23.0</ele><time>2026-04-18T09:47:06.999Z</time></trkpt><trkpt lat="45.969530432201765" lon="12.724498138709059"><ele>23.0</ele><time>2026-04-18T09:47:07.999Z</time></trkpt><trkpt lat="45.96943241719166" lon="12.724467105891316"><ele>23.0</ele><time>2026-04-18T09:47:08.999Z</time></trkpt><trkpt lat="45.9693375521305" lon="12.724439191330145"><ele>23.0</ele><time>2026-04-18T09:47:09.999Z</time></trkpt><trkpt lat="45.96925658292841" lon="12.724419054429935"><ele>23.0</ele><time>2026-04-18T09:47:10.999Z</time></trkpt><trkpt lat="45.96918599690763" lon="12.724408532139499"><ele>23.0</ele><time>2026-04-18T09:47:11.999Z</time></trkpt><trkpt lat="45.96910883890522" lon="12.72441076936581"><ele>23.0</ele><time>2026-04-18T09:47:12.999Z</time></trkpt><trkpt lat="45.969040286784654" lon="12.7244190456262"><ele>22.799999999999997</ele><time>2026-04-18T09:47:13.999Z</time></trkpt><trkpt lat="45.968925858503326" lon="12.724505988736642"><ele>22.6</ele><time>2026-04-18T09:47:15.999Z</time></trkpt><trkpt lat="45.968880136039935" lon="12.724606582070372"><ele>22.4</ele><time>2026-04-18T09:47:16.999Z</time></trkpt><trkpt lat="45.96883727529744" lon="12.724707882057624"><ele>22.200000000000003</ele><time>2026-04-18T09:47:17.999Z</time></trkpt><trkpt lat="45.968786179900384" lon="12.724807691036963"><ele>22.0</ele><time>2026-04-18T09:47:18.999Z</time></trkpt><trkpt lat="45.968705052115034" lon="12.724878125802064"><ele>22.0</ele><time>2026-04-18T09:47:19.999Z</time></trkpt><trkpt lat="45.968626998984654" lon="12.724959390344205"><ele>22.0</ele><time>2026-04-18T09:47:20.999Z</time></trkpt><trkpt lat="45.96854269671694" lon="12.725043555363737"><ele>22.0</ele><time>2026-04-18T09:47:21.999Z</time></trkpt><trkpt lat="45.96845660608303" lon="12.725129599837196"><ele>22.0</ele><time>2026-04-18T09:47:22.999Z</time></trkpt><trkpt lat="45.96837764758551" lon="12.725241088371524"><ele>22.0</ele><time>2026-04-18T09:47:23.999Z</time></trkpt><trkpt lat="45.96828722830395" lon="12.72533281454616"><ele>22.400000000000002</ele><time>2026-04-18T09:47:24.999Z</time></trkpt><trkpt lat="45.96819929475709" lon="12.725415610179398"><ele>22.8</ele><time>2026-04-18T09:47:25.999Z</time></trkpt><trkpt lat="45.9681102830894" lon="12.725511082726582"><ele>23.2</ele><time>2026-04-18T09:47:26.999Z</time></trkpt><trkpt lat="45.96801683291151" lon="12.725609641337712"><ele>23.6</ele><time>2026-04-18T09:47:27.999Z</time></trkpt><trkpt lat="45.967918434478406" lon="12.725702086778451"><ele>24.0</ele><time>2026-04-18T09:47:28.999Z</time></trkpt><trkpt lat="45.96781711799937" lon="12.725786968705611"><ele>24.0</ele><time>2026-04-18T09:47:29.999Z</time></trkpt><trkpt lat="45.9677109455908" lon="12.725866726578685"><ele>24.0</ele><time>2026-04-18T09:47:30.999Z</time></trkpt><trkpt lat="45.967599467127535" lon="12.725939734879137"><ele>24.0</ele><time>2026-04-18T09:47:31.999Z</time></trkpt><trkpt lat="45.96748580636945" lon="12.726000419401329"><ele>24.0</ele><time>2026-04-18T09:47:32.999Z</time></trkpt><trkpt lat="45.9673698896288" lon="12.726047825279151"><ele>23.5</ele><time>2026-04-18T09:47:33.999Z</time></trkpt><trkpt lat="45.96725173887271" lon="12.726085919822255"><ele>23.0</ele><time>2026-04-18T09:47:34.999Z</time></trkpt><trkpt lat="45.967132235854315" lon="12.726123569858053"><ele>22.5</ele><time>2026-04-18T09:47:35.999Z</time></trkpt><trkpt lat="45.96701199708553" lon="12.726161129893827"><ele>22.0</ele><time>2026-04-18T09:47:36.999Z</time></trkpt><trkpt lat="45.9668923566728" lon="12.726198774338673"><ele>22.0</ele><time>2026-04-18T09:47:37.999Z</time></trkpt><trkpt lat="45.96677027857401" lon="12.726231552889857"><ele>22.0</ele><time>2026-04-18T09:47:38.999Z</time></trkpt><trkpt lat="45.96664932400523" lon="12.726239021253951"><ele>22.0</ele><time>2026-04-18T09:47:39.999Z</time></trkpt><trkpt lat="45.96654724664577" lon="12.72626210330543"><ele>22.0</ele><time>2026-04-18T09:47:40.999Z</time></trkpt><trkpt lat="45.96644623426998" lon="12.72628371705774"><ele>21.833333333333332</ele><time>2026-04-18T09:47:41.999Z</time></trkpt><trkpt lat="45.966362390711595" lon="12.726323047624634"><ele>21.666666666666664</ele><time>2026-04-18T09:47:42.999Z</time></trkpt><trkpt lat="45.96628323739043" lon="12.726337350948548"><ele>21.5</ele><time>2026-04-18T09:47:43.999Z</time></trkpt><trkpt lat="45.96620305903858" lon="12.726331959332734"><ele>21.333333333333332</ele><time>2026-04-18T09:47:44.999Z</time></trkpt><trkpt lat="45.96611845480113" lon="12.72636534382818"><ele>21.166666666666668</ele><time>2026-04-18T09:47:45.999Z</time></trkpt><trkpt lat="45.96602484654703" lon="12.72637741019048"><ele>21.0</ele><time>2026-04-18T09:47:46.999Z</time></trkpt><trkpt lat="45.96592606321155" lon="12.726396131049517"><ele>21.6</ele><time>2026-04-18T09:47:47.999Z</time></trkpt><trkpt lat="45.96583613468978" lon="12.726415106029698"><ele>22.200000000000003</ele><time>2026-04-18T09:47:48.999Z</time></trkpt><trkpt lat="45.96573614629026" lon="12.726434513864483"><ele>22.799999999999997</ele><time>2026-04-18T09:47:49.999Z</time></trkpt><trkpt lat="45.96563228558515" lon="12.726453095384406"><ele>23.4</ele><time>2026-04-18T09:47:50.999Z</time></trkpt><trkpt lat="45.96552659965945" lon="12.726472353435522"><ele>24.0</ele><time>2026-04-18T09:47:51.999Z</time></trkpt><trkpt lat="45.96543318013672" lon="12.726490456986712"><ele>23.999999999999996</ele><time>2026-04-18T09:47:52.999Z</time></trkpt><trkpt lat="45.965348481001584" lon="12.72650622113966"><ele>24.0</ele><time>2026-04-18T09:47:53.999Z</time></trkpt><trkpt lat="45.9652609333387" lon="12.726523598429191"><ele>24.0</ele><time>2026-04-18T09:47:54.999Z</time></trkpt><trkpt lat="45.96519147428475" lon="12.726544093515422"><ele>24.0</ele><time>2026-04-18T09:47:55.999Z</time></trkpt><trkpt lat="45.9651255196966" lon="12.726563386253149"><ele>24.0</ele><time>2026-04-18T09:47:56.999Z</time></trkpt><trkpt lat="45.96506201184213" lon="12.726561605160091"><ele>23.999999999999996</ele><time>2026-04-18T09:47:57.999Z</time></trkpt><trkpt lat="45.964989856544335" lon="12.726574006975271"><ele>24.0</ele><time>2026-04-18T09:47:58.999Z</time></trkpt><trkpt lat="45.96491878037069" lon="12.726580918410308"><ele>24.166666666666668</ele><time>2026-04-18T09:47:59.999Z</time></trkpt><trkpt lat="45.96482615782753" lon="12.726571411508464"><ele>24.333333333333336</ele><time>2026-04-18T09:48:01.999Z</time></trkpt><trkpt lat="45.96474946674425" lon="12.72655255760191"><ele>24.5</ele><time>2026-04-18T09:48:03.999Z</time></trkpt><trkpt lat="45.964684566617954" lon="12.726539493499173"><ele>24.666666666666668</ele><time>2026-04-18T09:48:04.999Z</time></trkpt><trkpt lat="45.964619551776536" lon="12.726527642853322"><ele>24.833333333333336</ele><time>2026-04-18T09:48:05.999Z</time></trkpt><trkpt lat="45.964511229279054" lon="12.7265080039417"><ele>25.0</ele><time>2026-04-18T09:48:07.999Z</time></trkpt><trkpt lat="45.964407797816044" lon="12.726491359798395"><ele>25.000000000000004</ele><time>2026-04-18T09:48:09.999Z</time></trkpt><trkpt lat="45.964331898168446" lon="12.726479146061088"><ele>25.0</ele><time>2026-04-18T09:48:10.999Z</time></trkpt><trkpt lat="45.9642528370872" lon="12.72646707296549"><ele>25.0</ele><time>2026-04-18T09:48:11.999Z</time></trkpt><trkpt lat="45.964182130364726" lon="12.72645653967317"><ele>25.0</ele><time>2026-04-18T09:48:12.999Z</time></trkpt><trkpt lat="45.96411225032019" lon="12.72644641095939"><ele>25.0</ele><time>2026-04-18T09:48:13.999Z</time></trkpt><trkpt lat="45.964048413733266" lon="12.726438110036213"><ele>25.000000000000004</ele><time>2026-04-18T09:48:14.999Z</time></trkpt><trkpt lat="45.963964060798666" lon="12.726427141291035"><ele>25.0</ele><time>2026-04-18T09:48:15.999Z</time></trkpt><trkpt lat="45.963872584418716" lon="12.726416012792996"><ele>25.000000000000004</ele><time>2026-04-18T09:48:16.999Z</time></trkpt><trkpt lat="45.96376635040978" lon="12.726404826946753"><ele>25.0</ele><time>2026-04-18T09:48:18.999Z</time></trkpt><trkpt lat="45.9636918911772" lon="12.726398970194978"><ele>25.0</ele><time>2026-04-18T09:48:19.999Z</time></trkpt><trkpt lat="45.96362157389042" lon="12.726395411842667"><ele>25.0</ele><time>2026-04-18T09:48:20.999Z</time></trkpt><trkpt lat="45.963535299836124" lon="12.726393231796951"><ele>25.000000000000004</ele><time>2026-04-18T09:48:21.999Z</time></trkpt><trkpt lat="45.9634718677128" lon="12.726393231797825"><ele>25.0</ele><time>2026-04-18T09:48:22.999Z</time></trkpt><trkpt lat="45.963393124185224" lon="12.726393527146374"><ele>24.666666666666668</ele><time>2026-04-18T09:48:23.999Z</time></trkpt><trkpt lat="45.963316567036415" lon="12.72639743953097"><ele>24.333333333333336</ele><time>2026-04-18T09:48:24.999Z</time></trkpt><trkpt lat="45.96324913631437" lon="12.72640088551773"><ele>24.0</ele><time>2026-04-18T09:48:25.999Z</time></trkpt><trkpt lat="45.96317627008731" lon="12.726406544862852"><ele>23.666666666666668</ele><time>2026-04-18T09:48:26.999Z</time></trkpt><trkpt lat="45.963076520063375" lon="12.726414675334624"><ele>23.333333333333336</ele><time>2026-04-18T09:48:28.999Z</time></trkpt><trkpt lat="45.963012007747494" lon="12.726490900350077"><ele>23.0</ele><time>2026-04-18T09:48:31.999Z</time></trkpt><trkpt lat="45.96309485877869" lon="12.727297868442504"><ele>23.0</ele><time>2026-04-18T09:48:35Z</time></trkpt><trkpt lat="45.96307088588455" lon="12.727410313832985"><ele>23.0</ele><time>2026-04-18T09:48:37Z</time></trkpt><trkpt lat="45.963009947334164" lon="12.727451719866306"><ele>23.0</ele><time>2026-04-18T09:48:38Z</time></trkpt><trkpt lat="45.962896041258865" lon="12.727473722781449"><ele>23.0</ele><time>2026-04-18T09:48:39Z</time></trkpt><trkpt lat="45.96273743786981" lon="12.727498555959512"><ele>23.0</ele><time>2026-04-18T09:48:40Z</time></trkpt><trkpt lat="45.962545482940754" lon="12.727533491089469"><ele>22.799999999999997</ele><time>2026-04-18T09:48:41Z</time></trkpt><trkpt lat="45.962394281838556" lon="12.727567504466544"><ele>22.6</ele><time>2026-04-18T09:48:41.999Z</time></trkpt><trkpt lat="45.96227847825109" lon="12.72757246938237"><ele>22.4</ele><time>2026-04-18T09:48:42.999Z</time></trkpt><trkpt lat="45.962176696625995" lon="12.727569652376367"><ele>22.200000000000003</ele><time>2026-04-18T09:48:43.999Z</time></trkpt><trkpt lat="45.96209928371529" lon="12.727574912594385"><ele>22.0</ele><time>2026-04-18T09:48:44.999Z</time></trkpt><trkpt lat="45.96203099733188" lon="12.727605188812221"><ele>22.0</ele><time>2026-04-18T09:48:45.999Z</time></trkpt><trkpt lat="45.96195683347968" lon="12.727653928329493"><ele>22.0</ele><time>2026-04-18T09:48:46.999Z</time></trkpt><trkpt lat="45.961875588934596" lon="12.727689324949415"><ele>22.0</ele><time>2026-04-18T09:48:47.999Z</time></trkpt><trkpt lat="45.96180296269168" lon="12.727707662858986"><ele>22.0</ele><time>2026-04-18T09:48:48.999Z</time></trkpt><trkpt lat="45.96173433871745" lon="12.727716555658574"><ele>22.0</ele><time>2026-04-18T09:48:49.999Z</time></trkpt><trkpt lat="45.96166482783671" lon="12.727726920034595"><ele>22.0</ele><time>2026-04-18T09:48:50.999Z</time></trkpt><trkpt lat="45.96158179976421" lon="12.72773476303255"><ele>21.833333333333332</ele><time>2026-04-18T09:48:51.999Z</time></trkpt><trkpt lat="45.96151123202185" lon="12.727733478770995"><ele>21.666666666666664</ele><time>2026-04-18T09:48:52.999Z</time></trkpt><trkpt lat="45.96143625159865" lon="12.727718005707839"><ele>21.5</ele><time>2026-04-18T09:48:53.999Z</time></trkpt><trkpt lat="45.96135760922513" lon="12.727690793938908"><ele>21.333333333333332</ele><time>2026-04-18T09:48:54.999Z</time></trkpt><trkpt lat="45.96127166734003" lon="12.72767586520888"><ele>21.166666666666668</ele><time>2026-04-18T09:48:55.999Z</time></trkpt><trkpt lat="45.961189863770514" lon="12.727671486274115"><ele>21.0</ele><time>2026-04-18T09:48:56.999Z</time></trkpt><trkpt lat="45.961099184164496" lon="12.727663463816272"><ele>20.833333333333332</ele><time>2026-04-18T09:48:57.999Z</time></trkpt><trkpt lat="45.961000715728055" lon="12.727657856868042"><ele>20.666666666666668</ele><time>2026-04-18T09:48:58.999Z</time></trkpt><trkpt lat="45.960918084151636" lon="12.72762938118216"><ele>20.5</ele><time>2026-04-18T09:48:59.999Z</time></trkpt><trkpt lat="45.96084536375663" lon="12.727590724676118"><ele>20.333333333333336</ele><time>2026-04-18T09:49:00.999Z</time></trkpt><trkpt lat="45.96076375134" lon="12.72757367918402"><ele>20.166666666666668</ele><time>2026-04-18T09:49:01.999Z</time></trkpt><trkpt lat="45.960685669585786" lon="12.72757371077409"><ele>20.0</ele><time>2026-04-18T09:49:02.999Z</time></trkpt><trkpt lat="45.960623099190364" lon="12.727585286829237"><ele>20.833333333333336</ele><time>2026-04-18T09:49:03.999Z</time></trkpt><trkpt lat="45.960543492943785" lon="12.727603104297534"><ele>21.666666666666668</ele><time>2026-04-18T09:49:04.999Z</time></trkpt><trkpt lat="45.96046782556264" lon="12.727606981182856"><ele>22.5</ele><time>2026-04-18T09:49:05.999Z</time></trkpt><trkpt lat="45.96039545358584" lon="12.727599736840187"><ele>23.333333333333336</ele><time>2026-04-18T09:49:06.999Z</time></trkpt><trkpt lat="45.96032630098731" lon="12.72757644409252"><ele>24.166666666666668</ele><time>2026-04-18T09:49:07.999Z</time></trkpt><trkpt lat="45.960255881555305" lon="12.727544730275172"><ele>25.0</ele><time>2026-04-18T09:49:08.999Z</time></trkpt><trkpt lat="45.96018005504151" lon="12.727486529577604"><ele>25.000000000000004</ele><time>2026-04-18T09:49:09.999Z</time></trkpt><trkpt lat="45.9601212531506" lon="12.727452985705291"><ele>25.0</ele><time>2026-04-18T09:49:10.999Z</time></trkpt><trkpt lat="45.96006737863647" lon="12.727387487591278"><ele>25.0</ele><time>2026-04-18T09:49:15.999Z</time></trkpt><trkpt lat="45.960086571617325" lon="12.727271481468383"><ele>25.0</ele><time>2026-04-18T09:49:18.999Z</time></trkpt><trkpt lat="45.96007587309102" lon="12.727180490945884"><ele>25.000000000000004</ele><time>2026-04-18T09:49:20.999Z</time></trkpt><trkpt lat="45.95995447564663" lon="12.727133729282953"><ele>25.0</ele><time>2026-04-18T09:49:22.999Z</time></trkpt><trkpt lat="45.95983384964557" lon="12.727070556361765"><ele>24.4</ele><time>2026-04-18T09:49:24.999Z</time></trkpt><trkpt lat="45.95976413625501" lon="12.727022453074945"><ele>23.8</ele><time>2026-04-18T09:49:25.999Z</time></trkpt><trkpt lat="45.95968495393714" lon="12.726946989115877"><ele>23.200000000000003</ele><time>2026-04-18T09:49:27.999Z</time></trkpt><trkpt lat="45.959577166735464" lon="12.726894140880809"><ele>22.6</ele><time>2026-04-18T09:49:29.999Z</time></trkpt><trkpt lat="45.9594933621373" lon="12.726798161171013"><ele>22.0</ele><time>2026-04-18T09:49:31.999Z</time></trkpt><trkpt lat="45.95944121677376" lon="12.726742834116617"><ele>21.8</ele><time>2026-04-18T09:49:33.999Z</time></trkpt><trkpt lat="45.959401833531885" lon="12.726665506186002"><ele>21.6</ele><time>2026-04-18T09:49:34.999Z</time></trkpt><trkpt lat="45.95930180325443" lon="12.726535331163966"><ele>21.400000000000002</ele><time>2026-04-18T09:49:36.999Z</time></trkpt><trkpt lat="45.959247307170784" lon="12.726419885938133"><ele>21.200000000000003</ele><time>2026-04-18T09:49:38.999Z</time></trkpt><trkpt lat="45.95916223848567" lon="12.72642910327831"><ele>21.0</ele><time>2026-04-18T09:49:41.999Z</time></trkpt><trkpt lat="45.959110001592464" lon="12.726341321792"><ele>21.166666666666668</ele><time>2026-04-18T09:49:43.999Z</time></trkpt><trkpt lat="45.959063614682535" lon="12.726237375475186"><ele>21.333333333333332</ele><time>2026-04-18T09:49:44.999Z</time></trkpt><trkpt lat="45.959010580050744" lon="12.72614441790499"><ele>21.5</ele><time>2026-04-18T09:49:45.999Z</time></trkpt><trkpt lat="45.9589493399106" lon="12.72606516894503"><ele>21.666666666666664</ele><time>2026-04-18T09:49:47.999Z</time></trkpt><trkpt lat="45.958872954457895" lon="12.726038487051504"><ele>21.833333333333332</ele><time>2026-04-18T09:49:50.999Z</time></trkpt><trkpt lat="45.958801029806246" lon="12.725984707089417"><ele>22.0</ele><time>2026-04-18T09:49:52.999Z</time></trkpt><trkpt lat="45.95871962841526" lon="12.725867735212407"><ele>22.0</ele><time>2026-04-18T09:49:54.999Z</time></trkpt><trkpt lat="45.958662661758005" lon="12.725764499983931"><ele>22.0</ele><time>2026-04-18T09:49:57.999Z</time></trkpt><trkpt lat="45.95856656305103" lon="12.725743312986811"><ele>22.0</ele><time>2026-04-18T09:49:59.999Z</time></trkpt><trkpt lat="45.958513052491284" lon="12.725567838409214"><ele>22.0</ele><time>2026-04-18T09:50:01.999Z</time></trkpt><trkpt lat="45.95850927147195" lon="12.725452936142503"><ele>22.0</ele><time>2026-04-18T09:50:03.999Z</time></trkpt><trkpt lat="45.95839657123574" lon="12.725424867008156"><ele>22.200000000000003</ele><time>2026-04-18T09:50:06.999Z</time></trkpt><trkpt lat="45.95836387218558" lon="12.725239836810617"><ele>22.4</ele><time>2026-04-18T09:50:08.999Z</time></trkpt><trkpt lat="45.95831566838608" lon="12.72512059682782"><ele>22.6</ele><time>2026-04-18T09:50:10.999Z</time></trkpt><trkpt lat="45.95825804026222" lon="12.725071385263442"><ele>22.799999999999997</ele><time>2026-04-18T09:50:11.999Z</time></trkpt><trkpt lat="45.95818333443204" lon="12.725119621720795"><ele>23.0</ele><time>2026-04-18T09:50:15.999Z</time></trkpt><trkpt lat="45.958078173645106" lon="12.724984235672133"><ele>23.0</ele><time>2026-04-18T09:50:18.999Z</time></trkpt><trkpt lat="45.95803234931022" lon="12.724900460470408"><ele>23.0</ele><time>2026-04-18T09:50:22.999Z</time></trkpt><trkpt lat="45.95803617568219" lon="12.72479318544652"><ele>23.0</ele><time>2026-04-18T09:50:24.999Z</time></trkpt><trkpt lat="45.95801057146098" lon="12.72469416382687"><ele>23.0</ele><time>2026-04-18T09:50:25.999Z</time></trkpt><trkpt lat="45.95801401188316" lon="12.724577209516925"><ele>23.0</ele><time>2026-04-18T09:50:26.999Z</time></trkpt><trkpt lat="45.95803852005559" lon="12.724484848448153"><ele>23.0</ele><time>2026-04-18T09:50:29Z</time></trkpt><trkpt lat="45.958124553527675" lon="12.72442416803085"><ele>23.0</ele><time>2026-04-18T09:50:31Z</time></trkpt><trkpt lat="45.95819518256887" lon="12.724401717611505"><ele>23.0</ele><time>2026-04-18T09:50:33Z</time></trkpt><trkpt lat="45.958272873215066" lon="12.72429032500448"><ele>23.0</ele><time>2026-04-18T09:50:35Z</time></trkpt><trkpt lat="45.958288695423164" lon="12.724127290677565"><ele>23.0</ele><time>2026-04-18T09:50:37Z</time></trkpt><trkpt lat="45.958280945880226" lon="12.72401974493365"><ele>23.0</ele><time>2026-04-18T09:50:38Z</time></trkpt><trkpt lat="45.9582197283193" lon="12.723926075843854"><ele>22.833333333333336</ele><time>2026-04-18T09:50:41Z</time></trkpt><trkpt lat="45.958202442587286" lon="12.723832543156353"><ele>22.666666666666668</ele><time>2026-04-18T09:50:43Z</time></trkpt><trkpt lat="45.958218793230074" lon="12.723732744656777"><ele>22.5</ele><time>2026-04-18T09:50:45Z</time></trkpt><trkpt lat="45.95823023128154" lon="12.723634722385293"><ele>22.333333333333332</ele><time>2026-04-18T09:50:47Z</time></trkpt><trkpt lat="45.958245941901396" lon="12.723471629741358"><ele>22.166666666666664</ele><time>2026-04-18T09:50:49Z</time></trkpt><trkpt lat="45.95825376489151" lon="12.723328265691231"><ele>22.0</ele><time>2026-04-18T09:50:51Z</time></trkpt><trkpt lat="45.95825087712629" lon="12.723199199381945"><ele>22.0</ele><time>2026-04-18T09:50:53Z</time></trkpt><trkpt lat="45.95828602667184" lon="12.723031577229502"><ele>22.0</ele><time>2026-04-18T09:50:55Z</time></trkpt><trkpt lat="45.958317122427815" lon="12.722926806359945"><ele>22.0</ele><time>2026-04-18T09:50:56Z</time></trkpt><trkpt lat="45.958315591481096" lon="12.722783378608558"><ele>22.0</ele><time>2026-04-18T09:50:58Z</time></trkpt><trkpt lat="45.95833820892066" lon="12.72269023311078"><ele>22.0</ele><time>2026-04-18T09:51:00Z</time></trkpt><trkpt lat="45.95839330384821" lon="12.72256375405506"><ele>22.0</ele><time>2026-04-18T09:51:02Z</time></trkpt><trkpt lat="45.95842109082178" lon="12.722441947447908"><ele>22.0</ele><time>2026-04-18T09:51:04Z</time></trkpt><trkpt lat="45.95843864328549" lon="12.722331133271977"><ele>22.0</ele><time>2026-04-18T09:51:06Z</time></trkpt><trkpt lat="45.95840798768548" lon="12.722220308409465"><ele>22.0</ele><time>2026-04-18T09:51:09Z</time></trkpt><trkpt lat="45.95836333318682" lon="12.72214662337838"><ele>22.0</ele><time>2026-04-18T09:51:10Z</time></trkpt><trkpt lat="45.95832723000684" lon="12.721990640603538"><ele>22.0</ele><time>2026-04-18T09:51:12Z</time></trkpt><trkpt lat="45.95838419969548" lon="12.721912325361401"><ele>21.8</ele><time>2026-04-18T09:51:15Z</time></trkpt><trkpt lat="45.95839140683427" lon="12.721792120901009"><ele>21.6</ele><time>2026-04-18T09:51:17Z</time></trkpt><trkpt lat="45.95839577298427" lon="12.721622012366335"><ele>21.400000000000002</ele><time>2026-04-18T09:51:19Z</time></trkpt><trkpt lat="45.95844284588358" lon="12.721525191995825"><ele>21.200000000000003</ele><time>2026-04-18T09:51:20Z</time></trkpt><trkpt lat="45.95847983723127" lon="12.721427701064584"><ele>21.0</ele><time>2026-04-18T09:51:21Z</time></trkpt><trkpt lat="45.958459629591296" lon="12.72129679115547"><ele>21.0</ele><time>2026-04-18T09:51:23Z</time></trkpt><trkpt lat="45.95843574083639" lon="12.721144961357316"><ele>21.0</ele><time>2026-04-18T09:51:25Z</time></trkpt><trkpt lat="45.958479137795564" lon="12.72106217431857"><ele>21.0</ele><time>2026-04-18T09:51:26Z</time></trkpt><trkpt lat="45.958515424645896" lon="12.720975268529992"><ele>21.0</ele><time>2026-04-18T09:51:27Z</time></trkpt><trkpt lat="45.95854311940746" lon="12.720858523956931"><ele>21.0</ele><time>2026-04-18T09:51:29Z</time></trkpt><trkpt lat="45.95844894046974" lon="12.720816533042036"><ele>21.0</ele><time>2026-04-18T09:51:32Z</time></trkpt><trkpt lat="45.95840963798321" lon="12.720719799960657"><ele>20.833333333333332</ele><time>2026-04-18T09:51:34Z</time></trkpt><trkpt lat="45.95846115310156" lon="12.720592072120859"><ele>20.666666666666668</ele><time>2026-04-18T09:51:35Z</time></trkpt><trkpt lat="45.9584951364496" lon="12.720470356245917"><ele>20.5</ele><time>2026-04-18T09:51:36.999Z</time></trkpt><trkpt lat="45.958446296027866" lon="12.720394241078811"><ele>20.333333333333336</ele><time>2026-04-18T09:51:39.999Z</time></trkpt><trkpt lat="45.958432520461656" lon="12.720270732446066"><ele>20.166666666666668</ele><time>2026-04-18T09:51:42.999Z</time></trkpt><trkpt lat="45.9583797006365" lon="12.72020624251653"><ele>20.0</ele><time>2026-04-18T09:51:45.999Z</time></trkpt><trkpt lat="45.958313776637475" lon="12.72003324109783"><ele>20.0</ele><time>2026-04-18T09:51:47.999Z</time></trkpt><trkpt lat="45.95827774681939" lon="12.71995565880292"><ele>20.0</ele><time>2026-04-18T09:51:48.999Z</time></trkpt><trkpt lat="45.958215844508196" lon="12.719901037664062"><ele>20.0</ele><time>2026-04-18T09:51:49.999Z</time></trkpt><trkpt lat="45.9581534830565" lon="12.719848791492371"><ele>20.0</ele><time>2026-04-18T09:51:50.999Z</time></trkpt><trkpt lat="45.9581128613869" lon="12.71971946173084"><ele>20.0</ele><time>2026-04-18T09:51:52.999Z</time></trkpt><trkpt lat="45.958162778434534" lon="12.719586843944098"><ele>20.0</ele><time>2026-04-18T09:51:54.999Z</time></trkpt><trkpt lat="45.958221865175396" lon="12.719519467405961"><ele>20.0</ele><time>2026-04-18T09:51:55.999Z</time></trkpt><trkpt lat="45.958265341602285" lon="12.719407161740063"><ele>20.0</ele><time>2026-04-18T09:51:57.999Z</time></trkpt><trkpt lat="45.958213526092294" lon="12.719341057517468"><ele>20.0</ele><time>2026-04-18T09:51:58.999Z</time></trkpt><trkpt lat="45.958147464452324" lon="12.719267374880605"><ele>20.0</ele><time>2026-04-18T09:52:00.999Z</time></trkpt><trkpt lat="45.95806536243503" lon="12.71920865810494"><ele>20.0</ele><time>2026-04-18T09:52:02.999Z</time></trkpt><trkpt lat="45.95798563682832" lon="12.719101790633152"><ele>20.0</ele><time>2026-04-18T09:52:04.999Z</time></trkpt><trkpt lat="45.95793670018626" lon="12.719022021887312"><ele>20.0</ele><time>2026-04-18T09:52:05.999Z</time></trkpt><trkpt lat="45.95788780729056" lon="12.718873203421467"><ele>20.0</ele><time>2026-04-18T09:52:07.999Z</time></trkpt><trkpt lat="45.957917897536554" lon="12.718740899963459"><ele>20.0</ele><time>2026-04-18T09:52:09.999Z</time></trkpt><trkpt lat="45.95784014366731" lon="12.718729069790239"><ele>20.0</ele><time>2026-04-18T09:52:12.999Z</time></trkpt><trkpt lat="45.957761899084126" lon="12.718643266585582"><ele>20.0</ele><time>2026-04-18T09:52:14.999Z</time></trkpt><trkpt lat="45.957692088791426" lon="12.718520840072397"><ele>20.0</ele><time>2026-04-18T09:52:16.999Z</time></trkpt><trkpt lat="45.95768080730696" lon="12.71836873368273"><ele>20.0</ele><time>2026-04-18T09:52:18.999Z</time></trkpt><trkpt lat="45.957689160012336" lon="12.718278224458006"><ele>20.0</ele><time>2026-04-18T09:52:19.999Z</time></trkpt><trkpt lat="45.95769109900061" lon="12.718171255557396"><ele>20.0</ele><time>2026-04-18T09:52:20.999Z</time></trkpt><trkpt lat="45.95769418592466" lon="12.718025147747662"><ele>20.0</ele><time>2026-04-18T09:52:21.999Z</time></trkpt><trkpt lat="45.95772759588563" lon="12.717880514347629"><ele>20.0</ele><time>2026-04-18T09:52:22.999Z</time></trkpt><trkpt lat="45.957762892161675" lon="12.71778644370922"><ele>20.0</ele><time>2026-04-18T09:52:23.999Z</time></trkpt><trkpt lat="45.95780218469442" lon="12.717713444945767"><ele>20.0</ele><time>2026-04-18T09:52:24.999Z</time></trkpt><trkpt lat="45.957849555093496" lon="12.717644393941987"><ele>20.0</ele><time>2026-04-18T09:52:25.999Z</time></trkpt><trkpt lat="45.9579563020947" lon="12.717553135445721"><ele>20.0</ele><time>2026-04-18T09:52:27.999Z</time></trkpt><trkpt lat="45.95807584474879" lon="12.71746549819507"><ele>20.166666666666668</ele><time>2026-04-18T09:52:29.999Z</time></trkpt><trkpt lat="45.95815057511043" lon="12.71741310743788"><ele>20.333333333333336</ele><time>2026-04-18T09:52:31.999Z</time></trkpt><trkpt lat="45.95824896624461" lon="12.717452192690041"><ele>20.5</ele><time>2026-04-18T09:52:38Z</time></trkpt><trkpt lat="45.95834786227307" lon="12.717468926853508"><ele>20.666666666666668</ele><time>2026-04-18T09:52:40Z</time></trkpt><trkpt lat="45.95841752848408" lon="12.717459114126807"><ele>20.833333333333332</ele><time>2026-04-18T09:52:42Z</time></trkpt><trkpt lat="45.9584714516685" lon="12.717409750867205"><ele>21.0</ele><time>2026-04-18T09:52:43Z</time></trkpt><trkpt lat="45.95853542915696" lon="12.717427700539146"><ele>20.5</ele><time>2026-04-18T09:52:45Z</time></trkpt><trkpt lat="45.9586315330324" lon="12.717400153293152"><ele>20.0</ele><time>2026-04-18T09:52:48Z</time></trkpt><trkpt lat="45.958665600989434" lon="12.717286439415279"><ele>19.5</ele><time>2026-04-18T09:52:52Z</time></trkpt><trkpt lat="45.95858293051475" lon="12.717256868549503"><ele>19.0</ele><time>2026-04-18T09:52:56Z</time></trkpt><trkpt lat="45.95852178135391" lon="12.717311894517747"><ele>18.5</ele><time>2026-04-18T09:52:57Z</time></trkpt><trkpt lat="45.95846687752062" lon="12.717402487224879"><ele>18.0</ele><time>2026-04-18T09:52:59Z</time></trkpt><trkpt lat="45.95854932228922" lon="12.71745479241232"><ele>18.0</ele><time>2026-04-18T09:53:02Z</time></trkpt><trkpt lat="45.958525874862" lon="12.717580550909462"><ele>18.0</ele><time>2026-04-18T09:53:06Z</time></trkpt><trkpt lat="45.95835671995825" lon="12.717941943571795"><ele>18.0</ele><time>2026-04-18T09:53:11Z</time></trkpt><trkpt lat="45.95838263352178" lon="12.718047358638565"><ele>18.0</ele><time>2026-04-18T09:53:13Z</time></trkpt><trkpt lat="45.95847032654859" lon="12.71803174488714"><ele>18.0</ele><time>2026-04-18T09:53:15Z</time></trkpt><trkpt lat="45.95858847542144" lon="12.717983508145934"><ele>18.0</ele><time>2026-04-18T09:53:17Z</time></trkpt><trkpt lat="45.95865162944906" lon="12.717949879733768"><ele>18.0</ele><time>2026-04-18T09:53:18Z</time></trkpt><trkpt lat="45.958721142572266" lon="12.717919854803034"><ele>18.0</ele><time>2026-04-18T09:53:19Z</time></trkpt><trkpt lat="45.958785840731295" lon="12.717885208340293"><ele>18.0</ele><time>2026-04-18T09:53:20Z</time></trkpt><trkpt lat="45.95887479540977" lon="12.717868910992147"><ele>18.0</ele><time>2026-04-18T09:53:22Z</time></trkpt><trkpt lat="45.95897814421212" lon="12.717871850048237"><ele>18.0</ele><time>2026-04-18T09:53:24Z</time></trkpt><trkpt lat="45.959059234621066" lon="12.717867568479404"><ele>18.0</ele><time>2026-04-18T09:53:27Z</time></trkpt><trkpt lat="45.95905947402634" lon="12.717763117274277"><ele>18.0</ele><time>2026-04-18T09:53:29Z</time></trkpt><trkpt lat="45.95910299900313" lon="12.717656091425294"><ele>18.0</ele><time>2026-04-18T09:53:30Z</time></trkpt><trkpt lat="45.95912157604245" lon="12.717531063668948"><ele>18.0</ele><time>2026-04-18T09:53:31Z</time></trkpt><trkpt lat="45.95913671749001" lon="12.717407806647364"><ele>18.0</ele><time>2026-04-18T09:53:32Z</time></trkpt><trkpt lat="45.959138736758014" lon="12.71728708054889"><ele>18.0</ele><time>2026-04-18T09:53:33Z</time></trkpt><trkpt lat="45.95914153817139" lon="12.71714226428905"><ele>18.0</ele><time>2026-04-18T09:53:34Z</time></trkpt><trkpt lat="45.95915675032632" lon="12.716969204451134"><ele>18.0</ele><time>2026-04-18T09:53:35Z</time></trkpt><trkpt lat="45.95917034472221" lon="12.716813128330648"><ele>18.0</ele><time>2026-04-18T09:53:36Z</time></trkpt><trkpt lat="45.95918418548002" lon="12.71667921418468"><ele>18.0</ele><time>2026-04-18T09:53:37Z</time></trkpt><trkpt lat="45.95919540343893" lon="12.716580596611621"><ele>18.0</ele><time>2026-04-18T09:53:38Z</time></trkpt><trkpt lat="45.9592165847345" lon="12.716468657499906"><ele>18.0</ele><time>2026-04-18T09:53:39Z</time></trkpt><trkpt lat="45.95924725013191" lon="12.716347214887445"><ele>18.0</ele><time>2026-04-18T09:53:40Z</time></trkpt><trkpt lat="45.95928293870718" lon="12.716245337567836"><ele>18.0</ele><time>2026-04-18T09:53:41Z</time></trkpt><trkpt lat="45.95932684713725" lon="12.716166538035292"><ele>18.0</ele><time>2026-04-18T09:53:42Z</time></trkpt><trkpt lat="45.95936819454355" lon="12.716078942137889"><ele>18.166666666666668</ele><time>2026-04-18T09:53:43Z</time></trkpt><trkpt lat="45.959409529102444" lon="12.715988502830966"><ele>18.333333333333332</ele><time>2026-04-18T09:53:44Z</time></trkpt><trkpt lat="45.9594406229223" lon="12.715892969672822"><ele>18.5</ele><time>2026-04-18T09:53:45Z</time></trkpt><trkpt lat="45.95945898098682" lon="12.715789932811553"><ele>18.666666666666664</ele><time>2026-04-18T09:53:46Z</time></trkpt><trkpt lat="45.95946223596303" lon="12.715678719225151"><ele>18.833333333333332</ele><time>2026-04-18T09:53:47Z</time></trkpt><trkpt lat="45.959464952767895" lon="12.715565514202291"><ele>19.0</ele><time>2026-04-18T09:53:48Z</time></trkpt><trkpt lat="45.959467515973785" lon="12.715434407698773"><ele>19.0</ele><time>2026-04-18T09:53:49Z</time></trkpt><trkpt lat="45.95944958939559" lon="12.715293807270001"><ele>19.0</ele><time>2026-04-18T09:53:50Z</time></trkpt><trkpt lat="45.959457147075305" lon="12.715151037715284"><ele>19.0</ele><time>2026-04-18T09:53:51Z</time></trkpt><trkpt lat="45.95946972999902" lon="12.715023856754875"><ele>19.0</ele><time>2026-04-18T09:53:52Z</time></trkpt><trkpt lat="45.95948322454942" lon="12.714917768628874"><ele>19.0</ele><time>2026-04-18T09:53:53Z</time></trkpt><trkpt lat="45.959495179640456" lon="12.714768028294921"><ele>18.833333333333332</ele><time>2026-04-18T09:53:55Z</time></trkpt><trkpt lat="45.959460935578335" lon="12.714648204388226"><ele>18.666666666666664</ele><time>2026-04-18T09:53:57Z</time></trkpt><trkpt lat="45.95936801185827" lon="12.714631049481964"><ele>18.5</ele><time>2026-04-18T09:53:59Z</time></trkpt><trkpt lat="45.9592964009851" lon="12.714644564911204"><ele>18.333333333333332</ele><time>2026-04-18T09:54:01Z</time></trkpt><trkpt lat="45.95925835058963" lon="12.714534518434675"><ele>18.166666666666668</ele><time>2026-04-18T09:54:03Z</time></trkpt><trkpt lat="45.95930161554593" lon="12.714427253252808"><ele>18.0</ele><time>2026-04-18T09:54:04Z</time></trkpt><trkpt lat="45.959346663143066" lon="12.714278683779938"><ele>18.0</ele><time>2026-04-18T09:54:05Z</time></trkpt><trkpt lat="45.95935980660969" lon="12.71412635514138"><ele>18.0</ele><time>2026-04-18T09:54:06Z</time></trkpt><trkpt lat="45.95936584978124" lon="12.713965382303037"><ele>18.0</ele><time>2026-04-18T09:54:07Z</time></trkpt><trkpt lat="45.959363341004874" lon="12.713751446508558"><ele>18.0</ele><time>2026-04-18T09:54:08Z</time></trkpt><trkpt lat="45.95935559713338" lon="12.713561597204965"><ele>18.6</ele><time>2026-04-18T09:54:09Z</time></trkpt><trkpt lat="45.959349073064224" lon="12.713418950536417"><ele>19.200000000000003</ele><time>2026-04-18T09:54:10Z</time></trkpt><trkpt lat="45.959346620782114" lon="12.713284068482432"><ele>19.8</ele><time>2026-04-18T09:54:11Z</time></trkpt><trkpt lat="45.95933185858212" lon="12.713150326422731"><ele>20.400000000000002</ele><time>2026-04-18T09:54:12Z</time></trkpt><trkpt lat="45.95929159606206" lon="12.713010822999093"><ele>21.0</ele><time>2026-04-18T09:54:13Z</time></trkpt><trkpt lat="45.95924537653595" lon="12.712888359740635"><ele>21.0</ele><time>2026-04-18T09:54:14Z</time></trkpt><trkpt lat="45.95917148217606" lon="12.712722763846186"><ele>21.0</ele><time>2026-04-18T09:54:16Z</time></trkpt><trkpt lat="45.95911986849885" lon="12.712663839869398"><ele>21.0</ele><time>2026-04-18T09:54:18Z</time></trkpt><trkpt lat="45.95912782595331" lon="12.712764257617678"><ele>21.0</ele><time>2026-04-18T09:54:23.999Z</time></trkpt><trkpt lat="45.959052383351" lon="12.712721050198661"><ele>21.0</ele><time>2026-04-18T09:55:10Z</time></trkpt><trkpt lat="45.95898845840182" lon="12.712648601427109"><ele>21.0</ele><time>2026-04-18T09:55:12Z</time></trkpt><trkpt lat="45.95893292166449" lon="12.712533987167305"><ele>20.666666666666668</ele><time>2026-04-18T09:55:14Z</time></trkpt><trkpt lat="45.95887930560699" lon="12.71243484293378"><ele>20.333333333333332</ele><time>2026-04-18T09:55:17Z</time></trkpt><trkpt lat="45.95881786552591" lon="12.712378670794271"><ele>20.0</ele><time>2026-04-18T09:55:19Z</time></trkpt><trkpt lat="45.958789152841454" lon="12.712296773958759"><ele>19.666666666666664</ele><time>2026-04-18T09:55:20Z</time></trkpt><trkpt lat="45.95870021367707" lon="12.712294837847928"><ele>19.333333333333332</ele><time>2026-04-18T09:55:23Z</time></trkpt><trkpt lat="45.95864344784952" lon="12.71235568165268"><ele>19.0</ele><time>2026-04-18T09:55:25Z</time></trkpt><trkpt lat="45.95857825487284" lon="12.71233397019221"><ele>19.0</ele><time>2026-04-18T09:55:27Z</time></trkpt><trkpt lat="45.95855456473176" lon="12.712467467279819"><ele>19.0</ele><time>2026-04-18T09:55:29Z</time></trkpt><trkpt lat="45.95853307410523" lon="12.712582394244302"><ele>19.0</ele><time>2026-04-18T09:55:31Z</time></trkpt><trkpt lat="45.9584463094035" lon="12.71257685294134"><ele>19.0</ele><time>2026-04-18T09:55:33Z</time></trkpt><trkpt lat="45.958344551577405" lon="12.712548457904326"><ele>19.0</ele><time>2026-04-18T09:55:35Z</time></trkpt><trkpt lat="45.958245818395554" lon="12.712580344503444"><ele>19.4</ele><time>2026-04-18T09:55:38Z</time></trkpt><trkpt lat="45.95816637381214" lon="12.712552460753269"><ele>19.799999999999997</ele><time>2026-04-18T09:55:41Z</time></trkpt><trkpt lat="45.95804098024827" lon="12.712417956792828"><ele>20.200000000000003</ele><time>2026-04-18T09:55:43Z</time></trkpt><trkpt lat="45.95804398788156" lon="12.712297300772164"><ele>20.6</ele><time>2026-04-18T09:55:45Z</time></trkpt><trkpt lat="45.95799810112467" lon="12.712215524994097"><ele>21.0</ele><time>2026-04-18T09:55:47Z</time></trkpt><trkpt lat="45.95793943712372" lon="12.712161649611057"><ele>21.0</ele><time>2026-04-18T09:55:48Z</time></trkpt><trkpt lat="45.957891995477695" lon="12.712015194712144"><ele>21.0</ele><time>2026-04-18T09:55:50Z</time></trkpt><trkpt lat="45.95782925917915" lon="12.71193369034531"><ele>21.0</ele><time>2026-04-18T09:55:51Z</time></trkpt><trkpt lat="45.95778134048198" lon="12.711846102205241"><ele>21.0</ele><time>2026-04-18T09:55:52Z</time></trkpt><trkpt lat="45.957750160326405" lon="12.71174925991254"><ele>21.0</ele><time>2026-04-18T09:55:53Z</time></trkpt><trkpt lat="45.957736864191375" lon="12.71165477577688"><ele>21.0</ele><time>2026-04-18T09:55:54Z</time></trkpt><trkpt lat="45.957716630909026" lon="12.711553347256665"><ele>20.8</ele><time>2026-04-18T09:55:55Z</time></trkpt><trkpt lat="45.9576844838087" lon="12.71144094942061"><ele>20.6</ele><time>2026-04-18T09:55:56Z</time></trkpt><trkpt lat="45.95763756246382" lon="12.711318899006718"><ele>20.4</ele><time>2026-04-18T09:55:57Z</time></trkpt><trkpt lat="45.957582477056256" lon="12.711192907078429"><ele>20.2</ele><time>2026-04-18T09:55:58Z</time></trkpt><trkpt lat="45.95751071157629" lon="12.711066065170886"><ele>20.0</ele><time>2026-04-18T09:55:59Z</time></trkpt><trkpt lat="45.95742004047677" lon="12.710932390002974"><ele>19.833333333333336</ele><time>2026-04-18T09:56:00Z</time></trkpt><trkpt lat="45.95732864000349" lon="12.71082057524274"><ele>19.666666666666668</ele><time>2026-04-18T09:56:01Z</time></trkpt><trkpt lat="45.95724755418179" lon="12.710728932628156"><ele>19.5</ele><time>2026-04-18T09:56:02Z</time></trkpt><trkpt lat="45.957181817243914" lon="12.710656488269855"><ele>19.333333333333332</ele><time>2026-04-18T09:56:03Z</time></trkpt><trkpt lat="45.95712574797059" lon="12.710604567885005"><ele>19.166666666666664</ele><time>2026-04-18T09:56:04Z</time></trkpt><trkpt lat="45.95707444666138" lon="12.710550847983221"><ele>19.0</ele><time>2026-04-18T09:56:05Z</time></trkpt><trkpt lat="45.95698409988787" lon="12.710448446325373"><ele>19.0</ele><time>2026-04-18T09:56:07Z</time></trkpt><trkpt lat="45.956922421182995" lon="12.710406490885306"><ele>19.0</ele><time>2026-04-18T09:56:08Z</time></trkpt><trkpt lat="45.95679505509444" lon="12.71033149373711"><ele>19.0</ele><time>2026-04-18T09:56:09Z</time></trkpt><trkpt lat="45.95671855784548" lon="12.710235051088997"><ele>19.0</ele><time>2026-04-18T09:56:10Z</time></trkpt><trkpt lat="45.95666750631046" lon="12.71016141486741"><ele>19.0</ele><time>2026-04-18T09:56:11Z</time></trkpt><trkpt lat="45.956579874348414" lon="12.710057043331828"><ele>19.0</ele><time>2026-04-18T09:56:13Z</time></trkpt><trkpt lat="45.95651258343447" lon="12.710019878605173"><ele>19.0</ele><time>2026-04-18T09:56:15Z</time></trkpt><trkpt lat="45.95647227231277" lon="12.709916783742763"><ele>19.0</ele><time>2026-04-18T09:56:19Z</time></trkpt><trkpt lat="45.95645970086176" lon="12.709824582557701"><ele>19.0</ele><time>2026-04-18T09:56:20Z</time></trkpt><trkpt lat="45.95641723917955" lon="12.709681180755851"><ele>19.0</ele><time>2026-04-18T09:56:22Z</time></trkpt><trkpt lat="45.95633849292692" lon="12.709558498363968"><ele>19.0</ele><time>2026-04-18T09:56:24Z</time></trkpt><trkpt lat="45.95628697066373" lon="12.709468050144551"><ele>18.75</ele><time>2026-04-18T09:56:25Z</time></trkpt><trkpt lat="45.95622286089438" lon="12.709369834314808"><ele>18.5</ele><time>2026-04-18T09:56:26Z</time></trkpt><trkpt lat="45.95613792060007" lon="12.7092421785085"><ele>18.25</ele><time>2026-04-18T09:56:27Z</time></trkpt><trkpt lat="45.956039899401766" lon="12.709098246107601"><ele>18.0</ele><time>2026-04-18T09:56:28Z</time></trkpt><trkpt lat="45.95597435784955" lon="12.708990017351692"><ele>18.0</ele><time>2026-04-18T09:56:29Z</time></trkpt><trkpt lat="45.95592575506205" lon="12.708901329168132"><ele>18.0</ele><time>2026-04-18T09:56:30Z</time></trkpt><trkpt lat="45.955855665691054" lon="12.708793143189675"><ele>18.0</ele><time>2026-04-18T09:56:31Z</time></trkpt><trkpt lat="45.95579035237609" lon="12.708691593700076"><ele>18.0</ele><time>2026-04-18T09:56:32Z</time></trkpt><trkpt lat="45.9557410952942" lon="12.708611796059717"><ele>18.0</ele><time>2026-04-18T09:56:33Z</time></trkpt><trkpt lat="45.95568984333057" lon="12.708543514305767"><ele>18.0</ele><time>2026-04-18T09:56:34Z</time></trkpt><trkpt lat="45.95562603957335" lon="12.708499390563553"><ele>18.333333333333332</ele><time>2026-04-18T09:56:35Z</time></trkpt><trkpt lat="45.955529341588644" lon="12.708457451252265"><ele>18.666666666666668</ele><time>2026-04-18T09:56:37Z</time></trkpt><trkpt lat="45.955452841380456" lon="12.708358065631444"><ele>19.0</ele><time>2026-04-18T09:56:39Z</time></trkpt><trkpt lat="45.95542585068553" lon="12.708270020160144"><ele>19.333333333333336</ele><time>2026-04-18T09:56:40Z</time></trkpt><trkpt lat="45.95537936041294" lon="12.708163161737449"><ele>19.666666666666668</ele><time>2026-04-18T09:56:42Z</time></trkpt><trkpt lat="45.9553147566367" lon="12.708108539301596"><ele>20.0</ele><time>2026-04-18T09:56:44Z</time></trkpt><trkpt lat="45.95528988178088" lon="12.708015084847624"><ele>20.0</ele><time>2026-04-18T09:56:46Z</time></trkpt><trkpt lat="45.955324456996394" lon="12.707920875434178"><ele>20.0</ele><time>2026-04-18T09:56:49Z</time></trkpt><trkpt lat="45.95537780326833" lon="12.707844715725631"><ele>20.0</ele><time>2026-04-18T09:56:52Z</time></trkpt><trkpt lat="45.95536589846921" lon="12.707753553038506"><ele>20.0</ele><time>2026-04-18T09:56:54Z</time></trkpt><trkpt lat="45.955404928042256" lon="12.707528988019014"><ele>20.0</ele><time>2026-04-18T09:56:55Z</time></trkpt><trkpt lat="45.95535128079777" lon="12.707460527169877"><ele>20.0</ele><time>2026-04-18T09:56:58Z</time></trkpt><trkpt lat="45.95529748628658" lon="12.707513059690625"><ele>19.8</ele><time>2026-04-18T09:57:00Z</time></trkpt><trkpt lat="45.955231056011506" lon="12.707527540637894"><ele>19.6</ele><time>2026-04-18T09:57:02Z</time></trkpt><trkpt lat="45.95508357832609" lon="12.707508404561334"><ele>19.4</ele><time>2026-04-18T09:57:04Z</time></trkpt><trkpt lat="45.95501993953228" lon="12.707478170722805"><ele>19.2</ele><time>2026-04-18T09:57:05Z</time></trkpt><trkpt lat="45.954947810154096" lon="12.707491131812436"><ele>19.0</ele><time>2026-04-18T09:57:07Z</time></trkpt><trkpt lat="45.95480781818235" lon="12.707530894110585"><ele>19.333333333333332</ele><time>2026-04-18T09:57:09Z</time></trkpt><trkpt lat="45.954714049902165" lon="12.707508013560842"><ele>19.666666666666664</ele><time>2026-04-18T09:57:10Z</time></trkpt><trkpt lat="45.954638485596995" lon="12.707465998521752"><ele>20.0</ele><time>2026-04-18T09:57:11Z</time></trkpt><trkpt lat="45.95457069027256" lon="12.707418105465717"><ele>20.333333333333332</ele><time>2026-04-18T09:57:12Z</time></trkpt><trkpt lat="45.95451551240441" lon="12.70735862941177"><ele>20.666666666666668</ele><time>2026-04-18T09:57:13Z</time></trkpt><trkpt lat="45.95446827223851" lon="12.707294942415372"><ele>21.0</ele><time>2026-04-18T09:57:14Z</time></trkpt><trkpt lat="45.95442007168799" lon="12.707225320617377"><ele>21.0</ele><time>2026-04-18T09:57:16Z</time></trkpt><trkpt lat="45.95431894565706" lon="12.707274341345126"><ele>21.0</ele><time>2026-04-18T09:57:18Z</time></trkpt><trkpt lat="45.95423939229702" lon="12.70721941387412"><ele>21.0</ele><time>2026-04-18T09:57:19Z</time></trkpt><trkpt lat="45.95417500746104" lon="12.707235704773163"><ele>21.0</ele><time>2026-04-18T09:57:21Z</time></trkpt><trkpt lat="45.95413926911595" lon="12.707335752749838"><ele>21.0</ele><time>2026-04-18T09:57:24Z</time></trkpt><trkpt lat="45.95406612725741" lon="12.707325778037267"><ele>21.0</ele><time>2026-04-18T09:57:28Z</time></trkpt><trkpt lat="45.95405316701313" lon="12.70721637076988"><ele>21.0</ele><time>2026-04-18T09:57:31Z</time></trkpt><trkpt lat="45.95401554764863" lon="12.707120952115845"><ele>21.0</ele><time>2026-04-18T09:57:33Z</time></trkpt><trkpt lat="45.953945785079135" lon="12.70704691021236"><ele>21.0</ele><time>2026-04-18T09:57:35Z</time></trkpt><trkpt lat="45.95385409304773" lon="12.706998852340515"><ele>21.0</ele><time>2026-04-18T09:57:37Z</time></trkpt><trkpt lat="45.95375805507864" lon="12.707107526023337"><ele>21.0</ele><time>2026-04-18T09:57:38Z</time></trkpt><trkpt lat="45.9537075608187" lon="12.70717595615142"><ele>21.0</ele><time>2026-04-18T09:57:39Z</time></trkpt><trkpt lat="45.95372908800534" lon="12.707073135019375"><ele>21.0</ele><time>2026-04-18T09:57:40Z</time></trkpt><trkpt lat="45.95364432102867" lon="12.70710830341692"><ele>21.0</ele><time>2026-04-18T09:57:42Z</time></trkpt><trkpt lat="45.95357243967637" lon="12.707038739458387"><ele>21.0</ele><time>2026-04-18T09:57:45Z</time></trkpt><trkpt lat="45.953578218338976" lon="12.706946122284515"><ele>21.0</ele><time>2026-04-18T09:57:47Z</time></trkpt><trkpt lat="45.95350544850091" lon="12.706936396939653"><ele>21.0</ele><time>2026-04-18T09:57:50Z</time></trkpt><trkpt lat="45.95343634620296" lon="12.706943618854611"><ele>21.166666666666668</ele><time>2026-04-18T09:57:52Z</time></trkpt><trkpt lat="45.953350869088354" lon="12.70692798696661"><ele>21.333333333333332</ele><time>2026-04-18T09:57:54Z</time></trkpt><trkpt lat="45.953329744584195" lon="12.706834891567713"><ele>21.5</ele><time>2026-04-18T09:57:57Z</time></trkpt><trkpt lat="45.953372780934124" lon="12.706678463050014"><ele>21.666666666666664</ele><time>2026-04-18T09:58:00Z</time></trkpt><trkpt lat="45.95342524281508" lon="12.706624663298996"><ele>21.833333333333332</ele><time>2026-04-18T09:58:03Z</time></trkpt><trkpt lat="45.95351131660175" lon="12.706599981897588"><ele>22.0</ele><time>2026-04-18T09:58:05Z</time></trkpt><trkpt lat="45.95360522625491" lon="12.706636793767434"><ele>22.0</ele><time>2026-04-18T09:58:07Z</time></trkpt><trkpt lat="45.95368519900031" lon="12.70662640032554"><ele>22.0</ele><time>2026-04-18T09:58:09Z</time></trkpt><trkpt lat="45.95378815621217" lon="12.706574316508881"><ele>22.0</ele><time>2026-04-18T09:58:11Z</time></trkpt><trkpt lat="45.95388535736019" lon="12.706554076840195"><ele>22.0</ele><time>2026-04-18T09:58:13Z</time></trkpt><trkpt lat="45.95394469564011" lon="12.706515985678525"><ele>22.0</ele><time>2026-04-18T09:58:15Z</time></trkpt><trkpt lat="45.95405496277092" lon="12.706457224803858"><ele>22.0</ele><time>2026-04-18T09:58:16Z</time></trkpt><trkpt lat="45.95415988344016" lon="12.706393952559049"><ele>22.0</ele><time>2026-04-18T09:58:18Z</time></trkpt><trkpt lat="45.954284649762215" lon="12.706395924571131"><ele>22.0</ele><time>2026-04-18T09:58:20Z</time></trkpt><trkpt lat="45.95434569085548" lon="12.706420415727628"><ele>22.0</ele><time>2026-04-18T09:58:21Z</time></trkpt><trkpt lat="45.95444493543588" lon="12.706459058666118"><ele>22.0</ele><time>2026-04-18T09:58:23Z</time></trkpt><trkpt lat="45.95457787515582" lon="12.706482478248622"><ele>21.857142857142858</ele><time>2026-04-18T09:58:25Z</time></trkpt><trkpt lat="45.95464151976196" lon="12.706495199682115"><ele>21.714285714285715</ele><time>2026-04-18T09:58:26Z</time></trkpt><trkpt lat="45.95470268818828" lon="12.706519910253405"><ele>21.57142857142857</ele><time>2026-04-18T09:58:27Z</time></trkpt><trkpt lat="45.95476564590892" lon="12.706551793298612"><ele>21.42857142857143</ele><time>2026-04-18T09:58:28Z</time></trkpt><trkpt lat="45.95482786705488" lon="12.706592957258788"><ele>21.285714285714285</ele><time>2026-04-18T09:58:29Z</time></trkpt><trkpt lat="45.95489762210195" lon="12.706649579135258"><ele>21.142857142857142</ele><time>2026-04-18T09:58:30Z</time></trkpt><trkpt lat="45.95495676682184" lon="12.706711474623267"><ele>21.0</ele><time>2026-04-18T09:58:31Z</time></trkpt><trkpt lat="45.955016502608636" lon="12.706769479940661"><ele>20.6</ele><time>2026-04-18T09:58:32Z</time></trkpt><trkpt lat="45.9550860651574" lon="12.706832857138709"><ele>20.200000000000003</ele><time>2026-04-18T09:58:33Z</time></trkpt><trkpt lat="45.9551551050723" lon="12.706903455791766"><ele>19.799999999999997</ele><time>2026-04-18T09:58:34Z</time></trkpt><trkpt lat="45.95522499658515" lon="12.706971599274187"><ele>19.4</ele><time>2026-04-18T09:58:35Z</time></trkpt><trkpt lat="45.955284840576184" lon="12.707041902185948"><ele>19.0</ele><time>2026-04-18T09:58:36Z</time></trkpt><trkpt lat="45.9553611576159" lon="12.707188441103577"><ele>19.0</ele><time>2026-04-18T09:58:38Z</time></trkpt><trkpt lat="45.95541525711101" lon="12.707277228811863"><ele>19.0</ele><time>2026-04-18T09:58:38.999Z</time></trkpt><trkpt lat="45.955464386051815" lon="12.707364477608378"><ele>19.0</ele><time>2026-04-18T09:58:39.999Z</time></trkpt><trkpt lat="45.955509699657426" lon="12.707451995744602"><ele>19.0</ele><time>2026-04-18T09:58:40.999Z</time></trkpt><trkpt lat="45.95555464869214" lon="12.707546956322057"><ele>19.0</ele><time>2026-04-18T09:58:41.999Z</time></trkpt><trkpt lat="45.955597319746914" lon="12.707645275265248"><ele>19.0</ele><time>2026-04-18T09:58:42.999Z</time></trkpt><trkpt lat="45.95564855701901" lon="12.707767642870545"><ele>19.2</ele><time>2026-04-18T09:58:43.999Z</time></trkpt><trkpt lat="45.955714148794755" lon="12.707900561472663"><ele>19.4</ele><time>2026-04-18T09:58:44.999Z</time></trkpt><trkpt lat="45.95576845792121" lon="12.708011138510733"><ele>19.6</ele><time>2026-04-18T09:58:45.999Z</time></trkpt><trkpt lat="45.95581893268658" lon="12.708116333427828"><ele>19.8</ele><time>2026-04-18T09:58:46.999Z</time></trkpt><trkpt lat="45.95587393126693" lon="12.708224246091714"><ele>20.0</ele><time>2026-04-18T09:58:47.999Z</time></trkpt><trkpt lat="45.95593565612974" lon="12.708338245006905"><ele>19.666666666666668</ele><time>2026-04-18T09:58:48.999Z</time></trkpt><trkpt lat="45.95599706002391" lon="12.70845306585198"><ele>19.333333333333336</ele><time>2026-04-18T09:58:49.999Z</time></trkpt><trkpt lat="45.95604696211098" lon="12.708549547797439"><ele>19.0</ele><time>2026-04-18T09:58:50.999Z</time></trkpt><trkpt lat="45.956096362156714" lon="12.708631568220985"><ele>18.666666666666668</ele><time>2026-04-18T09:58:52Z</time></trkpt><trkpt lat="45.95614382370861" lon="12.708717598143485"><ele>18.333333333333332</ele><time>2026-04-18T09:58:53Z</time></trkpt><trkpt lat="45.95618691219922" lon="12.708806503923613"><ele>18.0</ele><time>2026-04-18T09:58:54Z</time></trkpt><trkpt lat="45.95622921119573" lon="12.708876136375169"><ele>18.0</ele><time>2026-04-18T09:58:55Z</time></trkpt><trkpt lat="45.956305308984334" lon="12.708992895726094"><ele>18.0</ele><time>2026-04-18T09:58:57Z</time></trkpt><trkpt lat="45.9563918993378" lon="12.709086428236574"><ele>18.0</ele><time>2026-04-18T09:58:59Z</time></trkpt><trkpt lat="45.95645318697165" lon="12.70912291504406"><ele>18.0</ele><time>2026-04-18T09:59:00Z</time></trkpt><trkpt lat="45.95656103170431" lon="12.709152310966958"><ele>18.0</ele><time>2026-04-18T09:59:02Z</time></trkpt><trkpt lat="45.95667819332656" lon="12.709203605095745"><ele>18.0</ele><time>2026-04-18T09:59:04Z</time></trkpt><trkpt lat="45.956750192632576" lon="12.709252213925538"><ele>18.0</ele><time>2026-04-18T09:59:05Z</time></trkpt><trkpt lat="45.95682872781103" lon="12.709284406620425"><ele>18.0</ele><time>2026-04-18T09:59:06Z</time></trkpt><trkpt lat="45.956911718719574" lon="12.709326105438137"><ele>18.0</ele><time>2026-04-18T09:59:07Z</time></trkpt><trkpt lat="45.95699481010425" lon="12.7093816084095"><ele>18.0</ele><time>2026-04-18T09:59:08Z</time></trkpt><trkpt lat="45.9570764261084" lon="12.709428395443853"><ele>18.0</ele><time>2026-04-18T09:59:09Z</time></trkpt><trkpt lat="45.9571489765437" lon="12.709469529242908"><ele>18.0</ele><time>2026-04-18T09:59:10Z</time></trkpt><trkpt lat="45.957223194200246" lon="12.709523899694819"><ele>18.0</ele><time>2026-04-18T09:59:11Z</time></trkpt><trkpt lat="45.95729510587631" lon="12.709592166392047"><ele>18.0</ele><time>2026-04-18T09:59:12Z</time></trkpt><trkpt lat="45.95736523500827" lon="12.709667209391599"><ele>18.0</ele><time>2026-04-18T09:59:13Z</time></trkpt><trkpt lat="45.95743606693911" lon="12.70974290875135"><ele>18.0</ele><time>2026-04-18T09:59:14Z</time></trkpt><trkpt lat="45.95750970334098" lon="12.70981772200575"><ele>18.0</ele><time>2026-04-18T09:59:15Z</time></trkpt><trkpt lat="45.95758434956795" lon="12.709890643700945"><ele>18.8</ele><time>2026-04-18T09:59:16Z</time></trkpt><trkpt lat="45.95766151112363" lon="12.709956471614952"><ele>19.6</ele><time>2026-04-18T09:59:17Z</time></trkpt><trkpt lat="45.95774501828699" lon="12.710019409278773"><ele>20.400000000000002</ele><time>2026-04-18T09:59:18Z</time></trkpt><trkpt lat="45.95783326759478" lon="12.710076778467869"><ele>21.200000000000003</ele><time>2026-04-18T09:59:19Z</time></trkpt><trkpt lat="45.95792351270285" lon="12.71012898275275"><ele>22.0</ele><time>2026-04-18T09:59:20Z</time></trkpt><trkpt lat="45.958010665131155" lon="12.710163916972032"><ele>22.0</ele><time>2026-04-18T09:59:21Z</time></trkpt><trkpt lat="45.95810224729217" lon="12.710179537715412"><ele>22.0</ele><time>2026-04-18T09:59:22Z</time></trkpt><trkpt lat="45.958197487139" lon="12.710192988104133"><ele>22.0</ele><time>2026-04-18T09:59:23Z</time></trkpt><trkpt lat="45.95828913959681" lon="12.7102109159999"><ele>22.0</ele><time>2026-04-18T09:59:24Z</time></trkpt><trkpt lat="45.9583799095455" lon="12.71023577679429"><ele>22.0</ele><time>2026-04-18T09:59:24.999Z</time></trkpt><trkpt lat="45.95845633309054" lon="12.710265054576515"><ele>21.833333333333332</ele><time>2026-04-18T09:59:25.999Z</time></trkpt><trkpt lat="45.95852639954028" lon="12.710298478470067"><ele>21.666666666666664</ele><time>2026-04-18T09:59:26.999Z</time></trkpt><trkpt lat="45.958601387504636" lon="12.710330894856261"><ele>21.5</ele><time>2026-04-18T09:59:27.999Z</time></trkpt><trkpt lat="45.95868341864134" lon="12.710368645627536"><ele>21.333333333333332</ele><time>2026-04-18T09:59:28.999Z</time></trkpt><trkpt lat="45.95876319912006" lon="12.710403212567995"><ele>21.166666666666668</ele><time>2026-04-18T09:59:29.999Z</time></trkpt><trkpt lat="45.95887538155848" lon="12.710461407093925"><ele>21.0</ele><time>2026-04-18T09:59:31.999Z</time></trkpt><trkpt lat="45.95897651639127" lon="12.710470204848418"><ele>21.0</ele><time>2026-04-18T09:59:33.999Z</time></trkpt><trkpt lat="45.959077605565454" lon="12.710378167592278"><ele>21.0</ele><time>2026-04-18T09:59:35.999Z</time></trkpt><trkpt lat="45.959126618051286" lon="12.7103023361622"><ele>21.0</ele><time>2026-04-18T09:59:36.999Z</time></trkpt><trkpt lat="45.95918808220796" lon="12.71022807794733"><ele>21.0</ele><time>2026-04-18T09:59:37.999Z</time></trkpt><trkpt lat="45.95924662628446" lon="12.710174110031959"><ele>21.0</ele><time>2026-04-18T09:59:38.999Z</time></trkpt><trkpt lat="45.95932292061494" lon="12.710098163086258"><ele>21.0</ele><time>2026-04-18T09:59:40.999Z</time></trkpt><trkpt lat="45.95938712764108" lon="12.71005208427796"><ele>21.0</ele><time>2026-04-18T09:59:58.999Z</time></trkpt><trkpt lat="45.959408877342355" lon="12.710144124963907"><ele>21.0</ele><time>2026-04-18T10:01:01Z</time></trkpt><trkpt lat="45.95945590710977" lon="12.710215964524995"><ele>21.0</ele><time>2026-04-18T10:01:08Z</time></trkpt><trkpt lat="45.95951932429823" lon="12.710294098245274"><ele>21.0</ele><time>2026-04-18T10:01:27Z</time></trkpt><trkpt lat="45.95951862341254" lon="12.710391072600794"><ele>21.0</ele><time>2026-04-18T10:06:52Z</time></trkpt><trkpt lat="45.9594751138988" lon="12.710479388437323"><ele>21.0</ele><time>2026-04-18T10:06:59Z</time></trkpt><trkpt lat="45.95940932897404" lon="12.710467293337087"><ele>21.0</ele><time>2026-04-18T10:07:06Z</time></trkpt><trkpt lat="45.95936649976265" lon="12.710391518026215"><ele>21.0</ele><time>2026-04-18T10:07:12.999Z</time></trkpt><trkpt lat="45.95933220338011" lon="12.710305239926992"><ele>21.0</ele><time>2026-04-18T10:07:28Z</time></trkpt><trkpt lat="45.9593091417338" lon="12.710205241072453"><ele>21.0</ele><time>2026-04-18T10:07:37Z</time></trkpt><trkpt lat="45.95936764310998" lon="12.710164771718706"><ele>21.0</ele><time>2026-04-18T10:07:47Z</time></trkpt><trkpt lat="45.95939839806286" lon="12.710255718943069"><ele>21.0</ele><time>2026-04-18T10:08:02Z</time></trkpt><trkpt lat="45.95943205650114" lon="12.710338640019772"><ele>21.0</ele><time>2026-04-18T10:08:35Z</time></trkpt><trkpt lat="45.959433174416645" lon="12.71023244838915"><ele>21.0</ele><time>2026-04-18T10:09:22Z</time></trkpt><trkpt lat="45.959401953736624" lon="12.710151720991618"><ele>21.0</ele><time>2026-04-18T10:09:30Z</time></trkpt><trkpt lat="45.9594086146358" lon="12.710061235429254"><ele>21.0</ele><time>2026-04-18T10:09:45Z</time></trkpt><trkpt lat="45.959531592550604" lon="12.709881325949272"><ele>21.0</ele><time>2026-04-18T10:14:23Z</time></trkpt><trkpt lat="45.95963228752749" lon="12.709790738532407"><ele>21.0</ele><time>2026-04-18T10:14:25Z</time></trkpt><trkpt lat="45.95972153856211" lon="12.709712229072506"><ele>21.0</ele><time>2026-04-18T10:14:27Z</time></trkpt><trkpt lat="45.959805545597554" lon="12.709646915762534"><ele>21.0</ele><time>2026-04-18T10:14:29Z</time></trkpt><trkpt lat="45.95986892709767" lon="12.70960906551015"><ele>21.0</ele><time>2026-04-18T10:14:30Z</time></trkpt><trkpt lat="45.95998483713821" lon="12.70954284795485"><ele>21.0</ele><time>2026-04-18T10:14:32Z</time></trkpt><trkpt lat="45.96007179073436" lon="12.709525387102136"><ele>21.0</ele><time>2026-04-18T10:14:33.999Z</time></trkpt><trkpt lat="45.960140532095764" lon="12.709517173741018"><ele>21.0</ele><time>2026-04-18T10:16:04Z</time></trkpt><trkpt lat="45.96025816926216" lon="12.709516927279388"><ele>21.285714285714285</ele><time>2026-04-18T10:16:06Z</time></trkpt><trkpt lat="45.960319899830935" lon="12.709545807491342"><ele>21.57142857142857</ele><time>2026-04-18T10:16:07Z</time></trkpt><trkpt lat="45.96037948697375" lon="12.709581722754834"><ele>21.857142857142858</ele><time>2026-04-18T10:16:08Z</time></trkpt><trkpt lat="45.96044574511706" lon="12.70961610668976"><ele>22.142857142857142</ele><time>2026-04-18T10:16:09Z</time></trkpt><trkpt lat="45.9605251279992" lon="12.709645726727448"><ele>22.428571428571427</ele><time>2026-04-18T10:16:10Z</time></trkpt><trkpt lat="45.96059866297815" lon="12.709672719685706"><ele>22.714285714285715</ele><time>2026-04-18T10:16:11Z</time></trkpt><trkpt lat="45.96066791930962" lon="12.709722776930935"><ele>23.0</ele><time>2026-04-18T10:16:12Z</time></trkpt><trkpt lat="45.96074373100526" lon="12.709752020981139"><ele>23.0</ele><time>2026-04-18T10:16:13Z</time></trkpt><trkpt lat="45.96082442927622" lon="12.709784940721825"><ele>23.0</ele><time>2026-04-18T10:16:14Z</time></trkpt><trkpt lat="45.96090098596293" lon="12.709815564073375"><ele>23.0</ele><time>2026-04-18T10:16:15Z</time></trkpt><trkpt lat="45.96098079396785" lon="12.709820986571769"><ele>23.0</ele><time>2026-04-18T10:16:16Z</time></trkpt><trkpt lat="45.96105356217798" lon="12.709854040081408"><ele>23.0</ele><time>2026-04-18T10:16:17Z</time></trkpt><trkpt lat="45.96112584442515" lon="12.709872226898208"><ele>23.0</ele><time>2026-04-18T10:16:18Z</time></trkpt><trkpt lat="45.96120162284914" lon="12.709875940231314"><ele>23.5</ele><time>2026-04-18T10:16:19Z</time></trkpt><trkpt lat="45.961287138517164" lon="12.709894051182228"><ele>24.0</ele><time>2026-04-18T10:16:20Z</time></trkpt><trkpt lat="45.96137069565109" lon="12.709935595749286"><ele>24.5</ele><time>2026-04-18T10:16:21Z</time></trkpt><trkpt lat="45.961453024001294" lon="12.709969937191888"><ele>25.0</ele><time>2026-04-18T10:16:22Z</time></trkpt><trkpt lat="45.96154392534709" lon="12.71000715205933"><ele>25.499999999999996</ele><time>2026-04-18T10:16:23Z</time></trkpt><trkpt lat="45.96163405723458" lon="12.71004059391095"><ele>26.0</ele><time>2026-04-18T10:16:24Z</time></trkpt><trkpt lat="45.961724779394245" lon="12.71007785161708"><ele>26.200000000000003</ele><time>2026-04-18T10:16:25Z</time></trkpt><trkpt lat="45.961817749509976" lon="12.71011350409743"><ele>26.400000000000002</ele><time>2026-04-18T10:16:26Z</time></trkpt><trkpt lat="45.961912517815605" lon="12.710143507230669"><ele>26.6</ele><time>2026-04-18T10:16:27Z</time></trkpt><trkpt lat="45.962010090078515" lon="12.710176330128009"><ele>26.8</ele><time>2026-04-18T10:16:28Z</time></trkpt><trkpt lat="45.96210921264796" lon="12.710213315080512"><ele>27.0</ele><time>2026-04-18T10:16:29Z</time></trkpt><trkpt lat="45.962201443568965" lon="12.710284250191906"><ele>27.0</ele><time>2026-04-18T10:16:30Z</time></trkpt><trkpt lat="45.96229869275354" lon="12.710320053890976"><ele>27.000000000000004</ele><time>2026-04-18T10:16:31Z</time></trkpt><trkpt lat="45.96239498144897" lon="12.710354430930861"><ele>27.000000000000004</ele><time>2026-04-18T10:16:32Z</time></trkpt><trkpt lat="45.96249056923438" lon="12.710383923300308"><ele>27.0</ele><time>2026-04-18T10:16:33Z</time></trkpt><trkpt lat="45.96258402815572" lon="12.710404013428516"><ele>27.0</ele><time>2026-04-18T10:16:34Z</time></trkpt><trkpt lat="45.96268000475596" lon="12.710410765224768"><ele>27.0</ele><time>2026-04-18T10:16:35Z</time></trkpt><trkpt lat="45.96277902827379" lon="12.710400236159652"><ele>27.000000000000004</ele><time>2026-04-18T10:16:36Z</time></trkpt><trkpt lat="45.96287359020347" lon="12.71036888270697"><ele>27.000000000000004</ele><time>2026-04-18T10:16:37Z</time></trkpt><trkpt lat="45.96296469072432" lon="12.710329941266664"><ele>27.0</ele><time>2026-04-18T10:16:38Z</time></trkpt><trkpt lat="45.96304951675827" lon="12.710287280078376"><ele>27.0</ele><time>2026-04-18T10:16:39Z</time></trkpt><trkpt lat="45.96314089430604" lon="12.7102389969208"><ele>27.0</ele><time>2026-04-18T10:16:40Z</time></trkpt><trkpt lat="45.96322488145043" lon="12.710177959557383"><ele>27.0</ele><time>2026-04-18T10:16:41Z</time></trkpt><trkpt lat="45.96330341120648" lon="12.710157369266247"><ele>27.0</ele><time>2026-04-18T10:16:42Z</time></trkpt><trkpt lat="45.96337497104621" lon="12.7101390686112"><ele>27.0</ele><time>2026-04-18T10:16:43Z</time></trkpt><trkpt lat="45.963446469054055" lon="12.71012151964681"><ele>27.0</ele><time>2026-04-18T10:16:44Z</time></trkpt><trkpt lat="45.96352042088788" lon="12.710103725121131"><ele>27.0</ele><time>2026-04-18T10:16:45Z</time></trkpt><trkpt lat="45.96358309310541" lon="12.710088847038111"><ele>26.400000000000002</ele><time>2026-04-18T10:16:46Z</time></trkpt><trkpt lat="45.963689671075414" lon="12.710058028302234"><ele>25.800000000000004</ele><time>2026-04-18T10:16:48Z</time></trkpt><trkpt lat="45.96377038236228" lon="12.710024548721849"><ele>25.2</ele><time>2026-04-18T10:16:50Z</time></trkpt><trkpt lat="45.96384992588752" lon="12.709979663376982"><ele>24.6</ele><time>2026-04-18T10:17:06.999Z</time></trkpt><trkpt lat="45.963786710360544" lon="12.709782033460275"><ele>24.0</ele><time>2026-04-18T10:17:07.999Z</time></trkpt><trkpt lat="45.963742126935756" lon="12.709694075655817"><ele>24.0</ele><time>2026-04-18T10:17:08.999Z</time></trkpt><trkpt lat="45.96370673526092" lon="12.709572333719562"><ele>24.0</ele><time>2026-04-18T10:17:09.999Z</time></trkpt><trkpt lat="45.96365969211188" lon="12.70941980347299"><ele>24.0</ele><time>2026-04-18T10:17:10.999Z</time></trkpt><trkpt lat="45.96361155066429" lon="12.709266002780154"><ele>24.0</ele><time>2026-04-18T10:17:11.999Z</time></trkpt><trkpt lat="45.96357293979581" lon="12.709149810931448"><ele>24.0</ele><time>2026-04-18T10:17:12.999Z</time></trkpt><trkpt lat="45.963536445692384" lon="12.709033457577473"><ele>24.0</ele><time>2026-04-18T10:17:13.999Z</time></trkpt><trkpt lat="45.963499598446006" lon="12.70891302187236"><ele>24.0</ele><time>2026-04-18T10:17:14.999Z</time></trkpt><trkpt lat="45.96346611648471" lon="12.708816949089924"><ele>24.0</ele><time>2026-04-18T10:17:15.999Z</time></trkpt><trkpt lat="45.96343584363881" lon="12.708729896684316"><ele>24.0</ele><time>2026-04-18T10:17:16.999Z</time></trkpt><trkpt lat="45.96340341152829" lon="12.708567202103152"><ele>24.0</ele><time>2026-04-18T10:17:18.999Z</time></trkpt><trkpt lat="45.963423143732435" lon="12.70847327049273"><ele>24.0</ele><time>2026-04-18T10:17:19.999Z</time></trkpt><trkpt lat="45.96348601673823" lon="12.708402384367515"><ele>24.0</ele><time>2026-04-18T10:17:20.999Z</time></trkpt><trkpt lat="45.963541361132165" lon="12.708299893770468"><ele>24.0</ele><time>2026-04-18T10:17:21.999Z</time></trkpt><trkpt lat="45.96360848938897" lon="12.708211395514084"><ele>24.0</ele><time>2026-04-18T10:17:22.999Z</time></trkpt><trkpt lat="45.963690321197575" lon="12.70808724887063"><ele>24.0</ele><time>2026-04-18T10:17:23.999Z</time></trkpt><trkpt lat="45.963797971820206" lon="12.707917215670399"><ele>24.333333333333336</ele><time>2026-04-18T10:17:24.999Z</time></trkpt><trkpt lat="45.96393011659461" lon="12.7077139448458"><ele>24.666666666666668</ele><time>2026-04-18T10:17:25.999Z</time></trkpt><trkpt lat="45.964060110608905" lon="12.70752877378672"><ele>25.0</ele><time>2026-04-18T10:17:26.999Z</time></trkpt><trkpt lat="45.96418548997399" lon="12.707354299742834"><ele>25.0</ele><time>2026-04-18T10:17:27.999Z</time></trkpt><trkpt lat="45.96428945998114" lon="12.707202000668374"><ele>25.0</ele><time>2026-04-18T10:17:28.999Z</time></trkpt><trkpt lat="45.96438064613991" lon="12.707068050766157"><ele>25.0</ele><time>2026-04-18T10:17:29.999Z</time></trkpt><trkpt lat="45.964472487640705" lon="12.706940716827503"><ele>25.0</ele><time>2026-04-18T10:17:30.999Z</time></trkpt><trkpt lat="45.96455650223432" lon="12.706824422181768"><ele>24.8</ele><time>2026-04-18T10:17:31.999Z</time></trkpt><trkpt lat="45.964632800491025" lon="12.706718226256413"><ele>24.6</ele><time>2026-04-18T10:17:32.999Z</time></trkpt><trkpt lat="45.964691148934264" lon="12.706632753170265"><ele>24.4</ele><time>2026-04-18T10:17:33.999Z</time></trkpt><trkpt lat="45.96476803006154" lon="12.706527548189538"><ele>24.2</ele><time>2026-04-18T10:17:35.999Z</time></trkpt><trkpt lat="45.96480049585992" lon="12.706441711688214"><ele>24.0</ele><time>2026-04-18T10:17:37.999Z</time></trkpt><trkpt lat="45.964723099515815" lon="12.706286522651002"><ele>24.0</ele><time>2026-04-18T10:17:39.999Z</time></trkpt><trkpt lat="45.964638870706644" lon="12.706193513757636"><ele>24.0</ele><time>2026-04-18T10:17:40.999Z</time></trkpt><trkpt lat="45.964540965614816" lon="12.706055116757742"><ele>24.0</ele><time>2026-04-18T10:17:41.999Z</time></trkpt><trkpt lat="45.96442139042908" lon="12.705889599866149"><ele>24.0</ele><time>2026-04-18T10:17:42.999Z</time></trkpt><trkpt lat="45.96427717440118" lon="12.705697688966396"><ele>24.25</ele><time>2026-04-18T10:17:43.999Z</time></trkpt><trkpt lat="45.964152845153315" lon="12.705524939359302"><ele>24.5</ele><time>2026-04-18T10:17:45Z</time></trkpt><trkpt lat="45.96405165490841" lon="12.705380088507459"><ele>24.75</ele><time>2026-04-18T10:17:46Z</time></trkpt><trkpt lat="45.96395840924198" lon="12.70524868433457"><ele>25.0</ele><time>2026-04-18T10:17:47Z</time></trkpt><trkpt lat="45.963871798737514" lon="12.705134053253225"><ele>25.0</ele><time>2026-04-18T10:17:48Z</time></trkpt><trkpt lat="45.963779436413056" lon="12.705015758529749"><ele>25.0</ele><time>2026-04-18T10:17:49Z</time></trkpt><trkpt lat="45.963696759226465" lon="12.70489056255039"><ele>25.0</ele><time>2026-04-18T10:17:50Z</time></trkpt><trkpt lat="45.96361448494655" lon="12.704761357908017"><ele>25.0</ele><time>2026-04-18T10:17:51Z</time></trkpt><trkpt lat="45.96353797967611" lon="12.7046474641949"><ele>25.0</ele><time>2026-04-18T10:17:52Z</time></trkpt><trkpt lat="45.963469121218104" lon="12.704548170903319"><ele>25.0</ele><time>2026-04-18T10:17:53Z</time></trkpt><trkpt lat="45.96340533311736" lon="12.70445484691954"><ele>25.0</ele><time>2026-04-18T10:17:54Z</time></trkpt><trkpt lat="45.96335748664095" lon="12.70437142551827"><ele>25.0</ele><time>2026-04-18T10:17:55Z</time></trkpt><trkpt lat="45.96326526972121" lon="12.704261201947665"><ele>25.0</ele><time>2026-04-18T10:17:57Z</time></trkpt><trkpt lat="45.96320162042693" lon="12.704155457107381"><ele>25.0</ele><time>2026-04-18T10:17:59Z</time></trkpt><trkpt lat="45.9633704996896" lon="12.703911023574157"><ele>25.0</ele><time>2026-04-18T10:18:01Z</time></trkpt><trkpt lat="45.96342887192918" lon="12.703844435006566"><ele>25.0</ele><time>2026-04-18T10:18:02Z</time></trkpt><trkpt lat="45.96349178237325" lon="12.70377091321345"><ele>25.0</ele><time>2026-04-18T10:18:03Z</time></trkpt><trkpt lat="45.96355434109964" lon="12.703683901474744"><ele>25.0</ele><time>2026-04-18T10:18:04Z</time></trkpt><trkpt lat="45.96361540106715" lon="12.703599344794478"><ele>25.0</ele><time>2026-04-18T10:18:05Z</time></trkpt><trkpt lat="45.96367877721146" lon="12.703514313646668"><ele>25.0</ele><time>2026-04-18T10:18:06Z</time></trkpt><trkpt lat="45.96374927493072" lon="12.703431207046638"><ele>25.0</ele><time>2026-04-18T10:18:07Z</time></trkpt><trkpt lat="45.96382423754674" lon="12.703348908541066"><ele>25.0</ele><time>2026-04-18T10:18:08Z</time></trkpt><trkpt lat="45.96390106398713" lon="12.70326598493163"><ele>24.6</ele><time>2026-04-18T10:18:09Z</time></trkpt><trkpt lat="45.963981786087714" lon="12.703176233076784"><ele>24.2</ele><time>2026-04-18T10:18:10Z</time></trkpt><trkpt lat="45.964065962149526" lon="12.703077116309242"><ele>23.799999999999997</ele><time>2026-04-18T10:18:11Z</time></trkpt><trkpt lat="45.964153814701476" lon="12.702976614456126"><ele>23.4</ele><time>2026-04-18T10:18:12Z</time></trkpt><trkpt lat="45.96424385716793" lon="12.702875040469547"><ele>23.0</ele><time>2026-04-18T10:18:13Z</time></trkpt><trkpt lat="45.964335880927244" lon="12.702773064042326"><ele>22.0</ele><time>2026-04-18T10:18:14Z</time></trkpt><trkpt lat="45.964428927742134" lon="12.702670185015991"><ele>21.0</ele><time>2026-04-18T10:18:15Z</time></trkpt><trkpt lat="45.964525054076596" lon="12.70256694514108"><ele>20.0</ele><time>2026-04-18T10:18:16Z</time></trkpt><trkpt lat="45.964613189210546" lon="12.702458322627923"><ele>19.0</ele><time>2026-04-18T10:18:17Z</time></trkpt><trkpt lat="45.96469344590749" lon="12.70236785204362"><ele>19.0</ele><time>2026-04-18T10:18:18Z</time></trkpt><trkpt lat="45.96476321004939" lon="12.702291771741764"><ele>19.0</ele><time>2026-04-18T10:18:19Z</time></trkpt><trkpt lat="45.964829455523116" lon="12.702219434098048"><ele>19.0</ele><time>2026-04-18T10:18:20Z</time></trkpt><trkpt lat="45.96489710213022" lon="12.7021392963965"><ele>19.0</ele><time>2026-04-18T10:18:21Z</time></trkpt><trkpt lat="45.96496966908407" lon="12.702062481743333"><ele>19.0</ele><time>2026-04-18T10:18:22Z</time></trkpt><trkpt lat="45.965049481135296" lon="12.702012266122306"><ele>19.0</ele><time>2026-04-18T10:18:23Z</time></trkpt><trkpt lat="45.96513782061262" lon="12.701995698159294"><ele>19.333333333333332</ele><time>2026-04-18T10:18:24Z</time></trkpt><trkpt lat="45.9652173010885" lon="12.701993484909396"><ele>19.666666666666664</ele><time>2026-04-18T10:18:25Z</time></trkpt><trkpt lat="45.96528608361523" lon="12.701955826172547"><ele>20.0</ele><time>2026-04-18T10:18:26Z</time></trkpt><trkpt lat="45.96534362603003" lon="12.701882442929023"><ele>20.333333333333332</ele><time>2026-04-18T10:18:27Z</time></trkpt><trkpt lat="45.96537952093992" lon="12.701786626639164"><ele>20.666666666666668</ele><time>2026-04-18T10:18:28Z</time></trkpt><trkpt lat="45.96536328828994" lon="12.701666610891149"><ele>21.0</ele><time>2026-04-18T10:18:29Z</time></trkpt><trkpt lat="45.965442595781184" lon="12.701555856849774"><ele>21.4</ele><time>2026-04-18T10:18:30Z</time></trkpt><trkpt lat="45.965514169692064" lon="12.701464972627289"><ele>21.8</ele><time>2026-04-18T10:18:31Z</time></trkpt><trkpt lat="45.96559502330284" lon="12.70137455296098"><ele>22.2</ele><time>2026-04-18T10:18:32Z</time></trkpt><trkpt lat="45.965676238698016" lon="12.701279878428958"><ele>22.599999999999998</ele><time>2026-04-18T10:18:33Z</time></trkpt><trkpt lat="45.96576094670033" lon="12.7011824342451"><ele>23.0</ele><time>2026-04-18T10:18:34Z</time></trkpt><trkpt lat="45.96585167283209" lon="12.701085267461634"><ele>22.75</ele><time>2026-04-18T10:18:35Z</time></trkpt><trkpt lat="45.965947859230496" lon="12.700991728854985"><ele>22.5</ele><time>2026-04-18T10:18:36Z</time></trkpt><trkpt lat="45.96605260629977" lon="12.700900683230733"><ele>22.25</ele><time>2026-04-18T10:18:37Z</time></trkpt><trkpt lat="45.96616324333861" lon="12.70081591191242"><ele>22.0</ele><time>2026-04-18T10:18:38Z</time></trkpt><trkpt lat="45.966274452697164" lon="12.700732289399634"><ele>22.0</ele><time>2026-04-18T10:18:39Z</time></trkpt><trkpt lat="45.96638619731174" lon="12.700643561665261"><ele>22.0</ele><time>2026-04-18T10:18:40Z</time></trkpt><trkpt lat="45.96650056304342" lon="12.70055377942406"><ele>22.0</ele><time>2026-04-18T10:18:41Z</time></trkpt><trkpt lat="45.966618304720065" lon="12.70046253410058"><ele>22.0</ele><time>2026-04-18T10:18:42Z</time></trkpt><trkpt lat="45.966738209540424" lon="12.700371862391133"><ele>22.0</ele><time>2026-04-18T10:18:43Z</time></trkpt><trkpt lat="45.966858115028415" lon="12.700277396560622"><ele>22.0</ele><time>2026-04-18T10:18:44Z</time></trkpt><trkpt lat="45.9669787815358" lon="12.700181637708534"><ele>22.0</ele><time>2026-04-18T10:18:45Z</time></trkpt><trkpt lat="45.9671012373514" lon="12.700086636171216"><ele>22.0</ele><time>2026-04-18T10:18:46Z</time></trkpt><trkpt lat="45.96722359566568" lon="12.699991218773283"><ele>22.75</ele><time>2026-04-18T10:18:47Z</time></trkpt><trkpt lat="45.96734743246932" lon="12.699896889329644"><ele>23.5</ele><time>2026-04-18T10:18:48Z</time></trkpt><trkpt lat="45.967470802761746" lon="12.699804265993968"><ele>24.25</ele><time>2026-04-18T10:18:49Z</time></trkpt><trkpt lat="45.967596000856844" lon="12.699715020477479"><ele>25.0</ele><time>2026-04-18T10:18:50Z</time></trkpt><trkpt lat="45.96772412703478" lon="12.699634702078523"><ele>25.25</ele><time>2026-04-18T10:18:51Z</time></trkpt><trkpt lat="45.96785636990543" lon="12.699564511625555"><ele>25.5</ele><time>2026-04-18T10:18:52Z</time></trkpt><trkpt lat="45.96798971991143" lon="12.699496636878338"><ele>25.75</ele><time>2026-04-18T10:18:53Z</time></trkpt><trkpt lat="45.9681225033175" lon="12.69942649934112"><ele>26.0</ele><time>2026-04-18T10:18:54Z</time></trkpt><trkpt lat="45.96825527607927" lon="12.699351452257314"><ele>25.5</ele><time>2026-04-18T10:18:55Z</time></trkpt><trkpt lat="45.96838847826301" lon="12.699278455554447"><ele>25.0</ele><time>2026-04-18T10:18:56Z</time></trkpt><trkpt lat="45.968522435163095" lon="12.699207580832889"><ele>24.5</ele><time>2026-04-18T10:18:57Z</time></trkpt><trkpt lat="45.96865503427159" lon="12.699135105721828"><ele>24.0</ele><time>2026-04-18T10:18:58Z</time></trkpt><trkpt lat="45.96878681209598" lon="12.699063990634478"><ele>24.0</ele><time>2026-04-18T10:18:59Z</time></trkpt><trkpt lat="45.968917914961544" lon="12.69899432338167"><ele>24.0</ele><time>2026-04-18T10:19:00Z</time></trkpt><trkpt lat="45.96904812614598" lon="12.69892457158068"><ele>24.0</ele><time>2026-04-18T10:19:01Z</time></trkpt><trkpt lat="45.969178509364816" lon="12.698856634711959"><ele>24.0</ele><time>2026-04-18T10:19:02Z</time></trkpt><trkpt lat="45.96930065942119" lon="12.698789196333074"><ele>24.0</ele><time>2026-04-18T10:19:03Z</time></trkpt><trkpt lat="45.969406348538264" lon="12.698724996588362"><ele>24.0</ele><time>2026-04-18T10:19:04Z</time></trkpt><trkpt lat="45.96950438873007" lon="12.69865845791531"><ele>24.0</ele><time>2026-04-18T10:19:05Z</time></trkpt><trkpt lat="45.96960359706566" lon="12.698577006728"><ele>24.0</ele><time>2026-04-18T10:19:06Z</time></trkpt><trkpt lat="45.9696822533894" lon="12.698493776738525"><ele>24.0</ele><time>2026-04-18T10:19:07Z</time></trkpt><trkpt lat="45.96975631922706" lon="12.698411904553494"><ele>23.833333333333332</ele><time>2026-04-18T10:19:08Z</time></trkpt><trkpt lat="45.96982383905922" lon="12.698328422952937"><ele>23.666666666666668</ele><time>2026-04-18T10:19:09Z</time></trkpt><trkpt lat="45.96988745182727" lon="12.698253596608053"><ele>23.5</ele><time>2026-04-18T10:19:10Z</time></trkpt><trkpt lat="45.96994800274657" lon="12.698185334246565"><ele>23.333333333333336</ele><time>2026-04-18T10:19:11Z</time></trkpt><trkpt lat="45.970002165301146" lon="12.698121541966014"><ele>23.166666666666668</ele><time>2026-04-18T10:19:12Z</time></trkpt><trkpt lat="45.97005328855326" lon="12.69805606168335"><ele>23.0</ele><time>2026-04-18T10:19:13Z</time></trkpt><trkpt lat="45.97010515238524" lon="12.697993851999687"><ele>23.333333333333336</ele><time>2026-04-18T10:19:14Z</time></trkpt><trkpt lat="45.970163356371124" lon="12.697952300666167"><ele>23.666666666666668</ele><time>2026-04-18T10:19:15Z</time></trkpt><trkpt lat="45.97023129945241" lon="12.697915469770411"><ele>24.0</ele><time>2026-04-18T10:19:16Z</time></trkpt><trkpt lat="45.970295600272614" lon="12.697851250962403"><ele>24.333333333333336</ele><time>2026-04-18T10:19:17Z</time></trkpt><trkpt lat="45.970348544490534" lon="12.697746829393784"><ele>24.666666666666668</ele><time>2026-04-18T10:19:18Z</time></trkpt><trkpt lat="45.970407188335564" lon="12.697636681928952"><ele>25.0</ele><time>2026-04-18T10:19:19Z</time></trkpt><trkpt lat="45.970483880485304" lon="12.697540183650874"><ele>25.0</ele><time>2026-04-18T10:19:20Z</time></trkpt><trkpt lat="45.970564448332496" lon="12.697444988084833"><ele>25.0</ele><time>2026-04-18T10:19:21Z</time></trkpt><trkpt lat="45.970640229693664" lon="12.69735411530784"><ele>25.0</ele><time>2026-04-18T10:19:22Z</time></trkpt><trkpt lat="45.970719818332505" lon="12.69725855482937"><ele>25.0</ele><time>2026-04-18T10:19:23Z</time></trkpt><trkpt lat="45.97080125017634" lon="12.697164204987581"><ele>25.0</ele><time>2026-04-18T10:19:24Z</time></trkpt><trkpt lat="45.970884618665735" lon="12.697069789249877"><ele>25.0</ele><time>2026-04-18T10:19:25Z</time></trkpt><trkpt lat="45.97096666531638" lon="12.696975369287728"><ele>25.0</ele><time>2026-04-18T10:19:26Z</time></trkpt><trkpt lat="45.97104566854275" lon="12.6968796169147"><ele>25.0</ele><time>2026-04-18T10:19:27Z</time></trkpt><trkpt lat="45.97112325721119" lon="12.696782342215757"><ele>25.0</ele><time>2026-04-18T10:19:27.999Z</time></trkpt><trkpt lat="45.97120157188947" lon="12.696681891766545"><ele>25.0</ele><time>2026-04-18T10:19:28.999Z</time></trkpt><trkpt lat="45.97128351783294" lon="12.696582778225938"><ele>25.0</ele><time>2026-04-18T10:19:29.999Z</time></trkpt><trkpt lat="45.97136812032752" lon="12.696481788267702"><ele>25.0</ele><time>2026-04-18T10:19:30.999Z</time></trkpt><trkpt lat="45.971453831081156" lon="12.696382541976009"><ele>25.0</ele><time>2026-04-18T10:19:31.999Z</time></trkpt><trkpt lat="45.97154140240857" lon="12.696280613041022"><ele>25.0</ele><time>2026-04-18T10:19:32.999Z</time></trkpt><trkpt lat="45.97162976742612" lon="12.696178688981364"><ele>25.0</ele><time>2026-04-18T10:19:33.999Z</time></trkpt><trkpt lat="45.97171801129018" lon="12.69607588672343"><ele>25.0</ele><time>2026-04-18T10:19:34.999Z</time></trkpt><trkpt lat="45.97180496371802" lon="12.695968347971535"><ele>25.0</ele><time>2026-04-18T10:19:35.999Z</time></trkpt><trkpt lat="45.971891778177145" lon="12.69585903042795"><ele>25.0</ele><time>2026-04-18T10:19:36.999Z</time></trkpt><trkpt lat="45.97197897577659" lon="12.695750524505064"><ele>25.0</ele><time>2026-04-18T10:19:37.999Z</time></trkpt><trkpt lat="45.97206955777842" lon="12.695643653457429"><ele>25.0</ele><time>2026-04-18T10:19:38.999Z</time></trkpt><trkpt lat="45.97215864347305" lon="12.695537107745789"><ele>25.0</ele><time>2026-04-18T10:19:39.999Z</time></trkpt><trkpt lat="45.97224975466686" lon="12.695430676903246"><ele>25.0</ele><time>2026-04-18T10:19:40.999Z</time></trkpt><trkpt lat="45.972342344036484" lon="12.69531943297083"><ele>25.0</ele><time>2026-04-18T10:19:41.999Z</time></trkpt><trkpt lat="45.972435174149425" lon="12.695209457299603"><ele>26.0</ele><time>2026-04-18T10:19:42.999Z</time></trkpt><trkpt lat="45.97252648193054" lon="12.695094281578456"><ele>27.0</ele><time>2026-04-18T10:19:43.999Z</time></trkpt><trkpt lat="45.97261666217483" lon="12.69498231704635"><ele>28.0</ele><time>2026-04-18T10:19:44.999Z</time></trkpt><trkpt lat="45.972709317100055" lon="12.694870337273962"><ele>29.0</ele><time>2026-04-18T10:19:45.999Z</time></trkpt><trkpt lat="45.97280184907604" lon="12.694759789471634"><ele>29.0</ele><time>2026-04-18T10:19:46.999Z</time></trkpt><trkpt lat="45.97289370620639" lon="12.694646771224726"><ele>29.0</ele><time>2026-04-18T10:19:47.999Z</time></trkpt><trkpt lat="45.972985485270996" lon="12.694534509789046"><ele>29.0</ele><time>2026-04-18T10:19:48.999Z</time></trkpt><trkpt lat="45.973080774959485" lon="12.69442254229105"><ele>29.0</ele><time>2026-04-18T10:19:49.999Z</time></trkpt><trkpt lat="45.9731759677861" lon="12.694311709935594"><ele>28.75</ele><time>2026-04-18T10:19:51Z</time></trkpt><trkpt lat="45.97327244213091" lon="12.694201171468912"><ele>28.5</ele><time>2026-04-18T10:19:52Z</time></trkpt><trkpt lat="45.97336793331801" lon="12.694089035684751"><ele>28.25</ele><time>2026-04-18T10:19:53Z</time></trkpt><trkpt lat="45.9734627111443" lon="12.693978625448334"><ele>28.0</ele><time>2026-04-18T10:19:54Z</time></trkpt><trkpt lat="45.97355865869489" lon="12.693868318305212"><ele>28.0</ele><time>2026-04-18T10:19:55Z</time></trkpt><trkpt lat="45.9736524772876" lon="12.693755980655402"><ele>28.0</ele><time>2026-04-18T10:19:56Z</time></trkpt><trkpt lat="45.97374774775959" lon="12.693645543714156"><ele>28.0</ele><time>2026-04-18T10:19:57Z</time></trkpt><trkpt lat="45.9738445439276" lon="12.693533080770573"><ele>28.0</ele><time>2026-04-18T10:19:58Z</time></trkpt><trkpt lat="45.973940446706486" lon="12.693421003734237"><ele>28.0</ele><time>2026-04-18T10:19:59Z</time></trkpt><trkpt lat="45.9740352865225" lon="12.693307434646437"><ele>28.0</ele><time>2026-04-18T10:20:00Z</time></trkpt><trkpt lat="45.97413097699054" lon="12.693192395199707"><ele>28.0</ele><time>2026-04-18T10:20:01Z</time></trkpt><trkpt lat="45.97422876959567" lon="12.693078229996551"><ele>28.0</ele><time>2026-04-18T10:20:02Z</time></trkpt><trkpt lat="45.97432991726457" lon="12.692968632604908"><ele>28.0</ele><time>2026-04-18T10:20:03Z</time></trkpt><trkpt lat="45.97442687395196" lon="12.692855469720064"><ele>28.0</ele><time>2026-04-18T10:20:04Z</time></trkpt><trkpt lat="45.97452345880823" lon="12.692740486457277"><ele>28.0</ele><time>2026-04-18T10:20:05Z</time></trkpt><trkpt lat="45.974620114514195" lon="12.692627289812581"><ele>28.0</ele><time>2026-04-18T10:20:06Z</time></trkpt><trkpt lat="45.97471594834555" lon="12.692510906414139"><ele>28.25</ele><time>2026-04-18T10:20:07Z</time></trkpt><trkpt lat="45.974813328012466" lon="12.692397354149877"><ele>28.5</ele><time>2026-04-18T10:20:08Z</time></trkpt><trkpt lat="45.97491110206696" lon="12.692285685826114"><ele>28.75</ele><time>2026-04-18T10:20:09Z</time></trkpt><trkpt lat="45.975008852899556" lon="12.692171877992665"><ele>29.0</ele><time>2026-04-18T10:20:10Z</time></trkpt><trkpt lat="45.97510793805069" lon="12.692058049900623"><ele>29.75</ele><time>2026-04-18T10:20:11Z</time></trkpt><trkpt lat="45.97520044402645" lon="12.691938008512379"><ele>30.5</ele><time>2026-04-18T10:20:12Z</time></trkpt><trkpt lat="45.97529665244849" lon="12.691830646967238"><ele>31.25</ele><time>2026-04-18T10:20:13Z</time></trkpt><trkpt lat="45.975401585456055" lon="12.691701970465944"><ele>32.0</ele><time>2026-04-18T10:20:14Z</time></trkpt><trkpt lat="45.975518190466246" lon="12.691552577992251"><ele>32.0</ele><time>2026-04-18T10:20:15Z</time></trkpt><trkpt lat="45.97566131283236" lon="12.69138092500086"><ele>32.0</ele><time>2026-04-18T10:20:16Z</time></trkpt><trkpt lat="45.975799424085515" lon="12.691232797399637"><ele>32.0</ele><time>2026-04-18T10:20:17Z</time></trkpt><trkpt lat="45.97591628019968" lon="12.691093992250035"><ele>32.25</ele><time>2026-04-18T10:20:18Z</time></trkpt><trkpt lat="45.97602447529973" lon="12.69096192192684"><ele>32.5</ele><time>2026-04-18T10:20:19Z</time></trkpt><trkpt lat="45.97613267554033" lon="12.690841077897554"><ele>32.75</ele><time>2026-04-18T10:20:20Z</time></trkpt><trkpt lat="45.97623684441122" lon="12.690721477029026"><ele>33.0</ele><time>2026-04-18T10:20:21Z</time></trkpt><trkpt lat="45.976330437533626" lon="12.690610870866598"><ele>33.0</ele><time>2026-04-18T10:20:22Z</time></trkpt><trkpt lat="45.976411879024326" lon="12.690515764085623"><ele>33.0</ele><time>2026-04-18T10:20:23Z</time></trkpt><trkpt lat="45.97647930790242" lon="12.690434916902415"><ele>33.0</ele><time>2026-04-18T10:20:24Z</time></trkpt><trkpt lat="45.97653895810583" lon="12.690385920142235"><ele>33.0</ele><time>2026-04-18T10:20:25Z</time></trkpt><trkpt lat="45.97662768387303" lon="12.690298916499666"><ele>33.0</ele><time>2026-04-18T10:20:27Z</time></trkpt><trkpt lat="45.97652374999902" lon="12.690056825309622"><ele>33.0</ele><time>2026-04-18T10:20:29Z</time></trkpt><trkpt lat="45.976455385022405" lon="12.689946752063927"><ele>33.0</ele><time>2026-04-18T10:20:30Z</time></trkpt><trkpt lat="45.97636961654501" lon="12.689785776301605"><ele>33.0</ele><time>2026-04-18T10:20:31Z</time></trkpt><trkpt lat="45.97625763668852" lon="12.689571661042345"><ele>33.0</ele><time>2026-04-18T10:20:32Z</time></trkpt><trkpt lat="45.976142442345555" lon="12.689350423665244"><ele>33.0</ele><time>2026-04-18T10:20:33Z</time></trkpt><trkpt lat="45.976040927802295" lon="12.689170485195223"><ele>33.0</ele><time>2026-04-18T10:20:34Z</time></trkpt><trkpt lat="45.975954484145525" lon="12.689000669685708"><ele>33.0</ele><time>2026-04-18T10:20:35Z</time></trkpt><trkpt lat="45.97587649152092" lon="12.688847309627945"><ele>33.0</ele><time>2026-04-18T10:20:36Z</time></trkpt><trkpt lat="45.975793469120305" lon="12.688694461571844"><ele>32.75</ele><time>2026-04-18T10:20:37Z</time></trkpt><trkpt lat="45.9757141863836" lon="12.688549351771142"><ele>32.5</ele><time>2026-04-18T10:20:38Z</time></trkpt><trkpt lat="45.9756379735094" lon="12.688404269825782"><ele>32.25</ele><time>2026-04-18T10:20:39Z</time></trkpt><trkpt lat="45.975559823604115" lon="12.68825607203907"><ele>32.0</ele><time>2026-04-18T10:20:40Z</time></trkpt><trkpt lat="45.97547916000167" lon="12.688110681418282"><ele>32.0</ele><time>2026-04-18T10:20:41Z</time></trkpt><trkpt lat="45.97539874912391" lon="12.687965821227575"><ele>32.0</ele><time>2026-04-18T10:20:42Z</time></trkpt><trkpt lat="45.975314762821135" lon="12.687812197041229"><ele>32.0</ele><time>2026-04-18T10:20:43Z</time></trkpt><trkpt lat="45.97523421557104" lon="12.68767086081466"><ele>32.0</ele><time>2026-04-18T10:20:44Z</time></trkpt><trkpt lat="45.97515460451903" lon="12.687528797542056"><ele>32.0</ele><time>2026-04-18T10:20:45Z</time></trkpt><trkpt lat="45.97508473217332" lon="12.687406356689383"><ele>32.0</ele><time>2026-04-18T10:20:46Z</time></trkpt><trkpt lat="45.97502247296873" lon="12.687292505388362"><ele>32.0</ele><time>2026-04-18T10:20:47Z</time></trkpt><trkpt lat="45.9749627229825" lon="12.687180068353824"><ele>32.0</ele><time>2026-04-18T10:20:48Z</time></trkpt><trkpt lat="45.97489076950098" lon="12.687042169125144"><ele>32.0</ele><time>2026-04-18T10:20:49Z</time></trkpt><trkpt lat="45.974815002457284" lon="12.686906433740432"><ele>31.999999999999996</ele><time>2026-04-18T10:20:50Z</time></trkpt><trkpt lat="45.97475078964632" lon="12.686787883647916"><ele>32.0</ele><time>2026-04-18T10:20:51Z</time></trkpt><trkpt lat="45.97469057100386" lon="12.686679390533527"><ele>32.0</ele><time>2026-04-18T10:20:52Z</time></trkpt><trkpt lat="45.97463749753342" lon="12.686579474616861"><ele>32.0</ele><time>2026-04-18T10:20:53Z</time></trkpt><trkpt lat="45.97459092823012" lon="12.686491548641841"><ele>31.999999999999996</ele><time>2026-04-18T10:20:54Z</time></trkpt><trkpt lat="45.974551744127794" lon="12.68641552873961"><ele>32.0</ele><time>2026-04-18T10:20:55Z</time></trkpt><trkpt lat="45.97453302953734" lon="12.686276328803341"><ele>31.999999999999996</ele><time>2026-04-18T10:20:57Z</time></trkpt><trkpt lat="45.97461278452759" lon="12.686137067815583"><ele>32.0</ele><time>2026-04-18T10:20:59Z</time></trkpt><trkpt lat="45.97467746532209" lon="12.686078445336946"><ele>32.0</ele><time>2026-04-18T10:21:00Z</time></trkpt><trkpt lat="45.97473779361169" lon="12.686014683248693"><ele>32.0</ele><time>2026-04-18T10:21:01Z</time></trkpt><trkpt lat="45.97479071241225" lon="12.685956144558256"><ele>31.999999999999996</ele><time>2026-04-18T10:21:02Z</time></trkpt><trkpt lat="45.97485335958311" lon="12.685885316345908"><ele>32.0</ele><time>2026-04-18T10:21:03Z</time></trkpt><trkpt lat="45.97491549418071" lon="12.68581878514817"><ele>32.0</ele><time>2026-04-18T10:21:04Z</time></trkpt><trkpt lat="45.97498287909523" lon="12.685756453597742"><ele>32.0</ele><time>2026-04-18T10:21:05Z</time></trkpt><trkpt lat="45.97504869607429" lon="12.685678501082156"><ele>32.0</ele><time>2026-04-18T10:21:06Z</time></trkpt><trkpt lat="45.97511516699302" lon="12.685603647635684"><ele>32.0</ele><time>2026-04-18T10:21:07Z</time></trkpt><trkpt lat="45.97519409158928" lon="12.685515769977012"><ele>32.0</ele><time>2026-04-18T10:21:08Z</time></trkpt><trkpt lat="45.97529054547268" lon="12.685403322383047"><ele>32.166666666666664</ele><time>2026-04-18T10:21:09Z</time></trkpt><trkpt lat="45.97536909765245" lon="12.685314212727869"><ele>32.33333333333333</ele><time>2026-04-18T10:21:10Z</time></trkpt><trkpt lat="45.97543658015563" lon="12.685237551579684"><ele>32.5</ele><time>2026-04-18T10:21:11Z</time></trkpt><trkpt lat="45.97549640052077" lon="12.685169039993854"><ele>32.666666666666664</ele><time>2026-04-18T10:21:12Z</time></trkpt><trkpt lat="45.97555021849307" lon="12.685110062246546"><ele>32.833333333333336</ele><time>2026-04-18T10:21:13Z</time></trkpt><trkpt lat="45.97560659334813" lon="12.685017360625114"><ele>33.0</ele><time>2026-04-18T10:21:15Z</time></trkpt><trkpt lat="45.975563319029995" lon="12.684911453398387"><ele>33.0</ele><time>2026-04-18T10:21:17Z</time></trkpt><trkpt lat="45.97553499835049" lon="12.684823272856168"><ele>33.0</ele><time>2026-04-18T10:21:18Z</time></trkpt><trkpt lat="45.97548998217567" lon="12.684746418672065"><ele>33.0</ele><time>2026-04-18T10:21:19Z</time></trkpt><trkpt lat="45.97543650381084" lon="12.68465121822018"><ele>33.0</ele><time>2026-04-18T10:21:20Z</time></trkpt><trkpt lat="45.975386316358644" lon="12.684573178971121"><ele>33.0</ele><time>2026-04-18T10:21:21Z</time></trkpt><trkpt lat="45.975301415728985" lon="12.68445839719574"><ele>33.0</ele><time>2026-04-18T10:21:23Z</time></trkpt><trkpt lat="45.97526810455546" lon="12.684337921525152"><ele>33.0</ele><time>2026-04-18T10:21:25Z</time></trkpt><trkpt lat="45.97536167288037" lon="12.68421387068177"><ele>33.0</ele><time>2026-04-18T10:21:27Z</time></trkpt><trkpt lat="45.97543439352348" lon="12.684113830848862"><ele>33.0</ele><time>2026-04-18T10:21:28Z</time></trkpt><trkpt lat="45.9755351669268" lon="12.684011292974862"><ele>33.0</ele><time>2026-04-18T10:21:29Z</time></trkpt><trkpt lat="45.97566520308311" lon="12.683907251617146"><ele>33.0</ele><time>2026-04-18T10:21:30Z</time></trkpt><trkpt lat="45.975807083860865" lon="12.68374564097767"><ele>33.0</ele><time>2026-04-18T10:21:31Z</time></trkpt><trkpt lat="45.97593240926808" lon="12.68362362868663"><ele>33.0</ele><time>2026-04-18T10:21:32Z</time></trkpt><trkpt lat="45.97606509040155" lon="12.683494553230299"><ele>34.25</ele><time>2026-04-18T10:21:33Z</time></trkpt><trkpt lat="45.97617573106158" lon="12.683378711999797"><ele>35.5</ele><time>2026-04-18T10:21:34Z</time></trkpt><trkpt lat="45.976280719659" lon="12.683268062159234"><ele>36.75</ele><time>2026-04-18T10:21:35Z</time></trkpt><trkpt lat="45.97638711675506" lon="12.683127901622216"><ele>38.0</ele><time>2026-04-18T10:21:36Z</time></trkpt><trkpt lat="45.976492058364116" lon="12.683020293828996"><ele>38.0</ele><time>2026-04-18T10:21:37Z</time></trkpt><trkpt lat="45.976599802110776" lon="12.682915982831279"><ele>38.0</ele><time>2026-04-18T10:21:38Z</time></trkpt><trkpt lat="45.9767045944448" lon="12.682798501750222"><ele>38.0</ele><time>2026-04-18T10:21:39Z</time></trkpt><trkpt lat="45.9768152014791" lon="12.68268231261414"><ele>38.0</ele><time>2026-04-18T10:21:40Z</time></trkpt><trkpt lat="45.97692599050262" lon="12.682568026287463"><ele>38.199999999999996</ele><time>2026-04-18T10:21:41Z</time></trkpt><trkpt lat="45.97703338123233" lon="12.682465155873066"><ele>38.4</ele><time>2026-04-18T10:21:42Z</time></trkpt><trkpt lat="45.9771220983046" lon="12.682370739227997"><ele>38.599999999999994</ele><time>2026-04-18T10:21:43Z</time></trkpt><trkpt lat="45.977202346703244" lon="12.682285103933959"><ele>38.8</ele><time>2026-04-18T10:21:44Z</time></trkpt><trkpt lat="45.97727735486667" lon="12.68220394981444"><ele>39.0</ele><time>2026-04-18T10:21:45Z</time></trkpt><trkpt lat="45.97734190821723" lon="12.682133466637852"><ele>39.0</ele><time>2026-04-18T10:21:46Z</time></trkpt><trkpt lat="45.97740288840916" lon="12.682065240780853"><ele>39.0</ele><time>2026-04-18T10:21:47Z</time></trkpt><trkpt lat="45.97748593676133" lon="12.681970375273957"><ele>39.0</ele><time>2026-04-18T10:21:49Z</time></trkpt><trkpt lat="45.977550246855536" lon="12.68195737386921"><ele>39.0</ele><time>2026-04-18T10:21:53Z</time></trkpt><trkpt lat="45.97762576275907" lon="12.682166033015694"><ele>39.0</ele><time>2026-04-18T10:21:55Z</time></trkpt><trkpt lat="45.9776908749783" lon="12.682274417925253"><ele>39.2</ele><time>2026-04-18T10:21:56Z</time></trkpt><trkpt lat="45.97773091706429" lon="12.682409611986666"><ele>39.4</ele><time>2026-04-18T10:21:57Z</time></trkpt><trkpt lat="45.97776931951728" lon="12.682498734613196"><ele>39.6</ele><time>2026-04-18T10:21:58Z</time></trkpt><trkpt lat="45.97781931344266" lon="12.682614758132098"><ele>39.8</ele><time>2026-04-18T10:22:00Z</time></trkpt><trkpt lat="45.97794186530468" lon="12.68249212012967"><ele>40.0</ele><time>2026-04-18T10:22:03Z</time></trkpt><trkpt lat="45.977966770279075" lon="12.682353375765976"><ele>40.0</ele><time>2026-04-18T10:22:05Z</time></trkpt><trkpt lat="45.97798924943445" lon="12.682265458088455"><ele>40.0</ele><time>2026-04-18T10:22:06Z</time></trkpt><trkpt lat="45.978015277451725" lon="12.682159822986378"><ele>40.0</ele><time>2026-04-18T10:22:07Z</time></trkpt><trkpt lat="45.97804945974277" lon="12.682038476996306"><ele>40.0</ele><time>2026-04-18T10:22:08Z</time></trkpt><trkpt lat="45.97809636484723" lon="12.681891264937558"><ele>40.0</ele><time>2026-04-18T10:22:09Z</time></trkpt><trkpt lat="45.978145656265866" lon="12.681766176776096"><ele>40.0</ele><time>2026-04-18T10:22:10Z</time></trkpt><trkpt lat="45.97818864771846" lon="12.681672290763625"><ele>40.16666666666667</ele><time>2026-04-18T10:22:11Z</time></trkpt><trkpt lat="45.97823179361033" lon="12.681579307633315"><ele>40.333333333333336</ele><time>2026-04-18T10:22:12Z</time></trkpt><trkpt lat="45.9782827578422" lon="12.681490019254461"><ele>40.5</ele><time>2026-04-18T10:22:13Z</time></trkpt><trkpt lat="45.97833998150297" lon="12.681435441111532"><ele>40.666666666666664</ele><time>2026-04-18T10:22:14Z</time></trkpt><trkpt lat="45.97840013391017" lon="12.681368173876669"><ele>40.83333333333333</ele><time>2026-04-18T10:22:15Z</time></trkpt><trkpt lat="45.97846229168452" lon="12.681295388056263"><ele>41.0</ele><time>2026-04-18T10:22:16Z</time></trkpt><trkpt lat="45.978531087179526" lon="12.681214810553735"><ele>41.0</ele><time>2026-04-18T10:22:17Z</time></trkpt><trkpt lat="45.97858605042887" lon="12.681149729325046"><ele>41.0</ele><time>2026-04-18T10:22:18Z</time></trkpt><trkpt lat="45.97867904389186" lon="12.681031332141615"><ele>41.0</ele><time>2026-04-18T10:22:20Z</time></trkpt><trkpt lat="45.97875919705073" lon="12.680939456130119"><ele>41.0</ele><time>2026-04-18T10:22:21.999Z</time></trkpt><trkpt lat="45.97882377447831" lon="12.680862247630401"><ele>41.0</ele><time>2026-04-18T10:22:23.999Z</time></trkpt><trkpt lat="45.97888274918785" lon="12.680804010330963"><ele>41.0</ele><time>2026-04-18T10:22:26.999Z</time></trkpt><trkpt lat="45.97893644303343" lon="12.680744423782905"><ele>41.0</ele><time>2026-04-18T10:24:26.029Z</time></trkpt><trkpt lat="45.978885262652874" lon="12.680801220940833"><ele>41.0</ele><time>2026-04-18T10:24:30.031Z</time></trkpt><trkpt lat="45.97893873044844" lon="12.680741885229013"><ele>41.0</ele><time>2026-04-18T10:25:18.016Z</time></trkpt><trkpt lat="45.97904405582262" lon="12.68066471706956"><ele>41.0</ele><time>2026-04-18T10:25:23.014Z</time></trkpt><trkpt lat="45.978968118412965" lon="12.680682255725282"><ele>41.0</ele><time>2026-04-18T10:25:42.02Z</time></trkpt><trkpt lat="45.9789131380285" lon="12.680770285999122"><ele>41.0</ele><time>2026-04-18T10:25:43.019Z</time></trkpt></trkseg></trk></gpx>